# Wetter Temperatur Luftdruck Luftfeuchtigkeit Sichtweite Windgeschwindigkeit Windrichtung Zeit
1 Clouds 0 1006 97 330 3.13 162 14:37 01.02.2023
2 Clouds 0 1006 91 9402 3.55 176 13:20 01.02.2023
3 Clouds 0 1006 91 9402 3.55 176 12:50 01.02.2023
4 Snow 0 1006 92 4630 3.55 180 11:56 01.02.2023
5 Clouds 0 1006 90 10000 2.91 180 08:56 01.02.2023
6 Clouds 0 1004 92 9843 3.11 210 03:18 01.02.2023
7 Clouds 0 1003 96 509 4.14 202 21:38 31.01.2023
8 Clouds 0 1003 92 10000 4.83 208 19:48 31.01.2023
9 Clouds 0 1003 92 5433 4.95 208 18:50 31.01.2023
10 Clouds 0 1002 89 10000 5.02 213 15:37 31.01.2023
11 Clouds 0 1001 87 10000 5.55 218 15:18 31.01.2023
12 Clouds 0 1001 87 10000 5.55 218 14:52 31.01.2023
13 Clouds 0 1000 86 10000 6.19 214 12:19 31.01.2023
14 Clouds 0 1000 87 10000 5.95 213 11:20 31.01.2023
15 Clouds -1 1000 90 10000 5.61 212 09:53 31.01.2023
16 Clouds -1 1000 91 10000 5.51 215 08:59 31.01.2023
17 Clouds -1 1000 91 10000 5.51 215 08:35 31.01.2023
18 Clouds -2 999 90 10000 5.6 214 05:39 31.01.2023
19 Clouds -2 997 91 1679 6.27 208 23:57 30.01.2023
20 Clouds -2 997 92 1339 6.33 208 22:51 30.01.2023
21 Snow -2 997 93 697 6.28 208 22:30 30.01.2023
22 Snow -1 997 93 543 6.35 208 20:59 30.01.2023
23 Snow -1 997 93 542 6.35 208 20:34 30.01.2023
24 Clouds -1 997 88 10000 6.7 204 17:54 30.01.2023
25 Clouds -1 997 88 10000 6.76 205 16:33 30.01.2023
26 Snow -1 999 93 891 6.46 201 14:27 30.01.2023
27 Snow -1 999 93 891 6.46 201 14:27 30.01.2023
28 Snow -2 999 93 841 6.22 200 12:44 30.01.2023
29 Clouds -2 1001 92 1541 6.02 204 11:27 30.01.2023
30 Snow -2 1002 92 3779 5.83 204 09:54 30.01.2023
31 Clouds -3 1002 92 10000 5.57 205 08:56 30.01.2023
32 Clouds -3 1004 93 10000 4.99 200 07:29 30.01.2023
33 Clouds -3 1008 93 10000 3.52 205 01:42 30.01.2023
34 Clouds -3 1009 93 10000 3.53 209 23:35 29.01.2023
35 Clouds -3 1010 94 10000 3.26 212 22:37 29.01.2023
36 Clouds -3 1011 94 10000 3.29 217 21:41 29.01.2023
37 Clouds -3 1011 94 10000 2.91 214 20:41 29.01.2023
38 Clouds -3 1011 93 10000 3.31 226 19:48 29.01.2023
39 Clouds -3 1012 92 10000 3.11 228 19:27 29.01.2023
40 Clouds -3 1012 91 10000 3.16 228 17:49 29.01.2023
41 Clouds -3 1013 89 10000 3.37 225 16:21 29.01.2023
42 Clouds -2 1013 88 10000 3.39 234 14:53 29.01.2023
43 Clouds -2 1013 86 10000 3.77 236 13:30 29.01.2023
44 Clouds -2 1013 86 10000 3.77 236 12:44 29.01.2023
45 Clouds -2 1014 85 10000 3.88 234 12:23 29.01.2023
46 Clouds -3 1014 85 10000 3.88 234 11:54 29.01.2023
47 Clouds -3 1015 86 10000 3.76 228 11:27 29.01.2023
48 Clouds -3 1015 90 10000 3.56 224 09:59 29.01.2023
49 Clouds -4 1017 96 10000 2.68 217 07:20 29.01.2023
50 Clouds -3 1018 95 10000 2.55 211 03:41 29.01.2023
51 Clouds -3 1020 97 1368 2.02 208 23:39 28.01.2023
52 Clouds -3 1022 93 8632 1.56 211 20:45 28.01.2023
53 Clouds -3 1022 86 10000 2.11 228 19:52 28.01.2023
54 Clouds -3 1023 92 10000 1.33 192 18:39 28.01.2023
55 Clouds -3 1023 88 10000 1.51 201 17:21 28.01.2023
56 Clouds -3 1023 90 10000 1.05 204 16:27 28.01.2023
57 Clouds -3 1023 90 10000 1.02 204 15:49 28.01.2023
58 Clouds -3 1024 88 10000 0.87 188 15:22 28.01.2023
59 Clouds -3 1024 89 10000 0.48 176 13:47 28.01.2023
60 Clouds -3 1025 91 7235 0.69 54 11:55 28.01.2023
61 Clouds -4 1025 93 4989 1.27 41 10:35 28.01.2023
62 Clouds -4 1026 94 5732 1.79 41 09:21 28.01.2023
63 Clouds -2 1025 96 10000 2.3 31 01:51 28.01.2023
64 Clouds -2 1024 94 10000 2.72 15 00:27 28.01.2023
65 Clouds -2 1024 97 1865 1.7 344 21:56 27.01.2023
66 Clouds -2 1023 98 2426 1.78 278 19:47 27.01.2023
67 Clouds -3 1023 97 549 2.17 253 17:58 27.01.2023
68 Snow -3 1022 97 421 2.42 254 17:20 27.01.2023
69 Clouds -3 1022 97 421 2.42 254 16:41 27.01.2023
70 Clouds -2 1022 96 769 2.52 253 15:25 27.01.2023
71 Clouds -2 1022 93 5217 2.84 254 14:26 27.01.2023
72 Snow -2 1021 96 447 3.18 256 13:33 27.01.2023
73 Clouds -4 1021 92 10000 3.91 245 09:37 27.01.2023
74 Clouds -4 1020 94 2831 3.94 238 06:51 27.01.2023
75 Clouds -3 1020 95 2659 4.07 234 00:28 27.01.2023
76 Clouds -3 1020 94 10000 4.13 231 21:57 26.01.2023
77 Clouds -3 1020 93 10000 4.07 231 20:56 26.01.2023
78 Clouds -2 1020 93 10000 4.15 231 19:59 26.01.2023
79 Clouds -2 1021 92 10000 4.48 226 17:57 26.01.2023
80 Clouds -2 1021 91 10000 4.2 227 16:54 26.01.2023
81 Clouds -2 1021 90 10000 4.07 231 16:21 26.01.2023
82 Clouds -2 1021 90 10000 4.07 231 15:43 26.01.2023
83 Clouds -2 1021 89 10000 4.31 234 15:24 26.01.2023
84 Clouds -2 1021 89 10000 4.59 233 13:54 26.01.2023
85 Clouds -2 1021 89 10000 4.79 233 12:31 26.01.2023
86 Clouds -2 1022 89 10000 4.81 232 10:56 26.01.2023
87 Clouds -2 1022 89 10000 4.7 233 10:26 26.01.2023
88 Clouds -3 1022 89 10000 4.7 233 09:42 26.01.2023
89 Clouds -3 1023 89 10000 4.82 234 08:25 26.01.2023
90 Clouds -3 1025 89 10000 4.56 229 23:55 25.01.2023
91 Clouds -3 1025 89 10000 4.47 227 23:36 25.01.2023
92 Clouds -3 1026 90 10000 4.04 230 21:53 25.01.2023
93 Clouds -3 1026 89 10000 3.97 236 21:20 25.01.2023
94 Clouds -2 1027 88 10000 4.04 231 18:31 25.01.2023
95 Clouds -2 1028 88 10000 3.52 233 17:22 25.01.2023
96 Clouds -2 1028 88 10000 2.95 224 15:37 25.01.2023
97 Clouds -2 1029 87 10000 3.11 227 12:48 25.01.2023
98 Clouds -2 1031 91 10000 2.46 233 09:56 25.01.2023
99 Clouds -2 1032 94 10000 2.24 254 09:31 25.01.2023
100 Clouds -2 1033 98 10000 1.75 225 06:54 25.01.2023
101 Clouds -2 1033 96 10000 2.67 259 01:26 25.01.2023
102 Clouds -1 1033 96 10000 2.64 249 23:56 24.01.2023
103 Clouds -1 1034 95 10000 2.94 243 21:31 24.01.2023
104 Clouds -1 1034 95 10000 2.95 242 19:58 24.01.2023
105 Clouds -1 1034 95 10000 3.06 240 18:39 24.01.2023
106 Clouds -1 1035 96 10000 2.59 234 17:20 24.01.2023
107 Clouds -1 1035 96 10000 2.59 234 16:52 24.01.2023
108 Clouds -1 1036 96 10000 2.12 239 15:21 24.01.2023
109 Clouds -1 1037 93 10000 2.57 240 13:22 24.01.2023
110 Clouds -1 1038 92 10000 2.53 248 11:20 24.01.2023
111 Clouds -4 1039 96 10000 2.04 243 08:23 24.01.2023
112 Clouds -4 1039 96 10000 2.04 243 07:51 24.01.2023
113 Clouds -5 1039 96 10000 1.88 243 07:25 24.01.2023
114 Clouds -3 1040 97 10000 1.64 236 02:23 24.01.2023
115 Clouds -3 1040 96 10000 1.92 232 00:25 24.01.2023
116 Clouds -3 1041 96 10000 1.73 228 22:28 23.01.2023
117 Clouds -3 1041 96 10000 1.64 205 19:55 23.01.2023
118 Clouds -3 1041 97 10000 1.52 191 18:51 23.01.2023
119 Clouds -3 1042 97 10000 1.63 162 16:39 23.01.2023
120 Clouds -3 1042 98 9666 1.56 131 14:59 23.01.2023
121 Clear -3 1042 98 10000 1.31 119 13:55 23.01.2023
122 Clouds -3 1042 96 10000 1.65 139 12:55 23.01.2023
123 Clouds -3 1042 94 10000 2 146 11:45 23.01.2023
124 Clouds -3 1043 94 10000 2.02 144 10:40 23.01.2023
125 Clouds -4 1042 97 9824 1.6 128 08:24 23.01.2023
126 Clouds -3 1041 96 10000 1.91 127 23:53 22.01.2023
127 Clouds -3 1040 95 10000 1.95 131 21:50 22.01.2023
128 Clouds -3 1040 95 10000 1.91 134 20:58 22.01.2023
129 Clouds -3 1040 95 10000 1.86 133 19:55 22.01.2023
130 Clouds -3 1040 95 10000 1.86 133 19:37 22.01.2023
131 Clouds -3 1040 96 10000 2.01 132 18:36 22.01.2023
132 Clouds -3 1039 96 10000 2.1 129 17:55 22.01.2023
133 Clouds -3 1039 95 10000 2.15 129 17:24 22.01.2023
134 Clouds -2 1038 95 10000 2.15 137 15:26 22.01.2023
135 Clouds -2 1038 95 10000 2.15 137 14:34 22.01.2023
136 Clouds -2 1037 92 10000 2.16 142 13:27 22.01.2023
137 Clouds -3 1037 91 10000 2.28 148 12:29 22.01.2023
138 Clouds -3 1037 91 10000 2.28 148 11:33 22.01.2023
139 Clouds -4 1037 90 10000 1.25 171 09:35 22.01.2023
140 Clouds -5 1034 96 10000 1.95 148 04:22 22.01.2023
141 Clouds -5 1034 91 10000 3.02 146 23:49 21.01.2023
142 Clouds -5 1034 89 10000 3.39 146 23:29 21.01.2023
143 Clouds -4 1034 89 10000 3.69 141 21:34 21.01.2023
144 Clouds -4 1034 88 10000 4.03 137 18:55 21.01.2023
145 Clouds -3 1033 87 10000 4.13 137 16:41 21.01.2023
146 Clouds -2 1033 86 10000 4.02 135 14:24 21.01.2023
147 Clouds -2 1032 85 10000 4.02 135 12:57 21.01.2023
148 Clouds -2 1032 85 10000 3.9 138 11:42 21.01.2023
149 Clouds -2 1033 85 10000 3.84 139 10:49 21.01.2023
150 Clouds -2 1032 87 10000 3.54 141 08:50 21.01.2023
151 Clouds 0 1030 85 10000 3.6 149 04:31 21.01.2023
152 Clouds 2 1027 87 10000 4.17 165 22:28 20.01.2023
153 Clouds 2 1027 87 10000 4.17 165 21:38 20.01.2023
154 Clouds 2 1026 87 10000 4.51 168 20:55 20.01.2023
155 Clouds 3 1025 87 10000 4.94 170 19:31 20.01.2023
156 Clouds 3 1023 86 10000 5.57 171 16:39 20.01.2023
157 Clouds 4 1022 89 10000 5.21 168 14:46 20.01.2023
158 Clouds 4 1022 90 10000 5.22 169 13:51 20.01.2023
159 Clouds 4 1020 91 10000 5.66 169 10:24 20.01.2023
160 Clouds 3 1020 90 10000 5.92 165 08:51 20.01.2023
161 Clouds 3 1018 91 10000 6.2 161 05:54 20.01.2023
162 Clouds 3 1017 93 10000 6.08 160 02:30 20.01.2023
163 Clouds 2 1017 99 10000 6.13 155 22:33 19.01.2023
164 Clouds 1 1017 99 242 5.54 151 20:32 19.01.2023
165 Snow 1 1018 99 572 5.38 148 19:28 19.01.2023
166 Snow 1 1018 99 2321 5.27 147 16:51 19.01.2023
167 Clouds 2 1018 100 109 4.61 157 13:29 19.01.2023
168 Clouds 2 1017 100 188 5.66 163 09:36 19.01.2023
169 Snow 1 1013 96 803 8.2 154 02:59 19.01.2023
170 Clouds 1 1016 91 10000 7.73 146 22:24 18.01.2023
171 Clouds 0 1016 91 10000 7.56 146 20:20 18.01.2023
172 Clouds 0 1016 92 10000 7.5 144 19:38 18.01.2023
173 Clouds 0 1017 92 10000 7.39 147 18:30 18.01.2023
174 Clouds 1 1017 92 10000 7.08 142 15:57 18.01.2023
175 Clouds 1 1018 93 10000 6.15 144 13:54 18.01.2023
176 Clouds 1 1017 95 10000 5.82 149 11:44 18.01.2023
177 Clouds 0 1016 94 10000 5.68 153 09:28 18.01.2023
178 Clouds 0 1015 94 10000 5.99 151 05:35 18.01.2023
179 Snow 0 1015 93 10000 6.55 146 00:35 18.01.2023
180 Clouds 0 1016 93 10000 6.46 149 20:57 17.01.2023
181 Clouds 1 1016 95 10000 6.51 152 19:37 17.01.2023
182 Clouds 1 1015 91 10000 6.59 151 18:48 17.01.2023
183 Clouds 1 1015 90 10000 6.45 149 17:38 17.01.2023
184 Clouds 1 1015 88 10000 6.26 157 15:26 17.01.2023
185 Clouds 1 1015 89 10000 6.19 160 14:34 17.01.2023
186 Clouds 1 1015 89 10000 6.19 160 13:32 17.01.2023
187 Clouds 0 1015 93 10000 5.56 161 11:46 17.01.2023
188 Snow -1 1016 96 285 5.38 158 09:36 17.01.2023
189 Snow -2 1016 96 285 5.38 158 08:45 17.01.2023
190 Snow -2 1015 95 439 4.93 157 07:28 17.01.2023
191 Clouds -3 1016 95 1233 4.67 156 01:32 17.01.2023
192 Clouds -3 1016 95 1233 4.67 156 01:32 17.01.2023
193 Clouds -3 1016 95 1233 4.67 156 01:32 17.01.2023
194 Clouds -3 1016 95 1254 4.56 157 00:47 17.01.2023
195 Snow -3 1016 95 523 4.29 160 22:38 16.01.2023
196 Clouds -3 1016 95 427 4.49 161 21:39 16.01.2023
197 Clouds -4 1016 94 1124 4.94 160 19:50 16.01.2023
198 Clouds -4 1016 94 701 4.83 162 18:57 16.01.2023
199 Clouds -4 1016 94 713 4.98 163 18:37 16.01.2023
200 Clouds -4 1016 94 713 4.98 163 18:18 16.01.2023
201 Clouds -4 1016 94 2027 5.4 163 17:20 16.01.2023
202 Clouds -4 1016 91 10000 5.93 163 14:18 16.01.2023
203 Clouds -4 1016 91 10000 5.93 163 13:35 16.01.2023
204 Clouds -4 1017 92 2632 5.73 167 10:23 16.01.2023
205 Clouds -5 1018 94 4217 5.39 161 08:20 16.01.2023
206 Clouds -4 1021 94 3273 5.33 169 22:44 15.01.2023
207 Clouds -4 1021 94 3273 5.33 169 22:44 15.01.2023
208 Clouds -3 1022 94 6387 4.69 168 21:23 15.01.2023
209 Clouds -3 1022 94 9110 4.66 170 20:28 15.01.2023
210 Clouds -2 1022 93 10000 4.92 170 19:31 15.01.2023
211 Clouds -2 1022 93 10000 4.93 166 17:24 15.01.2023
212 Clouds -2 1022 92 8366 4.72 175 13:46 15.01.2023
213 Clouds -2 1023 94 7912 4.68 181 12:23 15.01.2023
214 Clouds -2 1023 95 508 4.48 185 11:28 15.01.2023
215 Clouds -2 1024 94 8783 4.38 186 10:21 15.01.2023
216 Snow -3 1024 94 1145 4.37 184 07:56 15.01.2023
217 Clouds -2 1025 94 10000 3.99 183 23:39 14.01.2023
218 Clouds -2 1025 94 10000 4.18 185 22:44 14.01.2023
219 Clouds -2 1025 93 10000 4.36 187 21:37 14.01.2023
220 Clouds -2 1025 93 10000 4.36 187 21:18 14.01.2023
221 Clouds -2 1025 93 10000 4.36 187 21:18 14.01.2023
222 Clouds -2 1025 93 10000 4.36 187 20:56 14.01.2023
223 Clouds -2 1025 92 10000 4.51 187 20:26 14.01.2023
224 Clouds -2 1025 92 10000 4.85 186 17:53 14.01.2023
225 Clouds -3 1025 92 10000 5.02 183 15:41 14.01.2023
226 Clouds -3 1025 92 10000 4.95 183 15:23 14.01.2023
227 Clouds -3 1025 92 10000 4.97 187 14:19 14.01.2023
228 Clouds -3 1024 92 10000 4.96 183 12:50 14.01.2023
229 Clouds -3 1025 92 10000 4.84 185 10:50 14.01.2023
230 Clouds -3 1025 93 10000 4.76 183 09:23 14.01.2023
231 Clouds -3 1025 93 10000 3.94 180 02:36 14.01.2023
232 Clouds -4 1025 93 10000 3.89 180 23:19 13.01.2023
233 Clouds -4 1025 93 10000 3.89 180 22:41 13.01.2023
234 Clouds -4 1025 93 10000 3.86 180 21:58 13.01.2023
235 Clouds -4 1025 94 10000 3.73 179 20:38 13.01.2023
236 Clouds -5 1025 93 10000 4.17 182 19:27 13.01.2023
237 Clouds -5 1025 92 10000 4.06 182 17:40 13.01.2023
238 Clouds -5 1025 91 10000 4.4 187 15:20 13.01.2023
239 Clouds -5 1024 90 10000 4.81 188 12:25 13.01.2023
240 Clouds -5 1024 90 10000 4.81 188 12:25 13.01.2023
241 Clouds -6 1024 91 10000 4.81 187 10:43 13.01.2023
242 Clouds -6 1025 91 10000 4.93 186 10:23 13.01.2023
243 Clouds -6 1025 91 10000 4.93 186 09:44 13.01.2023
244 Clouds -6 1025 91 10000 4.96 185 08:51 13.01.2023
245 Clouds -6 1025 91 10000 4.73 184 06:57 13.01.2023
246 Clouds -6 1025 91 10000 4.62 182 06:30 13.01.2023
247 Clouds -6 1026 92 10000 4.87 179 02:29 13.01.2023
248 Clouds -7 1027 90 10000 5.08 187 22:57 12.01.2023
249 Clouds -7 1027 90 10000 4.99 184 21:59 12.01.2023
250 Clouds -7 1027 90 10000 4.92 184 20:54 12.01.2023
251 Clouds -7 1027 89 10000 5.12 182 18:40 12.01.2023
252 Clouds -7 1028 89 10000 5.03 182 17:33 12.01.2023
253 Clouds -8 1028 89 10000 5.15 174 15:45 12.01.2023
254 Clouds -8 1028 88 10000 4.87 179 14:43 12.01.2023
255 Clouds -8 1029 88 10000 4.94 179 14:20 12.01.2023
256 Clouds -8 1029 88 10000 5.14 180 12:44 12.01.2023
257 Clouds -9 1030 89 10000 5.14 177 10:30 12.01.2023
258 Clouds -9 1031 90 10000 4.78 175 07:44 12.01.2023
259 Clouds -8 1033 86 10000 4.44 182 01:40 12.01.2023
260 Clouds -9 1033 87 10000 4.46 182 23:58 11.01.2023
261 Clouds -9 1033 90 10000 4.7 186 23:39 11.01.2023
262 Clouds -9 1033 90 10000 4.7 186 23:20 11.01.2023
263 Clouds -9 1034 90 1825 5.04 187 21:41 11.01.2023
264 Clouds -9 1034 86 10000 5.66 189 19:40 11.01.2023
265 Snow -9 1035 93 398 5.74 187 18:26 11.01.2023
266 Clouds -10 1036 93 201 5.61 186 16:34 11.01.2023
267 Clouds -10 1036 87 1562 5.45 189 14:40 11.01.2023
268 Clouds -10 1036 83 9325 6.04 186 12:34 11.01.2023
269 Clouds -10 1036 83 9326 6.04 186 11:54 11.01.2023
270 Clouds -10 1037 85 9376 5.98 185 09:49 11.01.2023
271 Clouds -11 1038 77 10000 6.15 180 07:37 11.01.2023
272 Clouds -12 1038 77 10000 6.07 177 07:19 11.01.2023
273 Clouds -12 1040 80 10000 5.56 165 23:55 10.01.2023
274 Clouds -12 1040 81 10000 5.57 165 22:36 10.01.2023
275 Clouds -12 1040 82 10000 5.5 160 21:30 10.01.2023
276 Clouds -12 1040 82 10000 5.47 162 19:57 10.01.2023
277 Clouds -12 1040 82 10000 5.73 162 19:34 10.01.2023
278 Clouds -12 1040 82 10000 5.71 160 18:47 10.01.2023
279 Clouds -12 1040 83 10000 6 158 17:54 10.01.2023
280 Clouds -11 1040 83 10000 6.11 157 15:55 10.01.2023
281 Clouds -11 1040 83 10000 6.29 155 15:24 10.01.2023
282 Clouds -11 1039 83 10000 6.23 154 14:25 10.01.2023
283 Snow -12 1039 84 10000 6.17 153 11:57 10.01.2023
284 Snow -14 1039 86 10000 6.18 151 08:58 10.01.2023
285 Clouds -14 1039 87 10000 6.12 149 08:28 10.01.2023
286 Snow -15 1039 88 10000 5.98 144 07:26 10.01.2023
287 Clouds -17 1038 90 10000 5.95 141 04:52 10.01.2023
288 Clouds -20 1039 93 10000 5.2 134 22:55 09.01.2023
289 Clouds -20 1039 94 10000 5.27 128 21:47 09.01.2023
290 Clouds -19 1039 94 10000 5.17 129 20:41 09.01.2023
291 Clouds -19 1038 94 10000 4.85 132 18:44 09.01.2023
292 Clouds -18 1038 95 10000 4.86 128 17:53 09.01.2023
293 Clouds -19 1038 94 10000 4.87 127 16:59 09.01.2023
294 Clouds -19 1038 95 10000 4.86 127 16:32 09.01.2023
295 Clouds -18 1038 95 9541 4.79 126 15:23 09.01.2023
296 Clouds -18 1038 95 9543 4.79 126 14:43 09.01.2023
297 Clouds -17 1037 94 10000 4.42 123 12:55 09.01.2023
298 Clouds -17 1037 94 10000 3.97 124 12:25 09.01.2023
299 Clouds -18 1037 95 10000 3.83 124 11:21 09.01.2023
300 Clouds -17 1037 98 10000 3.01 123 08:42 09.01.2023
301 Clouds -18 1037 100 7475 2.26 117 06:37 09.01.2023
302 Clouds -18 1036 100 10000 1.81 123 02:53 09.01.2023
303 Clouds -19 1036 99 10000 1.26 122 22:53 08.01.2023
304 Clouds -20 1035 99 10000 0.73 135 21:23 08.01.2023
305 Clouds -20 1035 99 10000 0.73 135 20:57 08.01.2023
306 Clouds -18 1035 99 10000 0.58 114 19:44 08.01.2023
307 Clouds -17 1034 98 10000 0.21 39 17:41 08.01.2023
308 Clouds -17 1034 97 10000 0.55 318 17:19 08.01.2023
309 Clouds -16 1034 98 10000 0.81 300 15:39 08.01.2023
310 Clouds -15 1034 96 10000 1.05 291 14:20 08.01.2023
311 Clouds -15 1034 96 10000 1.05 291 13:55 08.01.2023
312 Clouds -15 1034 93 10000 1.35 300 13:21 08.01.2023
313 Clouds -16 1033 89 10000 1.87 308 11:49 08.01.2023
314 Clouds -18 1034 89 10000 2.22 303 09:38 08.01.2023
315 Clouds -20 1034 90 10000 2.17 295 08:33 08.01.2023
316 Clear -21 1034 93 10000 2.34 287 04:26 08.01.2023
317 Clouds -21 1034 93 10000 2.3 278 23:25 07.01.2023
318 Clouds -21 1034 93 10000 2.3 278 22:44 07.01.2023
319 Clouds -22 1034 93 10000 2.13 280 21:59 07.01.2023
320 Clear -23 1034 93 10000 1.91 279 21:29 07.01.2023
321 Clear -23 1034 93 10000 2.08 282 20:25 07.01.2023
322 Clouds -22 1033 96 10000 1.81 281 19:25 07.01.2023
323 Clear -22 1034 98 10000 1.72 292 18:21 07.01.2023
324 Clear -22 1034 98 10000 1.72 292 17:41 07.01.2023
325 Clear -22 1034 98 10000 1.77 297 16:49 07.01.2023
326 Clear -22 1033 99 10000 1.69 296 16:28 07.01.2023
327 Clear -22 1033 99 10000 1.69 296 15:40 07.01.2023
328 Clear -21 1033 99 10000 1.58 301 15:22 07.01.2023
329 Clear -21 1033 98 10000 1.39 306 13:59 07.01.2023
330 Clear -20 1033 98 10000 1.41 302 13:41 07.01.2023
331 Clouds -20 1032 95 10000 1.8 316 12:58 07.01.2023
332 Clouds -21 1032 93 10000 1.94 331 12:21 07.01.2023
333 Clouds -22 1032 95 10000 1.96 340 10:29 07.01.2023
334 Clear -23 1032 96 10000 1.93 340 09:23 07.01.2023
335 Clear -24 1031 98 10000 1.83 327 08:18 07.01.2023
336 Clear -25 1031 98 10000 1.83 327 07:41 07.01.2023
337 Clouds -25 1030 98 10000 1.67 316 06:22 07.01.2023
338 Clouds -24 1028 98 10000 1.89 307 23:34 06.01.2023
339 Clouds -24 1027 98 10000 1.92 309 22:21 06.01.2023
340 Clouds -24 1027 98 10000 1.92 309 21:50 06.01.2023
341 Clouds -23 1027 98 10000 1.86 314 20:38 06.01.2023
342 Clouds -23 1026 97 10000 2.09 318 19:55 06.01.2023
343 Clear -23 1026 97 10000 2.14 316 19:37 06.01.2023
344 Clear -23 1026 97 10000 2.2 316 19:19 06.01.2023
345 Clear -22 1025 97 10000 2.22 319 17:55 06.01.2023
346 Clear -22 1025 97 10000 2.51 325 16:53 06.01.2023
347 Clouds -22 1024 97 10000 2.79 324 16:23 06.01.2023
348 Clouds -21 1024 97 10000 2.79 324 15:52 06.01.2023
349 Clear -21 1024 96 10000 2.73 324 15:30 06.01.2023
350 Clear -20 1023 95 10000 2.98 330 13:42 06.01.2023
351 Clouds -20 1022 93 10000 3.36 341 11:52 06.01.2023
352 Clouds -21 1022 93 10000 3.32 344 10:55 06.01.2023
353 Clear -23 1021 96 10000 2.87 348 08:50 06.01.2023
354 Clear -23 1018 95 10000 3.23 2 05:23 06.01.2023
355 Clouds -17 1013 94 10000 3.69 14 23:38 05.01.2023
356 Clouds -17 1013 94 10000 3.58 17 22:44 05.01.2023
357 Clouds -14 1011 95 10000 3.58 22 20:57 05.01.2023
358 Clouds -10 1009 96 10000 3.58 32 17:31 05.01.2023
359 Clouds -9 1009 96 10000 3.62 34 16:50 05.01.2023
360 Clouds -8 1008 97 7394 3.56 34 15:58 05.01.2023
361 Clouds -8 1008 97 7394 3.56 34 15:58 05.01.2023
362 Clouds -8 1008 98 5840 2.95 29 15:34 05.01.2023
363 Clouds -7 1008 97 6498 2.42 24 14:33 05.01.2023
364 Clouds -6 1007 95 10000 2.58 31 12:41 05.01.2023
365 Clouds -6 1008 95 10000 2.2 28 11:36 05.01.2023
366 Clouds -5 1008 95 10000 2.14 16 09:43 05.01.2023
367 Clouds -5 1009 98 3485 1.37 356 08:22 05.01.2023
368 Clouds -5 1009 98 2332 1.47 0 06:50 05.01.2023
369 Clouds -3 1009 94 1822 3.74 275 02:56 05.01.2023
370 Snow -2 1011 91 1730 5.25 262 22:27 04.01.2023
371 Clouds -2 1011 91 1732 5.25 262 21:31 04.01.2023
372 Snow -2 1011 95 372 4.83 252 20:23 04.01.2023
373 Snow -3 1011 95 372 4.83 252 19:47 04.01.2023
374 Snow -3 1012 96 283 4.09 243 19:29 04.01.2023
375 Snow -3 1013 95 919 3.42 241 18:18 04.01.2023
376 Clouds -4 1015 96 5691 3.12 245 16:31 04.01.2023
377 Clouds -4 1016 97 2635 2.39 242 14:52 04.01.2023
378 Clouds -4 1016 95 10000 2.2 277 13:30 04.01.2023
379 Clouds -4 1016 94 10000 2.74 308 11:24 04.01.2023
380 Clouds -4 1016 94 10000 2.74 308 10:44 04.01.2023
381 Clouds -4 1016 94 10000 3.05 320 10:25 04.01.2023
382 Clouds -4 1016 94 10000 3.05 320 09:52 04.01.2023
383 Clouds -2 1011 91 10000 5.18 347 05:39 04.01.2023
384 Snow 0 1006 93 1610 6.01 344 01:41 04.01.2023
385 Snow 1 1003 91 1838 6.8 282 23:43 03.01.2023
386 Snow 1 1002 89 10000 7.16 276 23:21 03.01.2023
387 Clouds 2 1001 97 249 6.54 290 21:43 03.01.2023
388 Clouds 2 1001 99 47 5.57 255 20:50 03.01.2023
389 Clouds 3 1003 99 7948 5.26 253 18:40 03.01.2023
390 Clouds 3 1003 99 10000 5.25 258 16:43 03.01.2023
391 Clouds 3 1003 100 10000 5.51 270 15:41 03.01.2023
392 Snow 0 1003 100 155 3.3 253 13:48 03.01.2023
393 Clouds 0 1003 99 4033 2.53 215 13:29 03.01.2023
394 Snow 0 1003 99 4033 2.53 215 12:57 03.01.2023
395 Snow 0 1004 98 3035 2.71 161 12:28 03.01.2023
396 Snow -1 1006 98 145 4.74 133 09:58 03.01.2023
397 Snow -3 1012 97 795 2.87 151 06:20 03.01.2023
398 Clouds -3 1015 95 8499 2.11 185 03:54 03.01.2023
399 Clouds -3 1015 95 8499 2.11 185 03:34 03.01.2023
400 Clouds -3 1019 93 10000 2.37 255 23:21 02.01.2023
401 Clouds -3 1019 93 10000 2.37 255 22:40 02.01.2023
402 Clouds -4 1020 91 10000 2.85 267 21:30 02.01.2023
403 Clouds -3 1020 89 10000 3.78 271 20:35 02.01.2023
404 Clouds -3 1020 87 10000 4.46 275 19:26 02.01.2023
405 Clouds -2 1019 84 10000 4.96 281 16:54 02.01.2023
406 Clouds -1 1018 80 10000 6.24 283 14:29 02.01.2023
407 Clouds 0 1017 79 10000 6.16 282 12:57 02.01.2023
408 Clear 0 1015 79 10000 6.39 283 11:40 02.01.2023
409 Clear 0 1014 80 10000 6.19 283 09:42 02.01.2023
410 Clouds 0 1012 82 10000 6.22 289 07:29 02.01.2023
411 Rain 5 1003 99 61 6.53 307 00:38 02.01.2023
412 Clouds 6 1002 100 37 4.88 259 21:55 01.01.2023
413 Clouds 6 1003 100 34 5.67 260 20:56 01.01.2023
414 Clouds 6 1003 100 36 4.79 242 20:37 01.01.2023
415 Clouds 5 1003 100 36 4.79 242 19:35 01.01.2023
416 Clouds 4 1004 100 60 4.79 239 17:40 01.01.2023
417 Clouds 4 1004 100 60 4.79 239 17:20 01.01.2023
418 Clouds 4 1004 100 72 4.55 239 16:20 01.01.2023
419 Clouds 3 1005 100 50 4.22 236 14:36 01.01.2023
420 Rain 3 1005 100 50 4.48 235 13:20 01.01.2023
421 Rain 3 1005 100 65 4.69 231 12:29 01.01.2023
422 Clouds 3 1005 100 65 4.69 231 11:35 01.01.2023
423 Clouds 2 1007 100 50 4.66 222 09:49 01.01.2023
424 Clouds 1 1007 100 53 4.72 218 08:45 01.01.2023
425 Clouds 1 1007 100 82 4.61 212 08:18 01.01.2023
426 Clouds 1 1008 100 112 4.41 211 06:51 01.01.2023
427 Clouds 1 1014 94 10000 3.96 186 00:33 01.01.2023
428 Clouds 1 1014 94 10000 3.96 186 23:40 31.12.2022
429 Clouds 1 1016 93 10000 3.98 180 22:30 31.12.2022
430 Clouds 0 1016 93 10000 4.09 188 21:25 31.12.2022
431 Clouds 0 1017 94 10000 4.42 203 20:34 31.12.2022
432 Clouds 1 1018 97 7630 4.12 211 19:18 31.12.2022
433 Clouds 1 1017 97 8172 4.05 208 18:39 31.12.2022
434 Clouds 1 1017 99 410 3.13 207 18:18 31.12.2022
435 Clouds 1 1017 99 410 3.13 207 17:42 31.12.2022
436 Clouds 1 1017 99 5812 2.26 186 16:32 31.12.2022
437 Clouds 1 1018 99 10000 1.64 215 15:54 31.12.2022
438 Clouds 1 1018 96 10000 2.22 282 14:35 31.12.2022
439 Clouds 1 1017 94 10000 4.13 299 13:28 31.12.2022
440 Clouds 1 1017 99 482 3.6 301 12:38 31.12.2022
441 Clouds 1 1016 100 40 3.1 299 12:18 31.12.2022
442 Clouds 1 1016 100 40 3.1 299 12:18 31.12.2022
443 Clouds 1 1016 100 40 3.1 299 11:43 31.12.2022
444 Clouds 1 1015 100 32 3.19 314 10:23 31.12.2022
445 Clouds 1 1015 100 32 3.19 314 09:51 31.12.2022
446 Clouds 1 1015 100 35 3.2 321 08:44 31.12.2022
447 Snow 0 1013 99 26 3.33 322 06:51 31.12.2022
448 Snow 1 1011 100 67 1.64 175 00:34 31.12.2022
449 Snow 1 1011 100 76 2.15 189 23:40 30.12.2022
450 Clouds 1 1012 100 89 2.34 194 22:22 30.12.2022
451 Clouds 1 1012 100 89 2.34 194 21:41 30.12.2022
452 Clouds 1 1012 100 102 2.37 203 21:21 30.12.2022
453 Clouds 1 1013 100 114 2.55 208 18:51 30.12.2022
454 Snow 1 1013 100 97 2.53 211 17:35 30.12.2022
455 Clouds 1 1013 100 59 2.63 211 16:51 30.12.2022
456 Snow 1 1013 100 39 2.73 207 15:19 30.12.2022
457 Clouds 1 1013 99 26 2.77 206 13:32 30.12.2022
458 Clouds -1 1013 98 164 2.63 157 08:39 30.12.2022
459 Snow -1 1014 97 1093 2.61 134 06:44 30.12.2022
460 Clouds -2 1016 97 1305 2.21 124 02:28 30.12.2022
461 Clouds -2 1016 98 618 2.15 121 23:48 29.12.2022
462 Clouds -3 1016 98 1675 2.15 124 22:37 29.12.2022
463 Clouds -2 1017 98 510 1.75 124 21:29 29.12.2022
464 Clouds -2 1017 98 510 1.75 124 20:53 29.12.2022
465 Clouds -1 1017 96 6570 1.98 123 19:31 29.12.2022
466 Clouds -2 1017 94 10000 1.66 124 17:56 29.12.2022
467 Clouds -2 1017 92 10000 1.35 126 17:27 29.12.2022
468 Clouds -2 1017 92 10000 1.35 126 16:55 29.12.2022
469 Clouds -2 1018 88 10000 0.83 165 15:58 29.12.2022
470 Clouds -2 1018 87 10000 1.37 251 13:55 29.12.2022
471 Clouds -2 1017 88 10000 1.56 261 12:34 29.12.2022
472 Clouds -3 1017 92 10000 2.66 264 10:27 29.12.2022
473 Clouds -3 1018 99 4730 2.04 256 06:57 29.12.2022
474 Clouds -1 1015 96 3008 3.3 277 23:30 28.12.2022
475 Clouds -1 1015 98 6300 2.54 274 22:25 28.12.2022
476 Clouds -1 1014 97 8434 2.41 272 21:20 28.12.2022
477 Clouds -1 1014 97 10000 2.52 277 20:20 28.12.2022
478 Clouds -2 1014 97 10000 2.66 281 18:52 28.12.2022
479 Clouds -2 1013 95 10000 3.41 295 16:41 28.12.2022
480 Clouds -2 1012 98 4948 2.05 293 14:28 28.12.2022
481 Clouds -2 1011 97 806 2.49 310 12:49 28.12.2022
482 Snow -1 1010 97 264 2.26 306 11:35 28.12.2022
483 Snow -2 1010 97 275 1.61 306 10:31 28.12.2022
484 Snow -2 1010 98 182 0.95 84 07:49 28.12.2022
485 Snow -2 1010 98 145 1.98 69 06:48 28.12.2022
486 Snow -2 1010 97 252 2.96 99 03:42 28.12.2022
487 Snow -2 1012 97 182 4.38 128 22:47 27.12.2022
488 Snow -2 1013 97 140 4.93 130 19:53 27.12.2022
489 Snow -3 1013 97 142 5.38 131 19:20 27.12.2022
490 Snow -3 1014 96 330 5.74 129 17:20 27.12.2022
491 Snow -4 1015 96 149 5.68 129 16:35 27.12.2022
492 Snow -4 1016 96 233 5.51 129 14:55 27.12.2022
493 Snow -5 1018 95 420 5.46 125 12:28 27.12.2022
494 Snow -6 1019 95 223 5.36 124 10:37 27.12.2022
495 Snow -6 1020 95 163 5.19 123 09:45 27.12.2022
496 Snow -6 1021 95 782 5.1 123 09:22 27.12.2022
497 Clouds -6 1024 96 308 4.15 116 04:59 27.12.2022
498 Clouds -6 1027 98 6516 2.64 109 00:43 27.12.2022
499 Clouds -5 1029 98 6344 2.38 105 21:53 26.12.2022
500 Clouds -5 1030 98 6029 2.44 106 20:45 26.12.2022
501 Clouds -5 1029 97 5675 2.94 105 20:18 26.12.2022
502 Clouds -5 1030 98 4784 2.54 101 18:43 26.12.2022
503 Clouds -5 1031 98 5545 1.95 96 17:26 26.12.2022
504 Clouds -5 1031 99 5193 2.02 87 15:42 26.12.2022
505 Clouds -4 1032 98 6474 1.15 78 12:59 26.12.2022
506 Clouds -5 1032 97 7339 1.26 65 11:45 26.12.2022
507 Clouds -5 1032 98 6549 0.98 332 05:49 26.12.2022
508 Clouds -4 1030 95 10000 0.47 322 23:45 25.12.2022
509 Clouds -4 1030 94 10000 0.54 349 22:57 25.12.2022
510 Clouds -4 1029 92 10000 0.36 16 22:26 25.12.2022
511 Clouds -4 1028 86 10000 1.35 12 20:20 25.12.2022
512 Clouds -4 1028 85 10000 1.78 2 18:27 25.12.2022
513 Clouds -4 1028 85 10000 1.78 2 17:51 25.12.2022
514 Clouds -4 1028 85 10000 1.78 2 17:33 25.12.2022
515 Clouds -4 1026 87 10000 2.54 358 14:38 25.12.2022
516 Clouds -4 1025 90 3698 2.46 338 11:49 25.12.2022
517 Clouds -4 1022 99 6239 1.73 297 06:20 25.12.2022
518 Clouds 0 1016 95 10000 3.15 304 23:22 24.12.2022
519 Clouds 1 1012 96 10000 3.61 300 19:58 24.12.2022
520 Snow 1 1010 98 133 3.24 297 17:55 24.12.2022
521 Snow 1 1009 99 23 2.89 261 16:21 24.12.2022
522 Snow 1 1008 99 23 2.95 244 14:37 24.12.2022
523 Snow 1 1007 100 25 3.47 218 12:41 24.12.2022
524 Snow 1 1006 100 29 4.22 188 10:31 24.12.2022
525 Snow 1 1006 100 29 4.23 188 09:55 24.12.2022
526 Snow 1 1007 99 24 4.28 187 09:36 24.12.2022
527 Clouds 1 1007 99 44 4.1 208 04:28 24.12.2022
528 Clouds 2 1007 99 41 4.15 218 00:52 24.12.2022
529 Clouds 2 1006 99 61 4.76 224 23:31 23.12.2022
530 Clouds 2 1006 99 45 4.95 218 21:53 23.12.2022
531 Clouds 1 1005 99 86 5.27 214 20:22 23.12.2022
532 Clouds 1 1005 99 86 5.27 214 19:39 23.12.2022
533 Clouds 1 1005 99 176 5.32 210 19:21 23.12.2022
534 Snow 1 1005 99 91 5.37 213 18:38 23.12.2022
535 Snow 1 1005 99 71 5.44 207 18:18 23.12.2022
536 Snow 1 1005 99 45 5.34 196 16:25 23.12.2022
537 Snow 1 1006 99 129 4.94 197 14:44 23.12.2022
538 Clouds 1 1007 100 89 4.04 187 10:57 23.12.2022
539 Clouds 1 1007 100 93 3.88 188 09:36 23.12.2022
540 Clouds 1 1008 100 101 3.33 188 07:45 23.12.2022
541 Clouds 1 1009 100 116 3.47 179 06:50 23.12.2022
542 Clouds 1 1009 100 114 3.24 185 05:27 23.12.2022
543 Clouds 1 1010 99 6563 3.11 207 23:21 22.12.2022
544 Clouds 1 1010 98 10000 3.15 212 22:34 22.12.2022
545 Clouds 1 1010 97 10000 3 219 20:26 22.12.2022
546 Clouds 1 1010 97 10000 3.21 229 19:23 22.12.2022
547 Clouds 1 1010 99 10000 3.37 228 18:38 22.12.2022
548 Clouds 1 1010 99 1082 3.26 238 16:59 22.12.2022
549 Clouds 1 1010 99 345 3.16 242 16:37 22.12.2022
550 Clouds 1 1010 99 345 3.16 242 15:33 22.12.2022
551 Clouds 1 1009 99 656 3.23 239 14:46 22.12.2022
552 Clouds 1 1009 99 3799 3.52 244 13:32 22.12.2022
553 Clouds 1 1009 99 7293 3.64 241 12:46 22.12.2022
554 Clouds 1 1008 99 370 4.23 237 10:35 22.12.2022
555 Clouds 1 1008 99 370 4.23 237 09:59 22.12.2022
556 Clouds 1 1008 99 217 4.4 234 09:20 22.12.2022
557 Clouds 1 1008 99 928 4.75 236 08:25 22.12.2022
558 Snow 1 1007 98 10000 5.39 230 05:27 22.12.2022
559 Snow 1 1007 99 697 5.32 225 04:18 22.12.2022
560 Snow 0 1009 97 10000 4.8 200 23:49 21.12.2022
561 Snow -1 1011 96 10000 4.62 180 21:57 21.12.2022
562 Snow -1 1012 96 10000 4.36 177 21:22 21.12.2022
563 Snow -1 1012 96 10000 4.36 177 20:49 21.12.2022
564 Snow -2 1013 96 9947 4.34 169 20:18 21.12.2022
565 Snow -2 1013 96 9948 4.34 169 19:42 21.12.2022
566 Snow -2 1014 96 10000 4.01 172 19:22 21.12.2022
567 Snow -2 1014 96 10000 4.01 172 18:44 21.12.2022
568 Snow -3 1015 95 10000 3.82 171 17:35 21.12.2022
569 Clouds -4 1018 96 10000 2.84 167 14:33 21.12.2022
570 Clouds -4 1018 96 10000 2.92 164 12:58 21.12.2022
571 Clouds -5 1018 96 10000 2.8 173 11:42 21.12.2022
572 Clouds -5 1019 97 9686 2.65 175 11:19 21.12.2022
573 Clouds -5 1020 99 5135 2.07 177 09:25 21.12.2022
574 Clouds -6 1020 100 4610 2.15 178 07:30 21.12.2022
575 Clouds -8 1020 99 2244 0.13 64 01:28 21.12.2022
576 Clouds -8 1020 100 3078 0.58 295 22:42 20.12.2022
577 Clouds -9 1020 99 6544 1.15 264 21:20 20.12.2022
578 Clouds -11 1020 99 6547 1.29 257 20:22 20.12.2022
579 Clouds -11 1020 98 6548 1.55 231 18:50 20.12.2022
580 Clouds -11 1020 99 6547 1.71 229 18:28 20.12.2022
581 Clouds -10 1020 99 6547 1.71 229 17:52 20.12.2022
582 Clouds -9 1021 98 6546 1.57 223 17:32 20.12.2022
583 Clouds -9 1021 98 6546 1.57 223 16:32 20.12.2022
584 Clouds -8 1021 97 10000 1.84 218 15:29 20.12.2022
585 Clouds -9 1021 94 10000 1.61 210 14:37 20.12.2022
586 Clouds -8 1021 94 10000 1.61 210 13:58 20.12.2022
587 Clouds -7 1022 86 10000 3.17 239 12:44 20.12.2022
588 Clouds -7 1022 84 10000 3.77 236 12:25 20.12.2022
589 Clouds -7 1022 83 10000 4.2 232 11:31 20.12.2022
590 Clouds -8 1025 85 10000 3.57 215 08:27 20.12.2022
591 Clouds -4 1029 93 10000 4.56 258 00:32 20.12.2022
592 Clouds -3 1029 93 10000 4.65 263 22:37 19.12.2022
593 Clouds -3 1029 92 10000 4.96 265 21:41 19.12.2022
594 Clouds -3 1028 91 10000 4.75 276 19:55 19.12.2022
595 Clouds -3 1028 91 10000 4.75 276 19:37 19.12.2022
596 Clouds -3 1028 90 10000 5.18 277 18:24 19.12.2022
597 Clouds -3 1028 90 10000 5.01 279 16:35 19.12.2022
598 Clouds -4 1026 92 2003 5.5 278 13:26 19.12.2022
599 Clouds -5 1026 93 1672 5.34 270 11:55 19.12.2022
600 Snow -6 1026 92 10000 4.93 263 10:34 19.12.2022
601 Clouds -8 1027 94 1091 4.68 265 07:40 19.12.2022
602 Clouds -10 1029 93 10000 2.68 266 02:48 19.12.2022
603 Clouds -11 1028 94 10000 3.69 305 22:33 18.12.2022
604 Clouds -10 1027 90 10000 4.3 312 21:43 18.12.2022
605 Clouds -10 1025 86 10000 5.19 320 21:21 18.12.2022
606 Clouds -9 1024 84 10000 5.53 325 19:50 18.12.2022
607 Clouds -9 1024 84 10000 5.53 325 19:31 18.12.2022
608 Clouds -7 1022 84 10000 6.45 334 17:53 18.12.2022
609 Clouds -5 1020 90 6034 6.59 340 16:29 18.12.2022
610 Clouds -5 1020 90 6034 6.59 340 15:39 18.12.2022
611 Snow -5 1019 92 524 6.61 343 15:19 18.12.2022
612 Snow -5 1018 93 238 6.46 345 13:40 18.12.2022
613 Snow -5 1017 94 214 6.32 346 12:53 18.12.2022
614 Snow -5 1015 94 194 6.07 349 12:19 18.12.2022
615 Snow -5 1014 94 243 6.24 358 10:22 18.12.2022
616 Snow -5 1014 94 236 6.05 359 08:47 18.12.2022
617 Snow -5 1012 95 141 6.16 5 07:21 18.12.2022
618 Snow -5 1011 95 131 6.07 14 06:21 18.12.2022
619 Snow -5 1011 95 122 6.3 23 03:40 18.12.2022
620 Snow -5 1013 96 122 5.89 41 00:34 18.12.2022
621 Snow -4 1017 96 122 4.45 49 21:54 17.12.2022
622 Snow -4 1017 96 127 3.93 61 19:27 17.12.2022
623 Clouds -4 1019 96 1946 3.87 67 17:18 17.12.2022
624 Snow -4 1021 96 330 3.75 70 14:31 17.12.2022
625 Snow -4 1020 96 338 4.19 82 11:39 17.12.2022
626 Snow -4 1021 96 207 4.23 84 10:47 17.12.2022
627 Snow -4 1021 96 151 4.5 82 09:46 17.12.2022
628 Snow -4 1023 96 136 4.72 79 08:32 17.12.2022
629 Snow -5 1024 96 128 4.38 80 06:46 17.12.2022
630 Clouds -5 1028 96 10000 2.41 99 23:57 16.12.2022
631 Clouds -5 1028 97 7432 1.59 105 21:38 16.12.2022
632 Clouds -5 1028 98 6546 1.1 85 20:23 16.12.2022
633 Clouds -5 1027 98 6546 1.14 274 17:19 16.12.2022
634 Clouds -5 1026 98 6547 1.54 243 14:49 16.12.2022
635 Clouds -4 1025 97 6546 1.68 232 13:50 16.12.2022
636 Clouds -4 1023 92 10000 2.87 252 12:18 16.12.2022
637 Clouds -4 1022 92 10000 3.57 261 10:47 16.12.2022
638 Clouds -4 1020 91 10000 4.42 263 09:29 16.12.2022
639 Clouds -3 1018 90 10000 4.85 261 08:26 16.12.2022
640 Clouds -3 1018 90 10000 4.85 261 07:54 16.12.2022
641 Snow -4 1014 94 396 6.01 181 23:45 15.12.2022
642 Snow -5 1015 95 160 6.32 169 22:31 15.12.2022
643 Snow -5 1016 95 150 6.56 163 20:41 15.12.2022
644 Snow -6 1016 94 143 6.98 157 19:37 15.12.2022
645 Snow -7 1018 94 154 6.66 147 18:30 15.12.2022
646 Snow -7 1019 92 692 5.78 150 17:27 15.12.2022
647 Clouds -6 1020 90 10000 5.25 155 15:39 15.12.2022
648 Clouds -6 1022 90 10000 4.78 153 14:37 15.12.2022
649 Clouds -6 1021 90 10000 4.17 154 12:47 15.12.2022
650 Clouds -6 1023 95 10000 2.79 180 10:33 15.12.2022
651 Clouds -7 1023 96 10000 2.53 188 08:55 15.12.2022
652 Clouds -6 1023 96 8099 2.34 193 07:57 15.12.2022
653 Clouds -5 1022 96 10000 2.37 209 05:35 15.12.2022
654 Clouds -5 1018 95 10000 3.06 224 22:35 14.12.2022
655 Clouds -5 1017 94 10000 3.42 229 21:23 14.12.2022
656 Clouds -5 1017 94 10000 3.42 229 20:35 14.12.2022
657 Clouds -5 1015 93 10000 3.99 233 19:28 14.12.2022
658 Clouds -4 1014 92 10000 4.41 239 16:58 14.12.2022
659 Clouds -5 1013 91 10000 4.63 241 16:19 14.12.2022
660 Clouds -6 1011 90 10000 4.71 249 14:50 14.12.2022
661 Clouds -4 1007 90 10000 5.54 276 12:56 14.12.2022
662 Snow -5 1005 95 755 3.5 269 10:45 14.12.2022
663 Snow -5 1004 95 264 2.86 263 10:21 14.12.2022
664 Snow -6 1003 97 174 1.69 100 06:28 14.12.2022
665 Snow -1 1007 97 124 4.7 124 21:57 13.12.2022
666 Snow -1 1007 97 122 3.91 113 21:36 13.12.2022
667 Snow -1 1007 97 122 3.91 113 20:47 13.12.2022
668 Snow -1 1009 99 132 1.03 87 18:49 13.12.2022
669 Clouds -1 1010 97 10000 0.86 153 16:31 13.12.2022
670 Clouds 0 1011 97 10000 1.57 145 14:54 13.12.2022
671 Clouds 0 1010 96 10000 1.52 154 13:31 13.12.2022
672 Clouds 1 1009 93 10000 2.11 198 10:41 13.12.2022
673 Clouds 1 1009 95 10000 2.54 222 09:47 13.12.2022
674 Snow 1 1008 99 32 2.23 193 07:53 13.12.2022
675 Snow 2 1005 98 54 4.65 163 22:36 12.12.2022
676 Snow 2 1005 98 124 5.06 163 21:58 12.12.2022
677 Clouds 2 1004 97 3054 6.1 160 19:34 12.12.2022
678 Clouds 2 1003 97 10000 6.42 159 17:52 12.12.2022
679 Clouds 2 1004 98 897 6.33 151 15:29 12.12.2022
680 Clouds 3 1004 99 828 6.2 152 13:37 12.12.2022
681 Clouds 3 1004 100 267 5.96 163 09:20 12.12.2022
682 Clouds 3 1004 100 268 5.96 163 08:56 12.12.2022
683 Rain 3 1003 100 299 5.99 163 04:34 12.12.2022
684 Rain 2 1003 100 3511 7.13 159 01:50 12.12.2022
685 Snow 1 1006 100 101 6.27 133 22:18 11.12.2022
686 Snow 0 1007 100 134 5.7 116 20:34 11.12.2022
687 Snow 0 1008 99 183 5.36 105 19:38 11.12.2022
688 Snow 0 1008 99 183 5.36 105 19:38 11.12.2022
689 Snow 0 1009 98 479 5.44 92 18:33 11.12.2022
690 Clouds 0 1010 98 846 5.47 78 17:34 11.12.2022
691 Snow 0 1011 97 1507 5.06 69 16:53 11.12.2022
692 Snow 0 1011 97 745 4.74 63 16:29 11.12.2022
693 Snow -1 1011 97 745 4.74 63 15:44 11.12.2022
694 Snow -1 1012 98 252 4.04 55 13:35 11.12.2022
695 Snow -1 1012 98 174 3.62 48 12:41 11.12.2022
696 Clouds 0 1012 97 1681 2.44 38 10:26 11.12.2022
697 Snow 0 1008 99 41 0.9 65 01:36 11.12.2022
698 Snow 0 1007 99 51 1.66 97 00:28 11.12.2022
699 Snow 0 1007 99 98 2.37 95 22:35 10.12.2022
700 Snow 0 1008 99 113 3.01 88 21:59 10.12.2022
701 Snow 0 1008 98 117 3.42 84 20:59 10.12.2022
702 Snow 0 1009 99 89 3.49 89 20:19 10.12.2022
703 Snow 0 1010 99 91 3.3 80 17:50 10.12.2022
704 Snow -1 1012 98 206 2.79 73 16:38 10.12.2022
705 Snow -2 1012 98 206 2.79 73 15:43 10.12.2022
706 Snow -2 1013 98 129 2.25 77 15:24 10.12.2022
707 Snow -1 1014 98 127 2.03 74 13:44 10.12.2022
708 Snow -2 1014 98 131 1.65 82 12:23 10.12.2022
709 Snow -2 1015 98 275 1.35 101 10:55 10.12.2022
710 Snow -2 1015 97 326 1.46 106 09:44 10.12.2022
711 Clouds -3 1016 98 4867 0.9 155 07:22 10.12.2022
712 Clouds -3 1016 98 4867 0.9 155 06:53 10.12.2022
713 Clouds -4 1017 99 2255 0.95 116 23:43 09.12.2022
714 Clouds -5 1017 99 3173 1.04 116 22:42 09.12.2022
715 Clouds -5 1017 100 3162 1.33 117 21:34 09.12.2022
716 Clouds -4 1017 100 6249 1.15 104 20:59 09.12.2022
717 Clouds -5 1017 99 3998 1.39 116 19:46 09.12.2022
718 Clouds -5 1018 99 3938 1.47 112 17:56 09.12.2022
719 Clouds -5 1018 98 6924 1.77 122 17:27 09.12.2022
720 Clouds -5 1019 97 3692 1.99 121 16:26 09.12.2022
721 Clouds -5 1019 97 1024 2.18 125 15:30 09.12.2022
722 Snow -4 1019 96 2184 2.73 128 12:50 09.12.2022
723 Snow -4 1020 95 715 2.64 140 10:50 09.12.2022
724 Snow -4 1021 95 1394 2.57 141 10:23 09.12.2022
725 Clouds -5 1022 97 1983 2.57 151 05:39 09.12.2022
726 Clouds -5 1022 97 2479 2.63 157 03:18 09.12.2022
727 Clouds -5 1022 95 10000 3.26 170 23:20 08.12.2022
728 Clouds -6 1022 95 10000 3.5 173 20:56 08.12.2022
729 Clouds -6 1021 93 10000 4.39 173 18:58 08.12.2022
730 Clouds -6 1021 93 1731 4.8 170 16:46 08.12.2022
731 Clouds -7 1021 93 902 5.06 163 14:31 08.12.2022
732 Snow -7 1021 93 577 5.26 164 13:29 08.12.2022
733 Clouds -8 1021 92 571 5.91 163 10:37 08.12.2022
734 Snow -8 1022 93 339 6.43 159 09:32 08.12.2022
735 Snow -9 1021 94 171 6.46 156 07:39 08.12.2022
736 Clouds -10 1024 81 10000 6.25 152 22:44 07.12.2022
737 Clouds -10 1025 81 10000 6.27 152 22:18 07.12.2022
738 Clouds -10 1025 81 10000 6.27 152 21:47 07.12.2022
739 Clear -10 1025 80 10000 6.31 153 20:35 07.12.2022
740 Clear -10 1026 81 10000 6.17 151 18:33 07.12.2022
741 Clear -10 1026 82 10000 6.07 150 15:44 07.12.2022
742 Clear -8 1027 82 10000 5.71 149 13:36 07.12.2022
743 Clouds -8 1028 85 10000 5.29 154 10:56 07.12.2022
744 Clouds -8 1029 86 10000 5.09 155 10:26 07.12.2022
745 Clouds -9 1029 86 10000 5.09 155 09:31 07.12.2022
746 Clouds -10 1029 85 10000 4.53 155 07:41 07.12.2022
747 Clouds -10 1029 82 10000 3.69 159 05:26 07.12.2022
748 Clouds -9 1030 81 10000 3.62 166 02:57 07.12.2022
749 Clouds -7 1030 80 10000 4.08 180 22:18 06.12.2022
750 Clouds -7 1030 79 10000 4.28 186 19:38 06.12.2022
751 Clouds -6 1031 81 10000 4.08 185 17:20 06.12.2022
752 Clouds -6 1031 81 10000 4.08 185 16:38 06.12.2022
753 Clouds -6 1031 81 10000 4.24 185 15:38 06.12.2022
754 Clouds -6 1031 80 10000 4.24 185 14:55 06.12.2022
755 Clouds -6 1031 78 10000 4.36 186 14:23 06.12.2022
756 Clouds -6 1031 77 10000 4.05 190 12:42 06.12.2022
757 Clouds -7 1032 77 10000 4.15 192 11:59 06.12.2022
758 Clouds -10 1034 83 10000 3.73 186 07:51 06.12.2022
759 Clouds -10 1034 83 10000 3.73 186 07:51 06.12.2022
760 Clouds -10 1035 88 10000 2.73 185 03:26 06.12.2022
761 Clouds -10 1036 87 10000 2.63 189 00:50 06.12.2022
762 Clouds -10 1038 87 10000 2.79 197 22:22 05.12.2022
763 Clouds -10 1038 89 10000 2.86 193 20:55 05.12.2022
764 Clouds -10 1039 90 10000 2.72 188 20:23 05.12.2022
765 Clouds -10 1039 90 10000 2.72 188 19:42 05.12.2022
766 Clouds -9 1040 91 10000 2.5 183 16:56 05.12.2022
767 Clouds -10 1040 93 10000 2.29 175 15:39 05.12.2022
768 Clouds -9 1041 91 10000 2.3 175 15:18 05.12.2022
769 Clouds -9 1042 86 10000 2.68 186 12:59 05.12.2022
770 Clouds -9 1042 86 10000 2.68 186 12:38 05.12.2022
771 Clouds -9 1042 85 10000 2.83 189 11:46 05.12.2022
772 Clouds -11 1043 84 10000 3.01 191 09:36 05.12.2022
773 Clouds -12 1048 91 10000 2.21 155 00:19 05.12.2022
774 Clouds -11 1048 91 10000 2.16 156 22:44 04.12.2022
775 Clouds -11 1048 90 10000 2.37 155 22:20 04.12.2022
776 Clouds -11 1048 90 10000 2.25 155 21:39 04.12.2022
777 Clouds -11 1049 91 10000 2.37 148 20:27 04.12.2022
778 Clouds -10 1049 89 10000 2.5 151 19:26 04.12.2022
779 Clouds -10 1049 89 10000 2.5 151 18:40 04.12.2022
780 Clouds -9 1049 90 10000 2.89 153 17:23 04.12.2022
781 Clouds -9 1049 90 10000 2.89 153 16:37 04.12.2022
782 Clouds -9 1049 90 10000 2.82 151 16:19 04.12.2022
783 Clouds -9 1049 90 10000 2.83 151 15:54 04.12.2022
784 Clouds -8 1049 89 10000 2.85 147 14:43 04.12.2022
785 Clouds -7 1049 85 10000 3.27 151 13:26 04.12.2022
786 Clouds -7 1049 85 10000 3.27 151 12:42 04.12.2022
787 Clouds -7 1049 84 10000 3.5 155 11:46 04.12.2022
788 Clouds -9 1050 86 10000 3.25 156 09:20 04.12.2022
789 Clouds -10 1050 90 10000 2.63 145 07:21 04.12.2022
790 Clouds -8 1049 94 10000 2.68 134 00:44 04.12.2022
791 Clouds -8 1049 94 10000 2.81 135 23:30 03.12.2022
792 Clouds -8 1048 93 10000 3.19 139 21:59 03.12.2022
793 Clouds -8 1048 93 10000 3.3 137 21:21 03.12.2022
794 Clouds -8 1047 93 10000 3.72 135 19:34 03.12.2022
795 Clouds -7 1047 93 10000 3.73 134 18:39 03.12.2022
796 Clouds -7 1047 94 10000 3.6 130 15:54 03.12.2022
797 Clouds -8 1047 94 10000 3.44 125 14:23 03.12.2022
798 Clouds -8 1046 93 10000 3.24 124 12:54 03.12.2022
799 Clouds -9 1046 93 10000 3.33 126 12:22 03.12.2022
800 Clouds -10 1046 91 10000 3.37 127 10:21 03.12.2022
801 Clouds -13 1046 93 10000 2.96 118 07:22 03.12.2022
802 Clouds -12 1045 94 10000 2.4 109 01:29 03.12.2022
803 Clouds -12 1045 94 10000 2.28 109 22:50 02.12.2022
804 Clouds -11 1045 94 10000 2.52 115 20:54 02.12.2022
805 Clouds -11 1045 94 10000 2.52 115 20:54 02.12.2022
806 Clouds -11 1045 94 10000 2.52 115 20:54 02.12.2022
807 Clouds -10 1044 94 10000 2.6 108 19:26 02.12.2022
808 Clouds -10 1044 94 10000 2.37 105 15:59 02.12.2022
809 Clouds -10 1044 95 10000 2.33 97 14:44 02.12.2022
810 Clouds -10 1044 94 10000 2.06 99 14:26 02.12.2022
811 Clouds -9 1044 91 10000 2.17 111 13:26 02.12.2022
812 Clouds -9 1044 89 10000 2.31 109 11:41 02.12.2022
813 Clouds -10 1044 89 10000 2.69 118 09:45 02.12.2022
814 Clouds -11 1044 94 10000 2.16 102 07:24 02.12.2022
815 Clouds -12 1043 94 10000 1.49 115 23:54 01.12.2022
816 Clouds -11 1044 92 10000 1.93 116 21:59 01.12.2022
817 Clouds -11 1044 92 10000 1.93 116 21:37 01.12.2022
818 Clouds -11 1044 93 10000 1.69 119 20:30 01.12.2022
819 Clouds -11 1043 94 10000 1.84 110 18:55 01.12.2022
820 Clouds -10 1043 93 10000 1.79 108 16:20 01.12.2022
821 Clouds -9 1044 89 10000 1.54 99 12:35 01.12.2022
822 Clouds -11 1044 84 10000 1.56 135 10:41 01.12.2022
823 Clouds -11 1044 82 10000 1.79 129 09:54 01.12.2022
824 Clouds -11 1044 82 10000 1.79 129 09:36 01.12.2022
825 Clouds -14 1045 94 10000 1.38 136 03:33 01.12.2022
826 Clouds -13 1045 96 10000 1.38 123 22:40 30.11.2022
827 Clouds -12 1044 95 10000 1.49 148 21:19 30.11.2022
828 Clouds -12 1044 95 10000 1.49 148 20:48 30.11.2022
829 Clouds -12 1044 96 10000 1.41 152 20:23 30.11.2022
830 Clouds -11 1044 97 9188 1.86 131 18:35 30.11.2022
831 Clouds -11 1044 97 9183 1.86 131 17:36 30.11.2022
832 Clouds -10 1044 97 10000 2 117 16:20 30.11.2022
833 Clouds -9 1044 96 10000 2.04 111 14:41 30.11.2022
834 Clouds -9 1044 96 10000 1.95 108 14:23 30.11.2022
835 Clouds -8 1044 91 10000 2 125 11:38 30.11.2022
836 Clouds -11 1044 93 10000 2.03 129 08:41 30.11.2022
837 Clouds -12 1044 96 10000 1.79 122 07:58 30.11.2022
838 Clouds -13 1043 96 10000 1.81 120 04:56 30.11.2022
839 Clouds -12 1044 96 10000 1.51 120 23:22 29.11.2022
840 Clouds -11 1044 95 10000 1.65 124 21:47 29.11.2022
841 Clouds -11 1044 95 10000 1.74 128 20:42 29.11.2022
842 Clouds -10 1044 95 10000 1.78 123 19:36 29.11.2022
843 Clouds -9 1044 93 10000 2.22 124 17:51 29.11.2022
844 Clouds -9 1044 92 10000 2.33 115 16:29 29.11.2022
845 Clouds -8 1044 91 10000 2.58 111 15:21 29.11.2022
846 Clouds -7 1043 90 10000 2.5 106 13:49 29.11.2022
847 Clouds -6 1043 86 10000 2.35 113 12:36 29.11.2022
848 Clouds -7 1043 85 10000 2.51 120 11:30 29.11.2022
849 Clouds -7 1043 86 10000 2.43 125 10:23 29.11.2022
850 Clouds -7 1043 88 10000 2.44 128 08:44 29.11.2022
851 Clouds -6 1043 94 10000 2.32 112 06:34 29.11.2022
852 Clouds -5 1042 97 8502 2.21 106 23:46 28.11.2022
853 Clouds -5 1042 97 7734 2.15 106 23:21 28.11.2022
854 Clouds -5 1042 97 8002 2.24 105 21:56 28.11.2022
855 Clouds -5 1042 97 8002 2.24 105 21:36 28.11.2022
856 Clouds -5 1041 97 8932 2.57 105 20:20 28.11.2022
857 Clouds -5 1041 96 10000 2.69 110 18:41 28.11.2022
858 Clouds -5 1040 96 10000 2.77 108 17:54 28.11.2022
859 Clouds -5 1040 96 10000 3.16 104 17:21 28.11.2022
860 Clouds -5 1040 95 10000 3.22 101 14:45 28.11.2022
861 Clouds -5 1040 95 10000 3.07 104 13:53 28.11.2022
862 Clouds -4 1039 94 10000 3.2 108 12:52 28.11.2022
863 Clouds -4 1039 93 10000 3.39 113 11:31 28.11.2022
864 Clouds -5 1038 95 9883 3.56 102 07:54 28.11.2022
865 Clouds -4 1038 95 9389 3.59 97 04:54 28.11.2022
866 Clouds -4 1038 95 9394 3.59 97 04:36 28.11.2022
867 Clouds -4 1038 95 3930 3.82 95 03:20 28.11.2022
868 Clouds -4 1037 95 971 3.95 90 23:44 27.11.2022
869 Clouds -4 1037 95 866 3.81 91 21:54 27.11.2022
870 Clouds -4 1037 95 1157 3.63 90 20:41 27.11.2022
871 Clouds -4 1036 96 5756 3.63 86 18:25 27.11.2022
872 Clouds -4 1036 94 10000 3.71 77 15:40 27.11.2022
873 Clouds -3 1036 92 10000 3.62 77 13:37 27.11.2022
874 Clouds -3 1035 93 10000 3.54 80 11:31 27.11.2022
875 Clouds -4 1036 94 9171 3.6 85 08:59 27.11.2022
876 Clouds -5 1035 96 10000 3.09 78 05:48 27.11.2022
877 Clouds -6 1035 96 8920 2.84 71 23:18 26.11.2022
878 Clouds -6 1035 95 10000 2.76 71 20:59 26.11.2022
879 Clouds -6 1034 89 10000 2.84 71 19:50 26.11.2022
880 Clouds -6 1034 89 10000 3.16 74 18:38 26.11.2022
881 Clouds -6 1034 94 10000 3.21 75 16:34 26.11.2022
882 Clouds -6 1034 89 10000 3.19 78 14:34 26.11.2022
883 Clouds -5 1034 88 10000 3.23 70 12:42 26.11.2022
884 Clouds -6 1034 89 10000 3.46 76 10:52 26.11.2022
885 Clouds -6 1034 91 10000 3.38 80 09:36 26.11.2022
886 Clouds -6 1034 89 10000 3.43 77 07:47 26.11.2022
887 Clouds -5 1032 95 10000 2.85 74 22:41 25.11.2022
888 Clouds -5 1032 95 10000 2.69 73 21:32 25.11.2022
889 Clouds -5 1031 96 10000 2.79 74 20:20 25.11.2022
890 Clouds -5 1030 95 10000 2.66 69 16:50 25.11.2022
891 Clouds -5 1030 94 10000 2.66 69 14:48 25.11.2022
892 Clouds -6 1028 91 10000 2.62 74 09:44 25.11.2022
893 Clouds -6 1028 92 10000 2.19 81 08:42 25.11.2022
894 Clouds -6 1027 96 10000 2.33 57 06:59 25.11.2022
895 Clouds -6 1027 96 10000 2.33 57 06:40 25.11.2022
896 Clouds -6 1025 97 6564 1.51 32 00:29 25.11.2022
897 Clouds -6 1024 97 6617 1.39 45 22:59 24.11.2022
898 Clouds -6 1024 97 7424 2.07 45 21:59 24.11.2022
899 Clouds -6 1023 97 7536 2.08 44 20:58 24.11.2022
900 Clouds -6 1023 98 6208 1.78 42 19:34 24.11.2022
901 Clouds -5 1022 97 5606 2.51 57 17:45 24.11.2022
902 Clouds -5 1021 94 7251 2.63 53 17:21 24.11.2022
903 Clouds -5 1021 93 9501 2.46 50 16:19 24.11.2022
904 Clouds -4 1020 88 10000 2.01 47 14:23 24.11.2022
905 Clouds -4 1019 91 10000 2.16 39 12:20 24.11.2022
906 Clouds -3 1019 88 10000 2.31 42 10:37 24.11.2022
907 -273 0 0 0 0 0 08:19 24.11.2022
908 Clouds -3 1016 81 2409 1.88 28 03:38 24.11.2022
909 Clouds -3 1014 81 5686 2.42 17 23:47 23.11.2022
910 Snow -2 1013 81 7058 2.57 16 22:41 23.11.2022
911 Clouds -2 1012 81 7567 2.59 15 21:40 23.11.2022
912 Clouds -2 1012 81 7571 2.59 15 20:49 23.11.2022
913 Snow -1 1011 81 250 2.8 14 19:31 23.11.2022
914 Snow -1 1011 81 250 2.8 14 18:42 23.11.2022
915 Snow 0 1010 97 442 3.19 13 16:59 23.11.2022
916 Snow 1 1008 98 176 3.25 18 13:41 23.11.2022
917 Snow 1 1007 97 1527 3.39 8 13:21 23.11.2022
918 Clouds 1 1007 96 10000 3.34 12 12:22 23.11.2022
919 Clouds 1 1007 96 10000 3.34 12 11:42 23.11.2022
920 Snow 1 1007 97 10000 3.27 21 10:45 23.11.2022
921 Clouds 1 1007 97 10000 3.06 27 09:45 23.11.2022
922 Clouds 1 1007 98 8586 3.09 30 09:26 23.11.2022
923 Clouds 0 1007 98 4088 2.54 30 08:37 23.11.2022
924 Clouds 0 1006 99 175 2.06 24 07:19 23.11.2022
925 Clouds 0 1006 99 123 2.04 42 05:19 23.11.2022
926 Clouds 0 1006 99 126 2.52 72 23:47 22.11.2022
927 Clouds 0 1007 99 139 2.9 94 22:36 22.11.2022
928 Clouds 0 1007 99 153 3.07 89 21:34 22.11.2022
929 Snow 0 1007 99 167 3.17 94 20:50 22.11.2022
930 Snow 0 1007 99 188 3.41 95 20:26 22.11.2022
931 Snow 0 1007 99 238 3.61 100 19:34 22.11.2022
932 Snow 0 1007 100 151 3.84 106 17:48 22.11.2022
933 Clouds 0 1007 99 175 4.41 108 16:24 22.11.2022
934 Snow 0 1008 98 625 5.13 108 14:20 22.11.2022
935 Snow 0 1008 97 5568 5.36 107 12:27 22.11.2022
936 Snow -1 1010 96 539 5.83 94 09:27 22.11.2022
937 Snow -2 1011 81 1448 5.78 90 07:59 22.11.2022
938 Snow -2 1011 81 160 5.48 90 06:38 22.11.2022
939 Clouds -4 1016 94 5845 4.56 86 23:42 21.11.2022
940 Clouds -4 1016 94 5845 4.56 86 23:42 21.11.2022
941 Clouds -4 1017 94 4227 4.29 89 22:51 21.11.2022
942 Clouds -4 1017 93 4253 4.29 92 22:22 21.11.2022
943 Clouds -4 1017 93 4254 4.29 92 21:31 21.11.2022
944 Clouds -4 1019 93 4360 3.47 94 19:51 21.11.2022
945 Clouds -5 1019 96 2824 2.89 90 19:31 21.11.2022
946 Clouds -5 1019 96 2824 2.89 90 19:31 21.11.2022
947 Clouds -5 1019 96 2824 2.89 90 19:31 21.11.2022
948 Clouds -5 1019 96 2827 2.89 90 18:50 21.11.2022
949 Clouds -5 1020 96 10000 2.37 71 17:26 21.11.2022
950 Clouds -5 1020 96 10000 2.37 71 16:41 21.11.2022
951 Clouds -4 1020 95 10000 2.35 73 15:58 21.11.2022
952 Clouds -4 1020 95 10000 2.26 80 15:23 21.11.2022
953 Clouds -3 1020 81 10000 2.03 69 13:53 21.11.2022
954 Clouds -3 1020 81 10000 1.97 66 12:50 21.11.2022
955 Clouds -4 1021 81 10000 2.68 77 09:34 21.11.2022
956 Clouds -4 1022 92 10000 2.24 75 07:52 21.11.2022
957 Clouds -3 1024 81 10000 1.27 49 23:57 20.11.2022
958 Clouds -3 1024 81 10000 0.61 46 21:37 20.11.2022
959 Clouds -3 1023 81 10000 1.59 59 20:47 20.11.2022
960 Clouds -3 1023 81 10000 1.12 59 18:59 20.11.2022
961 Clouds -3 1023 81 10000 1.35 45 17:18 20.11.2022
962 Clouds -3 1023 81 10000 1.37 350 15:44 20.11.2022
963 Clouds -3 1023 81 10000 1.67 317 14:58 20.11.2022
964 Clouds -2 1022 81 10000 1.18 299 13:58 20.11.2022
965 Clouds -3 1022 81 10000 1.18 299 13:31 20.11.2022
966 Clouds -2 1022 81 10000 1.44 271 11:43 20.11.2022
967 Clouds -3 1021 81 8760 0.39 160 10:58 20.11.2022
968 Clouds -3 1021 81 10000 1.44 107 09:43 20.11.2022
969 Snow -3 1021 81 1814 1.63 101 08:53 20.11.2022
970 Clouds -3 1020 81 415 1.82 104 08:20 20.11.2022
971 Snow -3 1019 81 857 3.09 69 07:26 20.11.2022
972 Snow -3 1017 81 1017 4.7 81 01:26 20.11.2022
973 Snow -3 1017 81 1018 4.7 81 00:46 20.11.2022
974 Clouds -3 1017 81 1515 4.54 82 00:27 20.11.2022
975 Clouds -3 1017 81 1515 4.54 82 23:59 19.11.2022
976 Clouds -3 1017 81 1200 4.54 89 23:26 19.11.2022
977 Clouds -3 1017 81 1200 4.54 89 22:44 19.11.2022
978 Clouds -3 1017 81 1200 4.54 89 22:44 19.11.2022
979 Clouds -3 1017 81 1696 4.82 92 21:51 19.11.2022
980 Clouds -3 1017 81 1988 5.19 91 21:25 19.11.2022
981 Clouds -3 1017 81 1938 5.15 83 20:41 19.11.2022
982 Clouds -3 1017 81 1501 5.21 83 19:48 19.11.2022
983 Clouds -3 1018 81 1554 5.19 87 18:19 19.11.2022
984 Clouds -3 1018 81 1554 5.19 87 17:38 19.11.2022
985 Clouds -3 1018 81 3399 5.4 82 17:18 19.11.2022
986 Clouds -4 1019 91 3949 4.54 76 14:47 19.11.2022
987 Clouds -3 1020 81 10000 4.62 82 13:29 19.11.2022
988 Clouds -4 1020 87 10000 4.05 78 11:52 19.11.2022
989 Clouds -4 1020 91 10000 3.52 80 09:45 19.11.2022
990 Clouds -7 1020 95 8406 2.28 73 07:52 19.11.2022
991 Clouds -9 1019 98 6912 1.39 26 04:45 19.11.2022
992 Clouds -8 1017 98 6476 1.22 332 00:48 19.11.2022
993 Clouds -7 1015 97 2187 1.33 315 23:34 18.11.2022
994 Clouds -7 1015 97 2187 1.33 315 23:34 18.11.2022
995 Snow -7 1014 95 3033 2.08 359 22:23 18.11.2022
996 Snow -7 1014 95 3033 2.08 359 21:35 18.11.2022
997 Snow -7 1013 95 333 2.46 359 20:57 18.11.2022
998 Snow -7 1013 95 161 2.37 350 20:25 18.11.2022
999 Snow -6 1012 95 141 2.62 357 19:36 18.11.2022
1000 Clouds -5 1011 95 152 3.15 7 17:45 18.11.2022
1001 Snow -5 1011 94 193 3.71 9 16:27 18.11.2022
1002 Snow -5 1009 89 836 4.27 30 12:39 18.11.2022
1003 Clouds -5 1009 86 977 4.7 39 10:25 18.11.2022
1004 Clouds -6 1009 87 1727 4.77 36 07:52 18.11.2022
1005 Snow -6 1009 91 555 4.7 40 05:37 18.11.2022
1006 Snow -6 1009 90 511 5.03 40 02:49 18.11.2022
1007 Snow -6 1010 89 664 5.07 44 23:38 17.11.2022
1008 Clouds -6 1011 89 905 5.11 42 20:48 17.11.2022
1009 Clouds -5 1011 89 869 4.89 44 19:57 17.11.2022
1010 Clouds -5 1012 83 9060 5.01 49 19:27 17.11.2022
1011 Clouds -5 1012 81 10000 4.6 55 18:34 17.11.2022
1012 Clouds -5 1012 81 10000 4.6 55 17:32 17.11.2022
1013 Clouds -5 1012 72 10000 4.38 61 16:32 17.11.2022
1014 Clouds -3 1012 81 8665 3.27 81 12:24 17.11.2022
1015 Clouds -4 1012 81 9559 2.84 97 11:19 17.11.2022
1016 Snow -3 1012 83 992 2.49 137 07:35 17.11.2022
1017 Clouds -5 1014 78 10000 0.84 342 01:30 17.11.2022
1018 Clouds -4 1015 83 10000 0.68 338 23:32 16.11.2022
1019 Clouds -5 1015 82 10000 0.64 354 22:25 16.11.2022
1020 Clouds -5 1015 81 10000 0.94 32 20:33 16.11.2022
1021 Clear -4 1016 79 10000 1.36 41 18:53 16.11.2022
1022 Clear -4 1016 79 10000 1.36 41 18:32 16.11.2022
1023 Clear -3 1016 79 10000 1.63 37 16:30 16.11.2022
1024 Clouds -2 1015 80 10000 3.07 58 12:20 16.11.2022
1025 Clouds -4 1016 82 10000 3.54 63 08:27 16.11.2022
1026 Clouds -3 1014 83 1258 3.63 82 01:49 16.11.2022
1027 Snow -3 1014 94 312 3.6 94 23:50 15.11.2022
1028 Snow -3 1014 95 175 3.31 107 21:54 15.11.2022
1029 Snow -2 1015 82 171 3.24 113 20:32 15.11.2022
1030 Snow -2 1015 81 162 2.87 123 19:18 15.11.2022
1031 Snow -2 1016 94 183 2.98 149 17:38 15.11.2022
1032 Snow -2 1016 94 183 2.98 149 16:52 15.11.2022
1033 Snow -2 1017 93 216 2.88 155 16:18 15.11.2022
1034 Snow -2 1017 93 206 2.69 160 14:41 15.11.2022
1035 Snow -1 1018 89 368 2.18 192 12:59 15.11.2022
1036 Clouds -1 1020 62 10000 2.17 229 11:29 15.11.2022
1037 Clouds -1 1020 60 10000 2.24 230 10:35 15.11.2022
1038 Clouds -1 1022 71 10000 2.13 257 06:33 15.11.2022
1039 Clouds 0 1024 70 10000 2.74 311 00:32 15.11.2022
1040 Clear 0 1025 71 10000 2.89 313 22:52 14.11.2022
1041 Clear 0 1025 72 10000 3.2 318 21:18 14.11.2022
1042 Clear 0 1025 73 10000 3.2 318 20:37 14.11.2022
1043 Clear 0 1026 74 10000 4.22 324 18:29 14.11.2022
1044 Clear 0 1026 76 10000 4.43 325 15:40 14.11.2022
1045 Clear 1 1026 75 10000 4.89 330 11:50 14.11.2022
1046 Clear 1 1026 75 10000 5.13 344 11:28 14.11.2022
1047 Clear 1 1026 75 10000 5.13 344 11:28 14.11.2022
1048 Clear 1 1026 75 10000 5.13 344 11:28 14.11.2022
1049 Clear 0 1026 79 10000 5.52 348 08:48 14.11.2022
1050 Clear 0 1026 79 10000 5.52 348 08:48 14.11.2022
1051 Clear 0 1026 79 10000 5.52 348 08:48 14.11.2022
1052 Clear 0 1026 80 10000 5.47 345 07:53 14.11.2022
1053 Clouds 0 1025 80 10000 5.85 345 06:19 14.11.2022
1054 Clouds 2 1021 84 10000 6.57 338 00:18 14.11.2022
1055 Clouds 4 1020 80 10000 6.93 337 21:46 13.11.2022
1056 Clouds 4 1019 79 10000 7.1 335 20:58 13.11.2022
1057 Clouds 5 1018 77 10000 7.75 333 19:25 13.11.2022
1058 Clouds 5 1017 76 10000 7.78 331 17:55 13.11.2022
1059 Clouds 5 1017 76 10000 7.83 331 17:21 13.11.2022
1060 Clouds 6 1015 75 10000 8.11 328 14:58 13.11.2022
1061 Clouds 7 1014 74 10000 8.14 323 13:35 13.11.2022
1062 Clouds 7 1014 74 10000 8.09 323 12:35 13.11.2022
1063 Clouds 7 1012 76 10000 8.3 318 10:52 13.11.2022
1064 Clouds 8 1010 75 10000 8.62 316 07:39 13.11.2022
1065 Clouds 10 1009 76 10000 8.76 303 01:33 13.11.2022
1066 Clouds 11 1007 80 10000 8.96 303 22:19 12.11.2022
1067 Clouds 11 1007 82 10000 9.17 300 21:24 12.11.2022
1068 Clouds 11 1007 84 10000 9.34 296 19:55 12.11.2022
1069 Clouds 12 1005 88 10000 9.49 294 17:56 12.11.2022
1070 Clouds 11 1005 90 10000 9.51 287 16:23 12.11.2022
1071 Clouds 11 1005 90 10000 9.42 276 15:19 12.11.2022
1072 Clouds 10 1008 88 10000 8 252 12:27 12.11.2022
1073 Clouds 10 1012 89 10000 5.78 246 09:20 12.11.2022
1074 Clouds 9 1014 91 10000 6.64 257 05:31 12.11.2022
1075 Rain 8 1017 88 10000 6.79 239 22:30 11.11.2022
1076 Clouds 8 1018 88 10000 6.15 239 20:46 11.11.2022
1077 Clouds 8 1018 88 10000 6.15 239 20:46 11.11.2022
1078 Clouds 8 1019 87 10000 6.08 242 19:44 11.11.2022
1079 Clouds 8 1019 87 10000 5.64 240 19:20 11.11.2022
1080 Clouds 8 1020 86 10000 5.32 236 17:56 11.11.2022
1081 Clouds 8 1020 86 10000 5.32 236 17:56 11.11.2022
1082 Clouds 8 1020 86 10000 5.32 236 17:56 11.11.2022
1083 Clouds 8 1021 79 10000 3.85 237 16:27 11.11.2022
1084 Clouds 8 1021 89 10000 3.69 248 14:20 11.11.2022
1085 Clouds 8 1021 91 10000 3.62 262 13:29 11.11.2022
1086 Clouds 8 1021 90 10000 3.75 251 09:49 11.11.2022
1087 Clouds 7 1020 93 10000 3.86 238 08:27 11.11.2022
1088 Clouds 7 1019 94 10000 3.64 235 06:26 11.11.2022
1089 Clouds 8 1020 86 10000 3.98 225 23:38 10.11.2022
1090 Clouds 8 1020 86 10000 3.98 225 22:41 10.11.2022
1091 Clouds 8 1020 86 10000 4.11 223 21:35 10.11.2022
1092 Clouds 8 1020 86 10000 4.11 223 20:59 10.11.2022
1093 Clouds 8 1020 86 10000 4.25 225 20:22 10.11.2022
1094 Clouds 8 1020 86 10000 4.25 225 19:44 10.11.2022
1095 Clouds 8 1019 86 10000 4.11 220 18:33 10.11.2022
1096 Clouds 8 1019 84 10000 4.46 228 16:26 10.11.2022
1097 Clouds 9 1019 83 10000 4.89 231 14:21 10.11.2022
1098 Clouds 10 1019 83 10000 5.05 231 12:51 10.11.2022
1099 Clouds 7 1019 84 10000 5.24 229 09:19 10.11.2022
1100 Clouds 8 1018 88 10000 4.7 221 06:40 10.11.2022
1101 Clouds 9 1018 89 10000 4.58 231 00:56 10.11.2022
1102 Clouds 9 1018 90 10000 4.63 233 22:47 09.11.2022
1103 Clouds 9 1018 91 10000 4.58 235 20:58 09.11.2022
1104 Clouds 9 1018 91 10000 4.58 235 20:39 09.11.2022
1105 Clouds 9 1018 91 10000 4.54 235 19:50 09.11.2022
1106 Clouds 9 1018 91 10000 4.59 232 19:25 09.11.2022
1107 Clouds 9 1018 92 10000 4.45 228 17:41 09.11.2022
1108 Clouds 9 1018 92 10000 4.11 230 14:56 09.11.2022
1109 Clouds 9 1017 92 10000 4.05 230 14:27 09.11.2022
1110 Clouds 9 1017 92 10000 4.05 230 13:44 09.11.2022
1111 Clouds 9 1017 92 10000 4.05 232 12:52 09.11.2022
1112 Clouds 8 1017 92 10000 3.64 230 09:29 09.11.2022
1113 Clouds 8 1017 92 10000 3.61 237 07:47 09.11.2022
1114 Clouds 7 1017 93 10000 3.6 236 06:33 09.11.2022
1115 Clouds 6 1015 92 10000 4.1 229 22:38 08.11.2022
1116 Clouds 6 1015 92 10000 3.8 220 21:40 08.11.2022
1117 Clouds 5 1015 92 10000 3.78 227 20:54 08.11.2022
1118 Clouds 5 1015 92 10000 3.99 229 20:21 08.11.2022
1119 Clouds 5 1015 92 10000 4.29 216 19:28 08.11.2022
1120 Clouds 5 1015 91 10000 4.32 230 17:37 08.11.2022
1121 Clouds 5 1015 91 10000 4.37 217 15:37 08.11.2022
1122 Clouds 5 1015 90 10000 4.62 216 14:36 08.11.2022
1123 Rain 5 1015 90 10000 4.56 216 13:29 08.11.2022
1124 Rain 4 1015 91 10000 4.51 213 11:30 08.11.2022
1125 Rain 3 1016 90 10000 4.83 209 07:45 08.11.2022
1126 Clouds 3 1016 90 10000 4.45 203 06:28 08.11.2022
1127 Clouds 2 1020 96 10000 3.35 194 22:59 07.11.2022
1128 Clouds 2 1020 89 10000 3.11 198 21:52 07.11.2022
1129 Clouds 2 1021 89 10000 2.92 197 20:58 07.11.2022
1130 Clouds 2 1021 89 10000 3.01 204 19:52 07.11.2022
1131 Clouds 2 1022 89 10000 2.84 205 17:44 07.11.2022
1132 Clouds 2 1022 88 10000 2.65 211 15:55 07.11.2022
1133 Clouds 2 1022 88 10000 2.65 211 15:32 07.11.2022
1134 Clouds 2 1022 87 760 2.17 207 13:51 07.11.2022
1135 Clouds 2 1023 98 236 2 234 12:32 07.11.2022
1136 Clouds 2 1023 87 211 2.66 240 10:46 07.11.2022
1137 Clouds 1 1023 98 54 2.64 236 09:22 07.11.2022
1138 Clouds 1 1024 98 69 2.99 233 07:21 07.11.2022
1139 Snow 0 1024 97 111 4.03 210 02:28 07.11.2022
1140 Snow 0 1024 93 3598 4.09 207 00:36 07.11.2022
1141 Clouds 0 1025 83 10000 3.86 198 21:53 06.11.2022
1142 Clouds 0 1025 83 10000 3.81 195 21:19 06.11.2022
1143 Clouds 0 1026 83 10000 3.83 195 19:59 06.11.2022
1144 Clouds -1 1026 83 10000 3.69 195 19:30 06.11.2022
1145 Clouds -1 1026 82 10000 3.66 191 18:21 06.11.2022
1146 Clouds -1 1026 82 10000 3.66 191 17:46 06.11.2022
1147 Clouds -1 1027 81 10000 3.57 188 17:19 06.11.2022
1148 Clouds -1 1027 80 10000 3.45 184 16:30 06.11.2022
1149 Clouds -1 1027 80 10000 3.45 184 15:39 06.11.2022
1150 Clouds -1 1028 74 10000 3.26 191 12:48 06.11.2022
1151 Clouds -1 1028 81 10000 3.46 191 11:56 06.11.2022
1152 Clouds -1 1028 74 10000 3.61 193 10:35 06.11.2022
1153 Clouds -2 1029 85 10000 3.23 202 07:44 06.11.2022
1154 Clouds -2 1029 85 10000 3.23 202 07:44 06.11.2022
1155 Clouds 0 1030 82 10000 2.21 225 00:46 06.11.2022
1156 Clouds -1 1029 81 10000 1.64 226 22:49 05.11.2022
1157 Clouds 0 1029 81 10000 0.52 19 19:20 05.11.2022
1158 Clouds 0 1028 86 10000 1.25 12 16:58 05.11.2022
1159 Clouds 0 1027 80 10000 1.17 351 15:28 05.11.2022
1160 Clouds 0 1027 79 10000 1.17 351 14:33 05.11.2022
1161 Clouds 1 1026 81 10000 1.45 346 12:34 05.11.2022
1162 Clouds 0 1026 82 10000 1.64 359 09:37 05.11.2022
1163 Clouds 0 1024 83 10000 1.57 1 07:25 05.11.2022
1164 Clouds 0 1024 83 10000 1.57 1 06:57 05.11.2022
1165 Clouds 0 1023 84 10000 1.57 359 02:35 05.11.2022
1166 Clouds 0 1021 84 10000 1.85 34 23:33 04.11.2022
1167 -273 0 0 0 0 0 21:59 04.11.2022
1168 Clouds 1 1020 84 1875 1.8 4 19:51 04.11.2022
1169 Clouds 0 1020 95 1231 1.81 345 17:45 04.11.2022
1170 Clouds 0 1019 89 10000 2.27 356 15:27 04.11.2022
1171 Clouds 0 1018 83 10000 2.06 356 13:21 04.11.2022
1172 Clouds 0 1018 78 10000 1.9 351 12:21 04.11.2022
1173 Clouds -1 1018 84 10000 2.45 19 09:31 04.11.2022
1174 Clouds -2 1018 81 10000 2.29 13 08:20 04.11.2022
1175 Clouds -2 1018 85 10000 2.22 3 06:57 04.11.2022
1176 Clouds -2 1017 84 10000 2.01 337 00:57 04.11.2022
1177 Clouds -2 1017 83 10000 1.67 342 21:52 03.11.2022
1178 Clouds -2 1018 90 10000 1.81 342 20:47 03.11.2022
1179 Clouds -2 1018 89 10000 1.99 344 19:42 03.11.2022
1180 Clouds -2 1018 88 10000 1.77 340 18:32 03.11.2022
1181 Clouds -2 1018 88 10000 1.77 340 17:38 03.11.2022
1182 Clouds -2 1018 88 10000 1.52 334 15:27 03.11.2022
1183 Clouds -1 1017 81 10000 1.76 339 13:47 03.11.2022
1184 Clouds -1 1017 82 10000 2.22 336 12:35 03.11.2022
1185 Clouds -1 1017 83 10000 2.59 336 11:43 03.11.2022
1186 Clouds -2 1018 84 10000 2.69 350 07:49 03.11.2022
1187 Clouds -1 1017 83 10000 2.38 345 23:56 02.11.2022
1188 Clouds -1 1016 82 10000 2.36 345 20:56 02.11.2022
1189 Clouds -1 1016 82 10000 2.36 345 20:32 02.11.2022
1190 Clouds -1 1016 84 10000 2.31 354 18:45 02.11.2022
1191 Clouds 0 1016 85 10000 2.11 352 16:31 02.11.2022
1192 Clouds 1 1015 81 10000 2.5 355 15:35 02.11.2022
1193 Clouds 2 1015 80 10000 2.7 346 13:26 02.11.2022
1194 Clouds 2 1015 83 10000 2.15 342 12:35 02.11.2022
1195 Clouds 2 1015 95 1005 1.28 18 10:25 02.11.2022
1196 Clouds 2 1015 98 60 1.4 42 08:41 02.11.2022
1197 Snow 1 1015 99 29 0.97 349 03:32 02.11.2022
1198 Snow 1 1016 99 45 1.38 313 22:53 01.11.2022
1199 Snow 1 1016 98 53 1.61 316 22:18 01.11.2022
1200 Clouds 1 1016 94 1284 1.86 315 21:20 01.11.2022
1201 Clouds 1 1016 85 10000 2.25 321 20:23 01.11.2022
1202 Clouds 1 1016 85 10000 2.25 321 19:41 01.11.2022
1203 Clouds 1 1017 88 10000 2.24 323 18:30 01.11.2022
1204 Clouds 1 1017 79 10000 1.7 331 16:56 01.11.2022
1205 Clouds 1 1017 74 10000 2.61 348 15:19 01.11.2022
1206 Clouds 2 1017 68 10000 3.95 342 13:24 01.11.2022
1207 Clouds 2 1017 68 10000 4.2 344 12:27 01.11.2022
1208 Clouds 1 1017 70 10000 4.39 343 11:21 01.11.2022
1209 Clouds 1 1017 74 10000 4.56 340 09:37 01.11.2022
1210 Clouds 1 1017 81 10000 4.89 329 08:26 01.11.2022
1211 Clouds 0 1017 81 10000 4.59 324 07:29 01.11.2022
1212 Clouds 0 1017 81 10000 4.59 324 06:46 01.11.2022
1213 Clouds 0 1016 82 10000 4.36 320 05:52 01.11.2022
1214 Clouds 1 1014 79 10000 5.57 327 23:47 31.10.2022
1215 Clouds 2 1012 79 10000 6.27 329 21:34 31.10.2022
1216 Clouds 2 1012 80 10000 6.56 330 20:18 31.10.2022
1217 Clouds 2 1011 83 10000 7 328 18:47 31.10.2022
1218 Clouds 2 1010 80 10000 7.61 324 16:45 31.10.2022
1219 Clouds 3 1009 80 10000 7.54 320 15:52 31.10.2022
1220 Clouds 2 1007 70 10000 6.4 324 13:22 31.10.2022
1221 Clouds 1 1005 70 10000 7.02 344 09:53 31.10.2022
1222 Snow 0 1002 80 10000 8.03 334 08:24 31.10.2022
1223 Snow 0 999 83 1842 7.57 288 02:51 31.10.2022
1224 Clouds 0 1000 69 10000 7.54 292 01:49 31.10.2022
1225 Clouds 0 1000 62 10000 7.03 297 22:59 30.10.2022
1226 Clouds 0 1000 59 10000 7.05 301 20:46 30.10.2022
1227 Clouds 1 1000 58 10000 6.73 304 19:54 30.10.2022
1228 Clouds 2 1000 52 10000 6.47 305 17:53 30.10.2022
1229 Clouds 2 999 83 10000 6.53 303 15:29 30.10.2022
1230 Clouds 6 998 77 10000 7.21 296 13:52 30.10.2022
1231 Clouds 7 998 76 10000 7.35 287 12:52 30.10.2022
1232 Clouds 8 998 61 10000 7.06 290 11:24 30.10.2022
1233 Clouds 8 998 80 10000 6.54 286 09:37 30.10.2022
1234 Clouds 8 998 83 10000 6.24 295 08:25 30.10.2022
1235 Clouds 10 997 91 10000 5.33 271 01:47 30.10.2022
1236 Clouds 10 999 91 10000 4.46 228 00:27 30.10.2022
1237 Rain 9 999 91 10000 4.46 228 23:44 29.10.2022
1238 Clouds 9 1003 96 10000 4.16 233 21:25 29.10.2022
1239 Clouds 9 1005 95 10000 4.16 236 17:47 29.10.2022
1240 Clouds 9 1006 94 10000 4.28 233 17:18 29.10.2022
1241 Clouds 10 1007 88 10000 4.18 227 15:37 29.10.2022
1242 Clouds 10 1008 88 10000 4.27 226 14:47 29.10.2022
1243 Clouds 9 1009 88 10000 4.39 223 12:34 29.10.2022
1244 Rain 9 1012 91 10000 4.43 218 10:46 29.10.2022
1245 Clouds 9 1014 90 10000 3.49 227 07:37 29.10.2022
1246 Clouds 9 1015 90 10000 3.32 239 05:56 29.10.2022
1247 Clouds 8 1016 89 10000 4.2 259 03:59 29.10.2022
1248 Clouds 8 1018 88 10000 2.97 239 23:42 28.10.2022
1249 Clouds 8 1019 87 10000 3.25 237 20:47 28.10.2022
1250 Clouds 8 1020 86 10000 3.5 230 19:26 28.10.2022
1251 Clouds 8 1020 85 10000 3.5 230 18:31 28.10.2022
1252 Clouds 9 1021 82 10000 3.48 223 15:33 28.10.2022
1253 Clouds 8 1021 81 10000 3.48 223 14:43 28.10.2022
1254 Clouds 8 1022 82 10000 3.29 218 12:57 28.10.2022
1255 Clouds 6 1023 86 10000 2.49 219 11:35 28.10.2022
1256 Clouds 6 1023 86 10000 2.49 219 10:59 28.10.2022
1257 Clouds 5 1023 88 10000 2.49 208 09:49 28.10.2022
1258 Clouds 4 1023 90 10000 2.45 207 08:34 28.10.2022
1259 Clouds 3 1023 78 10000 1.99 209 03:51 28.10.2022
1260 Clouds 2 1024 78 10000 1.46 231 23:50 27.10.2022
1261 Clouds 3 1024 78 10000 1.34 209 22:58 27.10.2022
1262 Clouds 3 1024 78 10000 1.44 205 21:56 27.10.2022
1263 Clouds 3 1023 78 10000 1.28 182 20:32 27.10.2022
1264 Clouds 3 1023 78 10000 1.17 157 18:23 27.10.2022
1265 Clouds 5 1022 78 10000 1.17 140 15:42 27.10.2022
1266 Clouds 4 1021 78 10000 1.88 126 11:33 27.10.2022
1267 Clouds 1 1020 84 10000 1.97 130 07:32 27.10.2022
1268 Clouds 2 1021 78 10000 2.55 127 00:23 27.10.2022
1269 Clouds 2 1021 78 10000 2.55 127 23:51 26.10.2022
1270 Clouds 2 1021 78 10000 3.01 133 22:40 26.10.2022
1271 Clouds 3 1021 78 10000 3.15 136 21:22 26.10.2022
1272 Clouds 3 1021 78 10000 3.9 133 17:40 26.10.2022
1273 Clouds 4 1021 78 10000 4.39 137 14:54 26.10.2022
1274 Clouds 5 1021 59 10000 4.63 141 13:31 26.10.2022
1275 Clouds 5 1021 60 10000 4.79 143 12:19 26.10.2022
1276 Clouds 2 1022 78 10000 4.36 145 09:19 26.10.2022
1277 Clouds 2 1022 78 10000 4.36 145 08:52 26.10.2022
1278 Clouds -1 1021 74 10000 2.88 127 00:54 26.10.2022
1279 Clouds -1 1021 74 10000 2.88 127 00:35 26.10.2022
1280 Clouds 1 1021 78 10000 2.39 140 22:29 25.10.2022
1281 Clouds 1 1021 78 10000 2.39 140 21:45 25.10.2022
1282 Clouds 1 1021 78 10000 2.17 142 20:33 25.10.2022
1283 Clouds 1 1021 78 10000 2.12 139 20:33 25.10.2022
1284 Clouds 2 1021 78 10000 1.88 144 18:56 25.10.2022
1285 Clouds 3 1021 75 10000 1.59 143 16:56 25.10.2022
1286 Clouds 6 1020 75 10000 0.78 191 11:49 25.10.2022
1287 Clouds 4 1021 78 10000 0.58 208 10:56 25.10.2022
1288 Clouds 4 1021 80 10000 0.46 259 10:34 25.10.2022
1289 Clouds -1 1020 69 10000 0.76 317 08:38 25.10.2022
1290 Clouds -1 1020 68 10000 0.75 310 08:18 25.10.2022
1291 Clouds -2 1020 68 10000 0.75 310 07:53 25.10.2022
1292 Clouds -2 1020 84 10000 1.03 316 06:48 25.10.2022
1293 Clouds -2 1019 71 10000 1.76 312 03:32 25.10.2022
1294 Clouds 0 1018 79 10000 1.97 311 00:32 25.10.2022
1295 Clouds 0 1018 68 10000 2.23 321 22:28 24.10.2022
1296 Clouds 1 1018 68 10000 2.23 321 21:50 24.10.2022
1297 Clouds 2 1018 78 10000 2.23 321 21:31 24.10.2022
1298 Clouds 2 1017 77 10000 2.63 318 20:29 24.10.2022
1299 Clouds 4 1016 76 10000 2.72 319 18:46 24.10.2022
1300 Clouds 5 1015 85 10000 3.21 323 16:59 24.10.2022
1301 Clouds 6 1014 85 10000 3.66 324 15:51 24.10.2022
1302 Clouds 7 1013 44 10000 4.84 331 14:21 24.10.2022
1303 Clouds 6 1013 85 10000 5.42 333 12:59 24.10.2022
1304 Clouds 7 1012 84 10000 4.85 318 10:27 24.10.2022
1305 Clouds 5 1010 89 10000 4.46 312 07:56 24.10.2022
1306 Clouds 6 1008 92 10000 2.17 265 23:45 23.10.2022
1307 Clouds 6 1009 93 10000 1.88 223 20:41 23.10.2022
1308 Clouds 6 1010 92 10000 2.03 208 19:34 23.10.2022
1309 Clouds 6 1011 88 10000 2.31 194 17:30 23.10.2022
1310 Clouds 6 1011 88 10000 2.31 194 17:30 23.10.2022
1311 Clouds 6 1011 87 10000 2.48 184 16:41 23.10.2022
1312 Clouds 6 1012 86 10000 2.96 174 15:19 23.10.2022
1313 Clouds 6 1013 78 10000 3.43 177 12:31 23.10.2022
1314 Clouds 6 1014 83 10000 3.34 173 10:58 23.10.2022
1315 Clouds 3 1016 86 10000 3.16 176 06:56 23.10.2022
1316 Clouds 5 1019 82 10000 2.5 195 23:32 22.10.2022
1317 Clouds 5 1019 81 10000 2.47 199 22:30 22.10.2022
1318 Clouds 6 1019 82 10000 2.47 199 21:41 22.10.2022
1319 Clouds 5 1020 78 10000 2.04 183 20:29 22.10.2022
1320 Clouds 6 1021 82 10000 2.36 194 19:31 22.10.2022
1321 Clouds 6 1021 79 10000 2.36 194 18:45 22.10.2022
1322 Clouds 6 1021 75 10000 2.39 196 17:27 22.10.2022
1323 Clouds 7 1021 81 10000 2.57 214 15:26 22.10.2022
1324 Clouds 7 1021 67 10000 2.72 220 14:36 22.10.2022
1325 Clouds 7 1022 80 10000 2.53 225 12:35 22.10.2022
1326 Clouds 5 1022 74 10000 2.26 236 09:49 22.10.2022
1327 Clouds 5 1022 77 10000 2.05 246 08:51 22.10.2022
1328 Clouds 4 1022 83 10000 2.02 233 06:30 22.10.2022
1329 Clouds 4 1022 81 10000 1.58 290 01:43 22.10.2022
1330 Clouds 5 1022 83 10000 2.39 306 22:53 21.10.2022
1331 Clouds 4 1021 83 10000 2.34 290 21:34 21.10.2022
1332 Clouds 4 1021 83 10000 2.13 283 20:49 21.10.2022
1333 Clouds 5 1021 83 10000 2.18 277 18:32 21.10.2022
1334 Clouds 6 1020 74 10000 3.15 286 14:47 21.10.2022
1335 Clouds 5 1020 73 10000 3.22 283 13:43 21.10.2022
1336 Clouds 5 1020 74 10000 3.14 289 11:56 21.10.2022
1337 Clouds 4 1020 76 10000 3.09 293 10:27 21.10.2022
1338 Clouds 3 1020 77 10000 2.98 291 09:37 21.10.2022
1339 Clouds 3 1020 77 10000 2.94 290 08:26 21.10.2022
1340 Clouds 2 1020 74 10000 2.61 293 05:57 21.10.2022
1341 Clear 2 1020 78 10000 2.81 316 23:59 20.10.2022
1342 Clear 2 1020 78 10000 2.81 316 23:59 20.10.2022
1343 Clear 2 1020 75 10000 2.85 324 21:50 20.10.2022
1344 Clouds 3 1019 72 10000 3.03 324 20:18 20.10.2022
1345 Clouds 3 1019 70 10000 2.91 324 19:30 20.10.2022
1346 Clouds 3 1018 61 10000 3.27 327 17:51 20.10.2022
1347 Clouds 6 1017 63 10000 3.98 338 15:46 20.10.2022
1348 Clouds 6 1016 57 10000 3.75 351 12:36 20.10.2022
1349 Clouds 6 1016 59 10000 3.23 2 12:18 20.10.2022
1350 Clouds 7 1016 61 10000 3.21 15 10:56 20.10.2022
1351 Clouds 7 1016 61 10000 3.32 27 10:23 20.10.2022
1352 Clouds 6 1015 79 10000 3.72 36 07:44 20.10.2022
1353 Clouds 6 1012 75 10000 2.77 47 03:31 20.10.2022
1354 Clouds 6 1010 83 10000 3.28 61 23:53 19.10.2022
1355 Clouds 6 1009 83 10000 2.96 67 22:35 19.10.2022
1356 Clouds 7 1009 83 10000 2.96 67 21:48 19.10.2022
1357 Clouds 7 1008 84 10000 2.51 70 20:40 19.10.2022
1358 Clouds 7 1007 81 10000 1.09 55 17:55 19.10.2022
1359 Clouds 7 1007 81 10000 0.56 8 16:58 19.10.2022
1360 Clouds 8 1007 80 10000 1.43 242 15:23 19.10.2022
1361 Clouds 8 1006 72 10000 1.09 232 12:45 19.10.2022
1362 Clouds 7 1007 79 10000 1.71 13 09:26 19.10.2022
1363 Clouds 8 1007 82 10000 1.22 24 07:51 19.10.2022
1364 Clouds 7 1010 79 10000 2.26 261 03:49 19.10.2022
1365 Clouds 8 1012 75 10000 2.9 284 00:25 19.10.2022
1366 Clouds 8 1012 76 10000 3.47 296 22:46 18.10.2022
1367 Clouds 8 1012 79 10000 4.46 323 21:37 18.10.2022
1368 Clouds 10 1012 79 10000 4.46 323 20:35 18.10.2022
1369 Clouds 10 1010 79 10000 6.66 297 19:28 18.10.2022
1370 Clouds 12 1010 84 10000 5.5 291 17:31 18.10.2022
1371 Clouds 13 1009 89 10000 6.29 261 16:20 18.10.2022
1372 Clouds 11 1009 93 10000 5.79 255 13:57 18.10.2022
1373 Clouds 9 1011 94 10000 2.28 189 12:30 18.10.2022
1374 Rain 8 1013 91 9500 3.14 171 11:20 18.10.2022
1375 Rain 7 1017 86 7507 3.11 192 09:27 18.10.2022
1376 Clouds 7 1019 79 10000 3.62 246 07:43 18.10.2022
1377 Clouds 7 1022 83 10000 4.13 253 01:57 18.10.2022
1378 Clouds 8 1023 78 10000 4.72 266 21:50 17.10.2022
1379 Clouds 8 1023 90 10000 4.92 251 20:50 17.10.2022
1380 Clouds 8 1023 87 10000 5.45 251 20:30 17.10.2022
1381 Clouds 8 1023 87 10000 5.45 251 20:30 17.10.2022
1382 Clouds 8 1023 87 10000 5.45 251 19:51 17.10.2022
1383 Clouds 8 1022 80 10000 5.68 243 18:42 17.10.2022
1384 Clouds 7 1022 83 10000 5.85 244 16:49 17.10.2022
1385 Clouds 7 1022 73 10000 6.2 235 15:29 17.10.2022
1386 Clouds 7 1023 71 10000 6.78 228 14:34 17.10.2022
1387 Clouds 7 1025 56 10000 6.54 223 10:30 17.10.2022
1388 Clouds 4 1027 65 10000 5.69 209 05:26 17.10.2022
1389 Clouds 5 1030 70 10000 4.75 213 23:30 16.10.2022
1390 Clouds 6 1030 70 10000 4.69 210 21:47 16.10.2022
1391 Clouds 7 1030 69 10000 4.47 209 20:41 16.10.2022
1392 Clouds 7 1030 67 10000 4.58 216 19:46 16.10.2022
1393 Clouds 9 1030 64 10000 4.37 211 17:51 16.10.2022
1394 Clouds 10 1030 57 10000 4.4 213 16:33 16.10.2022
1395 Clouds 11 1030 57 10000 4.4 213 15:57 16.10.2022
1396 Clouds 12 1030 50 10000 4.97 215 14:33 16.10.2022
1397 Clouds 11 1030 53 10000 4.67 219 12:23 16.10.2022
1398 Clouds 9 1031 60 10000 4.03 220 10:27 16.10.2022
1399 Clear 4 1030 63 10000 3.94 220 08:44 16.10.2022
1400 Clouds 4 1029 70 10000 2.67 228 01:26 16.10.2022
1401 Clouds 5 1028 68 10000 2.83 227 22:43 15.10.2022
1402 Clouds 5 1028 68 10000 2.63 219 21:25 15.10.2022
1403 Clouds 5 1028 68 10000 2.63 219 20:55 15.10.2022
1404 Clouds 7 1027 70 10000 2.34 225 18:44 15.10.2022
1405 Clouds 9 1026 60 10000 2.55 236 15:49 15.10.2022
1406 Clouds 9 1026 57 10000 3.01 242 14:55 15.10.2022
1407 Clouds 8 1026 58 10000 2.56 244 11:58 15.10.2022
1408 Clouds 7 1026 61 10000 2.43 246 10:47 15.10.2022
1409 Clouds 5 1026 69 10000 2.32 247 08:54 15.10.2022
1410 Clouds 3 1025 80 10000 1.94 256 03:21 15.10.2022
1411 Clouds 3 1024 77 10000 1.89 257 23:58 14.10.2022
1412 Clouds 4 1024 73 10000 1.77 263 22:24 14.10.2022
1413 Clouds 5 1024 70 10000 1.76 266 21:30 14.10.2022
1414 Clouds 6 1024 68 10000 1.71 269 20:25 14.10.2022
1415 Clouds 6 1024 60 10000 1.8 278 16:59 14.10.2022
1416 Clouds 8 1024 51 10000 2.57 283 13:52 14.10.2022
1417 Clouds 8 1024 53 10000 2.41 277 12:44 14.10.2022
1418 Clouds 3 1025 55 10000 1.5 276 09:46 14.10.2022
1419 Clouds 0 1025 63 10000 1.25 310 07:57 14.10.2022
1420 Clear 0 1025 74 10000 1.39 333 06:18 14.10.2022
1421 Clear 0 1025 74 10000 1.4 333 05:49 14.10.2022
1422 Clear 0 1025 74 10000 1.4 333 05:31 14.10.2022
1423 Clouds 3 1025 72 10000 2.63 327 00:53 14.10.2022
1424 Clouds 4 1024 66 10000 2.46 316 22:32 13.10.2022
1425 Clouds 5 1024 71 10000 1.89 332 21:29 13.10.2022
1426 Clouds 5 1024 70 10000 2.43 333 20:19 13.10.2022
1427 Clouds 5 1024 70 10000 2.43 333 19:39 13.10.2022
1428 Clouds 6 1024 65 10000 2.53 327 18:44 13.10.2022
1429 Clouds 6 1023 59 10000 3.09 317 17:31 13.10.2022
1430 Clouds 6 1023 59 10000 3.09 317 17:31 13.10.2022
1431 Clouds 8 1023 54 10000 3.32 312 15:48 13.10.2022
1432 Clouds 8 1023 48 10000 3.81 318 14:29 13.10.2022
1433 Clouds 8 1023 51 10000 3.55 317 12:56 13.10.2022
1434 Clouds 7 1023 57 10000 3.45 308 11:39 13.10.2022
1435 Clouds 6 1023 64 10000 2.8 318 09:46 13.10.2022
1436 Clouds 5 1023 68 10000 2.67 330 08:33 13.10.2022
1437 Clouds 5 1023 80 10000 2.63 329 07:36 13.10.2022
1438 Clouds 6 1021 57 10000 2.53 329 01:59 13.10.2022
1439 Clouds 6 1021 57 10000 2.87 332 01:28 13.10.2022
1440 Clouds 6 1021 67 10000 3.3 321 22:58 12.10.2022
1441 Clouds 5 1020 68 10000 3.51 322 22:37 12.10.2022
1442 Clouds 6 1020 71 10000 3.74 324 21:24 12.10.2022
1443 Clouds 5 1020 71 10000 3.74 324 20:53 12.10.2022
1444 Clouds 5 1020 70 10000 3.47 317 20:25 12.10.2022
1445 Clouds 6 1019 69 10000 1.36 300 18:40 12.10.2022
1446 Clouds 6 1019 72 10000 1.77 314 17:54 12.10.2022
1447 Clouds 8 1019 75 10000 2.96 323 16:18 12.10.2022
1448 Clouds 10 1018 70 10000 4.07 303 13:57 12.10.2022
1449 Clouds 11 1018 64 10000 4.1 293 13:34 12.10.2022
1450 Clouds 10 1018 57 10000 2.89 289 10:39 12.10.2022
1451 Clouds 4 1018 67 10000 1.6 274 08:37 12.10.2022
1452 Clouds 2 1019 64 10000 1.56 278 07:41 12.10.2022
1453 Clouds 0 1019 68 10000 1.36 279 06:43 12.10.2022
1454 Clouds 1 1019 59 10000 0.8 287 01:34 12.10.2022
1455 Clouds 3 1020 75 10000 0.25 334 22:43 11.10.2022
1456 Clouds 5 1020 71 10000 0.82 41 20:57 11.10.2022
1457 Clouds 5 1020 55 10000 1.27 47 19:58 11.10.2022
1458 Clouds 9 1020 63 10000 1.63 46 17:38 11.10.2022
1459 Clouds 11 1020 61 10000 2.22 26 15:32 11.10.2022
1460 Clouds 11 1021 38 10000 2.38 32 13:29 11.10.2022
1461 Clouds 8 1022 76 10000 2.42 37 10:32 11.10.2022
1462 Clouds 8 1023 79 10000 2.34 42 09:55 11.10.2022
1463 Clouds 5 1024 82 10000 2.53 37 08:25 11.10.2022
1464 Clouds 4 1024 80 10000 2.32 28 02:46 11.10.2022
1465 Clouds 4 1025 78 10000 2.63 28 00:34 11.10.2022
1466 Clear 6 1025 74 10000 2.7 19 21:47 10.10.2022
1467 Clear 7 1025 73 10000 2.82 17 20:37 10.10.2022
1468 Clear 8 1025 73 10000 3.14 13 18:50 10.10.2022
1469 Clear 9 1025 71 10000 3.48 9 17:24 10.10.2022
1470 Clear 11 1024 69 10000 3.87 10 16:28 10.10.2022
1471 Clear 12 1024 68 10000 4.76 10 13:53 10.10.2022
1472 Clear 12 1024 72 10000 4.45 16 12:22 10.10.2022
1473 Clear 9 1023 79 10000 4.83 358 09:26 10.10.2022
1474 Clouds 9 1022 82 10000 3.29 359 06:22 10.10.2022
1475 Clouds 9 1022 82 10000 3.29 359 05:33 10.10.2022
1476 Clouds 10 1018 85 10000 3.37 333 01:25 10.10.2022
1477 Clouds 10 1017 84 10000 2.62 321 23:37 09.10.2022
1478 Clouds 10 1017 83 10000 2.81 294 22:26 09.10.2022
1479 Clouds 10 1017 83 10000 2.81 294 21:30 09.10.2022
1480 Clouds 10 1017 88 10000 2.82 283 20:43 09.10.2022
1481 Rain 11 1016 80 10000 3.06 279 19:49 09.10.2022
1482 Clouds 11 1016 79 10000 3.25 264 18:50 09.10.2022
1483 Rain 11 1016 74 10000 3.16 253 17:44 09.10.2022
1484 Clouds 12 1016 70 10000 4 250 16:48 09.10.2022
1485 Clouds 12 1015 70 10000 4.81 244 16:20 09.10.2022
1486 Clouds 16 1015 65 10000 5.24 242 14:56 09.10.2022
1487 Clouds 16 1015 56 10000 5.55 230 14:26 09.10.2022
1488 Clouds 16 1015 68 10000 6.02 224 12:50 09.10.2022
1489 Clouds 15 1015 55 10000 6.33 210 11:27 09.10.2022
1490 Clouds 10 1016 82 10000 5.51 207 08:33 09.10.2022
1491 Clouds 8 1016 85 10000 5.12 206 06:46 09.10.2022
1492 Clouds 8 1018 83 10000 4.94 211 03:29 09.10.2022
1493 Clouds 9 1018 81 10000 5.03 213 01:54 09.10.2022
1494 Clouds 9 1019 79 10000 5.05 219 23:33 08.10.2022
1495 Clouds 9 1019 78 10000 5 217 22:52 08.10.2022
1496 Clouds 11 1020 75 10000 4.81 215 20:45 08.10.2022
1497 Clouds 11 1020 75 10000 4.81 215 19:48 08.10.2022
1498 Clouds 12 1021 72 10000 4.64 211 17:45 08.10.2022
1499 Clouds 15 1021 69 10000 4.72 216 15:36 08.10.2022
1500 Clouds 15 1022 71 10000 5.27 226 13:53 08.10.2022
1501 Clouds 14 1022 72 10000 5.11 229 12:30 08.10.2022
1502 Clouds 13 1023 80 10000 4.93 233 10:36 08.10.2022
1503 Clouds 12 1023 83 10000 4.93 233 09:43 08.10.2022
1504 Clouds 9 1024 87 10000 3.47 233 07:32 08.10.2022
1505 Clouds 7 1024 86 10000 3.54 259 02:45 08.10.2022
1506 Clouds 8 1024 84 10000 2.77 258 00:32 08.10.2022
1507 Clouds 8 1024 83 10000 3.04 263 23:20 07.10.2022
1508 Clouds 8 1024 82 10000 3.73 271 22:24 07.10.2022
1509 Clear 9 1024 80 10000 4.35 271 20:42 07.10.2022
1510 Clouds 11 1023 78 10000 4.81 261 19:18 07.10.2022
1511 Clouds 12 1023 75 10000 4.68 260 17:37 07.10.2022
1512 Clouds 13 1022 74 10000 5.28 265 16:30 07.10.2022
1513 Clouds 13 1022 65 10000 5.58 261 14:44 07.10.2022
1514 Clouds 12 1022 77 10000 5.73 271 12:25 07.10.2022
1515 Clouds 12 1020 84 10000 5.63 283 09:28 07.10.2022
1516 Clouds 12 1020 85 10000 5.63 283 08:56 07.10.2022
1517 Clouds 10 1019 89 10000 5.55 286 06:51 07.10.2022
1518 Clouds 11 1016 89 10000 5.11 276 00:52 07.10.2022
1519 Clear 11 1015 88 10000 4.59 250 22:50 06.10.2022
1520 Clear 11 1015 88 10000 4.61 243 21:44 06.10.2022
1521 Clear 11 1015 87 10000 4.66 236 21:25 06.10.2022
1522 Clouds 11 1015 86 10000 4.8 227 19:59 06.10.2022
1523 Clouds 11 1016 86 10000 3.75 205 18:37 06.10.2022
1524 Clouds 11 1016 86 10000 3.75 205 18:18 06.10.2022
1525 Clouds 12 1016 72 10000 3.66 234 14:51 06.10.2022
1526 Clouds 10 1017 86 10000 3.14 240 11:38 06.10.2022
1527 Clouds 8 1018 91 10000 2.13 233 07:35 06.10.2022
1528 Clouds 7 1017 90 10000 2.53 260 03:37 06.10.2022
1529 Clouds 7 1017 89 10000 3.06 269 00:27 06.10.2022
1530 Clouds 6 1016 89 10000 3.31 282 21:22 05.10.2022
1531 Clouds 7 1016 88 10000 3.41 281 19:29 05.10.2022
1532 Clouds 7 1015 87 10000 3.53 273 17:36 05.10.2022
1533 Rain 8 1014 79 10000 4.17 277 16:20 05.10.2022
1534 Clouds 9 1014 85 10000 4.02 268 14:47 05.10.2022
1535 Clouds 9 1014 85 10000 3.72 262 14:19 05.10.2022
1536 Clouds 9 1014 85 10000 3.72 262 14:19 05.10.2022
1537 Rain 9 1013 87 10000 2.97 272 12:25 05.10.2022
1538 Rain 8 1012 89 10000 2.69 242 09:39 05.10.2022
1539 Rain 7 1011 90 10000 2.7 188 07:44 05.10.2022
1540 Rain 7 1011 90 10000 3.38 196 06:19 05.10.2022
1541 Rain 7 1010 88 10000 3.7 202 04:27 05.10.2022
1542 Clouds 8 1010 88 10000 3.65 180 00:53 05.10.2022
1543 Clouds 8 1010 88 10000 3.83 172 00:27 05.10.2022
1544 Clouds 8 1010 88 10000 4.11 177 22:39 04.10.2022
1545 Clouds 9 1009 86 10000 5.39 168 20:40 04.10.2022
1546 Clouds 9 1009 86 10000 4.87 171 19:42 04.10.2022
1547 Clouds 9 1009 86 10000 4.94 168 18:39 04.10.2022
1548 Clouds 9 1009 85 10000 4.74 161 17:50 04.10.2022
1549 Clouds 10 1009 84 10000 4.98 162 16:41 04.10.2022
1550 Rain 9 1009 76 10000 6.32 181 13:19 04.10.2022
1551 Clouds 12 1006 83 10000 7.93 157 09:52 04.10.2022
1552 Clouds 11 1005 88 10000 7.86 151 07:34 04.10.2022
1553 Clouds 11 1004 88 10000 8.18 155 02:41 04.10.2022
1554 Clouds 10 1003 89 10000 8.75 155 23:42 03.10.2022
1555 Clouds 10 1002 91 10000 8.31 165 22:19 03.10.2022
1556 Clouds 9 1001 91 10000 8.59 160 21:23 03.10.2022
1557 Clouds 9 1001 90 10000 8.6 160 20:32 03.10.2022
1558 Rain 10 1001 88 10000 8.39 152 18:47 03.10.2022
1559 Clouds 9 1000 88 10000 7.78 154 17:30 03.10.2022
1560 Clouds 10 999 89 10000 6.86 161 15:51 03.10.2022
1561 Clouds 13 997 90 10000 6.59 174 14:22 03.10.2022
1562 Rain 14 995 90 10000 6.01 176 12:35 03.10.2022
1563 Rain 14 993 90 10000 6.75 157 10:53 03.10.2022
1564 Rain 15 992 90 10000 9.12 127 09:46 03.10.2022
1565 Rain 16 992 91 10000 9.07 121 08:43 03.10.2022
1566 Rain 15 994 91 10000 7.62 108 04:41 03.10.2022
1567 Rain 10 1000 89 9595 6.02 71 22:56 02.10.2022
1568 Rain 10 1001 87 10000 5.62 67 21:38 02.10.2022
1569 Rain 11 1004 81 10000 4.45 61 19:47 02.10.2022
1570 Clouds 11 1005 80 10000 3.27 54 17:55 02.10.2022
1571 Clouds 12 1005 79 10000 2.43 53 16:51 02.10.2022
1572 Clouds 12 1005 79 10000 2.43 53 16:30 02.10.2022
1573 Clouds 12 1006 79 10000 1.12 284 15:25 02.10.2022
1574 Clouds 12 1006 80 10000 1.95 258 13:46 02.10.2022
1575 Clouds 12 1007 81 10000 3.03 255 12:39 02.10.2022
1576 Clouds 11 1007 70 10000 3.64 244 11:48 02.10.2022
1577 Clouds 11 1007 70 10000 3.64 244 11:30 02.10.2022
1578 Clouds 10 1007 86 10000 4.45 239 10:19 02.10.2022
1579 Clouds 10 1006 87 10000 4.78 237 08:28 02.10.2022
1580 Clouds 11 1006 90 10000 6.09 238 05:19 02.10.2022
1581 Clouds 14 1005 91 10000 5.03 230 00:58 02.10.2022
1582 Clouds 14 1005 91 10000 5.03 230 00:38 02.10.2022
1583 Clouds 14 1005 91 10000 4.19 187 23:28 01.10.2022
1584 Rain 14 1006 90 10000 2.36 153 21:48 01.10.2022
1585 Clouds 15 1008 88 10000 2.84 116 18:54 01.10.2022
1586 Clouds 14 1009 87 10000 2.29 125 17:46 01.10.2022
1587 Clouds 16 1011 86 10000 1.73 168 15:29 01.10.2022
1588 Clouds 16 1012 87 10000 2.05 166 14:18 01.10.2022
1589 Clouds 15 1014 89 10000 2.27 151 12:34 01.10.2022
1590 Clouds 14 1014 90 10000 2.47 153 11:23 01.10.2022
1591 Clouds 14 1014 90 10000 2.47 153 10:53 01.10.2022
1592 Clouds 14 1015 90 10000 2.45 151 10:30 01.10.2022
1593 Clouds 13 1015 90 10000 2.08 149 09:25 01.10.2022
1594 Clouds 13 1016 97 10000 1.53 125 08:27 01.10.2022
1595 Clouds 13 1017 94 10000 1.37 39 03:50 01.10.2022
1596 Clouds 13 1017 94 10000 1.23 23 03:22 01.10.2022
1597 Clouds 13 1016 93 10000 1.21 242 23:22 30.09.2022
1598 Clouds 13 1016 84 10000 1.41 213 22:19 30.09.2022
1599 Clouds 13 1016 84 10000 1.88 208 21:22 30.09.2022
1600 Clouds 14 1016 83 10000 2.48 197 20:30 30.09.2022
1601 Clouds 14 1016 94 10000 3.03 191 19:30 30.09.2022
1602 Clouds 16 1015 79 10000 3.73 183 16:58 30.09.2022
1603 Clouds 17 1015 77 10000 3.62 180 14:49 30.09.2022
1604 Clouds 17 1015 79 10000 4.31 182 13:24 30.09.2022
1605 Clouds 15 1015 73 10000 4.13 176 11:56 30.09.2022
1606 Clouds 12 1015 84 10000 4 179 09:45 30.09.2022
1607 Clouds 9 1015 78 10000 3.62 167 08:20 30.09.2022
1608 Clouds 8 1015 89 10000 2.71 170 04:24 30.09.2022
1609 Clouds 9 1014 89 10000 2.44 168 02:22 30.09.2022
1610 Clouds 10 1013 88 10000 2.43 180 22:23 29.09.2022
1611 Clouds 10 1013 87 10000 2.25 177 21:25 29.09.2022
1612 Clouds 10 1013 86 10000 1.74 201 20:26 29.09.2022
1613 Clouds 11 1011 84 10000 1.6 203 18:31 29.09.2022
1614 Clouds 14 1010 80 10000 2.92 227 16:30 29.09.2022
1615 Clouds 14 1010 80 10000 2.92 227 16:30 29.09.2022
1616 Clouds 14 1010 80 10000 2.92 227 15:52 29.09.2022
1617 Clouds 13 1009 64 10000 3.47 221 15:27 29.09.2022
1618 Clouds 13 1009 84 10000 3.2 196 13:28 29.09.2022
1619 Clouds 9 1007 87 10000 2.51 155 08:52 29.09.2022
1620 Clouds 8 1006 76 10000 1.62 247 05:36 29.09.2022
1621 Clouds 9 1005 87 10000 2.21 251 02:42 29.09.2022
1622 Clouds 9 1004 87 10000 2.59 253 23:32 28.09.2022
1623 Clouds 9 1004 87 10000 2.86 255 22:25 28.09.2022
1624 Clouds 9 1004 87 10000 2.76 260 21:28 28.09.2022
1625 Clouds 9 1004 81 10000 2.25 271 20:18 28.09.2022
1626 Clouds 10 1003 86 10000 2.16 287 17:42 28.09.2022
1627 Clouds 10 1002 79 10000 3.15 303 14:45 28.09.2022
1628 Clouds 9 1002 85 10000 2.48 327 12:40 28.09.2022
1629 Clouds 8 1002 88 10000 3.35 359 10:24 28.09.2022
1630 Clouds 7 1002 91 10000 3.63 14 08:25 28.09.2022
1631 Clouds 7 1004 91 10000 4.5 22 06:42 28.09.2022
1632 Clouds 8 1006 91 10000 5.09 49 01:51 28.09.2022
1633 Clouds 8 1007 91 10000 4.83 53 01:30 28.09.2022
1634 Clouds 8 1008 91 10000 4.09 76 22:54 27.09.2022
1635 Clouds 8 1009 91 10000 3.56 81 21:24 27.09.2022
1636 Clouds 9 1009 75 10000 3.68 85 20:37 27.09.2022
1637 Clouds 8 1009 91 10000 2.89 88 19:47 27.09.2022
1638 Clouds 8 1009 91 10000 2.89 88 19:47 27.09.2022
1639 Clouds 9 1010 65 10000 2.84 91 18:31 27.09.2022
1640 Clouds 11 1010 65 10000 2.84 91 17:43 27.09.2022
1641 Clouds 12 1011 50 10000 2.7 126 15:27 27.09.2022
1642 Clouds 12 1011 50 10000 2.7 126 14:41 27.09.2022
1643 Clear 11 1012 50 10000 3.02 112 12:40 27.09.2022
1644 Clear 10 1013 54 10000 2.53 116 10:53 27.09.2022
1645 Clear 6 1013 91 10000 1.86 114 08:46 27.09.2022
1646 Clouds 5 1013 91 10000 1.02 198 06:30 27.09.2022
1647 Clouds 4 1013 80 10000 1.02 247 01:56 27.09.2022
1648 Clouds 4 1013 79 10000 1.35 246 01:27 27.09.2022
1649 Clouds 5 1013 77 10000 1.47 270 23:25 26.09.2022
1650 Clouds 6 1012 75 10000 1.64 291 22:31 26.09.2022
1651 Clouds 7 1012 91 10000 1.81 281 20:40 26.09.2022
1652 Clouds 7 1012 90 10000 1.83 282 19:30 26.09.2022
1653 Clouds 7 1011 89 10000 2.57 277 18:31 26.09.2022
1654 Clouds 9 1011 87 10000 3.15 295 16:29 26.09.2022
1655 Clouds 9 1010 86 10000 2.85 308 14:24 26.09.2022
1656 Clouds 9 1009 72 10000 2.93 276 11:29 26.09.2022
1657 Clouds 8 1009 89 10000 2.93 276 10:38 26.09.2022
1658 Clouds 8 1009 89 10000 3.07 277 10:19 26.09.2022
1659 Clouds 8 1009 79 10000 3.07 277 09:53 26.09.2022
1660 Clouds 7 1009 83 10000 3.22 284 09:23 26.09.2022
1661 Clouds 7 1008 83 10000 3.46 280 07:37 26.09.2022
1662 Clouds 7 1006 87 10000 2 292 02:51 26.09.2022
1663 Clouds 7 1006 85 10000 1.08 354 23:46 25.09.2022
1664 Clouds 7 1005 86 10000 0.74 332 22:29 25.09.2022
1665 Clouds 7 1005 86 10000 0.74 332 21:35 25.09.2022
1666 Clouds 7 1005 86 10000 0.39 328 20:47 25.09.2022
1667 Clouds 7 1005 86 10000 1.04 355 19:43 25.09.2022
1668 Clouds 7 1005 86 10000 0.78 30 18:40 25.09.2022
1669 Clouds 7 1005 85 10000 1.12 62 18:20 25.09.2022
1670 Clouds 8 1004 85 10000 1.39 69 16:35 25.09.2022
1671 Clouds 8 1004 85 10000 1.6 69 15:44 25.09.2022
1672 Clouds 8 1003 88 10000 2 61 14:22 25.09.2022
1673 Rain 7 1003 89 10000 2.21 62 12:51 25.09.2022
1674 Clouds 7 1000 91 10000 3.1 64 10:29 25.09.2022
1675 Clouds 7 999 93 10000 3.68 78 08:24 25.09.2022
1676 Clouds 7 998 95 10000 2.48 93 05:38 25.09.2022
1677 Rain 8 996 94 10000 1.85 222 01:32 25.09.2022
1678 Rain 8 996 94 10000 2.15 250 22:35 24.09.2022
1679 Clouds 8 996 94 10000 2.41 276 20:55 24.09.2022
1680 Clouds 8 996 92 10000 3.46 283 19:22 24.09.2022
1681 Rain 8 997 93 10000 3.73 291 17:19 24.09.2022
1682 Rain 8 997 94 7057 3.76 301 16:25 24.09.2022
1683 Rain 8 997 93 6861 3.65 312 15:20 24.09.2022
1684 Rain 8 998 92 7688 4.44 337 13:27 24.09.2022
1685 Rain 8 998 92 7688 4.44 337 12:50 24.09.2022
1686 Rain 8 999 92 8178 4.6 349 10:54 24.09.2022
1687 Rain 8 1000 92 7353 4.82 353 09:40 24.09.2022
1688 Rain 8 1000 92 8258 5.27 354 08:43 24.09.2022
1689 Rain 8 1002 92 8238 6.13 347 07:24 24.09.2022
1690 Rain 9 1004 92 10000 5.39 347 04:40 24.09.2022
1691 Rain 9 1006 88 10000 5.25 359 02:24 24.09.2022
1692 Clouds 10 1010 73 10000 3.82 4 22:29 23.09.2022
1693 Clouds 10 1011 71 10000 3.61 8 21:28 23.09.2022
1694 Clouds 10 1011 71 10000 3.61 8 20:56 23.09.2022
1695 Clouds 11 1011 69 10000 3.74 17 20:20 23.09.2022
1696 Clouds 11 1012 66 10000 3.94 18 18:50 23.09.2022
1697 Clouds 13 1013 44 10000 2.97 3 14:33 23.09.2022
1698 Clouds 13 1013 48 10000 3.18 35 10:55 23.09.2022
1699 Clouds 12 1014 62 10000 2.4 53 09:32 23.09.2022
1700 Clouds 10 1015 83 10000 2 65 05:58 23.09.2022
1701 Clouds 10 1015 85 10000 2.12 56 00:32 23.09.2022
1702 Clouds 10 1015 83 10000 2.07 50 23:21 22.09.2022
1703 Clouds 10 1015 82 10000 2.12 34 22:26 22.09.2022
1704 Clouds 11 1015 82 10000 1.52 26 20:51 22.09.2022
1705 Clouds 11 1015 79 10000 2.24 49 19:56 22.09.2022
1706 Clouds 12 1014 69 10000 2.52 109 17:26 22.09.2022
1707 Clouds 12 1014 76 10000 2.56 97 12:46 22.09.2022
1708 Clouds 11 1015 80 10000 3.34 95 10:32 22.09.2022
1709 Clouds 10 1015 83 10000 3.19 88 08:56 22.09.2022
1710 Clouds 10 1015 91 10000 2.93 70 06:57 22.09.2022
1711 Clouds 10 1015 93 10000 2.41 46 03:46 22.09.2022
1712 Rain 10 1015 89 10000 2.78 47 23:31 21.09.2022
1713 Rain 10 1015 87 10000 2.49 53 21:50 21.09.2022
1714 Rain 10 1015 88 10000 2.32 64 20:34 21.09.2022
1715 Rain 11 1015 85 10000 1.84 119 17:50 21.09.2022
1716 Clouds 13 1015 80 10000 2.44 117 16:53 21.09.2022
1717 Clouds 14 1014 63 10000 3.56 59 14:46 21.09.2022
1718 Clouds 14 1015 66 10000 3.28 57 12:58 21.09.2022
1719 Clouds 13 1016 62 10000 3.29 76 11:30 21.09.2022
1720 Clouds 12 1016 63 10000 3.15 61 10:33 21.09.2022
1721 Clouds 11 1016 67 10000 2.75 61 09:24 21.09.2022
1722 Clouds 9 1016 75 10000 2.35 62 07:57 21.09.2022
1723 Clouds 6 1015 85 10000 0.58 96 02:49 21.09.2022
1724 Clouds 6 1015 84 10000 0.31 39 02:29 21.09.2022
1725 Clouds 6 1015 84 10000 0.34 288 00:57 21.09.2022
1726 Clouds 8 1015 84 10000 1.01 259 23:19 20.09.2022
1727 Clouds 9 1015 81 10000 1.56 257 21:21 20.09.2022
1728 Clouds 10 1014 78 10000 2.34 255 19:57 20.09.2022
1729 Clouds 12 1013 70 10000 3.02 247 17:38 20.09.2022
1730 Clouds 14 1011 54 10000 5.62 240 14:53 20.09.2022
1731 Clouds 14 1011 53 10000 6.04 237 13:58 20.09.2022
1732 Clouds 13 1010 80 10000 6.39 236 10:41 20.09.2022
1733 Clouds 12 1008 84 10000 6.67 230 08:29 20.09.2022
1734 Clouds 11 1008 86 10000 6.55 231 07:27 20.09.2022
1735 Clouds 11 1005 87 10000 7.21 233 04:30 20.09.2022
1736 Clouds 10 1001 89 10000 8.71 232 01:28 20.09.2022
1737 Rain 10 998 87 10000 9.6 233 22:29 19.09.2022
1738 Rain 9 996 88 10000 9.26 225 20:59 19.09.2022
1739 Rain 9 997 88 10000 9.56 224 20:39 19.09.2022
1740 Rain 9 994 89 10000 9.25 218 18:42 19.09.2022
1741 Rain 9 990 87 10000 9.66 199 16:29 19.09.2022
1742 Rain 10 990 85 10000 9.81 198 13:44 19.09.2022
1743 Clouds 11 989 81 10000 10.33 175 11:33 19.09.2022
1744 Clouds 11 991 70 10000 9.18 184 09:35 19.09.2022
1745 Clouds 12 990 86 10000 7.85 166 08:20 19.09.2022
1746 Clouds 13 990 91 102 5.69 126 02:46 19.09.2022
1747 Rain 13 995 90 3036 4.85 111 23:26 18.09.2022
1748 Clouds 12 995 90 7503 4.84 106 22:29 18.09.2022
1749 Clouds 12 997 89 10000 4.4 96 20:41 18.09.2022
1750 Rain 12 998 89 10000 4.34 79 19:26 18.09.2022
1751 Rain 12 999 87 10000 4.59 79 17:49 18.09.2022
1752 Clouds 12 999 86 10000 4.49 74 16:43 18.09.2022
1753 Clouds 13 1001 83 10000 4.42 90 14:40 18.09.2022
1754 Clouds 14 1002 78 10000 4.7 116 12:58 18.09.2022
1755 Clouds 15 1003 69 10000 4.18 123 11:53 18.09.2022
1756 Clouds 11 1006 86 10000 2.5 169 07:46 18.09.2022
1757 Clouds 9 1005 85 10000 3.21 202 01:41 18.09.2022
1758 Clouds 9 1005 84 10000 3.61 203 01:19 18.09.2022
1759 Clouds 10 1005 81 10000 4.15 209 22:55 17.09.2022
1760 Clouds 11 1004 78 10000 4.73 213 20:53 17.09.2022
1761 Clouds 12 1004 78 10000 4.1 220 19:36 17.09.2022
1762 Clouds 13 1003 70 10000 5.04 223 17:44 17.09.2022
1763 Clouds 16 1002 68 10000 5.76 237 14:22 17.09.2022
1764 Clouds 16 1001 71 10000 6.66 236 12:46 17.09.2022
1765 Clear 14 1001 83 10000 6.06 237 10:48 17.09.2022
1766 Clear 8 1001 91 10000 3.96 237 06:53 17.09.2022
1767 Clear 7 1000 91 10000 3.56 234 05:49 17.09.2022
1768 Clouds 12 998 89 10000 3.61 245 23:39 16.09.2022
1769 Clouds 13 997 89 10000 3.37 255 22:19 16.09.2022
1770 Clouds 13 997 88 10000 3.21 238 20:53 16.09.2022
1771 Rain 13 997 87 10000 3.53 197 19:29 16.09.2022
1772 Rain 14 998 82 4479 4.3 166 16:22 16.09.2022
1773 Rain 15 998 87 6876 4.38 170 14:51 16.09.2022
1774 Clouds 17 999 76 10000 3.33 180 13:21 16.09.2022
1775 Clouds 15 1000 82 10000 4.04 175 10:24 16.09.2022
1776 Clouds 10 1001 89 10000 3.35 160 07:23 16.09.2022
1777 Clouds 10 1001 89 10000 3.35 160 06:48 16.09.2022
1778 Clouds 9 1002 90 10000 2.79 160 05:55 16.09.2022
1779 Clear 7 1002 89 10000 2.34 171 02:30 16.09.2022
1780 Clear 9 1003 87 10000 2.17 196 21:44 15.09.2022
1781 Clouds 10 1003 86 10000 2 183 20:37 15.09.2022
1782 Clouds 11 1002 85 10000 2.07 171 19:31 15.09.2022
1783 Clouds 13 1002 84 10000 1.86 149 17:41 15.09.2022
1784 Clouds 13 1002 84 10000 1.27 127 17:22 15.09.2022
1785 Clouds 13 1002 84 10000 0.41 284 15:38 15.09.2022
1786 Clouds 12 1003 86 10000 1.5 284 12:51 15.09.2022
1787 Clouds 11 1003 87 10000 2.24 282 11:48 15.09.2022
1788 Clouds 11 1002 88 10000 2.93 286 09:46 15.09.2022
1789 Clouds 10 1002 88 10000 2.87 297 07:44 15.09.2022
1790 Clouds 11 1002 87 10000 2.3 293 03:48 15.09.2022
1791 Rain 12 1003 85 10000 0.97 240 23:22 14.09.2022
1792 Clouds 12 1004 82 10000 1.53 153 20:37 14.09.2022
1793 Clouds 12 1004 80 10000 1.93 155 19:33 14.09.2022
1794 Clouds 13 1004 78 10000 1.87 141 17:48 14.09.2022
1795 Clouds 13 1004 78 10000 2.47 168 16:37 14.09.2022
1796 Clouds 14 1004 77 10000 2.78 166 15:27 14.09.2022
1797 Clouds 13 1005 80 10000 2.88 145 12:50 14.09.2022
1798 Clouds 12 1005 82 10000 3.37 121 09:53 14.09.2022
1799 Clouds 11 1006 83 10000 3.83 131 08:38 14.09.2022
1800 Clouds 10 1006 84 10000 4.15 126 06:50 14.09.2022
1801 Clouds 10 1006 84 10000 4.6 119 06:30 14.09.2022
1802 Clouds 10 1006 84 10000 4.6 119 06:30 14.09.2022
1803 Clouds 10 1007 81 10000 4.91 95 02:58 14.09.2022
1804 Clouds 10 1008 80 10000 4.96 93 01:39 14.09.2022
1805 Clouds 10 1008 83 10000 5.07 94 01:19 14.09.2022
1806 Clouds 10 1009 78 10000 5.01 90 23:55 13.09.2022
1807 Clouds 10 1010 81 10000 5.14 85 23:37 13.09.2022
1808 Clouds 10 1010 81 10000 5.14 85 23:19 13.09.2022
1809 Clouds 10 1010 74 10000 5.52 83 22:32 13.09.2022
1810 Clouds 10 1010 73 10000 5.52 83 21:40 13.09.2022
1811 Rain 12 1012 66 10000 4.6 95 19:26 13.09.2022
1812 Clouds 14 1012 60 10000 4.56 102 16:45 13.09.2022
1813 Clouds 14 1013 60 10000 4.6 96 15:38 13.09.2022
1814 Clouds 14 1014 60 10000 4.97 99 13:50 13.09.2022
1815 Clouds 14 1015 66 10000 5.09 105 11:34 13.09.2022
1816 Clouds 10 1017 73 10000 4.73 94 08:20 13.09.2022
1817 Clouds 10 1017 71 10000 3.25 84 02:58 13.09.2022
1818 Clouds 11 1017 70 10000 4.14 88 23:23 12.09.2022
1819 Clouds 11 1017 70 10000 4.14 88 23:23 12.09.2022
1820 Clouds 11 1017 69 10000 4.13 88 22:46 12.09.2022
1821 Clouds 11 1017 68 10000 3.73 83 21:35 12.09.2022
1822 Clouds 11 1017 67 10000 3.55 83 20:24 12.09.2022
1823 Clouds 12 1017 67 10000 3.71 80 18:41 12.09.2022
1824 Clouds 14 1016 65 10000 4.98 93 16:20 12.09.2022
1825 Clouds 14 1018 69 10000 5.58 119 13:24 12.09.2022
1826 Clouds 11 1018 74 10000 4.86 97 10:56 12.09.2022
1827 Clouds 10 1019 82 10000 4.61 111 09:35 12.09.2022
1828 Clouds 9 1019 75 10000 2.9 160 04:46 12.09.2022
1829 Rain 9 1018 73 10000 3.23 179 03:25 12.09.2022
1830 Clouds 11 1019 62 10000 1.5 144 23:18 11.09.2022
1831 Clouds 11 1019 61 10000 1.31 181 21:41 11.09.2022
1832 Clouds 11 1019 61 10000 0.81 95 20:45 11.09.2022
1833 Clouds 11 1019 50 10000 0.61 214 19:51 11.09.2022
1834 Clouds 11 1020 49 10000 1.81 238 19:22 11.09.2022
1835 Clouds 13 1019 58 10000 2.06 228 18:20 11.09.2022
1836 Clouds 15 1020 36 10000 4.03 189 16:28 11.09.2022
1837 Clouds 15 1020 32 10000 4.51 173 14:18 11.09.2022
1838 Clouds 15 1020 34 10000 4.17 152 12:33 11.09.2022
1839 Clouds 10 1022 73 10000 3.27 151 08:39 11.09.2022
1840 Clouds 5 1023 76 10000 2.35 164 06:44 11.09.2022
1841 Clouds 6 1024 73 10000 1.76 153 00:49 11.09.2022
1842 Clouds 8 1025 71 10000 1.79 177 22:55 10.09.2022
1843 Clouds 9 1025 66 10000 1.85 183 20:59 10.09.2022
1844 Clouds 10 1025 63 10000 1.84 171 19:46 10.09.2022
1845 Clear 10 1025 61 10000 1.83 159 19:28 10.09.2022
1846 Clear 13 1025 58 10000 1.53 153 18:22 10.09.2022
1847 Clear 16 1025 56 10000 0.93 198 15:49 10.09.2022
1848 Clear 16 1025 57 10000 0.94 228 14:42 10.09.2022
1849 Clear 15 1027 34 10000 1.2 251 12:52 10.09.2022
1850 Clear 13 1028 66 10000 1.34 263 10:46 10.09.2022
1851 Clear 12 1029 43 10000 1.31 268 09:37 10.09.2022
1852 Clear 9 1029 73 10000 1.36 278 08:36 10.09.2022
1853 Clear 4 1029 77 10000 1.58 283 06:41 10.09.2022
1854 Clear 4 1029 74 10000 1.59 253 00:40 10.09.2022
1855 Clear 5 1029 73 10000 1.36 241 23:32 09.09.2022
1856 Clear 6 1029 69 10000 0.74 215 21:50 09.09.2022
1857 Clear 7 1028 65 10000 0.67 144 20:46 09.09.2022
1858 Clouds 9 1028 63 10000 2.01 95 19:24 09.09.2022
1859 Clouds 10 1028 62 10000 2.01 95 18:47 09.09.2022
1860 Clouds 12 1027 38 10000 3.06 14 16:23 09.09.2022
1861 Clouds 12 1026 61 10000 3.14 355 13:49 09.09.2022
1862 Clouds 12 1026 63 10000 2.96 354 12:32 09.09.2022
1863 Clear 10 1027 71 10000 3.25 12 09:55 09.09.2022
1864 Clouds 5 1025 82 10000 2.76 347 05:19 09.09.2022
1865 Clouds 5 1025 80 10000 2.56 357 03:20 09.09.2022
1866 Clouds 6 1023 78 10000 2.67 353 21:53 08.09.2022
1867 Clouds 7 1022 78 10000 2.87 352 20:56 08.09.2022
1868 Clouds 7 1022 78 10000 3.08 348 20:31 08.09.2022
1869 Clouds 8 1022 78 10000 3.08 348 19:57 08.09.2022
1870 Clouds 8 1021 79 10000 3.81 358 18:26 08.09.2022
1871 Clouds 9 1020 74 10000 5.18 348 16:21 08.09.2022
1872 Clouds 10 1020 75 10000 5.15 341 14:40 08.09.2022
1873 Clouds 9 1019 76 10000 4.9 337 13:27 08.09.2022
1874 Clouds 10 1018 77 10000 4.7 340 12:24 08.09.2022
1875 Clouds 10 1017 79 10000 4.63 344 10:57 08.09.2022
1876 Clouds 9 1017 78 10000 4.59 355 08:52 08.09.2022
1877 Clouds 8 1015 83 10000 4.51 342 06:43 08.09.2022
1878 Clouds 8 1014 83 10000 3.12 325 02:37 08.09.2022
1879 Clouds 8 1014 83 10000 3.54 330 02:19 08.09.2022
1880 Clouds 8 1014 83 10000 3.72 324 01:38 08.09.2022
1881 Clouds 7 1013 82 10000 2.78 284 22:54 07.09.2022
1882 Clouds 8 1013 82 10000 3.05 293 21:42 07.09.2022
1883 Clouds 8 1013 80 10000 3.24 291 20:49 07.09.2022
1884 Clouds 8 1013 80 10000 3.21 312 19:53 07.09.2022
1885 Clouds 9 1013 80 10000 3.24 283 18:37 07.09.2022
1886 Rain 9 1013 75 10000 4.7 258 14:45 07.09.2022
1887 Clouds 12 1012 70 10000 5.16 256 10:49 07.09.2022
1888 Clouds 11 1013 47 10000 4.88 262 09:52 07.09.2022
1889 Clouds 7 1014 60 10000 4.16 262 07:35 07.09.2022
1890 Clouds 6 1016 78 10000 3.72 288 03:34 07.09.2022
1891 Clouds 8 1016 74 10000 3.37 299 23:48 06.09.2022
1892 Clouds 8 1017 74 10000 3.83 307 21:43 06.09.2022
1893 Clouds 8 1017 74 10000 3.83 307 21:21 06.09.2022
1894 Clouds 9 1017 75 10000 2.25 287 18:53 06.09.2022
1895 Clouds 10 1018 76 10000 2.82 315 18:23 06.09.2022
1896 Clouds 10 1018 75 10000 3.94 326 17:23 06.09.2022
1897 Clouds 10 1018 75 10000 4.88 328 16:38 06.09.2022
1898 Clouds 11 1018 53 10000 4.65 320 15:23 06.09.2022
1899 Clouds 11 1018 71 10000 4.36 318 13:45 06.09.2022
1900 Clouds 11 1018 71 10000 4.18 328 13:25 06.09.2022
1901 Clouds 10 1018 70 10000 4.76 332 12:31 06.09.2022
1902 Clouds 9 1018 55 10000 4.33 336 10:45 06.09.2022
1903 Clouds 9 1019 74 10000 4.1 335 08:53 06.09.2022
1904 Clouds 8 1019 76 10000 4.28 334 07:49 06.09.2022
1905 Clouds 7 1019 76 10000 3.53 333 03:41 06.09.2022
1906 Clouds 9 1020 75 10000 3.85 337 23:28 05.09.2022
1907 Clouds 8 1020 74 10000 3.85 337 22:30 05.09.2022
1908 Clouds 9 1020 84 10000 3.97 334 20:52 05.09.2022
1909 Clouds 9 1020 82 10000 3.76 342 19:50 05.09.2022
1910 Clouds 9 1020 85 10000 4.21 343 18:49 05.09.2022
1911 Clouds 10 1020 71 10000 4.3 340 18:22 05.09.2022
1912 Clouds 10 1020 80 10000 5.15 354 16:53 05.09.2022
1913 Clouds 12 1020 69 10000 5.42 342 15:52 05.09.2022
1914 Clouds 11 1019 64 10000 4.9 333 13:27 05.09.2022
1915 Clouds 12 1019 63 10000 3.1 328 12:28 05.09.2022
1916 Clouds 11 1020 59 10000 3.15 313 10:30 05.09.2022
1917 Clouds 6 1021 81 10000 3.01 312 07:36 05.09.2022
1918 Clouds 4 1021 81 10000 2.81 305 02:50 05.09.2022
1919 Clouds 7 1021 65 10000 3.36 312 23:40 04.09.2022
1920 Clouds 8 1021 63 10000 3.64 303 22:28 04.09.2022
1921 Clouds 9 1021 62 10000 3.64 303 21:40 04.09.2022
1922 Clouds 11 1021 57 10000 2.87 301 19:39 04.09.2022
1923 Clouds 12 1021 55 10000 3.27 320 18:21 04.09.2022
1924 Clouds 14 1021 53 10000 4.66 324 17:22 04.09.2022
1925 Clouds 15 1021 53 10000 4.82 312 14:59 04.09.2022
1926 Clouds 15 1021 54 10000 4.73 319 14:21 04.09.2022
1927 Clouds 14 1021 59 10000 3.75 310 12:24 04.09.2022
1928 Clear 13 1021 63 10000 3.72 308 10:51 04.09.2022
1929 Clear 11 1023 72 10000 3.5 313 08:21 04.09.2022
1930 Clear 7 1023 77 10000 2.89 312 06:24 04.09.2022
1931 Clouds 8 1023 73 10000 2.93 291 01:56 04.09.2022
1932 Clouds 10 1022 71 10000 2.97 274 22:26 03.09.2022
1933 Clouds 10 1022 71 10000 2.97 274 22:26 03.09.2022
1934 Clouds 11 1022 67 10000 3.84 277 21:24 03.09.2022
1935 Clouds 11 1022 67 10000 2.79 262 20:42 03.09.2022
1936 Clouds 14 1022 57 10000 3.72 273 17:36 03.09.2022
1937 Clouds 15 1022 56 10000 4.37 276 16:34 03.09.2022
1938 Clouds 15 1022 56 10000 5.51 284 14:47 03.09.2022
1939 Clouds 15 1022 56 10000 5.76 284 14:28 03.09.2022
1940 Clouds 15 1022 58 10000 5.76 284 13:43 03.09.2022
1941 Clouds 14 1023 66 10000 4.6 276 11:24 03.09.2022
1942 Clear 9 1023 78 10000 3.83 265 08:57 03.09.2022
1943 Clear 7 1023 80 10000 3.53 280 07:23 03.09.2022
1944 Clear 4 1023 78 10000 3.46 274 04:45 03.09.2022
1945 Clouds 7 1021 74 10000 3.65 286 00:48 03.09.2022
1946 Clouds 7 1020 74 10000 3.78 284 23:35 02.09.2022
1947 Clouds 9 1020 71 10000 3.73 284 21:46 02.09.2022
1948 Clouds 10 1019 71 10000 4.2 280 20:40 02.09.2022
1949 Clouds 10 1019 70 10000 4.01 282 19:47 02.09.2022
1950 Clouds 10 1019 69 10000 4.34 297 18:50 02.09.2022
1951 Clouds 10 1018 69 10000 4.28 305 18:24 02.09.2022
1952 Clouds 11 1018 67 10000 5.08 295 17:23 02.09.2022
1953 Clouds 12 1017 63 10000 5.69 285 16:22 02.09.2022
1954 Clouds 11 1016 66 10000 7.15 293 13:25 02.09.2022
1955 Rain 11 1015 70 10000 6.73 289 10:39 02.09.2022
1956 Clouds 10 1014 73 10000 6.19 281 09:42 02.09.2022
1957 Clouds 8 1014 64 10000 6.14 281 08:43 02.09.2022
1958 Clouds 7 1013 77 10000 6.04 283 06:46 02.09.2022
1959 Clouds 7 1012 78 10000 6.12 285 06:18 02.09.2022
1960 Clouds 7 1011 73 10000 4.86 277 23:19 01.09.2022
1961 Clouds 8 1011 72 10000 4.74 273 21:56 01.09.2022
1962 Clouds 8 1011 72 10000 4.63 267 21:37 01.09.2022
1963 Clouds 9 1011 72 10000 4.63 267 21:18 01.09.2022
1964 Clouds 10 1011 71 10000 5.15 277 19:32 01.09.2022
1965 Clouds 11 1010 65 10000 5.25 273 18:18 01.09.2022
1966 Clouds 13 1010 58 10000 6.14 276 16:54 01.09.2022
1967 Clouds 13 1010 59 10000 5.79 261 14:52 01.09.2022
1968 Clouds 13 1010 60 10000 5.91 259 13:23 01.09.2022
1969 Clouds 13 1010 60 10000 5.91 259 12:55 01.09.2022
1970 Clouds 12 1010 61 10000 5.94 254 11:51 01.09.2022
1971 Clouds 11 1010 47 10000 5.99 255 11:19 01.09.2022
1972 Clouds 11 1010 52 10000 5.85 264 09:31 01.09.2022
1973 Clear 9 1010 64 10000 5.27 274 06:34 01.09.2022
1974 Clear 9 1010 75 10000 4.55 266 02:39 01.09.2022
1975 Clouds 10 1009 71 10000 4.61 276 01:30 01.09.2022
1976 Clouds 10 1009 71 10000 4.61 276 01:30 01.09.2022
1977 Clouds 10 1009 71 10000 4.62 276 01:30 01.09.2022
1978 Clouds 10 1009 71 10000 4.61 276 01:30 01.09.2022
1979 Clouds 10 1009 71 10000 4.61 276 01:30 01.09.2022
1980 Clouds 13 1009 66 10000 4.62 274 22:43 31.08.2022
1981 Clouds 14 1009 64 10000 4.8 275 20:43 31.08.2022
1982 Clouds 15 1010 64 10000 5.1 273 18:45 31.08.2022
1983 Clouds 17 1009 63 10000 6.18 283 16:41 31.08.2022
1984 Clouds 18 1009 64 10000 6.87 278 15:22 31.08.2022
1985 Clouds 19 1007 63 10000 6.91 277 13:28 31.08.2022
1986 Clouds 19 1007 63 10000 6.26 262 11:54 31.08.2022
1987 Clouds 18 1006 73 10000 5.93 263 09:36 31.08.2022
1988 Clouds 18 1006 71 10000 5.48 256 07:39 31.08.2022
1989 Clouds 17 1006 66 10000 4.27 249 02:47 31.08.2022
1990 Clouds 20 1007 63 10000 2.77 283 22:24 30.08.2022
1991 Clear 20 1007 63 10000 2.94 260 21:28 30.08.2022
1992 Clouds 22 1006 58 10000 2.18 223 20:26 30.08.2022
1993 Clouds 26 1007 49 10000 2.51 254 16:48 30.08.2022
1994 Clouds 28 1008 53 10000 3.57 281 13:51 30.08.2022
1995 Clouds 26 1009 60 10000 3.84 275 11:58 30.08.2022
1996 Clouds 26 1009 37 10000 4.12 269 11:20 30.08.2022
1997 Clouds 23 1009 67 10000 4.4 267 09:39 30.08.2022
1998 Clouds 18 1009 53 10000 4.07 261 06:49 30.08.2022
1999 Clear 19 1009 70 10000 2.92 207 01:18 30.08.2022
2000 Clear 19 1009 65 10000 2.74 197 22:38 29.08.2022
2001 Clear 19 1009 63 10000 2.8 207 21:54 29.08.2022
2002 Clear 20 1010 60 10000 2.93 213 20:47 29.08.2022
2003 Clouds 21 1010 57 10000 2.52 258 19:35 29.08.2022
2004 Clouds 23 1010 50 10000 3.53 214 17:33 29.08.2022
2005 Clouds 23 1010 49 10000 4.29 206 16:59 29.08.2022
2006 Clouds 25 1010 46 10000 5.49 185 15:20 29.08.2022
2007 Clouds 26 1010 44 10000 5.25 188 13:55 29.08.2022
2008 Clouds 27 1010 42 10000 5.69 173 12:24 29.08.2022
2009 Clouds 25 1011 44 10000 5.83 165 10:48 29.08.2022
2010 Clouds 23 1011 47 10000 4.38 151 09:20 29.08.2022
2011 Clouds 21 1011 50 10000 3.7 116 07:20 29.08.2022
2012 Clouds 20 1013 49 10000 3.39 107 02:33 29.08.2022
2013 Clouds 23 1014 43 10000 3.91 99 23:36 28.08.2022
2014 Clouds 24 1015 39 10000 2.93 82 21:49 28.08.2022
2015 Clouds 25 1015 39 10000 1.77 88 21:29 28.08.2022
2016 Clouds 25 1016 38 10000 1.23 185 20:23 28.08.2022
2017 Clouds 27 1016 35 10000 2.9 227 18:37 28.08.2022
2018 Clouds 28 1015 34 10000 3.12 166 18:18 28.08.2022
2019 Clouds 29 1015 30 10000 2.58 140 16:49 28.08.2022
2020 Clouds 29 1015 30 10000 2.95 143 15:37 28.08.2022
2021 Clouds 30 1016 34 10000 3.45 167 13:34 28.08.2022
2022 Clouds 29 1017 40 10000 3.06 130 12:19 28.08.2022
2023 Clouds 27 1018 43 10000 3.95 131 10:27 28.08.2022
2024 Clouds 24 1018 46 10000 2.96 102 09:34 28.08.2022
2025 Clouds 22 1018 48 10000 2.36 99 08:31 28.08.2022
2026 Clouds 21 1018 49 10000 2.47 119 07:32 28.08.2022
2027 Clouds 21 1020 41 10000 2.29 96 01:00 28.08.2022
2028 Clouds 22 1020 40 10000 2.29 95 23:48 27.08.2022
2029 Clouds 23 1020 38 10000 1.94 106 22:27 27.08.2022
2030 Clouds 25 1020 34 10000 1.82 127 20:49 27.08.2022
2031 Clouds 25 1020 32 10000 1.97 146 19:37 27.08.2022
2032 Clouds 30 1020 27 10000 2.81 123 16:34 27.08.2022
2033 Clouds 31 1020 27 10000 2.9 129 15:31 27.08.2022
2034 Clouds 31 1020 19 10000 3.25 138 13:57 27.08.2022
2035 Clouds 30 1021 35 10000 3.37 140 12:22 27.08.2022
2036 Clouds 28 1022 41 10000 3.38 132 10:30 27.08.2022
2037 Clouds 27 1022 47 10000 3.38 132 09:39 27.08.2022
2038 Clouds 20 1022 52 10000 2.44 132 06:55 27.08.2022
2039 Clouds 20 1022 52 10000 2.44 132 06:55 27.08.2022
2040 Clouds 20 1022 48 10000 1.44 107 02:27 27.08.2022
2041 Clouds 20 1022 45 10000 1.66 139 23:51 26.08.2022
2042 Clouds 22 1021 43 10000 1.24 175 21:59 26.08.2022
2043 Clouds 24 1021 39 10000 1.73 189 20:23 26.08.2022
2044 Clouds 29 1021 30 10000 2.01 193 18:32 26.08.2022
2045 Clouds 31 1021 28 10000 2.93 196 16:42 26.08.2022
2046 Clouds 31 1021 31 10000 4.64 183 15:26 26.08.2022
2047 Clouds 32 1021 34 10000 4.75 178 13:44 26.08.2022
2048 Clouds 31 1021 22 10000 3.19 164 12:35 26.08.2022
2049 Clear 31 1022 28 10000 1.96 156 11:22 26.08.2022
2050 Clear 29 1022 30 10000 1.39 157 09:59 26.08.2022
2051 Clouds 18 1023 56 10000 2.3 173 05:26 26.08.2022
2052 Clouds 20 1022 51 10000 1.42 217 01:18 26.08.2022
2053 Clouds 21 1022 49 10000 1.89 221 23:29 25.08.2022
2054 Clouds 24 1022 44 10000 3.14 208 21:00 25.08.2022
2055 Clouds 24 1023 41 10000 3.76 220 20:21 25.08.2022
2056 Clouds 28 1022 35 10000 2.75 150 18:48 25.08.2022
2057 Clouds 30 1022 30 10000 1.35 162 17:32 25.08.2022
2058 Clouds 31 1022 30 10000 1.23 224 16:50 25.08.2022
2059 Clouds 31 1022 30 10000 1.5 231 15:39 25.08.2022
2060 Clouds 31 1022 33 10000 2.2 189 14:31 25.08.2022
2061 Clear 31 1024 24 10000 2.57 161 11:49 25.08.2022
2062 Clear 30 1025 28 10000 2.5 158 10:46 25.08.2022
2063 Clear 26 1026 47 10000 2.19 162 08:52 25.08.2022
2064 Clear 18 1027 53 10000 1.57 157 05:19 25.08.2022
2065 Clouds 20 1027 49 10000 1.45 141 00:59 25.08.2022
2066 Clouds 20 1027 47 10000 0.96 140 23:25 24.08.2022
2067 Clouds 21 1027 43 10000 1.2 179 22:22 24.08.2022
2068 Clouds 22 1027 42 10000 1.2 179 21:34 24.08.2022
2069 Clear 22 1027 35 10000 1.25 197 20:32 24.08.2022
2070 Clouds 27 1027 33 10000 1.51 191 18:57 24.08.2022
2071 Clouds 31 1027 28 10000 3.57 182 16:36 24.08.2022
2072 Clouds 31 1027 29 10000 3.57 182 15:52 24.08.2022
2073 Clouds 31 1027 34 10000 3.49 165 13:33 24.08.2022
2074 Clouds 30 1028 24 10000 3.47 147 11:29 24.08.2022
2075 Clouds 27 1029 28 10000 3.23 142 09:35 24.08.2022
2076 Clouds 23 1029 53 10000 2.87 139 07:50 24.08.2022
2077 Clouds 20 1028 50 10000 1.07 162 02:29 24.08.2022
2078 Clouds 22 1027 44 10000 1.67 193 23:26 23.08.2022
2079 Clouds 22 1027 44 10000 1.67 193 22:32 23.08.2022
2080 Clouds 23 1027 41 10000 2.17 122 21:29 23.08.2022
2081 Clouds 26 1027 37 10000 1.88 98 20:20 23.08.2022
2082 Clouds 28 1026 35 10000 1.4 76 18:44 23.08.2022
2083 Clouds 30 1026 33 10000 0.34 161 17:49 23.08.2022
2084 Clouds 31 1026 29 10000 1.13 198 16:53 23.08.2022
2085 Clouds 32 1026 34 10000 1.95 185 15:39 23.08.2022
2086 Clouds 31 1026 26 10000 4.13 155 13:29 23.08.2022
2087 Clouds 29 1027 44 10000 4.26 147 11:32 23.08.2022
2088 Clouds 27 1027 46 10000 4.12 144 10:48 23.08.2022
2089 Clouds 27 1027 47 10000 3.63 142 10:24 23.08.2022
2090 Clouds 24 1027 49 10000 3.29 145 08:52 23.08.2022
2091 Clouds 23 1027 50 10000 3.16 148 08:21 23.08.2022
2092 Clouds 22 1027 52 10000 3.16 148 07:38 23.08.2022
2093 Clouds 20 1026 53 10000 2.72 136 06:29 23.08.2022
2094 Clouds 19 1026 52 10000 2.64 130 04:45 23.08.2022
2095 Clouds 22 1024 43 10000 2.59 101 00:28 23.08.2022
2096 Clouds 22 1024 42 10000 2.59 101 23:54 22.08.2022
2097 Clouds 23 1024 40 10000 2.12 101 22:45 22.08.2022
2098 Clouds 24 1024 39 10000 1.7 111 21:45 22.08.2022
2099 Clouds 25 1024 38 10000 2.51 141 19:49 22.08.2022
2100 Clouds 26 1023 36 10000 2.97 142 19:21 22.08.2022
2101 Clouds 28 1023 34 10000 2.88 143 17:37 22.08.2022
2102 Clouds 28 1023 40 10000 3.94 162 15:40 22.08.2022
2103 Clouds 28 1022 40 10000 5.15 157 14:32 22.08.2022
2104 Clouds 26 1023 41 10000 4.89 137 11:19 22.08.2022
2105 Clouds 20 1023 44 10000 3.67 130 08:22 22.08.2022
2106 Clouds 17 1024 36 10000 2.76 124 04:34 22.08.2022
2107 Clouds 19 1023 40 10000 3.85 130 00:53 22.08.2022
2108 Clouds 19 1023 40 10000 3.85 130 00:34 22.08.2022
2109 Clouds 21 1022 37 10000 3.64 131 22:54 21.08.2022
2110 Clouds 21 1023 30 10000 3.6 127 21:36 21.08.2022
2111 Clouds 22 1023 34 10000 3.52 131 20:58 21.08.2022
2112 Clouds 23 1023 33 10000 3.55 131 19:28 21.08.2022
2113 Clouds 24 1022 31 10000 4.38 137 18:22 21.08.2022
2114 Clouds 25 1022 30 10000 5.66 133 16:29 21.08.2022
2115 Clouds 25 1022 21 10000 5.66 133 15:46 21.08.2022
2116 Clouds 25 1022 33 10000 6.09 129 14:35 21.08.2022
2117 Clouds 25 1023 34 10000 6.13 131 13:43 21.08.2022
2118 Clouds 25 1023 35 10000 6.22 125 12:47 21.08.2022
2119 Clouds 22 1024 44 10000 6.16 126 09:56 21.08.2022
2120 Clouds 20 1025 46 10000 5.69 121 08:56 21.08.2022
2121 Clouds 20 1025 46 10000 5.68 121 08:38 21.08.2022
2122 Clouds 19 1025 49 10000 5.5 123 07:50 21.08.2022
2123 Clouds 16 1025 52 10000 4.21 113 04:28 21.08.2022
2124 Clouds 17 1025 47 10000 4.46 112 00:53 21.08.2022
2125 Clouds 18 1025 47 10000 4.67 112 23:20 20.08.2022
2126 Clouds 19 1025 45 10000 4.51 109 21:46 20.08.2022
2127 Clouds 20 1025 45 10000 4.55 103 20:48 20.08.2022
2128 Clouds 20 1025 45 10000 3.81 98 19:42 20.08.2022
2129 Clouds 21 1025 45 10000 3.89 83 18:44 20.08.2022
2130 Clouds 21 1025 45 10000 3.99 79 18:25 20.08.2022
2131 Clouds 21 1025 45 10000 4.34 88 17:20 20.08.2022
2132 Clouds 20 1026 35 10000 4.58 96 15:52 20.08.2022
2133 Clouds 19 1026 51 10000 5.05 80 13:48 20.08.2022
2134 Rain 18 1027 49 10000 4.58 106 11:54 20.08.2022
2135 Clouds 20 1027 45 10000 4.92 133 11:24 20.08.2022
2136 Clouds 20 1027 48 10000 6.42 115 09:20 20.08.2022
2137 Clear 18 1027 53 10000 5.42 108 07:18 20.08.2022
2138 Clear 16 1026 53 10000 4.14 92 04:42 20.08.2022
2139 Clouds 19 1026 62 10000 3.67 88 00:55 20.08.2022
2140 Clouds 20 1026 43 10000 3.22 91 23:26 19.08.2022
2141 Clouds 20 1026 43 10000 3.22 91 22:44 19.08.2022
2142 Clouds 21 1025 58 10000 2.34 125 20:47 19.08.2022
2143 Clouds 24 1024 43 10000 2.05 134 18:59 19.08.2022
2144 Clouds 24 1024 43 10000 2.05 134 18:59 19.08.2022
2145 Clouds 26 1024 39 10000 6.24 94 15:58 19.08.2022
2146 Clouds 26 1024 36 10000 6.57 88 13:44 19.08.2022
2147 Clouds 25 1024 41 10000 6.48 90 11:50 19.08.2022
2148 Clouds 24 1024 43 10000 6.22 87 10:31 19.08.2022
2149 Clouds 21 1023 52 10000 4.76 90 08:31 19.08.2022
2150 Clouds 19 1022 52 10000 4.21 77 04:39 19.08.2022
2151 Clear 20 1021 49 10000 4.05 75 00:40 19.08.2022
2152 Clear 20 1021 49 10000 4.05 75 00:19 19.08.2022
2153 Clear 21 1020 47 10000 4.13 76 22:56 18.08.2022
2154 Clear 22 1020 46 10000 3.91 77 22:23 18.08.2022
2155 Clear 22 1020 43 10000 3.91 77 21:47 18.08.2022
2156 Clear 23 1020 51 10000 4.49 84 20:47 18.08.2022
2157 Clear 26 1019 38 10000 4.27 88 19:35 18.08.2022
2158 Clear 27 1019 35 10000 4.27 88 18:43 18.08.2022
2159 Clear 29 1019 33 10000 4.36 100 17:32 18.08.2022
2160 Clear 29 1019 33 10000 5.07 85 15:51 18.08.2022
2161 Clear 29 1019 35 10000 5.03 84 14:21 18.08.2022
2162 Clear 29 1019 39 10000 5.16 84 13:44 18.08.2022
2163 Clear 28 1019 42 10000 5.03 85 12:28 18.08.2022
2164 Clear 28 1019 47 10000 5.04 88 11:19 18.08.2022
2165 Clear 25 1019 50 10000 4.85 92 09:43 18.08.2022
2166 Clear 21 1019 55 10000 3.99 97 07:27 18.08.2022
2167 Clear 20 1019 57 10000 3.58 89 06:18 18.08.2022
2168 Clear 19 1019 51 10000 2.21 96 01:44 18.08.2022
2169 Clear 22 1018 45 10000 1.93 131 22:45 17.08.2022
2170 Clouds 24 1017 45 10000 2.93 61 20:21 17.08.2022
2171 Clouds 25 1018 44 10000 2.27 77 19:58 17.08.2022
2172 Clouds 27 1018 37 10000 2.3 76 18:33 17.08.2022
2173 Clouds 29 1018 37 10000 3.31 96 16:52 17.08.2022
2174 Clouds 29 1018 38 10000 3.37 96 15:46 17.08.2022
2175 Clouds 30 1018 39 10000 3.5 96 14:40 17.08.2022
2176 Clouds 29 1019 45 10000 4.2 99 12:30 17.08.2022
2177 Clouds 28 1019 47 10000 4.46 101 11:23 17.08.2022
2178 Clouds 25 1020 54 10000 4.56 99 09:22 17.08.2022
2179 Clouds 20 1021 59 10000 4.39 103 06:34 17.08.2022
2180 Clouds 20 1021 55 10000 3.35 100 01:22 17.08.2022
2181 Clouds 22 1021 52 10000 3.3 102 23:32 16.08.2022
2182 Clouds 23 1020 49 10000 2.92 94 21:33 16.08.2022
2183 Clouds 24 1021 46 10000 4.33 86 20:22 16.08.2022
2184 Clouds 24 1021 46 10000 4.33 86 19:40 16.08.2022
2185 Clouds 28 1020 40 10000 2.69 104 17:56 16.08.2022
2186 Clouds 28 1020 40 10000 2.69 104 17:56 16.08.2022
2187 Clouds 28 1020 35 10000 3.67 117 17:23 16.08.2022
2188 Clouds 28 1020 40 10000 4.02 121 15:45 16.08.2022
2189 Clouds 28 1021 41 10000 4.2 129 14:54 16.08.2022
2190 Clouds 28 1021 42 10000 4.2 129 14:36 16.08.2022
2191 Clouds 28 1021 45 10000 4.86 128 12:40 16.08.2022
2192 Clouds 26 1022 49 10000 5.01 128 10:29 16.08.2022
2193 Clouds 25 1023 51 10000 4.77 133 09:29 16.08.2022
2194 Clouds 23 1022 49 10000 4.39 130 08:26 16.08.2022
2195 Clouds 21 1023 56 10000 4.18 127 07:23 16.08.2022
2196 Clouds 19 1022 52 10000 3.11 116 01:23 16.08.2022
2197 Clouds 22 1021 48 10000 2.86 109 22:29 15.08.2022
2198 Clouds 23 1021 49 10000 2.86 109 21:51 15.08.2022
2199 Clouds 24 1021 47 10000 2.75 98 20:39 15.08.2022
2200 Clouds 24 1021 44 10000 2.75 98 20:00 15.08.2022
2201 Clouds 26 1021 41 10000 2.66 99 18:31 15.08.2022
2202 Clouds 28 1020 33 10000 3.95 122 16:40 15.08.2022
2203 Clouds 28 1020 33 10000 3.95 122 16:40 15.08.2022
2204 Clouds 28 1020 32 10000 4.03 124 16:20 15.08.2022
2205 Clouds 29 1020 43 10000 3.77 130 13:55 15.08.2022
2206 Clouds 28 1021 45 10000 3.93 116 12:24 15.08.2022
2207 Clouds 25 1021 53 10000 3.5 114 09:59 15.08.2022
2208 Clouds 23 1021 58 10000 3.05 117 08:22 15.08.2022
2209 Clouds 17 1021 65 10000 1.97 109 04:55 15.08.2022
2210 Clouds 20 1020 58 10000 2.02 86 02:19 15.08.2022
2211 Clouds 20 1020 53 10000 1.84 96 22:39 14.08.2022
2212 Clouds 22 1020 53 10000 1.7 104 21:39 14.08.2022
2213 Clouds 23 1020 51 10000 1.45 156 20:21 14.08.2022
2214 Clouds 24 1020 48 10000 1.45 156 19:31 14.08.2022
2215 Clouds 26 1019 45 10000 2.32 162 18:19 14.08.2022
2216 Clouds 26 1019 45 10000 2.8 152 16:55 14.08.2022
2217 Clouds 27 1019 44 10000 2.66 143 15:51 14.08.2022
2218 Clear 28 1020 45 10000 2.01 140 14:37 14.08.2022
2219 Clear 28 1019 46 10000 1.86 140 13:50 14.08.2022
2220 Clear 27 1020 47 10000 1.96 143 13:22 14.08.2022
2221 Clear 28 1020 47 10000 1.96 143 12:34 14.08.2022
2222 Clear 28 1020 47 10000 1.96 143 12:34 14.08.2022
2223 Clear 27 1020 49 10000 2.36 130 11:18 14.08.2022
2224 Clear 24 1021 58 10000 1.82 117 08:53 14.08.2022
2225 Clouds 20 1021 64 10000 1.64 99 06:23 14.08.2022
2226 Clouds 20 1021 64 10000 1.64 99 06:23 14.08.2022
2227 Clouds 18 1021 63 10000 1.45 75 03:48 14.08.2022
2228 Clouds 19 1020 59 10000 1.61 79 00:42 14.08.2022
2229 Clouds 20 1021 55 10000 1.82 42 22:56 13.08.2022
2230 Clouds 21 1021 52 10000 1.62 3 21:55 13.08.2022
2231 Clouds 22 1021 50 10000 1.64 332 20:49 13.08.2022
2232 Clouds 24 1021 48 10000 0.78 256 19:46 13.08.2022
2233 Clouds 26 1020 40 10000 1.67 161 18:19 13.08.2022
2234 Clouds 27 1021 43 10000 1.16 115 16:23 13.08.2022
2235 Clouds 28 1021 44 10000 0.93 118 14:41 13.08.2022
2236 Clouds 27 1021 45 10000 0.93 118 13:48 13.08.2022
2237 Clouds 27 1022 45 10000 0.79 74 13:23 13.08.2022
2238 Clouds 25 1023 49 10000 0.87 90 11:27 13.08.2022
2239 Clouds 24 1023 53 10000 0.84 44 09:23 13.08.2022
2240 Clouds 19 1023 60 10000 0.81 39 06:44 13.08.2022
2241 Clouds 17 1024 56 10000 0.75 0 01:37 13.08.2022
2242 Clouds 19 1024 52 10000 1 48 23:25 12.08.2022
2243 Clouds 20 1024 55 10000 1.41 21 21:37 12.08.2022
2244 Clouds 22 1023 51 10000 1.62 350 19:48 12.08.2022
2245 Clouds 24 1023 46 10000 1.6 334 19:23 12.08.2022
2246 Clouds 25 1023 40 10000 1.66 331 18:21 12.08.2022
2247 Clouds 27 1023 39 10000 1.95 335 16:26 12.08.2022
2248 Clouds 27 1023 41 10000 1.76 330 15:19 12.08.2022
2249 Clouds 26 1024 45 10000 1.86 331 13:43 12.08.2022
2250 Clouds 25 1025 47 10000 1.75 317 12:32 12.08.2022
2251 Clouds 22 1026 58 10000 1.28 331 08:52 12.08.2022
2252 Clear 21 1026 61 10000 1.2 314 07:45 12.08.2022
2253 Clear 17 1026 64 10000 0.97 327 06:23 12.08.2022
2254 Clear 16 1025 57 10000 0.8 74 00:32 12.08.2022
2255 Clear 16 1025 56 10000 1.19 64 23:58 11.08.2022
2256 Clear 17 1025 55 10000 1.53 45 23:22 11.08.2022
2257 Clear 19 1025 52 10000 1.65 43 21:53 11.08.2022
2258 Clear 20 1025 52 10000 1.94 42 21:28 11.08.2022
2259 Clear 20 1025 52 10000 1.94 42 21:28 11.08.2022
2260 Clear 20 1025 51 10000 1.95 42 20:31 11.08.2022
2261 Clear 20 1025 51 10000 1.95 42 20:31 11.08.2022
2262 Clear 22 1024 45 10000 2.92 21 19:33 11.08.2022
2263 Clear 24 1024 44 10000 2.92 21 18:56 11.08.2022
2264 Clear 25 1024 42 10000 2.89 10 16:47 11.08.2022
2265 Clear 26 1024 43 10000 2.37 9 15:48 11.08.2022
2266 Clear 25 1024 45 10000 1.84 12 14:40 11.08.2022
2267 Clear 23 1025 50 10000 1.78 53 11:59 11.08.2022
2268 Clear 21 1026 60 10000 2.75 48 09:22 11.08.2022
2269 Clear 17 1026 63 10000 2.47 41 06:52 11.08.2022
2270 Clear 14 1025 68 10000 2.49 19 03:23 11.08.2022
2271 Clouds 16 1024 62 10000 2.75 33 00:19 11.08.2022
2272 Clouds 19 1024 54 10000 3.46 33 21:56 10.08.2022
2273 Clouds 19 1024 53 10000 3.58 35 21:19 10.08.2022
2274 Clouds 20 1024 54 10000 3.58 35 20:42 10.08.2022
2275 Clouds 21 1023 52 10000 3.75 29 18:53 10.08.2022
2276 Clouds 22 1022 44 10000 5.19 18 17:28 10.08.2022
2277 Clear 23 1022 52 10000 3.97 34 15:26 10.08.2022
2278 Clouds 23 1022 55 10000 3.63 40 13:34 10.08.2022
2279 Clouds 22 1022 59 10000 3.86 39 12:24 10.08.2022
2280 Clouds 19 1023 54 10000 3.43 41 08:45 10.08.2022
2281 Clouds 17 1023 62 10000 3.56 33 07:44 10.08.2022
2282 Clouds 16 1023 75 10000 3.47 18 05:53 10.08.2022
2283 Clouds 15 1022 81 10000 3.04 16 02:44 10.08.2022
2284 Clouds 16 1022 74 10000 2.99 11 23:33 09.08.2022
2285 Clouds 17 1022 74 10000 2.89 18 22:48 09.08.2022
2286 Clouds 17 1022 73 10000 2.55 17 21:34 09.08.2022
2287 Clouds 19 1022 86 10000 2.77 9 19:34 09.08.2022
2288 Clouds 20 1021 83 10000 2.8 16 18:23 09.08.2022
2289 Clouds 20 1022 82 10000 2.83 19 17:26 09.08.2022
2290 Clouds 21 1022 82 10000 2.83 19 16:40 09.08.2022
2291 Clouds 22 1022 81 10000 2.74 20 15:40 09.08.2022
2292 Clouds 20 1021 84 10000 3.36 12 12:25 09.08.2022
2293 Clouds 18 1021 78 10000 2.89 20 09:22 09.08.2022
2294 Clouds 17 1021 78 10000 2.83 19 08:26 09.08.2022
2295 Rain 17 1022 80 10000 2.91 9 07:20 09.08.2022
2296 Clouds 16 1022 81 10000 2.23 7 03:32 09.08.2022
2297 Clouds 18 1022 72 10000 2.71 21 23:27 08.08.2022
2298 Clouds 18 1022 72 10000 2.71 21 23:27 08.08.2022
2299 Clouds 18 1022 83 10000 2.71 21 22:53 08.08.2022
2300 Clouds 18 1022 82 10000 2.72 20 21:49 08.08.2022
2301 Clouds 19 1022 81 10000 2.72 5 20:55 08.08.2022
2302 Clouds 19 1022 79 10000 3.15 7 19:50 08.08.2022
2303 Clouds 20 1021 64 10000 3.16 359 18:35 08.08.2022
2304 Clouds 22 1022 63 10000 2.32 349 16:34 08.08.2022
2305 Clouds 21 1022 64 10000 2.32 349 15:38 08.08.2022
2306 Clouds 21 1022 67 10000 2.26 353 15:38 08.08.2022
2307 Clouds 21 1022 63 10000 2.21 332 12:51 08.08.2022
2308 Clouds 19 1022 74 10000 2.14 340 11:53 08.08.2022
2309 Clouds 19 1022 68 10000 1.7 341 09:36 08.08.2022
2310 Clouds 17 1021 75 10000 2.49 17 05:37 08.08.2022
2311 Clouds 18 1020 72 10000 2.24 39 02:27 08.08.2022
2312 Clouds 19 1019 90 10000 3.08 19 22:25 07.08.2022
2313 Clouds 20 1019 90 10000 3.08 19 21:38 07.08.2022
2314 Clouds 20 1019 85 10000 3.52 355 20:25 07.08.2022
2315 Clouds 21 1019 85 10000 3.52 355 19:54 07.08.2022
2316 Clouds 21 1018 86 10000 5.42 3 19:33 07.08.2022
2317 Clouds 23 1017 53 10000 5.29 341 18:23 07.08.2022
2318 Clouds 23 1017 57 10000 5.31 315 16:54 07.08.2022
2319 Clouds 22 1016 43 10000 2.8 278 16:28 07.08.2022
2320 Clouds 28 1016 48 10000 3.66 237 15:19 07.08.2022
2321 Clouds 31 1016 46 10000 4.31 230 13:24 07.08.2022
2322 Clouds 28 1017 51 10000 3.64 221 10:59 07.08.2022
2323 Clouds 26 1017 52 10000 3.45 218 10:34 07.08.2022
2324 Clouds 22 1017 61 10000 3.34 205 06:52 07.08.2022
2325 Clouds 20 1017 63 10000 2.61 182 03:19 07.08.2022
2326 Clouds 21 1017 77 10000 1.82 172 23:44 06.08.2022
2327 Clouds 23 1018 76 10000 3.63 166 22:20 06.08.2022
2328 Clouds 25 1018 74 10000 4.34 167 20:42 06.08.2022
2329 Clouds 27 1019 46 10000 3.82 140 19:41 06.08.2022
2330 Clouds 29 1018 51 10000 2.1 79 18:28 06.08.2022
2331 Clouds 29 1018 51 10000 2.1 79 17:31 06.08.2022
2332 Clouds 32 1019 44 10000 1.92 198 14:43 06.08.2022
2333 Clouds 31 1019 45 10000 2.76 166 13:44 06.08.2022
2334 Clear 30 1020 49 10000 3.09 166 11:55 06.08.2022
2335 Clear 28 1021 54 10000 3.42 146 10:32 06.08.2022
2336 Clear 25 1021 57 10000 3.39 138 08:32 06.08.2022
2337 Clear 20 1021 57 10000 2.07 120 03:52 06.08.2022
2338 Clouds 20 1021 58 10000 2.58 127 23:50 05.08.2022
2339 Clouds 21 1021 54 10000 1.99 139 22:32 05.08.2022
2340 Clouds 27 1021 41 10000 2.4 50 19:46 05.08.2022
2341 Clouds 28 1021 41 10000 1.39 44 18:46 05.08.2022
2342 Clouds 28 1020 37 10000 1.09 102 18:25 05.08.2022
2343 Clouds 30 1020 39 10000 2.15 117 16:49 05.08.2022
2344 Clouds 30 1021 41 10000 2.27 107 15:22 05.08.2022
2345 Clouds 30 1021 42 10000 2.26 105 14:31 05.08.2022
2346 Clouds 30 1021 44 10000 1.57 115 13:24 05.08.2022
2347 Clouds 29 1021 45 10000 1.57 115 12:44 05.08.2022
2348 Clouds 28 1022 48 10000 2.11 143 10:55 05.08.2022
2349 Clouds 24 1022 56 10000 2.22 136 08:36 05.08.2022
2350 Clouds 21 1022 53 10000 2.33 120 07:28 05.08.2022
2351 Clouds 20 1022 65 10000 1.87 100 01:46 05.08.2022
2352 Clouds 23 1021 51 10000 1.75 144 22:40 04.08.2022
2353 Clouds 24 1021 50 10000 1.18 95 21:27 04.08.2022
2354 Clouds 24 1021 48 10000 1.18 95 20:45 04.08.2022
2355 Clouds 25 1020 48 10000 0.96 64 19:58 04.08.2022
2356 Clouds 27 1020 43 10000 1.4 122 18:57 04.08.2022
2357 Clouds 27 1020 43 10000 1.4 122 18:33 04.08.2022
2358 Clouds 29 1020 42 10000 2.78 126 14:50 04.08.2022
2359 Clouds 28 1021 44 10000 3.27 100 13:23 04.08.2022
2360 Clouds 27 1021 44 10000 3.5 98 11:39 04.08.2022
2361 Clouds 26 1021 46 10000 2.99 105 10:20 04.08.2022
2362 Clouds 24 1021 49 10000 3.13 107 07:44 04.08.2022
2363 Clouds 18 1020 57 10000 1.78 109 02:46 04.08.2022
2364 Clouds 19 1019 57 10000 2.21 87 00:33 04.08.2022
2365 Clouds 21 1019 57 10000 2.01 71 23:39 03.08.2022
2366 Clouds 23 1018 48 10000 1.39 27 21:27 03.08.2022
2367 Clouds 24 1018 53 10000 0.47 339 20:21 03.08.2022
2368 Clouds 26 1018 52 10000 0.97 253 19:19 03.08.2022
2369 Clouds 28 1018 45 10000 1.8 201 16:48 03.08.2022
2370 Clouds 28 1018 44 10000 2.22 174 16:22 03.08.2022
2371 Clouds 28 1018 44 10000 3.19 154 13:40 03.08.2022
2372 Clouds 27 1018 47 10000 3.24 132 10:56 03.08.2022
2373 Clouds 21 1017 57 10000 2.74 103 07:26 03.08.2022
2374 Clouds 16 1017 65 10000 1.84 56 04:22 03.08.2022
2375 Clouds 16 1017 62 10000 1.63 45 03:23 03.08.2022
2376 Clouds 17 1016 57 10000 1.64 76 00:49 03.08.2022
2377 Clouds 18 1016 55 10000 1.93 65 22:37 02.08.2022
2378 Clouds 20 1016 51 10000 2.1 49 21:51 02.08.2022
2379 Clouds 22 1016 48 10000 1.86 47 20:32 02.08.2022
2380 Clouds 26 1015 40 10000 1.38 163 18:34 02.08.2022
2381 Clouds 26 1015 36 10000 3.12 161 15:20 02.08.2022
2382 Clouds 25 1016 46 10000 3.53 154 11:30 02.08.2022
2383 Clouds 22 1017 52 10000 2.82 140 08:59 02.08.2022
2384 Clouds 20 1017 53 10000 2.77 139 07:52 02.08.2022
2385 Clouds 17 1017 61 10000 2.76 134 06:41 02.08.2022
2386 Clouds 14 1017 64 10000 2.4 123 04:31 02.08.2022
2387 Clouds 17 1017 58 10000 1.97 122 23:35 01.08.2022
2388 Clouds 19 1017 48 10000 1.84 138 22:23 01.08.2022
2389 Clouds 20 1017 45 10000 1.88 142 20:51 01.08.2022
2390 Clouds 23 1017 46 10000 2.4 136 19:23 01.08.2022
2391 Clouds 23 1017 41 10000 3.06 140 18:30 01.08.2022
2392 Clouds 25 1017 39 10000 3.19 144 16:53 01.08.2022
2393 Clouds 25 1017 40 10000 3.1 148 15:52 01.08.2022
2394 Clouds 25 1017 40 10000 3.1 148 15:30 01.08.2022
2395 Clouds 25 1018 40 10000 2.86 158 14:20 01.08.2022
2396 Clouds 24 1018 39 10000 2.65 158 11:50 01.08.2022
2397 Clouds 22 1019 49 10000 2.55 137 09:40 01.08.2022
2398 Clouds 21 1018 51 10000 2.69 109 08:25 01.08.2022
2399 Clouds 15 1019 57 10000 2.25 78 04:48 01.08.2022
2400 Clouds 15 1019 69 10000 1.94 74 03:49 01.08.2022
2401 Clouds 17 1019 63 10000 2.37 66 00:23 01.08.2022
2402 Clouds 17 1019 61 10000 2.75 59 22:39 31.07.2022
2403 Clouds 17 1018 54 10000 3.19 62 21:27 31.07.2022
2404 Clouds 20 1018 47 10000 2.76 45 19:53 31.07.2022
2405 Clouds 23 1017 39 10000 2.28 38 17:57 31.07.2022
2406 Clouds 23 1017 35 10000 2.85 5 15:39 31.07.2022
2407 Clouds 23 1018 29 10000 1.58 300 13:43 31.07.2022
2408 Clouds 23 1018 43 10000 1.81 270 11:59 31.07.2022
2409 Clouds 22 1019 49 10000 1.31 232 09:55 31.07.2022
2410 Clouds 20 1019 52 10000 0.81 251 07:59 31.07.2022
2411 Clouds 14 1019 61 10000 0.36 122 02:58 31.07.2022
2412 Clouds 16 1019 55 10000 0.47 41 23:46 30.07.2022
2413 Clouds 17 1019 51 10000 0.86 18 22:19 30.07.2022
2414 Clouds 17 1019 50 10000 0.86 18 21:49 30.07.2022
2415 Clouds 19 1019 49 10000 1.32 2 20:57 30.07.2022
2416 Clouds 19 1019 49 10000 1.32 2 20:57 30.07.2022
2417 Clouds 20 1018 47 10000 1.47 326 19:59 30.07.2022
2418 Clear 21 1018 43 10000 1.63 296 18:53 30.07.2022
2419 Clear 22 1018 37 10000 2.52 294 17:45 30.07.2022
2420 Clear 23 1018 44 10000 3.6 285 15:54 30.07.2022
2421 Clear 23 1018 44 10000 3.58 281 15:24 30.07.2022
2422 Clear 22 1019 50 10000 2.71 277 13:19 30.07.2022
2423 Clear 22 1019 51 10000 2.64 276 12:19 30.07.2022
2424 Clear 20 1020 41 10000 2.43 290 10:35 30.07.2022
2425 Clear 21 1020 54 10000 2.43 290 09:57 30.07.2022
2426 Clear 19 1020 57 10000 2.03 315 07:55 30.07.2022
2427 Clear 13 1019 69 10000 1.79 306 04:20 30.07.2022
2428 Clear 13 1019 78 10000 2.52 321 02:28 30.07.2022
2429 Clear 16 1019 77 10000 2.82 306 22:46 29.07.2022
2430 Clear 18 1018 59 10000 3.5 300 21:24 29.07.2022
2431 Clear 19 1018 58 10000 3.5 300 20:41 29.07.2022
2432 Rain 21 1017 52 10000 3.53 296 18:27 29.07.2022
2433 Clouds 23 1017 52 10000 3.91 301 16:32 29.07.2022
2434 Clouds 23 1017 51 10000 4.44 297 13:45 29.07.2022
2435 Clouds 22 1017 57 10000 3.86 297 11:33 29.07.2022
2436 Clouds 19 1017 67 10000 4.12 290 08:51 29.07.2022
2437 Clouds 19 1017 67 10000 3.83 296 08:20 29.07.2022
2438 Clouds 15 1016 75 10000 3.82 304 02:52 29.07.2022
2439 Clouds 17 1014 74 10000 4.61 315 23:20 28.07.2022
2440 Clouds 19 1013 73 10000 5.04 293 21:31 28.07.2022
2441 Clouds 19 1013 72 10000 5.04 293 20:50 28.07.2022
2442 Clouds 21 1012 73 6949 1.12 203 19:58 28.07.2022
2443 Clouds 21 1012 71 6359 2 190 19:26 28.07.2022
2444 Clouds 22 1012 70 10000 3.19 231 17:46 28.07.2022
2445 Clouds 22 1011 69 10000 4 254 17:20 28.07.2022
2446 Rain 22 1011 55 10000 4.36 256 16:40 28.07.2022
2447 Clouds 27 1011 56 10000 4.47 202 13:56 28.07.2022
2448 Clouds 28 1011 53 10000 4.49 203 12:33 28.07.2022
2449 Clouds 25 1012 71 10000 2.44 172 07:46 28.07.2022
2450 Clouds 20 1012 84 10000 1.63 169 05:39 28.07.2022
2451 Clouds 20 1012 89 10000 1.84 155 05:20 28.07.2022
2452 Clouds 20 1012 86 10000 1.66 192 23:19 27.07.2022
2453 Clouds 22 1012 86 10000 1.94 186 21:30 27.07.2022
2454 Clouds 25 1011 62 10000 1.5 204 19:48 27.07.2022
2455 Clouds 26 1010 51 10000 2.51 202 19:20 27.07.2022
2456 Clouds 30 1010 46 10000 3.12 171 16:31 27.07.2022
2457 Clouds 30 1010 50 10000 1.93 178 15:51 27.07.2022
2458 Clouds 30 1010 50 10000 3.64 177 14:41 27.07.2022
2459 Clouds 30 1010 50 10000 3.74 163 13:34 27.07.2022
2460 Clouds 28 1010 58 10000 1.75 165 10:39 27.07.2022
2461 Clear 25 1011 61 10000 0.84 171 07:53 27.07.2022
2462 Clouds 19 1011 82 10000 0.36 123 04:54 27.07.2022
2463 Clouds 21 1010 75 10000 1.68 41 23:25 26.07.2022
2464 Clouds 23 1010 73 10000 1.21 360 21:52 26.07.2022
2465 Rain 24 1010 70 10000 1.66 47 20:58 26.07.2022
2466 Clouds 25 1009 65 10000 0.97 326 19:32 26.07.2022
2467 Clouds 26 1009 55 10000 0.97 326 18:40 26.07.2022
2468 Rain 25 1009 61 10000 0.43 21 17:54 26.07.2022
2469 Clouds 29 1009 62 10000 1.09 10 15:46 26.07.2022
2470 Clouds 29 1009 56 10000 1.85 48 14:43 26.07.2022
2471 Rain 28 1009 56 10000 2.68 16 12:33 26.07.2022
2472 Clear 26 1009 60 10000 2.4 29 10:32 26.07.2022
2473 Clouds 24 1009 64 10000 2.87 19 08:28 26.07.2022
2474 Rain 19 1008 93 10000 2.54 3 01:55 26.07.2022
2475 Clouds 20 1008 93 10000 2.87 347 00:21 26.07.2022
2476 Rain 20 1008 92 10000 3.04 322 22:40 25.07.2022
2477 Rain 21 1008 65 10000 2.76 314 21:44 25.07.2022
2478 Rain 22 1008 62 10000 3 309 20:46 25.07.2022
2479 Rain 22 1007 72 10000 3.12 321 20:24 25.07.2022
2480 Clouds 23 1007 64 10000 3.76 308 19:25 25.07.2022
2481 Clouds 25 1007 58 10000 3.72 311 17:56 25.07.2022
2482 Clouds 25 1007 53 10000 4 303 17:23 25.07.2022
2483 Clouds 25 1007 47 10000 2.89 277 13:36 25.07.2022
2484 Clouds 25 1008 63 10000 2.46 266 10:55 25.07.2022
2485 Clouds 23 1008 70 10000 2.23 291 08:22 25.07.2022
2486 Clouds 20 1008 61 10000 1.18 308 01:44 25.07.2022
2487 Clouds 21 1008 56 10000 0.91 305 23:46 24.07.2022
2488 Clouds 21 1008 55 10000 1.48 299 22:49 24.07.2022
2489 Clouds 22 1009 53 10000 2.19 301 21:48 24.07.2022
2490 Clouds 22 1009 52 10000 2.6 280 21:18 24.07.2022
2491 Clouds 24 1009 51 10000 2.6 280 20:44 24.07.2022
2492 Clouds 26 1008 47 10000 3.23 242 19:37 24.07.2022
2493 Clouds 28 1008 41 10000 3.61 250 18:27 24.07.2022
2494 Clouds 29 1008 43 10000 4.09 229 15:57 24.07.2022
2495 Clouds 28 1008 32 10000 3.51 221 15:31 24.07.2022
2496 Clear 28 1009 45 10000 3.76 219 13:51 24.07.2022
2497 Clear 28 1010 34 10000 3.45 219 12:50 24.07.2022
2498 Clear 27 1010 48 10000 3.03 221 11:35 24.07.2022
2499 Clear 26 1011 49 10000 2.07 232 10:26 24.07.2022
2500 Clear 25 1012 50 10000 1.75 239 08:30 24.07.2022
2501 Clear 24 1012 53 10000 2.03 250 07:46 24.07.2022
2502 Clear 16 1013 73 10000 1.75 269 03:57 24.07.2022
2503 Clear 20 1014 63 10000 1.02 275 23:51 23.07.2022
2504 Clear 23 1013 57 10000 0.84 307 20:59 23.07.2022
2505 Clouds 26 1013 52 10000 0.84 303 19:44 23.07.2022
2506 Clouds 26 1013 48 10000 0.15 357 18:50 23.07.2022
2507 Clouds 28 1013 39 10000 0.96 2 17:28 23.07.2022
2508 Clouds 28 1013 39 10000 0.96 2 16:31 23.07.2022
2509 Clouds 28 1014 46 10000 2.03 311 15:22 23.07.2022
2510 Clouds 28 1014 46 10000 2.03 311 14:58 23.07.2022
2511 Clouds 28 1014 35 10000 2.26 311 14:26 23.07.2022
2512 Clouds 27 1014 37 10000 2.09 334 12:44 23.07.2022
2513 Clouds 27 1015 52 10000 2.47 348 10:45 23.07.2022
2514 Clouds 26 1015 53 10000 2.5 350 10:21 23.07.2022
2515 Clouds 23 1015 58 10000 2.3 352 08:31 23.07.2022
2516 Clouds 15 1016 80 10000 2.32 338 03:39 23.07.2022
2517 Clear 18 1016 74 10000 1.98 357 00:49 23.07.2022
2518 Clear 19 1015 71 10000 2.18 7 22:42 22.07.2022
2519 Clear 21 1014 65 10000 2.62 7 20:52 22.07.2022
2520 Clouds 23 1014 62 10000 2.37 6 19:35 22.07.2022
2521 Clouds 24 1014 58 10000 2.55 21 18:28 22.07.2022
2522 Clouds 24 1014 58 10000 2.55 21 18:28 22.07.2022
2523 Clouds 25 1014 55 10000 2.72 20 16:55 22.07.2022
2524 Clouds 26 1013 52 10000 3.97 52 14:54 22.07.2022
2525 Clouds 24 1013 61 10000 5.66 44 11:22 22.07.2022
2526 Clear 22 1013 66 10000 5.56 48 09:26 22.07.2022
2527 Clear 20 1013 68 10000 5.76 46 08:37 22.07.2022
2528 Clouds 18 1013 69 10000 4.83 36 06:59 22.07.2022
2529 Clouds 16 1012 81 10000 4.15 17 02:25 22.07.2022
2530 Clouds 17 1011 76 10000 4.39 37 22:43 21.07.2022
2531 Clouds 16 1010 77 10000 4.47 34 21:34 21.07.2022
2532 Clouds 18 1009 64 10000 6.06 38 19:28 21.07.2022
2533 Rain 19 1009 68 10000 6.16 40 17:41 21.07.2022
2534 Rain 19 1008 70 10000 6.23 37 17:19 21.07.2022
2535 Rain 21 1008 65 10000 6.21 44 15:22 21.07.2022
2536 Rain 20 1008 69 10000 6.21 44 14:39 21.07.2022
2537 Clouds 20 1006 54 10000 5.22 45 12:28 21.07.2022
2538 Clouds 17 1005 62 10000 4.09 54 11:19 21.07.2022
2539 Rain 18 1004 93 10000 3.29 76 09:41 21.07.2022
2540 Rain 17 1004 93 10000 3.29 76 08:52 21.07.2022
2541 Rain 16 1004 92 10000 3.53 39 07:50 21.07.2022
2542 Rain 15 1004 96 8746 2.32 344 06:24 21.07.2022
2543 Clouds 14 1004 94 10000 2.98 307 01:42 21.07.2022
2544 Clouds 15 1005 86 10000 3.26 295 22:22 20.07.2022
2545 Clouds 15 1005 86 10000 3.26 295 21:30 20.07.2022
2546 Clouds 16 1006 83 10000 3.69 323 19:54 20.07.2022
2547 Rain 16 1005 77 10000 4.3 344 19:25 20.07.2022
2548 Rain 17 1005 77 10000 4.3 344 18:52 20.07.2022
2549 Rain 16 1005 73 10000 4.24 344 18:26 20.07.2022
2550 Rain 20 1005 65 10000 4.07 336 16:46 20.07.2022
2551 Clouds 20 1005 68 10000 4.22 336 15:32 20.07.2022
2552 Rain 20 1005 71 10000 4.64 332 14:26 20.07.2022
2553 Rain 17 1005 74 10000 2.51 317 11:55 20.07.2022
2554 Rain 16 1006 86 10000 3.19 294 10:24 20.07.2022
2555 Clouds 12 1010 76 10000 3.33 240 04:50 20.07.2022
2556 Clouds 14 1012 73 10000 3.35 257 00:54 20.07.2022
2557 Clouds 14 1012 72 10000 2.98 264 00:25 20.07.2022
2558 Clouds 16 1013 72 10000 3.01 267 22:34 19.07.2022
2559 Clouds 16 1013 72 10000 3.01 267 21:53 19.07.2022
2560 Clouds 16 1013 68 10000 2.49 250 20:48 19.07.2022
2561 Clouds 18 1013 54 10000 2.34 294 19:22 19.07.2022
2562 Clouds 18 1013 51 10000 3.91 308 18:35 19.07.2022
2563 Clouds 18 1013 51 10000 3.91 308 17:51 19.07.2022
2564 Clouds 18 1014 47 10000 5.05 300 15:21 19.07.2022
2565 Clouds 20 1013 42 10000 4.73 307 12:44 19.07.2022
2566 Clouds 19 1014 43 10000 5 300 11:32 19.07.2022
2567 Clouds 18 1014 50 10000 5.24 292 09:51 19.07.2022
2568 Clear 16 1014 56 10000 5.21 293 08:42 19.07.2022
2569 Clouds 15 1014 67 10000 5.15 291 07:19 19.07.2022
2570 Clouds 13 1014 73 10000 4.71 292 06:27 19.07.2022
2571 Clouds 11 1014 77 10000 4.06 293 05:18 19.07.2022
2572 Clouds 12 1014 79 10000 4.21 288 02:37 19.07.2022
2573 Clouds 12 1013 83 10000 4.02 299 23:54 18.07.2022
2574 Clouds 13 1013 86 10000 4.05 300 23:20 18.07.2022
2575 Clouds 13 1013 87 10000 3.66 301 22:26 18.07.2022
2576 Clouds 14 1013 85 10000 3.36 309 21:20 18.07.2022
2577 Clouds 15 1013 83 10000 3.49 323 20:34 18.07.2022
2578 Clouds 17 1013 80 10000 1.89 297 18:32 18.07.2022
2579 Clouds 19 1014 76 10000 2.05 355 16:34 18.07.2022
2580 Clouds 18 1014 86 10000 1.59 4 15:34 18.07.2022
2581 Clouds 19 1015 82 10000 2.57 9 13:32 18.07.2022
2582 Rain 19 1015 85 10000 2.18 3 11:44 18.07.2022
2583 Rain 18 1015 93 10000 1.53 4 09:55 18.07.2022
2584 Rain 17 1016 94 4329 2.43 9 08:19 18.07.2022
2585 Clouds 15 1016 92 10000 2.22 351 05:35 18.07.2022
2586 Clouds 14 1015 65 10000 1.1 340 23:19 17.07.2022
2587 Clouds 15 1015 65 10000 1.1 340 22:32 17.07.2022
2588 Clouds 15 1015 64 10000 0.46 205 21:40 17.07.2022
2589 Clouds 17 1015 61 10000 1.49 124 20:46 17.07.2022
2590 Clouds 17 1015 62 10000 1 137 20:18 17.07.2022
2591 Clouds 19 1014 62 10000 1.75 48 19:25 17.07.2022
2592 Rain 20 1015 62 10000 2.03 360 17:55 17.07.2022
2593 Rain 20 1015 62 10000 2.03 360 17:36 17.07.2022
2594 Clouds 21 1014 52 10000 1.63 282 16:49 17.07.2022
2595 Clouds 21 1014 48 10000 1.4 233 16:24 17.07.2022
2596 Clouds 21 1014 37 10000 0.4 246 13:58 17.07.2022
2597 Clouds 21 1014 37 10000 1.38 243 13:24 17.07.2022
2598 Clouds 20 1015 50 10000 1.39 249 10:34 17.07.2022
2599 Clouds 17 1015 61 10000 1.24 245 08:38 17.07.2022
2600 Clouds 14 1015 68 10000 0.54 125 02:43 17.07.2022
2601 Rain 15 1015 71 10000 0.44 227 00:41 17.07.2022
2602 Clouds 15 1014 64 10000 0.69 236 23:19 16.07.2022
2603 Clouds 16 1014 59 10000 1.17 270 20:59 16.07.2022
2604 Clouds 18 1014 52 10000 2.3 254 18:59 16.07.2022
2605 Clouds 19 1014 47 10000 2.79 252 17:53 16.07.2022
2606 Clouds 21 1014 44 10000 3.39 257 16:24 16.07.2022
2607 Clouds 21 1013 46 10000 3.15 263 13:47 16.07.2022
2608 Clear 21 1013 46 10000 3.87 241 10:40 16.07.2022
2609 Clear 20 1013 51 10000 3.8 246 09:30 16.07.2022
2610 Clear 19 1013 51 10000 3.8 246 08:42 16.07.2022
2611 Clear 17 1012 57 10000 3.64 249 07:51 16.07.2022
2612 Clear 11 1012 81 10000 3.03 251 03:41 16.07.2022
2613 Clear 12 1012 77 10000 3 252 02:35 16.07.2022
2614 Clouds 14 1010 62 10000 3.48 251 23:28 15.07.2022
2615 Clouds 15 1010 62 10000 3.48 251 22:39 15.07.2022
2616 Clear 16 1009 57 10000 3.1 263 21:24 15.07.2022
2617 Clouds 18 1009 54 10000 3.39 271 20:24 15.07.2022
2618 Clouds 20 1008 51 10000 4.04 252 18:37 15.07.2022
2619 Clouds 21 1008 41 10000 4.26 266 17:36 15.07.2022
2620 Clouds 23 1007 38 10000 5.93 275 14:53 15.07.2022
2621 Clouds 23 1006 33 10000 4.55 260 12:57 15.07.2022
2622 Clouds 22 1006 41 10000 4.64 261 11:20 15.07.2022
2623 Clear 20 1006 54 10000 4.14 269 09:21 15.07.2022
2624 Clear 15 1005 76 10000 3.88 285 05:56 15.07.2022
2625 Clouds 16 1004 88 10000 3.33 282 00:53 15.07.2022
2626 Clouds 16 1004 89 10000 3.59 292 00:21 15.07.2022
2627 Clouds 16 1004 90 10000 3.11 285 22:45 14.07.2022
2628 Rain 16 1004 88 10000 1.37 290 21:46 14.07.2022
2629 Rain 16 1004 84 10000 0.83 44 21:28 14.07.2022
2630 Rain 18 1004 84 10000 0.83 44 20:44 14.07.2022
2631 Rain 18 1004 76 10000 0.97 351 20:21 14.07.2022
2632 Rain 21 1004 66 10000 3.31 331 19:18 14.07.2022
2633 Rain 23 1004 52 10000 3.7 271 16:23 14.07.2022
2634 Rain 22 1004 49 10000 2.19 238 15:34 14.07.2022
2635 Rain 22 1005 45 10000 2.18 203 14:31 14.07.2022
2636 Clouds 23 1006 47 10000 4.56 158 12:58 14.07.2022
2637 Clouds 22 1006 47 10000 3.86 143 11:56 14.07.2022
2638 Clouds 22 1007 52 10000 4.38 144 11:24 14.07.2022
2639 Clouds 21 1008 52 10000 4.36 152 10:37 14.07.2022
2640 Clouds 18 1008 63 10000 1.94 150 07:55 14.07.2022
2641 Clouds 14 1011 61 10000 1.78 147 01:27 14.07.2022
2642 Clouds 16 1011 61 10000 1.78 147 00:54 14.07.2022
2643 Clouds 16 1010 60 10000 1.12 104 23:35 13.07.2022
2644 Clear 17 1011 60 10000 1.76 177 22:23 13.07.2022
2645 Clouds 18 1011 58 10000 1.85 176 21:21 13.07.2022
2646 Clouds 20 1011 53 10000 2.07 182 20:23 13.07.2022
2647 Clouds 23 1011 43 10000 3.17 187 17:54 13.07.2022
2648 Clouds 23 1011 41 10000 3.58 195 16:47 13.07.2022
2649 Clouds 24 1011 43 10000 3.91 185 15:51 13.07.2022
2650 Clouds 24 1012 36 10000 3.7 179 13:24 13.07.2022
2651 Clouds 23 1013 40 10000 3.81 173 10:47 13.07.2022
2652 Rain 23 1013 51 10000 3.64 175 10:28 13.07.2022
2653 Rain 22 1014 57 10000 3.24 152 09:28 13.07.2022
2654 Clouds 21 1014 66 10000 2.51 139 07:53 13.07.2022
2655 Clouds 14 1014 85 10000 1.2 152 03:34 13.07.2022
2656 Clear 16 1013 80 10000 2.61 193 00:24 13.07.2022
2657 Clear 18 1013 74 10000 2.59 182 22:19 12.07.2022
2658 Clear 18 1013 74 10000 2.59 182 21:45 12.07.2022
2659 Clear 19 1013 71 10000 2.43 187 20:44 12.07.2022
2660 Clouds 22 1013 66 10000 2.66 177 19:44 12.07.2022
2661 Clouds 22 1012 56 10000 4.91 200 18:25 12.07.2022
2662 Clouds 22 1011 53 10000 6.04 194 16:24 12.07.2022
2663 Rain 25 1011 58 10000 6.19 187 14:31 12.07.2022
2664 Clouds 25 1009 57 10000 5.76 168 13:34 12.07.2022
2665 Rain 23 1009 63 10000 5.65 161 11:48 12.07.2022
2666 Rain 22 1008 73 8253 5.59 156 10:26 12.07.2022
2667 Clouds 21 1008 66 10000 5.63 148 08:46 12.07.2022
2668 Clouds 22 1008 76 10000 4.75 141 07:48 12.07.2022
2669 Clouds 21 1008 76 10000 7.36 125 05:45 12.07.2022
2670 Clouds 21 1008 76 10000 7.55 119 04:57 12.07.2022
2671 Clouds 23 1008 89 10000 3.9 79 00:54 12.07.2022
2672 Rain 25 1009 89 10000 4.1 106 22:43 11.07.2022
2673 Rain 26 1008 75 10000 6.25 67 21:34 11.07.2022
2674 Rain 27 1008 68 10000 5.31 60 20:32 11.07.2022
2675 Clouds 29 1009 52 10000 3.91 122 19:18 11.07.2022
2676 Clouds 30 1009 48 10000 6.31 135 18:29 11.07.2022
2677 Clouds 30 1009 43 10000 7.54 137 16:30 11.07.2022
2678 Clouds 31 1009 39 10000 7.33 134 15:28 11.07.2022
2679 Clouds 31 1008 36 10000 8.13 141 13:19 11.07.2022
2680 Clouds 29 1009 36 10000 7.27 127 11:24 11.07.2022
2681 Clouds 26 1010 43 10000 6.67 123 09:58 11.07.2022
2682 Clouds 25 1011 50 10000 5.83 111 09:35 11.07.2022
2683 Clouds 23 1011 58 10000 5.09 102 08:32 11.07.2022
2684 Clouds 18 1011 84 10000 2.87 128 01:20 11.07.2022
2685 Clouds 18 1011 81 10000 3.53 136 23:55 10.07.2022
2686 Rain 18 1010 87 10000 2.82 118 22:48 10.07.2022
2687 Rain 19 1010 90 10000 2.69 83 20:56 10.07.2022
2688 Rain 19 1010 90 10000 3.6 54 20:36 10.07.2022
2689 Rain 19 1009 81 10000 0.97 8 19:38 10.07.2022
2690 Rain 18 1010 76 10000 1.52 304 18:35 10.07.2022
2691 Rain 21 1010 76 10000 1.52 304 17:35 10.07.2022
2692 Clouds 28 1008 47 10000 6.46 160 16:24 10.07.2022
2693 Clouds 29 1009 45 10000 6.11 148 15:20 10.07.2022
2694 Clouds 28 1009 48 10000 6.24 140 13:40 10.07.2022
2695 Clouds 26 1009 57 10000 4.34 144 12:26 10.07.2022
2696 Clouds 23 1009 56 10000 4.43 136 09:57 10.07.2022
2697 Clouds 21 1010 64 10000 3.93 119 08:44 10.07.2022
2698 Clouds 19 1011 88 10000 2.27 92 07:29 10.07.2022
2699 Rain 17 1010 90 10000 4.92 104 01:23 10.07.2022
2700 Rain 19 1012 90 10000 0.99 18 22:43 09.07.2022
2701 Clouds 19 1012 89 10000 0.96 118 22:19 09.07.2022
2702 Rain 20 1011 88 10000 2.3 44 20:45 09.07.2022
2703 Rain 23 1012 66 10000 2.03 174 18:35 09.07.2022
2704 Rain 24 1012 66 10000 2.03 174 17:45 09.07.2022
2705 Clouds 23 1011 52 10000 1.87 182 16:44 09.07.2022
2706 Clouds 23 1012 46 10000 1.49 131 15:40 09.07.2022
2707 Clouds 23 1014 48 10000 0.49 19 14:28 09.07.2022
2708 Clouds 22 1013 42 10000 1.69 25 13:50 09.07.2022
2709 Clouds 21 1014 45 10000 0.95 252 12:45 09.07.2022
2710 Clouds 21 1015 41 10000 2.1 128 11:22 09.07.2022
2711 Clouds 22 1015 42 10000 2.08 115 10:22 09.07.2022
2712 Clouds 21 1016 50 10000 2.39 104 07:45 09.07.2022
2713 Clouds 16 1017 66 10000 1.74 75 04:59 09.07.2022
2714 Clouds 17 1017 65 10000 1.71 27 02:34 09.07.2022
2715 Clouds 19 1017 59 10000 1.66 335 22:54 08.07.2022
2716 Clouds 20 1017 57 10000 1.89 327 21:58 08.07.2022
2717 Clouds 22 1017 55 10000 1.9 346 20:41 08.07.2022
2718 Clouds 22 1017 51 10000 2.24 350 20:23 08.07.2022
2719 Clouds 24 1016 40 10000 1.85 8 18:26 08.07.2022
2720 Clouds 24 1016 37 10000 2.04 329 16:49 08.07.2022
2721 Clouds 23 1016 35 10000 1.59 352 14:54 08.07.2022
2722 Clouds 23 1017 39 10000 1.74 342 13:41 08.07.2022
2723 Clouds 22 1017 42 10000 2.44 334 11:59 08.07.2022
2724 Clouds 20 1017 45 10000 2.47 339 10:37 08.07.2022
2725 Clouds 18 1018 59 10000 3.01 341 08:37 08.07.2022
2726 Clouds 17 1018 65 10000 2.69 352 06:50 08.07.2022
2727 Clouds 16 1017 83 10000 2.51 336 01:49 08.07.2022
2728 Clouds 17 1016 79 10000 3.7 331 23:30 07.07.2022
2729 Clouds 18 1015 80 10000 3.83 318 22:38 07.07.2022
2730 Clouds 19 1015 80 10000 4.24 311 20:40 07.07.2022
2731 Rain 19 1012 60 10000 4.41 272 18:37 07.07.2022
2732 Clouds 20 1011 49 10000 4.76 227 17:19 07.07.2022
2733 Clouds 32 1011 46 10000 5.82 196 15:18 07.07.2022
2734 Clouds 31 1011 44 10000 5.19 186 13:25 07.07.2022
2735 Clouds 30 1011 50 10000 4.55 183 12:39 07.07.2022
2736 Clouds 30 1011 50 10000 4.55 183 12:19 07.07.2022
2737 Clouds 30 1011 45 10000 5.3 182 11:30 07.07.2022
2738 Clouds 29 1011 45 10000 5.3 182 10:43 07.07.2022
2739 Clouds 29 1011 48 10000 4.9 184 10:25 07.07.2022
2740 Clouds 23 1012 67 10000 4.09 181 07:40 07.07.2022
2741 Rain 20 1012 89 10000 2.23 164 04:42 07.07.2022
2742 Clouds 20 1012 90 10000 2.76 161 23:37 06.07.2022
2743 Clouds 19 1012 90 10000 2.4 165 23:19 06.07.2022
2744 Clouds 19 1012 90 10000 2.4 165 22:57 06.07.2022
2745 Clouds 19 1013 90 10000 2.36 186 22:38 06.07.2022
2746 Clouds 21 1013 90 10000 2.23 176 21:30 06.07.2022
2747 Rain 21 1013 85 10000 1.58 86 19:39 06.07.2022
2748 Clouds 24 1013 79 10000 2 133 18:29 06.07.2022
2749 Rain 28 1013 76 10000 3.88 158 16:27 06.07.2022
2750 Rain 29 1013 56 10000 0.72 136 14:58 06.07.2022
2751 Clouds 29 1014 44 10000 2.43 200 12:43 06.07.2022
2752 Clouds 28 1014 44 10000 2.34 203 11:49 06.07.2022
2753 Clouds 26 1014 52 10000 1.83 186 10:20 06.07.2022
2754 Clouds 25 1015 64 10000 0.52 257 08:26 06.07.2022
2755 Clouds 23 1016 65 10000 0.88 58 07:36 06.07.2022
2756 Clouds 18 1015 86 10000 0.38 123 05:31 06.07.2022
2757 Clouds 18 1015 87 10000 0.85 219 22:49 05.07.2022
2758 Clouds 19 1015 86 10000 0.72 208 21:59 05.07.2022
2759 Clouds 20 1015 87 10000 1.08 194 20:41 05.07.2022
2760 Clouds 20 1015 84 10000 2.39 175 19:43 05.07.2022
2761 Clouds 20 1015 82 10000 1.45 210 19:25 05.07.2022
2762 Rain 20 1015 88 10000 3.25 311 17:48 05.07.2022
2763 Rain 21 1016 92 5416 6.53 273 16:56 05.07.2022
2764 Rain 24 1015 77 10000 2.45 243 15:37 05.07.2022
2765 Clouds 29 1014 39 10000 4.27 161 14:31 05.07.2022
2766 Clear 30 1014 38 10000 3.91 166 12:48 05.07.2022
2767 Clear 30 1015 39 10000 3.31 169 11:52 05.07.2022
2768 Clear 29 1015 40 10000 3.23 169 10:42 05.07.2022
2769 Clouds 28 1015 45 10000 2.78 148 09:24 05.07.2022
2770 Clouds 26 1016 49 10000 2.64 154 07:52 05.07.2022
2771 Clouds 21 1016 59 10000 2.46 147 05:45 05.07.2022
2772 Clouds 19 1016 65 10000 2.21 120 04:25 05.07.2022
2773 Clouds 20 1015 66 10000 1.65 130 00:37 05.07.2022
2774 Clouds 21 1015 65 10000 0.77 205 23:34 04.07.2022
2775 Clouds 21 1015 64 10000 0.77 206 22:50 04.07.2022
2776 Clouds 22 1015 64 10000 2.03 118 21:48 04.07.2022
2777 Rain 24 1015 60 10000 2.37 116 20:53 04.07.2022
2778 Clouds 26 1014 49 10000 2.36 99 20:34 04.07.2022
2779 Clouds 27 1015 48 10000 2.48 82 19:55 04.07.2022
2780 Clouds 27 1014 45 10000 2.86 68 19:36 04.07.2022
2781 Clouds 29 1014 39 10000 3.4 46 18:18 04.07.2022
2782 Clouds 30 1014 33 10000 4.02 12 15:58 04.07.2022
2783 Clouds 29 1014 33 10000 4.02 12 15:33 04.07.2022
2784 Clouds 30 1014 31 10000 3.25 9 13:29 04.07.2022
2785 Clouds 29 1015 33 10000 2.97 11 12:30 04.07.2022
2786 Clouds 28 1016 39 10000 2.81 7 10:34 04.07.2022
2787 Clouds 28 1016 39 10000 2.81 7 09:53 04.07.2022
2788 Clouds 26 1016 50 10000 2.49 10 08:24 04.07.2022
2789 Clouds 19 1016 68 10000 2.03 10 04:57 04.07.2022
2790 Clouds 20 1016 67 10000 2.22 357 00:42 04.07.2022
2791 Clear 22 1016 59 10000 2.5 341 22:59 03.07.2022
2792 Clear 24 1015 54 10000 2.54 7 20:58 03.07.2022
2793 Clear 25 1015 49 10000 2.85 8 20:31 03.07.2022
2794 Clear 28 1015 42 10000 3.47 8 19:41 03.07.2022
2795 Clear 28 1015 42 10000 3.47 8 19:23 03.07.2022
2796 Clear 29 1015 35 10000 4.59 359 17:45 03.07.2022
2797 Clear 30 1014 30 10000 5.09 351 15:55 03.07.2022
2798 Clear 30 1014 29 10000 4.96 352 14:59 03.07.2022
2799 Clear 30 1014 29 10000 4.78 356 14:32 03.07.2022
2800 Clear 29 1015 30 10000 4.88 356 13:48 03.07.2022
2801 Clear 29 1015 33 10000 4.29 5 12:35 03.07.2022
2802 Clear 28 1015 36 10000 4.46 2 11:29 03.07.2022
2803 Clear 28 1015 36 10000 4.46 2 10:39 03.07.2022
2804 Clear 26 1015 38 10000 4.65 351 09:55 03.07.2022
2805 Clouds 22 1016 51 10000 4.14 350 07:36 03.07.2022
2806 Clouds 18 1016 64 10000 4.08 320 05:18 03.07.2022
2807 Clouds 19 1018 51 10000 3.07 301 00:23 03.07.2022
2808 Clouds 19 1018 54 10000 2.46 300 22:35 02.07.2022
2809 Clouds 20 1018 52 10000 2.88 303 21:38 02.07.2022
2810 Clear 23 1019 47 10000 2.17 326 19:52 02.07.2022
2811 Clear 24 1019 40 10000 2.56 348 19:23 02.07.2022
2812 Clouds 25 1019 34 10000 3.7 352 17:58 02.07.2022
2813 Clouds 25 1019 34 10000 3.7 352 17:36 02.07.2022
2814 Clear 25 1020 29 10000 4.04 354 15:28 02.07.2022
2815 Clouds 23 1021 29 10000 3.98 355 12:22 02.07.2022
2816 Clouds 22 1022 30 10000 4.08 353 11:28 02.07.2022
2817 Clouds 22 1022 30 10000 4.08 353 10:48 02.07.2022
2818 Clouds 21 1022 32 10000 4.04 350 09:49 02.07.2022
2819 Clouds 20 1023 35 10000 3.74 348 08:36 02.07.2022
2820 Clouds 20 1023 39 10000 3.11 347 08:18 02.07.2022
2821 Clear 11 1023 56 10000 1.95 3 02:52 02.07.2022
2822 Clear 14 1023 55 10000 1.95 20 00:27 02.07.2022
2823 Clear 15 1023 54 10000 2.36 26 22:59 01.07.2022
2824 Clear 16 1023 52 10000 2.7 20 22:19 01.07.2022
2825 Clear 16 1022 49 10000 2.71 29 21:37 01.07.2022
2826 Clear 17 1022 49 10000 2.71 29 20:57 01.07.2022
2827 Clear 20 1022 45 10000 3.22 31 19:47 01.07.2022
2828 Clear 21 1022 40 10000 4.16 38 18:42 01.07.2022
2829 Clear 22 1020 29 10000 5.97 49 16:35 01.07.2022
2830 Clear 22 1020 25 10000 5.83 44 14:21 01.07.2022
2831 Clear 22 1020 25 10000 5.63 41 13:22 01.07.2022
2832 Clear 21 1020 28 10000 5.37 42 10:53 01.07.2022
2833 Clear 20 1019 30 10000 5.39 42 10:19 01.07.2022
2834 Clear 18 1018 50 10000 4.56 39 06:20 01.07.2022
2835 Clouds 16 1018 75 10000 2.85 6 01:57 01.07.2022
2836 Clouds 17 1017 61 10000 3.22 338 23:34 30.06.2022
2837 Clouds 18 1017 61 10000 3.22 338 22:47 30.06.2022
2838 Clouds 19 1017 58 10000 3.17 344 22:27 30.06.2022
2839 Clouds 19 1017 58 10000 3.17 344 21:51 30.06.2022
2840 Clouds 22 1017 51 10000 3.72 360 20:41 30.06.2022
2841 Clouds 23 1017 52 10000 3.54 357 19:55 30.06.2022
2842 Clouds 23 1017 45 10000 4.17 360 19:35 30.06.2022
2843 Clouds 23 1017 45 10000 4.17 360 18:49 30.06.2022
2844 Clouds 24 1016 38 10000 4.93 1 17:49 30.06.2022
2845 Clouds 25 1016 34 10000 5.61 1 16:56 30.06.2022
2846 Clouds 25 1016 30 10000 5.58 1 15:52 30.06.2022
2847 Clouds 25 1017 28 10000 5.18 354 13:51 30.06.2022
2848 Clouds 25 1017 28 10000 4.67 350 13:19 30.06.2022
2849 Clouds 24 1017 28 10000 4.67 350 12:33 30.06.2022
2850 Clouds 22 1018 31 10000 3.67 358 10:21 30.06.2022
2851 Clouds 22 1018 31 10000 3.67 358 09:41 30.06.2022
2852 Clouds 21 1019 41 10000 3.36 345 08:26 30.06.2022
2853 Clouds 20 1019 40 10000 3.57 351 07:41 30.06.2022
2854 Clouds 12 1020 59 10000 1.44 353 03:53 30.06.2022
2855 Clear 15 1021 54 10000 1.54 77 23:39 29.06.2022
2856 Clear 17 1021 54 10000 1.54 77 22:41 29.06.2022
2857 Clear 16 1020 52 10000 1.57 94 22:19 29.06.2022
2858 Clear 20 1020 49 10000 1.99 82 20:35 29.06.2022
2859 Clear 21 1020 45 10000 2.64 68 19:57 29.06.2022
2860 Clear 23 1020 36 10000 2.73 53 18:46 29.06.2022
2861 Clear 24 1020 30 10000 2.97 42 17:38 29.06.2022
2862 Clear 24 1020 24 10000 2.42 39 16:24 29.06.2022
2863 Clear 23 1021 24 10000 2.41 54 13:52 29.06.2022
2864 Clear 22 1021 25 10000 2.55 62 12:38 29.06.2022
2865 Clear 21 1023 30 10000 3.12 59 10:19 29.06.2022
2866 Clear 20 1023 33 10000 3.08 57 09:31 29.06.2022
2867 Clear 17 1023 43 10000 2.63 58 06:57 29.06.2022
2868 Clear 14 1024 54 10000 2.33 61 04:46 29.06.2022
2869 Clear 15 1024 57 10000 2.52 76 00:54 29.06.2022
2870 Clear 15 1024 56 10000 2.65 78 00:35 29.06.2022
2871 Clear 16 1023 56 10000 2.62 81 22:53 28.06.2022
2872 Clear 17 1023 54 10000 3 72 22:21 28.06.2022
2873 Clear 19 1023 54 10000 3 72 21:50 28.06.2022
2874 Clear 18 1022 51 10000 3.68 64 21:30 28.06.2022
2875 Clear 20 1022 46 10000 3.84 66 20:18 28.06.2022
2876 Clear 22 1022 45 10000 4.05 72 19:32 28.06.2022
2877 Clear 24 1022 40 10000 4.48 68 18:40 28.06.2022
2878 Clear 24 1021 31 10000 4.51 45 17:37 28.06.2022
2879 Clear 25 1021 30 10000 4.6 36 15:56 28.06.2022
2880 Clear 25 1021 30 10000 4.72 30 14:59 28.06.2022
2881 Clouds 25 1021 31 10000 4.56 28 14:19 28.06.2022
2882 Clouds 25 1021 31 10000 4.49 32 13:47 28.06.2022
2883 Clouds 25 1021 31 10000 4.72 35 12:47 28.06.2022
2884 Clouds 25 1021 34 10000 4.67 38 10:46 28.06.2022
2885 Clear 24 1021 41 10000 4.52 45 09:25 28.06.2022
2886 Clear 24 1021 41 10000 4.52 45 08:43 28.06.2022
2887 Clear 23 1020 54 10000 4.38 47 07:20 28.06.2022
2888 Clear 20 1020 77 10000 3.94 53 04:56 28.06.2022
2889 Clear 22 1018 59 10000 2.19 309 23:59 27.06.2022
2890 Clear 23 1018 58 10000 2.15 306 23:36 27.06.2022
2891 Clear 23 1018 58 10000 2.15 306 22:50 27.06.2022
2892 Clear 25 1018 57 10000 1.82 309 21:33 27.06.2022
2893 Clear 28 1018 55 10000 1.17 347 20:44 27.06.2022
2894 Clouds 30 1018 43 10000 3.02 3 18:58 27.06.2022
2895 Clouds 31 1018 39 10000 4.34 6 17:46 27.06.2022
2896 Clear 31 1017 33 10000 5.14 324 16:18 27.06.2022
2897 Clear 32 1018 32 10000 4.89 319 14:44 27.06.2022
2898 Clear 31 1018 34 10000 4.62 319 13:25 27.06.2022
2899 Clear 32 1018 34 10000 4.62 319 12:52 27.06.2022
2900 Clear 30 1019 42 10000 3.32 320 10:23 27.06.2022
2901 Clear 29 1019 47 10000 3.12 314 08:48 27.06.2022
2902 Clear 29 1020 53 10000 2.94 307 08:19 27.06.2022
2903 Clear 24 1020 59 10000 2.92 299 06:38 27.06.2022
2904 Clear 19 1021 68 10000 1.85 292 02:28 27.06.2022
2905 Clear 22 1021 61 10000 0.49 334 23:55 26.06.2022
2906 Clear 23 1021 60 10000 1.56 317 21:58 26.06.2022
2907 Clear 27 1021 54 10000 1.51 310 20:44 26.06.2022
2908 Clear 29 1020 44 10000 1.41 31 19:32 26.06.2022
2909 Clear 30 1020 44 10000 1.42 31 18:30 26.06.2022
2910 Clear 30 1020 34 10000 3.4 358 16:33 26.06.2022
2911 Clear 30 1020 31 10000 3.12 331 14:42 26.06.2022
2912 Clear 30 1021 32 10000 2.36 309 13:38 26.06.2022
2913 Clear 30 1021 32 10000 2.36 309 13:18 26.06.2022
2914 Clear 29 1021 35 10000 1.85 288 11:26 26.06.2022
2915 Clear 28 1022 38 10000 1.5 300 10:26 26.06.2022
2916 Clear 27 1022 43 10000 1.47 328 09:22 26.06.2022
2917 Clouds 26 1022 50 10000 1.7 339 07:41 26.06.2022
2918 Clear 18 1021 69 10000 0.69 34 01:53 26.06.2022
2919 Clear 20 1020 66 10000 1.33 62 00:21 26.06.2022
2920 Clear 20 1020 66 10000 1.33 62 23:49 25.06.2022
2921 Clear 20 1020 65 10000 1.57 60 22:57 25.06.2022
2922 Clear 21 1020 63 10000 1.71 54 22:27 25.06.2022
2923 Clear 23 1020 63 10000 1.71 54 21:40 25.06.2022
2924 Clear 23 1019 61 10000 1.88 54 21:18 25.06.2022
2925 Clear 24 1019 57 10000 2.25 52 20:27 25.06.2022
2926 Clear 26 1019 47 10000 2.64 54 19:21 25.06.2022
2927 Clear 27 1018 40 10000 3.12 53 17:56 25.06.2022
2928 Clear 28 1018 35 10000 3.48 51 17:22 25.06.2022
2929 Clear 28 1018 33 10000 3.36 48 15:26 25.06.2022
2930 Clear 27 1018 34 10000 3 51 13:34 25.06.2022
2931 Clear 27 1018 35 10000 3.01 55 12:38 25.06.2022
2932 Clear 26 1019 37 10000 2.73 55 10:35 25.06.2022
2933 Clear 24 1019 46 10000 2.69 41 08:59 25.06.2022
2934 Clear 24 1019 46 10000 2.69 41 08:37 25.06.2022
2935 Clouds 24 1019 51 10000 2.65 36 08:18 25.06.2022
2936 Clear 16 1018 76 10000 2 17 03:34 25.06.2022
2937 Clouds 19 1017 75 10000 1.85 26 00:35 25.06.2022
2938 Clouds 20 1017 72 10000 1.95 22 22:54 24.06.2022
2939 Clouds 21 1016 65 10000 2.95 30 21:41 24.06.2022
2940 Clouds 21 1016 65 10000 2.94 30 20:47 24.06.2022
2941 Clear 22 1016 59 10000 3.26 21 20:19 24.06.2022
2942 Clear 24 1016 52 10000 3.66 14 19:21 24.06.2022
2943 Clear 25 1016 52 10000 3.66 14 18:49 24.06.2022
2944 Clear 25 1016 45 10000 4.7 9 18:30 24.06.2022
2945 Clear 26 1015 40 10000 5.17 9 17:20 24.06.2022
2946 Clear 26 1015 34 10000 4.61 10 15:29 24.06.2022
2947 Clear 26 1015 33 10000 4.55 18 14:27 24.06.2022
2948 Clear 26 1015 33 10000 4.55 18 13:55 24.06.2022
2949 Clear 26 1015 33 10000 4.55 18 13:55 24.06.2022
2950 Clouds 25 1015 33 10000 4.73 16 11:44 24.06.2022
2951 Clouds 24 1016 34 10000 4.53 19 11:18 24.06.2022
2952 Clouds 23 1016 36 10000 4.13 18 09:55 24.06.2022
2953 Clouds 23 1016 41 10000 3.63 16 09:29 24.06.2022
2954 Clouds 22 1016 41 10000 3.63 16 08:52 24.06.2022
2955 Clouds 20 1017 50 10000 2.66 17 06:48 24.06.2022
2956 Clouds 19 1017 58 10000 2.41 18 06:30 24.06.2022
2957 Clouds 16 1017 58 10000 2.41 18 05:52 24.06.2022
2958 Clouds 15 1016 70 10000 2.08 8 01:28 24.06.2022
2959 Clouds 17 1015 68 10000 1.81 34 22:45 23.06.2022
2960 Clouds 17 1015 66 10000 1.74 40 22:18 23.06.2022
2961 Clear 19 1015 61 10000 3.09 34 20:54 23.06.2022
2962 Clear 20 1014 55 10000 3.8 23 20:32 23.06.2022
2963 Clear 23 1014 47 10000 3.64 14 18:59 23.06.2022
2964 Clear 23 1014 41 10000 4.64 7 17:50 23.06.2022
2965 Clear 23 1014 41 10000 4.64 7 17:50 23.06.2022
2966 Clear 24 1013 36 10000 4.38 2 16:42 23.06.2022
2967 Clear 24 1012 33 10000 4.05 4 15:43 23.06.2022
2968 Clear 24 1012 32 10000 3.84 12 15:23 23.06.2022
2969 Clear 24 1012 32 10000 4.38 29 13:21 23.06.2022
2970 Clear 22 1012 35 10000 4.67 29 11:23 23.06.2022
2971 Clear 21 1011 38 10000 4.59 34 10:31 23.06.2022
2972 Clear 20 1011 49 10000 4.53 30 08:35 23.06.2022
2973 Clear 13 1009 75 10000 3.77 15 02:38 23.06.2022
2974 Clear 15 1008 76 10000 3.89 25 00:26 23.06.2022
2975 Clear 15 1008 75 10000 4.07 24 23:27 22.06.2022
2976 Clear 17 1007 73 10000 3.9 25 22:31 22.06.2022
2977 Clear 18 1007 70 10000 3.73 33 21:21 22.06.2022
2978 Clouds 19 1006 63 10000 4.51 42 20:25 22.06.2022
2979 Clouds 19 1006 63 10000 4.51 42 19:52 22.06.2022
2980 Clouds 21 1005 54 10000 4.91 39 18:40 22.06.2022
2981 Clouds 21 1004 57 10000 5 42 17:27 22.06.2022
2982 Clouds 21 1003 48 10000 5.93 44 16:18 22.06.2022
2983 Clouds 21 1003 43 10000 5.46 47 15:26 22.06.2022
2984 Clouds 21 1003 44 10000 5.44 63 14:19 22.06.2022
2985 Clouds 20 1003 46 10000 4.27 64 13:37 22.06.2022
2986 Clouds 20 1003 46 10000 4.27 64 13:18 22.06.2022
2987 Clouds 19 1003 50 10000 3.37 74 11:49 22.06.2022
2988 Clouds 18 1003 62 10000 3.04 63 10:55 22.06.2022
2989 Clouds 17 1003 80 10000 3.16 46 09:59 22.06.2022
2990 Clouds 16 1002 92 10000 2.9 42 08:27 22.06.2022
2991 Rain 14 1001 91 10000 2.88 52 03:50 22.06.2022
2992 Clouds 14 999 86 10000 3.68 69 01:23 22.06.2022
2993 Clouds 14 999 75 10000 2.5 66 00:24 22.06.2022
2994 Clouds 16 999 74 10000 3.34 62 22:18 21.06.2022
2995 Clouds 17 1000 71 10000 1.27 134 19:55 21.06.2022
2996 Clouds 17 1000 69 10000 2.08 140 18:35 21.06.2022
2997 Clouds 17 1000 69 10000 1.99 152 18:35 21.06.2022
2998 Clouds 16 1000 57 10000 2.08 140 17:39 21.06.2022
2999 Clouds 17 1002 74 10000 1.67 165 13:54 21.06.2022
3000 Clouds 17 1003 73 10000 0.91 149 11:37 21.06.2022
3001 Clouds 17 1003 86 10000 0.73 180 09:54 21.06.2022
3002 Clouds 16 1003 87 10000 0.95 159 08:47 21.06.2022
3003 Clouds 14 1003 76 10000 1.52 90 06:36 21.06.2022
3004 Clouds 14 1005 76 10000 0.64 307 01:31 21.06.2022
3005 Clouds 14 1006 68 10000 1.14 313 23:24 20.06.2022
3006 Clouds 14 1006 67 10000 1.62 310 21:54 20.06.2022
3007 Clouds 16 1006 65 10000 2.07 279 20:50 20.06.2022
3008 Clouds 17 1006 65 10000 2.54 263 19:40 20.06.2022
3009 Clouds 18 1006 57 10000 2.3 258 18:46 20.06.2022
3010 Clouds 19 1005 47 10000 2.66 276 18:20 20.06.2022
3011 Clouds 19 1005 47 10000 2.66 276 17:35 20.06.2022
3012 Clouds 19 1006 63 10000 3.89 260 15:57 20.06.2022
3013 Clouds 18 1006 37 10000 3.65 301 12:56 20.06.2022
3014 Clouds 18 1006 47 10000 3.74 300 11:25 20.06.2022
3015 Clouds 15 1006 60 10000 3.96 304 09:47 20.06.2022
3016 Clouds 14 1006 73 10000 4.13 295 08:44 20.06.2022
3017 Clouds 13 1007 75 5866 4.89 271 06:37 20.06.2022
3018 Rain 14 1006 72 5481 3.14 278 03:20 20.06.2022
3019 Clouds 17 1006 61 10000 4.37 266 00:37 20.06.2022
3020 Clouds 17 1006 60 10000 5.23 272 23:24 19.06.2022
3021 Clouds 18 1006 58 10000 5.54 278 22:18 19.06.2022
3022 Clouds 19 1006 56 10000 5.54 278 21:41 19.06.2022
3023 Clouds 21 1006 54 10000 6.7 283 20:46 19.06.2022
3024 Clouds 20 1005 50 10000 7.05 278 19:48 19.06.2022
3025 Clouds 22 1005 55 10000 7.41 266 19:23 19.06.2022
3026 Clouds 23 1004 53 10000 5.89 256 18:31 19.06.2022
3027 Clouds 23 1004 54 10000 5.89 256 17:39 19.06.2022
3028 Clouds 23 1004 51 10000 5.26 252 16:38 19.06.2022
3029 Clouds 23 1005 52 10000 6.68 266 15:44 19.06.2022
3030 Clouds 23 1005 63 10000 7.64 257 15:26 19.06.2022
3031 Clouds 23 1005 56 10000 7.31 246 14:30 19.06.2022
3032 Clouds 23 1005 56 10000 7.31 246 13:43 19.06.2022
3033 Clouds 22 1006 52 10000 6.63 228 11:53 19.06.2022
3034 Clouds 20 1007 48 10000 6.93 236 10:52 19.06.2022
3035 Clouds 19 1009 67 10000 4.98 229 08:55 19.06.2022
3036 Clouds 19 1010 70 10000 4.67 228 08:30 19.06.2022
3037 Clouds 16 1011 66 10000 5.63 237 06:54 19.06.2022
3038 Clouds 14 1012 64 10000 3.61 235 03:38 19.06.2022
3039 Clouds 15 1013 70 10000 2.58 218 00:28 19.06.2022
3040 Clouds 15 1013 70 10000 2.58 218 23:59 18.06.2022
3041 Clouds 15 1013 66 10000 2.41 224 23:34 18.06.2022
3042 Clouds 16 1013 62 10000 1.93 237 22:23 18.06.2022
3043 Clouds 17 1013 60 10000 1.65 259 20:51 18.06.2022
3044 Clouds 18 1013 58 10000 2.19 281 20:18 18.06.2022
3045 Clouds 20 1013 52 10000 3 278 18:57 18.06.2022
3046 Clouds 20 1013 47 10000 3.46 285 18:38 18.06.2022
3047 Clouds 20 1013 52 10000 3 278 18:38 18.06.2022
3048 Clouds 20 1013 45 10000 3.79 296 17:29 18.06.2022
3049 Clouds 20 1013 47 10000 4.01 300 16:18 18.06.2022
3050 Clouds 19 1014 46 10000 4.96 305 14:58 18.06.2022
3051 Clouds 20 1014 46 10000 4.96 305 14:37 18.06.2022
3052 Clouds 20 1014 51 10000 5.13 294 12:31 18.06.2022
3053 Clouds 20 1014 53 10000 5.42 284 11:25 18.06.2022
3054 Clouds 20 1014 54 10000 5.33 287 10:23 18.06.2022
3055 Clouds 18 1014 58 10000 5.02 289 08:59 18.06.2022
3056 Clear 16 1015 65 10000 3.18 311 07:34 18.06.2022
3057 Clear 15 1015 74 10000 3 312 06:24 18.06.2022
3058 Clear 11 1014 76 10000 2.44 303 02:53 18.06.2022
3059 Clouds 12 1013 76 10000 2.2 294 01:23 18.06.2022
3060 Clouds 12 1013 75 10000 2.24 281 00:39 18.06.2022
3061 Clouds 13 1013 73 10000 2.24 281 23:43 17.06.2022
3062 Clouds 13 1013 73 10000 2.16 274 22:49 17.06.2022
3063 Clouds 15 1013 68 10000 2.77 262 20:33 17.06.2022
3064 Clouds 16 1013 59 10000 3.4 258 19:24 17.06.2022
3065 Clouds 17 1012 62 10000 4.17 253 18:24 17.06.2022
3066 Clouds 19 1013 58 10000 4.54 245 17:22 17.06.2022
3067 Clouds 20 1013 58 10000 4.54 245 16:38 17.06.2022
3068 Clouds 19 1013 55 10000 4.31 250 15:42 17.06.2022
3069 Rain 19 1013 57 10000 4.84 257 14:46 17.06.2022
3070 Clouds 20 1013 53 10000 5.44 258 14:18 17.06.2022
3071 Clouds 20 1013 52 10000 5.44 259 13:42 17.06.2022
3072 Clouds 20 1013 50 10000 5.03 260 12:42 17.06.2022
3073 Rain 19 1013 49 10000 4.98 262 11:56 17.06.2022
3074 Rain 19 1013 49 10000 4.68 256 11:35 17.06.2022
3075 Clouds 20 1013 51 10000 4.21 245 09:59 17.06.2022
3076 Clouds 18 1013 53 10000 3.2 260 08:27 17.06.2022
3077 Clouds 16 1014 57 10000 3.15 266 06:57 17.06.2022
3078 Clouds 12 1014 66 10000 2.97 271 04:52 17.06.2022
3079 Clouds 12 1014 59 10000 2.74 278 02:41 17.06.2022
3080 Clouds 13 1014 62 10000 2.47 285 00:33 17.06.2022
3081 Clouds 15 1013 50 10000 2.42 288 22:44 16.06.2022
3082 Clouds 16 1013 47 10000 2.51 264 21:26 16.06.2022
3083 Clouds 17 1013 59 10000 2.51 264 20:59 16.06.2022
3084 Clouds 17 1013 51 10000 2.6 262 20:36 16.06.2022
3085 Clouds 19 1013 52 10000 3.05 259 19:53 16.06.2022
3086 Clouds 20 1012 41 10000 4.08 285 18:28 16.06.2022
3087 Clouds 21 1012 41 10000 4.07 285 17:43 16.06.2022
3088 Clouds 22 1012 43 10000 4.85 279 16:39 16.06.2022
3089 Clouds 22 1012 43 10000 4.63 296 15:24 16.06.2022
3090 Clouds 22 1012 45 10000 4.63 296 14:46 16.06.2022
3091 Clouds 20 1012 37 10000 4.81 292 13:34 16.06.2022
3092 Clouds 20 1012 51 10000 4.79 268 12:37 16.06.2022
3093 Clouds 20 1012 52 10000 4.44 248 11:52 16.06.2022
3094 Rain 20 1012 51 10000 4.09 250 11:18 16.06.2022
3095 Clouds 19 1012 39 10000 4.09 257 10:32 16.06.2022
3096 Clouds 19 1012 60 10000 4.04 255 09:22 16.06.2022
3097 Clouds 18 1012 60 10000 4.04 255 08:36 16.06.2022
3098 Clouds 16 1013 61 10000 3.46 256 07:28 16.06.2022
3099 Clouds 14 1012 75 10000 3.57 252 05:29 16.06.2022
3100 Clouds 13 1012 74 10000 3.94 247 02:50 16.06.2022
3101 Clouds 14 1012 72 10000 4.31 253 01:51 16.06.2022
3102 Clouds 13 1012 73 10000 4.31 253 01:51 16.06.2022
3103 Clear 13 1012 72 10000 4.36 248 01:21 16.06.2022
3104 Clear 14 1012 72 10000 4.36 248 01:21 16.06.2022
3105 Clear 14 1012 69 10000 4.16 248 23:47 15.06.2022
3106 Clear 14 1012 67 10000 4.27 253 22:44 15.06.2022
3107 Clear 15 1011 62 10000 5.12 253 21:23 15.06.2022
3108 Clear 16 1011 75 10000 5.12 253 20:56 15.06.2022
3109 Clouds 17 1010 59 10000 5.17 245 20:35 15.06.2022
3110 Clouds 17 1010 68 10000 4.66 244 19:30 15.06.2022
3111 Clouds 18 1010 63 10000 5.11 251 18:29 15.06.2022
3112 Clouds 18 1010 63 10000 5.11 251 17:41 15.06.2022
3113 Clouds 18 1010 55 10000 6.51 255 15:51 15.06.2022
3114 Clouds 19 1010 55 10000 6.38 236 14:30 15.06.2022
3115 Clouds 17 1010 54 10000 6.03 245 12:57 15.06.2022
3116 Clouds 17 1010 49 10000 6.2 231 12:32 15.06.2022
3117 Clouds 17 1010 58 10000 6.02 230 10:53 15.06.2022
3118 Clouds 16 1010 60 10000 6.11 238 10:20 15.06.2022
3119 Clouds 15 1009 54 10000 5.72 240 08:57 15.06.2022
3120 Clear 13 1009 65 10000 5.65 232 07:32 15.06.2022
3121 Clear 12 1009 75 10000 5.37 234 05:24 15.06.2022
3122 Clear 13 1009 77 10000 3.88 228 02:31 15.06.2022
3123 Clouds 13 1008 76 10000 4.34 233 01:33 15.06.2022
3124 Clouds 15 1008 74 10000 3.26 240 23:55 14.06.2022
3125 Clouds 15 1008 90 10000 3 253 23:37 14.06.2022
3126 Clouds 15 1008 90 10000 3 253 22:45 14.06.2022
3127 Clouds 17 1007 72 10000 3.47 267 21:43 14.06.2022
3128 Clouds 16 1007 88 10000 4.27 268 20:58 14.06.2022
3129 Clouds 17 1007 88 10000 4.27 268 20:36 14.06.2022
3130 Clouds 17 1007 69 10000 3.57 268 19:47 14.06.2022
3131 Rain 18 1006 66 10000 4.7 247 18:33 14.06.2022
3132 Clouds 20 1005 53 10000 5.63 160 16:50 14.06.2022
3133 Clouds 25 1006 50 10000 5.11 161 16:25 14.06.2022
3134 Clouds 26 1007 46 10000 5.02 158 15:36 14.06.2022
3135 Clouds 26 1007 46 10000 5.02 158 14:53 14.06.2022
3136 Clouds 26 1007 43 10000 5.06 154 13:57 14.06.2022
3137 Clouds 26 1007 39 10000 4.34 160 12:59 14.06.2022
3138 Clouds 25 1008 53 10000 3.69 164 11:56 14.06.2022
3139 Clouds 25 1009 57 10000 2.86 166 10:51 14.06.2022
3140 Clouds 23 1009 47 10000 2.43 159 10:28 14.06.2022
3141 Clouds 22 1009 53 10000 1.88 139 09:18 14.06.2022
3142 Clouds 22 1010 62 10000 1.59 111 08:24 14.06.2022
3143 Clouds 16 1011 78 10000 1.36 40 06:20 14.06.2022
3144 Clouds 15 1010 88 10000 1.31 18 03:52 14.06.2022
3145 Clouds 16 1010 89 10000 1.87 354 01:37 14.06.2022
3146 Clouds 17 1010 73 10000 2 330 00:21 14.06.2022
3147 Clouds 18 1010 71 10000 1.64 317 22:45 13.06.2022
3148 Clouds 18 1009 71 10000 0.28 215 22:22 13.06.2022
3149 Clouds 18 1009 70 10000 0.28 216 21:39 13.06.2022
3150 Clouds 20 1010 66 10000 0.3 24 19:59 13.06.2022
3151 Clouds 21 1010 80 10000 1.01 267 18:54 13.06.2022
3152 Clouds 22 1009 62 10000 1.16 246 17:56 13.06.2022
3153 Clouds 21 1010 80 7591 2.2 247 17:24 13.06.2022
3154 Clouds 19 1010 66 4915 3.21 232 16:30 13.06.2022
3155 Clouds 20 1010 58 10000 3.48 202 14:51 13.06.2022
3156 Clouds 21 1010 55 10000 4.13 193 14:31 13.06.2022
3157 Clouds 22 1010 56 10000 4.23 181 13:33 13.06.2022
3158 Rain 22 1010 54 10000 4.3 176 12:22 13.06.2022
3159 Clouds 22 1010 50 10000 4.38 169 10:56 13.06.2022
3160 Clouds 21 1011 55 10000 3.85 172 10:26 13.06.2022
3161 Clouds 21 1011 56 10000 3.55 166 08:52 13.06.2022
3162 Clouds 18 1012 69 10000 2.49 166 06:37 13.06.2022
3163 Clouds 16 1012 69 10000 2.49 166 05:35 13.06.2022
3164 Clouds 16 1012 69 10000 2.49 166 05:35 13.06.2022
3165 Clear 15 1013 65 10000 2.29 122 02:27 13.06.2022
3166 Clear 16 1013 69 10000 2.6 129 01:36 13.06.2022
3167 Clear 17 1013 57 10000 2.78 110 23:49 12.06.2022
3168 Clear 18 1014 56 10000 2.88 115 22:44 12.06.2022
3169 Clear 17 1014 55 10000 2.92 106 21:53 12.06.2022
3170 Clear 20 1014 50 10000 3.65 102 20:53 12.06.2022
3171 Clouds 20 1014 48 10000 3.6 99 20:18 12.06.2022
3172 Clouds 22 1014 48 10000 3.6 99 19:30 12.06.2022
3173 Clouds 23 1013 42 10000 3.69 110 17:40 12.06.2022
3174 Clouds 23 1013 38 10000 3.47 110 15:57 12.06.2022
3175 Clouds 24 1013 37 10000 3.47 102 14:51 12.06.2022
3176 Clouds 23 1014 39 10000 3.21 106 14:20 12.06.2022
3177 Clouds 23 1014 39 10000 3.21 106 13:49 12.06.2022
3178 Clouds 23 1014 56 10000 3.11 91 12:32 12.06.2022
3179 Clouds 23 1015 57 10000 3.23 91 11:22 12.06.2022
3180 Clouds 22 1015 58 10000 3.41 90 10:21 12.06.2022
3181 Clouds 19 1015 51 10000 3.4 90 08:54 12.06.2022
3182 Clouds 20 1016 64 10000 3.2 90 08:35 12.06.2022
3183 Clouds 19 1016 68 10000 3.35 92 07:31 12.06.2022
3184 Clouds 16 1016 82 10000 3.23 85 04:35 12.06.2022
3185 Rain 17 1016 85 10000 2.33 69 02:38 12.06.2022
3186 Clouds 18 1016 87 10000 2.39 61 01:36 12.06.2022
3187 Clouds 18 1016 84 10000 2.07 55 00:58 12.06.2022
3188 Clouds 18 1016 80 10000 1.79 52 00:20 12.06.2022
3189 Clouds 18 1016 65 10000 1.62 47 23:29 11.06.2022
3190 Clouds 18 1016 64 10000 1.62 47 22:38 11.06.2022
3191 Clouds 18 1016 64 10000 1.85 50 22:38 11.06.2022
3192 Rain 18 1016 59 10000 1.85 50 21:42 11.06.2022
3193 Clouds 20 1016 70 10000 1.89 54 20:34 11.06.2022
3194 Clouds 21 1016 67 10000 2.31 69 19:46 11.06.2022
3195 Clouds 21 1015 61 10000 2.85 75 19:19 11.06.2022
3196 Clouds 21 1015 61 10000 2.85 75 18:33 11.06.2022
3197 Clouds 23 1015 56 10000 3.24 84 17:50 11.06.2022
3198 Clouds 23 1015 55 10000 3.75 73 17:26 11.06.2022
3199 Clouds 23 1015 55 10000 3.75 73 16:52 11.06.2022
3200 Clouds 23 1015 55 10000 3.91 55 16:26 11.06.2022
3201 Clouds 23 1016 53 10000 3.58 56 15:28 11.06.2022
3202 Clouds 23 1015 41 10000 4.72 59 13:53 11.06.2022
3203 Rain 23 1015 50 10000 4.96 50 12:51 11.06.2022
3204 Clouds 22 1015 37 10000 1.81 20 10:46 11.06.2022
3205 Clouds 23 1015 40 10000 1.35 17 09:48 11.06.2022
3206 Clouds 23 1016 45 10000 1.35 11 09:18 11.06.2022
3207 Clouds 21 1016 50 10000 0.87 22 07:40 11.06.2022
3208 Clouds 19 1016 61 10000 1.13 13 06:25 11.06.2022
3209 Clouds 14 1015 74 10000 1.35 353 04:23 11.06.2022
3210 Clouds 16 1015 73 10000 1.13 321 01:52 11.06.2022
3211 Clouds 16 1015 73 10000 1.13 321 01:32 11.06.2022
3212 Clouds 17 1015 72 10000 0.85 1 23:34 10.06.2022
3213 Clouds 17 1015 69 10000 1.7 14 22:31 10.06.2022
3214 Clouds 19 1015 69 10000 1.7 14 21:50 10.06.2022
3215 Clouds 21 1015 65 10000 2.07 360 20:41 10.06.2022
3216 Clouds 22 1014 59 10000 2.11 342 20:21 10.06.2022
3217 Clouds 24 1014 51 10000 2.9 348 19:20 10.06.2022
3218 Clouds 24 1014 51 10000 2.9 348 18:56 10.06.2022
3219 Clouds 25 1014 46 10000 4 343 17:58 10.06.2022
3220 Clouds 25 1014 46 10000 4 343 17:35 10.06.2022
3221 Clouds 25 1014 42 10000 4.47 326 16:50 10.06.2022
3222 Clouds 25 1014 40 10000 4.22 312 15:44 10.06.2022
3223 Clouds 26 1014 40 10000 4.54 309 14:51 10.06.2022
3224 Clouds 26 1014 42 10000 4.55 313 13:36 10.06.2022
3225 Clouds 26 1014 46 10000 4.17 325 12:21 10.06.2022
3226 Clouds 25 1014 47 10000 4.17 325 11:30 10.06.2022
3227 Clouds 24 1014 49 10000 3.86 331 10:36 10.06.2022
3228 Clouds 23 1014 52 10000 3.64 335 09:37 10.06.2022
3229 Clouds 22 1015 67 10000 3.61 348 07:58 10.06.2022
3230 Clouds 21 1014 77 10000 3.56 339 06:50 10.06.2022
3231 Clouds 21 1014 84 10000 2.92 329 06:31 10.06.2022
3232 Clouds 19 1014 84 10000 2.92 329 05:34 10.06.2022
3233 Clouds 18 1013 94 10000 1.89 302 02:54 10.06.2022
3234 Clouds 18 1013 92 10000 2.09 291 01:37 10.06.2022
3235 Clouds 19 1013 78 10000 1.92 287 23:58 09.06.2022
3236 Clouds 20 1013 75 10000 2.2 277 22:47 09.06.2022
3237 Clouds 21 1013 45 10000 2.5 271 21:46 09.06.2022
3238 Clouds 21 1012 44 10000 2.36 255 21:28 09.06.2022
3239 Clouds 22 1012 42 10000 2.36 255 20:40 09.06.2022
3240 Clouds 23 1013 64 10000 2.01 230 19:51 09.06.2022
3241 Clouds 24 1012 58 10000 1.86 231 18:43 09.06.2022
3242 Clouds 25 1012 56 10000 2.76 223 17:56 09.06.2022
3243 Clouds 26 1012 42 10000 2.72 219 16:38 09.06.2022
3244 Clouds 27 1012 42 10000 2.72 219 15:42 09.06.2022
3245 Clouds 27 1012 35 10000 2.59 224 14:34 09.06.2022
3246 Clouds 27 1012 31 10000 2.38 229 13:46 09.06.2022
3247 Clouds 26 1013 32 10000 2.2 220 13:25 09.06.2022
3248 Clouds 25 1013 34 10000 1.96 216 11:53 09.06.2022
3249 Clouds 24 1013 34 10000 1.8 210 10:40 09.06.2022
3250 Clouds 23 1014 38 10000 1.67 204 09:41 09.06.2022
3251 Clouds 23 1014 39 10000 1.42 200 09:22 09.06.2022
3252 Clouds 19 1014 50 10000 1.09 191 07:29 09.06.2022
3253 Clouds 15 1014 53 10000 0.79 176 05:26 09.06.2022
3254 Clouds 12 1015 66 10000 1.28 182 01:44 09.06.2022
3255 Clouds 14 1015 60 10000 1.78 113 23:24 08.06.2022
3256 Clouds 15 1015 60 10000 1.78 113 22:50 08.06.2022
3257 Clouds 15 1015 55 10000 1.96 96 22:25 08.06.2022
3258 Clouds 16 1015 55 10000 1.96 96 21:48 08.06.2022
3259 Clouds 20 1015 51 10000 1.87 75 20:33 08.06.2022
3260 Clear 21 1015 49 10000 2.15 59 19:49 08.06.2022
3261 Clear 23 1014 43 10000 2.5 34 18:58 08.06.2022
3262 Clear 22 1014 43 10000 2.5 34 18:40 08.06.2022
3263 Clear 23 1014 29 10000 2.68 340 16:34 08.06.2022
3264 Clear 23 1014 28 10000 2.74 334 14:54 08.06.2022
3265 Clear 22 1014 34 10000 2.4 328 13:36 08.06.2022
3266 Clear 22 1014 37 10000 2.44 353 11:50 08.06.2022
3267 Clear 21 1015 38 10000 2.58 358 11:24 08.06.2022
3268 Clear 20 1015 41 10000 3.13 11 09:47 08.06.2022
3269 Clear 20 1015 41 10000 3.23 10 09:20 08.06.2022
3270 Clouds 19 1015 41 10000 3.08 1 08:18 08.06.2022
3271 Clouds 13 1015 68 10000 2.53 330 05:22 08.06.2022
3272 Clouds 10 1015 66 10000 2.15 276 02:39 08.06.2022
3273 Clear 12 1015 46 10000 1.55 272 00:21 08.06.2022
3274 Clear 13 1015 45 10000 1.24 308 23:25 07.06.2022
3275 Clear 14 1015 56 10000 1.24 308 22:42 07.06.2022
3276 Clear 14 1015 54 10000 1.4 301 21:59 07.06.2022
3277 Clear 15 1015 51 10000 1.6 295 21:28 07.06.2022
3278 Clear 16 1015 51 10000 1.6 295 20:52 07.06.2022
3279 Clouds 17 1015 49 10000 1.69 308 20:31 07.06.2022
3280 Clear 19 1015 43 10000 2.69 325 19:24 07.06.2022
3281 Clear 20 1015 36 10000 3.95 327 17:57 07.06.2022
3282 Clear 20 1015 32 10000 4.49 325 17:19 07.06.2022
3283 Clouds 20 1015 29 10000 4.57 323 16:39 07.06.2022
3284 Clouds 20 1015 29 10000 4.57 323 15:43 07.06.2022
3285 Clouds 20 1015 28 10000 4.4 324 15:23 07.06.2022
3286 Clouds 20 1015 28 10000 4.4 324 14:46 07.06.2022
3287 Clear 20 1015 38 10000 4.26 325 13:58 07.06.2022
3288 Clouds 20 1016 40 10000 3.81 327 13:29 07.06.2022
3289 Clouds 19 1016 41 10000 3.81 327 12:45 07.06.2022
3290 Clouds 18 1016 43 10000 3.7 330 11:31 07.06.2022
3291 Clouds 17 1017 47 10000 3.96 331 10:26 07.06.2022
3292 Clouds 16 1017 49 10000 4.08 331 08:49 07.06.2022
3293 Clouds 16 1017 50 10000 4.08 331 08:49 07.06.2022
3294 Clouds 16 1017 50 10000 4.08 331 08:49 07.06.2022
3295 Clear 15 1018 47 10000 4.09 324 07:32 07.06.2022
3296 Clear 12 1018 58 10000 3.41 328 05:56 07.06.2022
3297 Clear 10 1017 81 10000 2.68 325 03:18 07.06.2022
3298 Clear 12 1017 78 10000 2.45 327 00:42 07.06.2022
3299 Clear 13 1017 77 10000 2.84 338 23:35 06.06.2022
3300 Clear 14 1016 76 10000 3.27 322 22:47 06.06.2022
3301 Clear 15 1016 77 10000 2.62 305 21:49 06.06.2022
3302 Clouds 15 1016 72 10000 3.19 323 20:21 06.06.2022
3303 Clouds 17 1016 71 10000 4.09 319 19:23 06.06.2022
3304 Clouds 17 1016 71 10000 4.09 319 18:46 06.06.2022
3305 Clouds 17 1015 54 10000 4.69 321 17:55 06.06.2022
3306 Clouds 17 1015 54 10000 4.06 286 16:51 06.06.2022
3307 Rain 21 1015 49 10000 4.57 315 15:44 06.06.2022
3308 Clouds 21 1015 48 10000 4.35 305 14:57 06.06.2022
3309 Clouds 20 1015 45 10000 3.39 318 13:40 06.06.2022
3310 Clouds 21 1015 51 10000 4.42 328 12:59 06.06.2022
3311 Clouds 20 1016 51 10000 4.29 334 12:27 06.06.2022
3312 Clouds 20 1016 52 10000 4.29 334 11:45 06.06.2022
3313 Clouds 18 1016 57 10000 4.75 334 09:46 06.06.2022
3314 Clear 17 1016 61 10000 4.68 340 08:36 06.06.2022
3315 Clear 16 1016 57 10000 4.68 340 07:44 06.06.2022
3316 Clear 15 1016 66 10000 4.32 338 06:49 06.06.2022
3317 Clear 11 1016 72 10000 3.48 325 04:36 06.06.2022
3318 Clear 12 1015 71 10000 2.88 325 01:31 06.06.2022
3319 Clear 11 1015 70 10000 2.95 326 00:55 06.06.2022
3320 Clear 12 1015 70 10000 2.95 326 00:33 06.06.2022
3321 Clear 13 1015 67 10000 3.48 323 22:58 05.06.2022
3322 Clear 13 1015 85 10000 3.49 316 22:19 05.06.2022
3323 Clouds 15 1015 73 10000 3.12 310 20:23 05.06.2022
3324 Clouds 17 1014 67 10000 3.6 319 18:57 05.06.2022
3325 Clouds 18 1014 55 10000 4.62 322 18:18 05.06.2022
3326 Clouds 18 1014 55 10000 4.62 322 17:38 05.06.2022
3327 Clouds 17 1014 55 10000 5.14 323 17:20 05.06.2022
3328 Clouds 17 1014 55 10000 5.14 323 16:47 05.06.2022
3329 Clouds 18 1014 56 10000 4.68 307 15:25 05.06.2022
3330 Clouds 18 1014 61 10000 4.48 301 14:21 05.06.2022
3331 Clouds 16 1015 62 10000 5.18 327 11:58 05.06.2022
3332 Clouds 15 1015 65 10000 5.35 328 10:45 05.06.2022
3333 Clouds 15 1015 66 10000 6.16 296 10:24 05.06.2022
3334 Clouds 14 1015 58 10000 6.16 296 09:33 05.06.2022
3335 Rain 12 1015 68 10000 4.15 265 08:23 05.06.2022
3336 Clouds 13 1015 76 10000 2.92 258 06:23 05.06.2022
3337 Clouds 12 1016 81 10000 3.01 265 05:19 05.06.2022
3338 Clouds 12 1016 81 10000 2.63 250 02:47 05.06.2022
3339 Clouds 13 1017 62 10000 3.24 225 01:24 05.06.2022
3340 Clouds 14 1017 68 10000 2.92 226 22:51 04.06.2022
3341 Clouds 16 1018 65 10000 2.19 227 21:30 04.06.2022
3342 Clouds 19 1019 58 10000 2.49 249 19:36 04.06.2022
3343 Clouds 21 1019 54 10000 4.07 269 17:21 04.06.2022
3344 Clouds 21 1019 47 10000 3.66 258 16:20 04.06.2022
3345 Clouds 20 1019 47 10000 3.66 258 15:45 04.06.2022
3346 Clouds 19 1020 45 10000 3.93 293 14:18 04.06.2022
3347 Clouds 19 1020 41 10000 3.86 275 11:43 04.06.2022
3348 Clouds 19 1020 54 10000 3.88 275 10:55 04.06.2022
3349 Clouds 19 1021 56 10000 3.75 280 10:19 04.06.2022
3350 Clouds 18 1021 59 10000 3.75 280 09:39 04.06.2022
3351 Clouds 17 1021 61 10000 3.82 283 08:39 04.06.2022
3352 Clear 14 1021 62 10000 2.8 283 07:18 04.06.2022
3353 Clear 9 1021 78 10000 2.78 279 04:29 04.06.2022
3354 Clear 12 1021 73 10000 3.34 276 00:37 04.06.2022
3355 Clear 12 1020 73 10000 2.93 266 23:28 03.06.2022
3356 Clear 12 1020 72 10000 2.91 267 22:20 03.06.2022
3357 Clear 15 1020 69 10000 2.39 250 20:42 03.06.2022
3358 Clouds 15 1019 73 10000 1.72 296 19:58 03.06.2022
3359 Clouds 17 1018 66 10000 5.98 305 17:31 03.06.2022
3360 Clouds 16 1018 62 10000 5.98 305 16:34 03.06.2022
3361 Clouds 16 1018 69 10000 6.48 300 14:52 03.06.2022
3362 Clouds 19 1016 72 10000 4.85 281 12:52 03.06.2022
3363 Clouds 18 1015 91 10000 3.41 281 10:36 03.06.2022
3364 Rain 17 1015 74 10000 3.06 258 09:37 03.06.2022
3365 Clouds 20 1015 83 10000 2.93 230 07:54 03.06.2022
3366 Clouds 20 1015 78 9235 2.72 219 07:26 03.06.2022
3367 Clouds 19 1016 82 10000 2.59 202 06:31 03.06.2022
3368 Clouds 16 1016 87 10000 2 188 04:40 03.06.2022
3369 Clouds 18 1016 72 10000 2.26 155 00:22 03.06.2022
3370 Clouds 19 1016 68 10000 2.75 228 22:35 02.06.2022
3371 Rain 18 1016 66 10000 2.75 228 21:34 02.06.2022
3372 Rain 19 1017 84 10000 2.54 159 20:22 02.06.2022
3373 Clouds 22 1017 84 10000 2.54 159 19:43 02.06.2022
3374 Clouds 23 1017 81 10000 2.17 151 19:23 02.06.2022
3375 Clouds 25 1017 66 10000 3.11 171 16:47 02.06.2022
3376 Clouds 25 1017 52 10000 3.4 166 16:27 02.06.2022
3377 Clouds 25 1018 58 10000 3.04 127 14:19 02.06.2022
3378 Clouds 24 1019 63 10000 2.98 127 13:29 02.06.2022
3379 Clouds 23 1019 64 10000 2.64 163 11:24 02.06.2022
3380 Clouds 22 1019 66 10000 2.89 159 10:20 02.06.2022
3381 Clouds 20 1019 67 10000 2.74 156 09:27 02.06.2022
3382 Clouds 20 1020 65 10000 2.76 155 08:26 02.06.2022
3383 Clouds 17 1020 87 10000 2.76 154 07:21 02.06.2022
3384 Clouds 15 1020 94 10000 2.72 139 04:49 02.06.2022
3385 Clouds 14 1021 96 10000 2.24 129 02:38 02.06.2022
3386 Clouds 16 1021 75 10000 3.32 131 23:47 01.06.2022
3387 Clouds 17 1021 96 10000 3.37 133 22:32 01.06.2022
3388 Clouds 17 1021 96 10000 3.5 139 21:35 01.06.2022
3389 Clouds 17 1021 70 10000 3.98 142 20:58 01.06.2022
3390 Clouds 18 1021 68 10000 3.98 142 20:37 01.06.2022
3391 Clouds 19 1020 67 10000 4.85 137 19:25 01.06.2022
3392 Clouds 20 1020 59 10000 5.23 137 17:46 01.06.2022
3393 Clouds 22 1021 58 10000 5.32 143 16:38 01.06.2022
3394 Clouds 22 1021 57 10000 4.46 133 14:59 01.06.2022
3395 Clouds 22 1021 69 10000 5.1 135 13:53 01.06.2022
3396 Clouds 23 1020 54 10000 4.33 121 12:26 01.06.2022
3397 Clouds 21 1021 64 10000 2.84 103 09:48 01.06.2022
3398 Clouds 20 1021 66 10000 2.78 87 08:53 01.06.2022
3399 Clouds 16 1022 82 10000 2.29 62 07:25 01.06.2022
3400 Clouds 16 1022 82 10000 2.29 62 06:30 01.06.2022
3401 Clouds 14 1021 81 10000 1.41 84 00:48 01.06.2022
3402 Clouds 15 1021 80 10000 1.98 94 23:30 31.05.2022
3403 Clouds 15 1021 79 10000 2.25 91 22:37 31.05.2022
3404 Clouds 15 1021 79 10000 2.25 91 21:46 31.05.2022
3405 Clouds 15 1020 78 10000 2.33 83 20:46 31.05.2022
3406 Clouds 15 1020 78 10000 2.09 84 20:23 31.05.2022
3407 Clouds 16 1021 74 10000 2.87 110 18:53 31.05.2022
3408 Clouds 16 1020 73 10000 3.06 109 17:51 31.05.2022
3409 Rain 16 1020 73 10000 3.53 118 17:18 31.05.2022
3410 Rain 16 1020 89 10000 3.69 132 15:41 31.05.2022
3411 Rain 16 1020 93 10000 3.33 136 14:33 31.05.2022
3412 Clouds 16 1020 95 10000 4.84 138 12:22 31.05.2022
3413 Rain 15 1020 95 10000 4.98 133 11:23 31.05.2022
3414 Rain 15 1020 72 10000 4.85 136 09:49 31.05.2022
3415 Rain 13 1020 71 8456 4.56 145 07:36 31.05.2022
3416 Rain 14 1020 66 10000 3.93 134 05:24 31.05.2022
3417 Clouds 14 1020 60 10000 2.69 138 02:33 31.05.2022
3418 Clouds 15 1020 71 10000 2.63 154 23:29 30.05.2022
3419 Rain 16 1020 53 10000 2.63 154 22:59 30.05.2022
3420 Clouds 16 1020 69 10000 2.39 152 22:24 30.05.2022
3421 Clouds 16 1020 66 10000 2.37 140 21:35 30.05.2022
3422 Clouds 17 1020 63 10000 2.47 149 20:22 30.05.2022
3423 Clouds 18 1020 47 10000 3.08 152 19:26 30.05.2022
3424 Clouds 19 1020 52 10000 3.42 154 17:43 30.05.2022
3425 Clouds 19 1020 41 10000 3.62 160 16:54 30.05.2022
3426 Clouds 20 1020 37 10000 3.47 164 15:43 30.05.2022
3427 Clear 19 1020 47 10000 2.39 182 12:44 30.05.2022
3428 Clear 18 1020 51 10000 1.52 219 11:26 30.05.2022
3429 Clear 17 1020 54 10000 1.82 237 09:39 30.05.2022
3430 Clear 13 1020 58 10000 2.08 248 07:24 30.05.2022
3431 Clear 10 1020 65 10000 2.2 257 05:51 30.05.2022
3432 Clear 7 1019 73 10000 2.42 251 02:36 30.05.2022
3433 Clear 9 1016 64 10000 2.69 254 23:32 29.05.2022
3434 Clear 9 1016 75 10000 2.69 254 22:40 29.05.2022
3435 Clear 10 1016 72 10000 2.69 247 21:40 29.05.2022
3436 Clouds 12 1014 64 10000 2.43 253 19:57 29.05.2022
3437 Clouds 13 1013 57 10000 2.91 255 19:28 29.05.2022
3438 Clouds 15 1013 48 10000 3.45 253 17:48 29.05.2022
3439 Clouds 15 1012 60 10000 4.76 272 15:50 29.05.2022
3440 Clouds 15 1012 59 10000 4.76 272 15:32 29.05.2022
3441 Clouds 14 1011 67 10000 5.82 243 14:31 29.05.2022
3442 Clouds 13 1010 67 10000 6.06 237 12:21 29.05.2022
3443 Clouds 10 1010 46 10000 5.91 239 10:45 29.05.2022
3444 Rain 12 1009 67 10000 5.41 246 09:52 29.05.2022
3445 Rain 10 1009 75 10000 4.63 247 07:28 29.05.2022
3446 Clouds 7 1008 79 10000 3.54 238 04:50 29.05.2022
3447 Clouds 6 1008 83 10000 3.54 238 04:31 29.05.2022
3448 Clear 7 1006 77 10000 2.62 230 00:48 29.05.2022
3449 Clear 7 1006 76 10000 2.95 233 23:42 28.05.2022
3450 Clear 7 1006 74 10000 3.4 232 22:56 28.05.2022
3451 Clear 8 1005 73 10000 3.19 233 21:46 28.05.2022
3452 Clear 10 1005 72 10000 3.4 244 20:40 28.05.2022
3453 Clouds 11 1004 77 10000 4.7 254 19:19 28.05.2022
3454 Clouds 12 1003 77 10000 4.55 251 18:21 28.05.2022
3455 Rain 12 1003 77 10000 4.55 251 17:30 28.05.2022
3456 Clouds 13 1002 84 10000 5.35 260 15:45 28.05.2022
3457 Clouds 14 1002 82 10000 5.58 256 15:19 28.05.2022
3458 Clouds 14 1000 74 10000 5.47 234 13:29 28.05.2022
3459 Clouds 13 1000 76 10000 5.47 234 12:42 28.05.2022
3460 Clouds 12 999 75 10000 5.32 246 11:28 28.05.2022
3461 Clouds 12 999 77 10000 5.32 246 10:38 28.05.2022
3462 Clouds 11 998 78 10000 3.14 249 09:54 28.05.2022
3463 Rain 11 998 77 10000 2.2 232 08:21 28.05.2022
3464 Clouds 9 999 67 10000 2.39 214 06:33 28.05.2022
3465 Clouds 7 999 79 10000 1.88 225 04:46 28.05.2022
3466 Clouds 7 1000 80 10000 2.13 229 02:18 28.05.2022
3467 Clouds 8 1000 78 10000 3.15 233 23:55 27.05.2022
3468 Clouds 9 1000 78 10000 2.76 231 22:38 27.05.2022
3469 Clear 9 1000 74 10000 3.47 240 21:28 27.05.2022
3470 Clear 10 1000 73 10000 3.47 240 20:44 27.05.2022
3471 Clouds 11 1001 72 10000 4.15 248 20:19 27.05.2022
3472 Clouds 12 1001 70 10000 4.43 259 19:37 27.05.2022
3473 Clouds 12 1001 70 10000 4.43 259 19:19 27.05.2022
3474 Clouds 12 1001 70 10000 4.43 259 19:19 27.05.2022
3475 Clouds 14 1000 73 10000 5.4 276 16:53 27.05.2022
3476 Clouds 13 1000 72 10000 5.98 283 15:56 27.05.2022
3477 Rain 13 1000 76 10000 6.08 270 14:53 27.05.2022
3478 Rain 13 999 79 10000 6.5 272 13:40 27.05.2022
3479 Clouds 13 999 86 10000 5.99 268 12:20 27.05.2022
3480 Clouds 13 999 85 10000 5.7 275 11:30 27.05.2022
3481 Clouds 12 999 85 10000 5.7 275 10:41 27.05.2022
3482 Clouds 11 998 88 10000 5.18 281 09:59 27.05.2022
3483 Clouds 11 998 91 10000 5.45 281 09:29 27.05.2022
3484 Rain 10 998 90 10000 5.35 291 07:39 27.05.2022
3485 Rain 10 998 90 10000 5.35 291 07:39 27.05.2022
3486 Rain 10 997 92 9439 5.8 313 03:59 27.05.2022
3487 Clouds 11 997 95 6052 3.18 314 01:38 27.05.2022
3488 Rain 11 998 95 5729 3.64 28 23:23 26.05.2022
3489 Rain 12 998 95 6331 3.16 46 22:22 26.05.2022
3490 Rain 12 999 93 7844 2.43 71 21:27 26.05.2022
3491 Rain 12 1001 85 10000 2.16 150 19:35 26.05.2022
3492 Rain 15 1002 78 10000 3.34 187 18:51 26.05.2022
3493 Clouds 18 1002 70 10000 3.77 205 17:36 26.05.2022
3494 Clouds 19 1003 66 10000 4.09 222 16:30 26.05.2022
3495 Clouds 19 1003 65 10000 5.78 223 15:32 26.05.2022
3496 Clouds 20 1004 35 10000 3.61 186 14:20 26.05.2022
3497 Clouds 19 1005 43 10000 2.26 205 12:18 26.05.2022
3498 Clouds 18 1006 46 10000 1.78 223 11:21 26.05.2022
3499 Clear 16 1007 53 10000 1.85 223 09:39 26.05.2022
3500 Clear 14 1008 55 10000 1.6 239 08:48 26.05.2022
3501 Clouds 10 1009 62 10000 1.51 235 06:51 26.05.2022
3502 Clouds 5 1011 85 10000 1.68 249 02:54 26.05.2022
3503 Clouds 8 1013 59 10000 2.27 282 00:19 26.05.2022
3504 Clouds 8 1013 78 10000 1.94 284 22:58 25.05.2022
3505 Clouds 9 1013 75 10000 1.83 294 21:44 25.05.2022
3506 Clouds 9 1013 74 10000 2.31 286 20:53 25.05.2022
3507 Clouds 10 1014 66 10000 2.59 284 19:56 25.05.2022
3508 Clouds 12 1014 63 10000 3.2 289 18:48 25.05.2022
3509 Clouds 14 1014 39 10000 5.69 289 17:26 25.05.2022
3510 Clouds 14 1014 47 10000 5.69 289 16:35 25.05.2022
3511 Clouds 13 1013 35 10000 3.94 297 15:49 25.05.2022
3512 Clouds 13 1014 33 10000 3.18 305 14:51 25.05.2022
3513 Clouds 13 1014 33 10000 2.99 304 14:32 25.05.2022
3514 Clouds 12 1014 33 10000 2.83 312 13:28 25.05.2022
3515 Clouds 12 1015 43 10000 2.74 317 12:24 25.05.2022
3516 Clouds 11 1015 46 10000 2.7 322 10:42 25.05.2022
3517 Clouds 10 1015 48 10000 2.69 327 09:53 25.05.2022
3518 Clouds 8 1015 49 10000 2.81 339 08:22 25.05.2022
3519 Clouds 8 1016 60 10000 2.67 339 06:45 25.05.2022
3520 Clouds 2 1015 83 10000 2.02 346 02:55 25.05.2022
3521 Clouds 6 1014 78 10000 2.56 354 23:53 24.05.2022
3522 Clouds 6 1013 52 10000 2.84 353 23:23 24.05.2022
3523 Clouds 6 1013 51 10000 3 353 22:19 24.05.2022
3524 Clouds 6 1012 51 10000 3.36 355 21:38 24.05.2022
3525 Clouds 6 1012 50 10000 3.36 355 21:19 24.05.2022
3526 Clouds 6 1011 62 10000 4 346 19:37 24.05.2022
3527 Clouds 7 1011 47 10000 4 346 18:49 24.05.2022
3528 Clouds 7 1010 56 10000 4.52 346 16:41 24.05.2022
3529 Rain 8 1010 52 10000 4.71 345 16:18 24.05.2022
3530 Clouds 7 1010 52 10000 4.71 345 16:18 24.05.2022
3531 Clouds 8 1009 42 10000 4.65 344 14:50 24.05.2022
3532 Clouds 9 1009 42 10000 5.03 345 13:52 24.05.2022
3533 Clouds 8 1009 54 10000 5.69 348 12:46 24.05.2022
3534 Clouds 9 1007 62 10000 6.2 350 10:46 24.05.2022
3535 Clouds 10 1006 53 10000 6.54 347 09:43 24.05.2022
3536 Clouds 10 1006 42 10000 6 330 08:49 24.05.2022
3537 Clouds 8 1006 48 10000 5.54 320 06:56 24.05.2022
3538 Clouds 6 1006 50 10000 4.26 308 03:48 24.05.2022
3539 Clouds 8 1006 36 10000 3.39 317 01:51 24.05.2022
3540 Clouds 7 1005 45 10000 3.8 316 01:19 24.05.2022
3541 Clouds 8 1005 48 10000 3.86 343 22:55 23.05.2022
3542 Clouds 9 1005 44 10000 3.97 316 21:55 23.05.2022
3543 Clouds 9 1004 43 10000 4.01 308 21:29 23.05.2022
3544 Clouds 12 1004 40 10000 3.72 301 20:29 23.05.2022
3545 Clouds 14 1004 41 10000 3.03 315 19:31 23.05.2022
3546 Clouds 14 1004 38 10000 3.77 320 18:57 23.05.2022
3547 Clouds 14 1004 33 10000 4.37 319 18:29 23.05.2022
3548 Clouds 15 1004 31 10000 5.68 322 17:20 23.05.2022
3549 Clouds 14 1004 31 10000 5.95 317 15:23 23.05.2022
3550 Clouds 13 1004 41 10000 5.54 320 13:21 23.05.2022
3551 Clouds 11 1005 45 10000 5.24 323 11:32 23.05.2022
3552 Clouds 10 1005 47 10000 5.39 323 10:31 23.05.2022
3553 Clouds 9 1005 47 10000 5.39 326 09:39 23.05.2022
3554 Clouds 8 1006 49 10000 5.1 331 08:32 23.05.2022
3555 Clouds 5 1007 51 10000 4.25 331 06:46 23.05.2022
3556 Clouds 3 1007 56 10000 3.93 329 05:39 23.05.2022
3557 Clouds 2 1007 67 10000 2.93 336 02:34 23.05.2022
3558 Clouds 2 1007 66 10000 2.76 334 01:39 23.05.2022
3559 Clouds 3 1007 66 10000 2.14 355 00:38 23.05.2022
3560 Clouds 6 1007 63 10000 2.77 34 22:42 22.05.2022
3561 Clouds 6 1007 63 10000 2.77 34 21:55 22.05.2022
3562 Clouds 7 1007 63 10000 2.77 34 21:36 22.05.2022
3563 Clouds 7 1006 59 10000 3.39 37 20:37 22.05.2022
3564 Clouds 8 1006 40 10000 4.24 21 20:18 22.05.2022
3565 Clouds 10 1006 52 10000 5.27 28 18:57 22.05.2022
3566 Clouds 10 1005 43 10000 6.08 13 18:28 22.05.2022
3567 Clouds 11 1005 43 10000 6.08 13 17:51 22.05.2022
3568 Clouds 12 1004 37 10000 5.29 7 16:51 22.05.2022
3569 Clear 12 1004 37 10000 5.1 22 14:55 22.05.2022
3570 Clear 12 1004 38 10000 5 28 13:57 22.05.2022
3571 Clear 11 1004 40 10000 4.96 36 12:53 22.05.2022
3572 Clear 11 1004 30 10000 4.97 37 11:53 22.05.2022
3573 Clear 10 1004 47 10000 5.13 40 10:29 22.05.2022
3574 Clear 9 1004 49 10000 5.18 45 09:19 22.05.2022
3575 Clouds 8 1005 51 10000 5.24 57 07:44 22.05.2022
3576 Clouds 7 1005 51 10000 5.24 57 06:41 22.05.2022
3577 Clouds 6 1006 52 10000 4.23 62 03:25 22.05.2022
3578 Clouds 8 1006 49 10000 4.1 66 00:49 22.05.2022
3579 Clouds 8 1006 49 10000 4.1 66 00:49 22.05.2022
3580 Clouds 9 1007 48 10000 4.04 72 23:56 21.05.2022
3581 Clouds 9 1006 63 10000 4.32 71 23:27 21.05.2022
3582 Clouds 10 1006 61 10000 4.33 77 21:59 21.05.2022
3583 Clouds 11 1006 59 10000 4.84 81 21:34 21.05.2022
3584 Clouds 13 1006 59 10000 4.84 81 20:41 21.05.2022
3585 Clouds 13 1006 54 10000 3.78 56 19:53 21.05.2022
3586 Clouds 14 1007 46 10000 1.85 147 18:54 21.05.2022
3587 Clouds 15 1008 36 10000 2.44 152 17:23 21.05.2022
3588 Clouds 16 1009 34 10000 2.5 160 14:51 21.05.2022
3589 Clouds 15 1010 34 10000 2.4 158 14:19 21.05.2022
3590 Clouds 15 1010 42 10000 2.26 134 13:25 21.05.2022
3591 Clouds 15 1010 43 10000 2.26 134 12:39 21.05.2022
3592 Clouds 14 1011 45 10000 2.03 134 11:38 21.05.2022
3593 Clouds 13 1012 46 10000 2.51 134 10:21 21.05.2022
3594 Clouds 12 1013 48 10000 2.88 126 08:59 21.05.2022
3595 Clouds 11 1013 49 10000 3.1 120 08:38 21.05.2022
3596 Clouds 7 1015 58 10000 2.63 116 06:21 21.05.2022
3597 Clouds 5 1016 55 10000 2.32 92 01:59 21.05.2022
3598 Clouds 7 1016 51 10000 2.25 89 23:36 20.05.2022
3599 Clouds 8 1016 49 10000 2.59 88 22:41 20.05.2022
3600 Clouds 8 1016 48 10000 2.96 69 22:18 20.05.2022
3601 Clouds 8 1016 54 10000 2.85 50 21:19 20.05.2022
3602 Clouds 9 1016 54 10000 2.85 50 20:51 20.05.2022
3603 Clouds 11 1017 47 10000 2.32 28 19:54 20.05.2022
3604 Clouds 12 1017 41 10000 2.21 7 18:58 20.05.2022
3605 Clouds 12 1017 36 10000 2.8 1 18:23 20.05.2022
3606 Clear 13 1017 30 10000 2.81 347 16:28 20.05.2022
3607 Clear 13 1017 30 10000 2.81 347 15:54 20.05.2022
3608 Clear 13 1017 44 10000 2.67 350 15:32 20.05.2022
3609 Clear 12 1018 45 10000 2.79 354 14:27 20.05.2022
3610 Clear 12 1018 46 10000 3 353 13:31 20.05.2022
3611 Clear 9 1018 51 10000 3.22 5 10:48 20.05.2022
3612 Clear 8 1019 56 10000 3.59 6 09:32 20.05.2022
3613 Clear 8 1019 59 10000 3.81 5 08:37 20.05.2022
3614 Clouds 7 1019 55 10000 4 15 06:44 20.05.2022
3615 Clouds 6 1019 62 10000 4.23 16 05:53 20.05.2022
3616 Clear 5 1017 73 10000 3.22 11 02:53 20.05.2022
3617 Clouds 7 1015 76 10000 2.21 22 23:47 19.05.2022
3618 Clouds 7 1015 75 10000 2.4 5 22:39 19.05.2022
3619 Clouds 8 1014 73 10000 2.97 332 21:52 19.05.2022
3620 Clouds 8 1014 74 10000 3.36 315 21:24 19.05.2022
3621 Clouds 8 1014 73 10000 3.36 315 20:53 19.05.2022
3622 Clouds 9 1014 72 10000 3.43 304 20:20 19.05.2022
3623 Clouds 10 1014 71 10000 3.52 307 19:25 19.05.2022
3624 Rain 10 1014 65 10000 4.14 307 17:47 19.05.2022
3625 Rain 10 1014 65 10000 4.14 307 17:47 19.05.2022
3626 Rain 13 1014 57 10000 5.75 315 16:22 19.05.2022
3627 Clouds 13 1014 50 10000 5.11 321 14:50 19.05.2022
3628 Clouds 14 1014 56 10000 5.32 321 14:21 19.05.2022
3629 Clouds 13 1014 59 10000 6.14 329 12:20 19.05.2022
3630 Rain 12 1013 58 10000 6.09 309 10:35 19.05.2022
3631 Rain 10 1014 62 10000 5.62 304 08:57 19.05.2022
3632 Rain 10 1014 61 10000 4.2 314 07:41 19.05.2022
3633 Clouds 8 1015 75 10000 3.53 293 04:38 19.05.2022
3634 Clouds 7 1015 61 10000 3.92 271 01:38 19.05.2022
3635 Clouds 8 1016 73 10000 3.39 294 23:49 18.05.2022
3636 Clouds 9 1016 70 10000 3.87 307 22:46 18.05.2022
3637 Clouds 10 1016 68 10000 4.16 316 21:47 18.05.2022
3638 Clouds 10 1016 65 10000 4.09 322 21:24 18.05.2022
3639 Clouds 11 1015 54 10000 4.68 332 20:24 18.05.2022
3640 Clouds 11 1016 59 10000 4.31 330 19:37 18.05.2022
3641 Clouds 12 1014 55 10000 5.23 333 18:21 18.05.2022
3642 Clouds 13 1014 55 10000 5.23 333 17:41 18.05.2022
3643 Clouds 13 1014 58 10000 6.4 332 17:23 18.05.2022
3644 Clouds 14 1014 58 10000 6.32 331 15:59 18.05.2022
3645 Clouds 14 1014 58 10000 6.32 331 15:59 18.05.2022
3646 Clouds 15 1014 58 10000 6.32 331 15:38 18.05.2022
3647 Clouds 15 1012 46 10000 6.98 334 14:34 18.05.2022
3648 Clouds 15 1012 37 10000 5.74 341 13:20 18.05.2022
3649 Clouds 14 1012 56 10000 5.74 341 12:39 18.05.2022
3650 Clouds 14 1012 58 10000 5.35 347 11:34 18.05.2022
3651 Clouds 13 1013 61 10000 5.47 354 10:52 18.05.2022
3652 Clouds 13 1013 61 10000 5.47 354 10:52 18.05.2022
3653 Clouds 12 1012 70 10000 5.63 357 08:29 18.05.2022
3654 Clouds 10 1012 65 10000 5.43 356 07:29 18.05.2022
3655 Clouds 8 1010 79 10000 4.32 349 05:21 18.05.2022
3656 Clouds 8 1008 81 10000 4.63 358 00:52 18.05.2022
3657 Clouds 8 1007 80 10000 4.15 355 00:20 18.05.2022
3658 Clouds 9 1006 79 10000 4.64 357 21:36 17.05.2022
3659 Rain 8 1006 78 10000 4.64 357 21:18 17.05.2022
3660 Clouds 10 1006 74 10000 4.12 356 19:52 17.05.2022
3661 Clouds 10 1005 74 10000 4.8 341 19:27 17.05.2022
3662 Rain 11 1004 74 10000 5.3 325 17:50 17.05.2022
3663 Rain 11 1004 76 10000 5.06 331 16:58 17.05.2022
3664 Rain 10 1004 76 10000 5.03 331 16:29 17.05.2022
3665 Rain 10 1004 78 10000 4.84 332 15:24 17.05.2022
3666 Clouds 9 1004 79 10000 5.05 337 14:30 17.05.2022
3667 Rain 10 1004 78 10000 4.84 332 14:30 17.05.2022
3668 Clouds 9 1004 79 10000 5.05 337 14:30 17.05.2022
3669 Clouds 9 1004 79 10000 4.83 330 13:32 17.05.2022
3670 Rain 9 1004 77 10000 5.15 326 11:37 17.05.2022
3671 Rain 8 1003 78 10000 6.01 306 09:23 17.05.2022
3672 Rain 8 1003 78 10000 5.71 311 08:23 17.05.2022
3673 Clouds 8 1003 77 10000 5.55 315 06:45 17.05.2022
3674 Rain 7 1003 74 10000 5.82 293 03:20 17.05.2022
3675 Clouds 8 1005 67 10000 5.01 290 00:36 17.05.2022
3676 Clouds 9 1005 61 10000 4.52 287 22:42 16.05.2022
3677 Clouds 9 1005 57 10000 4.47 293 21:37 16.05.2022
3678 Clouds 10 1005 56 10000 4.96 294 20:46 16.05.2022
3679 Clouds 10 1005 58 10000 5.13 287 19:43 16.05.2022
3680 Clouds 12 1005 53 10000 4.89 301 18:20 16.05.2022
3681 Rain 13 1005 46 10000 5.57 308 15:49 16.05.2022
3682 Rain 11 1005 54 10000 6.34 302 13:56 16.05.2022
3683 Rain 11 1005 49 10000 6.12 300 13:23 16.05.2022
3684 Clouds 13 1005 50 10000 6.24 306 11:20 16.05.2022
3685 Clouds 11 1005 44 10000 6.26 305 09:30 16.05.2022
3686 Clouds 10 1006 63 10000 5.84 308 06:56 16.05.2022
3687 Clouds 8 1005 67 10000 4.96 303 03:58 16.05.2022
3688 Clouds 10 1004 66 10000 4.39 302 23:30 15.05.2022
3689 Clouds 10 1004 65 10000 4.39 302 22:30 15.05.2022
3690 Clouds 10 1004 62 10000 4.2 305 21:46 15.05.2022
3691 Clouds 10 1004 62 10000 4.2 301 20:57 15.05.2022
3692 Clouds 10 1004 74 10000 3.95 296 19:52 15.05.2022
3693 Rain 13 1003 54 10000 4.6 304 17:52 15.05.2022
3694 Clouds 13 1003 55 10000 4.33 295 16:29 15.05.2022
3695 Clouds 15 1003 52 10000 5.21 301 13:59 15.05.2022
3696 Clouds 14 1003 52 10000 5.4 293 12:57 15.05.2022
3697 Rain 14 1003 59 10000 5.99 287 11:40 15.05.2022
3698 Rain 15 1003 49 10000 4.71 283 10:29 15.05.2022
3699 Rain 13 1003 57 10000 4.36 280 08:46 15.05.2022
3700 Clouds 11 1004 66 10000 3.54 284 06:58 15.05.2022
3701 Clouds 10 1004 71 10000 3.34 286 05:57 15.05.2022
3702 Clouds 9 1003 75 10000 3.38 278 00:57 15.05.2022
3703 Clouds 9 1004 74 10000 3.56 275 23:47 14.05.2022
3704 Clouds 9 1003 72 10000 3.8 270 23:29 14.05.2022
3705 Clouds 10 1003 70 10000 3.91 269 21:43 14.05.2022
3706 Clouds 10 1003 68 10000 3.92 268 21:18 14.05.2022
3707 Clouds 13 1003 62 10000 3.73 274 19:40 14.05.2022
3708 Clouds 13 1003 56 10000 4.18 285 19:20 14.05.2022
3709 Clouds 14 1003 46 10000 4.18 285 18:47 14.05.2022
3710 Clouds 15 1003 46 10000 5.76 285 17:28 14.05.2022
3711 Clouds 15 1003 43 10000 5.81 282 15:34 14.05.2022
3712 Clouds 16 1003 43 10000 5.81 282 14:36 14.05.2022
3713 Clouds 16 1003 47 10000 6.33 282 12:49 14.05.2022
3714 Clouds 15 1003 49 10000 6.57 279 11:37 14.05.2022
3715 Clouds 15 1003 49 10000 6.32 282 10:23 14.05.2022
3716 Clouds 15 1003 52 10000 6.32 282 09:54 14.05.2022
3717 Clouds 13 1004 56 10000 6.19 281 08:56 14.05.2022
3718 Clouds 11 1004 64 10000 5.81 277 07:20 14.05.2022
3719 Clouds 8 1005 62 10000 4.97 265 03:41 14.05.2022
3720 Clouds 10 1004 62 10000 5.32 257 23:48 13.05.2022
3721 Clouds 10 1004 62 10000 5.28 256 23:22 13.05.2022
3722 Clouds 10 1004 62 10000 5.28 256 22:52 13.05.2022
3723 Clouds 10 1004 62 10000 5.26 259 22:20 13.05.2022
3724 Clouds 11 1004 62 10000 5.05 254 20:56 13.05.2022
3725 Clouds 10 1004 61 10000 5.13 258 20:28 13.05.2022
3726 Clouds 12 1004 52 10000 5.13 258 19:43 13.05.2022
3727 Clouds 14 1004 51 10000 5.91 269 18:44 13.05.2022
3728 Rain 13 1003 60 10000 6.74 272 17:29 13.05.2022
3729 Rain 16 1003 48 10000 7.48 272 16:29 13.05.2022
3730 Rain 15 1003 54 10000 7.48 272 15:45 13.05.2022
3731 Clouds 16 1003 44 10000 8.05 280 14:24 13.05.2022
3732 Clouds 15 1003 41 10000 8.22 282 12:47 13.05.2022
3733 Clouds 15 1002 51 10000 8.3 281 11:36 13.05.2022
3734 Clouds 12 1002 52 10000 7.89 279 09:43 13.05.2022
3735 Clouds 13 1002 58 10000 7.28 274 08:51 13.05.2022
3736 Clouds 11 1002 58 10000 7.37 273 07:50 13.05.2022
3737 Clouds 10 1002 62 10000 7.05 282 06:49 13.05.2022
3738 Clouds 10 1001 66 10000 6.74 279 04:54 13.05.2022
3739 Clouds 11 997 71 10000 9.86 297 00:57 13.05.2022
3740 Clouds 13 993 70 10000 10.52 297 22:49 12.05.2022
3741 Clouds 13 993 70 10000 10.52 297 22:30 12.05.2022
3742 Rain 14 989 67 10000 8.37 204 20:49 12.05.2022
3743 Rain 15 992 58 6765 6.95 168 19:26 12.05.2022
3744 Rain 16 995 48 10000 4.89 161 18:25 12.05.2022
3745 Clouds 20 998 88 10000 4.31 206 16:39 12.05.2022
3746 Clouds 21 1000 56 10000 5.4 221 14:52 12.05.2022
3747 Clouds 21 1000 52 10000 5.31 231 13:48 12.05.2022
3748 Clouds 20 1002 46 10000 4.6 251 11:48 12.05.2022
3749 Clouds 19 1003 52 10000 4.93 249 10:32 12.05.2022
3750 Clouds 15 1004 62 10000 4.56 238 08:52 12.05.2022
3751 Clouds 14 1004 62 10000 4.56 238 08:52 12.05.2022
3752 Clouds 12 1005 60 10000 3.75 240 07:59 12.05.2022
3753 Clouds 11 1006 65 10000 3.31 252 07:22 12.05.2022
3754 Clouds 6 1007 73 10000 2.37 259 03:50 12.05.2022
3755 Clouds 6 1008 58 10000 2.24 274 01:29 12.05.2022
3756 Clouds 9 1008 58 10000 1.95 290 23:18 11.05.2022
3757 Clouds 11 1008 58 10000 1.76 313 22:18 11.05.2022
3758 Clouds 13 1008 57 10000 1.52 335 21:25 11.05.2022
3759 Clouds 14 1008 54 10000 2 339 20:20 11.05.2022
3760 Clouds 18 1008 37 10000 4.56 343 17:33 11.05.2022
3761 Clouds 18 1008 35 10000 5.3 348 16:19 11.05.2022
3762 Clouds 17 1009 33 10000 5.89 350 14:48 11.05.2022
3763 Clouds 17 1009 33 10000 6.43 348 14:25 11.05.2022
3764 Clouds 15 1009 36 10000 6.58 340 12:54 11.05.2022
3765 Clouds 15 1009 36 10000 6.4 340 11:48 11.05.2022
3766 Clouds 13 1010 42 10000 6.01 351 09:30 11.05.2022
3767 Clouds 8 1011 54 10000 5.49 353 06:36 11.05.2022
3768 Clouds 8 1012 58 10000 5.37 348 02:27 11.05.2022
3769 Clouds 10 1013 52 10000 5.77 351 22:58 10.05.2022
3770 Clouds 10 1013 52 10000 5.77 351 22:58 10.05.2022
3771 Clouds 10 1013 50 10000 6.04 355 22:30 10.05.2022
3772 Clouds 10 1013 50 10000 6.04 355 21:41 10.05.2022
3773 Clouds 10 1013 48 10000 6.19 354 20:47 10.05.2022
3774 Clouds 11 1014 45 10000 7.27 359 18:57 10.05.2022
3775 Clouds 11 1014 44 10000 7.39 357 17:38 10.05.2022
3776 Clouds 10 1015 43 10000 7.47 6 16:38 10.05.2022
3777 Clouds 9 1016 41 10000 7.86 358 13:37 10.05.2022
3778 Clouds 9 1017 35 10000 7.82 359 11:54 10.05.2022
3779 Clouds 9 1017 34 10000 8.59 357 11:34 10.05.2022
3780 Clouds 9 1017 34 10000 8.59 357 10:57 10.05.2022
3781 Clouds 8 1018 37 10000 8.35 350 09:52 10.05.2022
3782 Clouds 8 1019 52 10000 6.86 344 08:22 10.05.2022
3783 Clouds 5 1020 64 10000 5.69 333 06:21 10.05.2022
3784 Clouds 3 1021 70 10000 4.7 333 02:31 10.05.2022
3785 Clouds 4 1021 60 10000 4.82 336 23:55 09.05.2022
3786 Clouds 4 1022 60 10000 4.59 329 22:41 09.05.2022
3787 Clouds 5 1022 60 10000 4.76 335 21:48 09.05.2022
3788 Clouds 6 1022 55 10000 5.44 340 20:22 09.05.2022
3789 Clouds 8 1021 55 10000 5.68 336 18:29 09.05.2022
3790 Clouds 8 1021 55 10000 5.68 336 17:33 09.05.2022
3791 Clouds 7 1020 55 10000 6.78 349 16:21 09.05.2022
3792 Clouds 7 1020 55 10000 6.78 349 15:47 09.05.2022
3793 Clouds 6 1020 54 10000 7.25 345 14:41 09.05.2022
3794 Clouds 7 1020 36 10000 6.86 339 13:59 09.05.2022
3795 Clouds 8 1020 33 10000 6.13 342 13:32 09.05.2022
3796 Clouds 8 1020 35 10000 5.94 335 11:54 09.05.2022
3797 Clouds 8 1020 40 10000 6.09 328 10:50 09.05.2022
3798 Clouds 8 1020 46 10000 6.21 326 10:29 09.05.2022
3799 Clouds 7 1019 63 10000 6.45 333 07:57 09.05.2022
3800 Clouds 6 1019 71 10000 5.94 334 06:42 09.05.2022
3801 Clouds 6 1018 86 10000 3.32 322 02:44 09.05.2022
3802 Clouds 8 1018 87 10000 3.66 333 23:29 08.05.2022
3803 Clouds 9 1018 87 10000 3.66 333 22:47 08.05.2022
3804 Clouds 10 1017 85 10000 3.63 320 21:47 08.05.2022
3805 Rain 10 1017 83 10000 3.56 330 20:31 08.05.2022
3806 Rain 11 1017 85 10000 3.23 295 19:37 08.05.2022
3807 Clouds 13 1017 85 10000 3.23 295 18:49 08.05.2022
3808 Rain 13 1016 84 10000 2.84 270 17:52 08.05.2022
3809 Clouds 14 1016 70 10000 5.7 249 16:30 08.05.2022
3810 Clouds 16 1016 63 10000 6.29 227 15:25 08.05.2022
3811 Clouds 16 1016 57 10000 6.9 227 14:27 08.05.2022
3812 Clouds 18 1017 45 10000 6.1 214 11:53 08.05.2022
3813 Clouds 16 1019 54 10000 6.19 220 10:27 08.05.2022
3814 Clouds 16 1019 54 10000 6.19 220 09:55 08.05.2022
3815 Clouds 15 1019 62 10000 6.43 221 08:37 08.05.2022
3816 Clouds 13 1020 74 10000 5.48 203 06:51 08.05.2022
3817 Clouds 13 1021 75 10000 3.88 196 03:25 08.05.2022
3818 Clouds 13 1021 74 10000 3.8 197 02:23 08.05.2022
3819 Clouds 11 1022 74 10000 3.94 206 00:20 08.05.2022
3820 Clouds 13 1022 74 10000 3.94 206 23:46 07.05.2022
3821 Clouds 14 1022 71 10000 4.18 207 22:46 07.05.2022
3822 Clouds 14 1022 69 10000 4.39 201 21:57 07.05.2022
3823 Clouds 14 1023 68 10000 4.12 196 21:33 07.05.2022
3824 Clouds 15 1023 66 10000 4.22 193 20:27 07.05.2022
3825 Clouds 16 1023 59 10000 4.33 191 19:22 07.05.2022
3826 Clouds 18 1023 47 10000 5.13 209 17:33 07.05.2022
3827 Clouds 18 1023 45 10000 5.26 215 15:34 07.05.2022
3828 Clouds 17 1025 43 10000 5.6 198 12:50 07.05.2022
3829 Clouds 17 1026 35 10000 5.55 204 10:33 07.05.2022
3830 Clouds 15 1026 37 10000 4.79 202 08:52 07.05.2022
3831 Clouds 13 1027 38 10000 3.81 204 07:50 07.05.2022
3832 Clouds 11 1027 55 10000 3.18 209 06:43 07.05.2022
3833 Clouds 9 1027 67 10000 2.5 206 04:35 07.05.2022
3834 Clouds 9 1027 38 10000 4.06 212 00:56 07.05.2022
3835 Clouds 10 1027 56 10000 4.15 208 23:28 06.05.2022
3836 Clouds 11 1027 34 10000 4.08 208 22:26 06.05.2022
3837 Clouds 12 1027 56 10000 4.08 208 21:36 06.05.2022
3838 Clouds 12 1027 55 10000 3.49 202 20:24 06.05.2022
3839 Clouds 13 1027 51 10000 4.21 209 19:29 06.05.2022
3840 Clouds 15 1027 51 10000 4.21 209 18:56 06.05.2022
3841 Clouds 15 1026 43 10000 4.25 212 17:38 06.05.2022
3842 Clouds 16 1027 34 10000 4.65 224 15:56 06.05.2022
3843 Clouds 16 1027 32 10000 4.9 226 15:38 06.05.2022
3844 Clouds 16 1027 32 10000 4.9 226 14:33 06.05.2022
3845 Clouds 15 1028 31 10000 4.29 226 12:53 06.05.2022
3846 Clouds 15 1028 31 10000 4.18 227 12:31 06.05.2022
3847 Clouds 14 1028 32 10000 3.87 227 11:38 06.05.2022
3848 Clouds 13 1029 36 10000 3.48 225 09:49 06.05.2022
3849 Clouds 11 1029 41 10000 3.32 223 09:19 06.05.2022
3850 Clouds 8 1029 45 10000 3.41 222 07:57 06.05.2022
3851 Clouds 7 1029 48 10000 3.53 227 06:39 06.05.2022
3852 Clouds 5 1029 44 10000 2.65 215 04:37 06.05.2022
3853 Clouds 5 1028 45 10000 2.56 211 02:43 06.05.2022
3854 Clouds 6 1028 43 10000 2.1 195 23:34 05.05.2022
3855 Clouds 6 1028 43 10000 2.04 198 21:52 05.05.2022
3856 Clouds 7 1027 42 10000 1.39 200 20:53 05.05.2022
3857 Clouds 8 1027 40 10000 0.67 273 19:49 05.05.2022
3858 Clouds 11 1026 39 10000 3.45 303 16:54 05.05.2022
3859 Clouds 10 1026 26 10000 3.4 312 16:18 05.05.2022
3860 Clouds 10 1025 41 10000 3.4 317 14:43 05.05.2022
3861 Clouds 9 1025 25 10000 3.75 329 13:20 05.05.2022
3862 Clear 8 1025 45 10000 4.13 333 12:24 05.05.2022
3863 Clear 7 1025 30 10000 4.99 329 10:33 05.05.2022
3864 Clear 6 1025 52 10000 5.29 326 09:39 05.05.2022
3865 Clear 4 1025 41 10000 4.43 329 07:24 05.05.2022
3866 Clouds 0 1023 72 10000 3.51 316 02:59 05.05.2022
3867 Clouds 1 1021 73 10000 3.25 318 01:47 05.05.2022
3868 Clouds 2 1021 64 10000 3.34 324 01:22 05.05.2022
3869 Clouds 3 1019 62 10000 4.2 324 23:31 04.05.2022
3870 Clouds 3 1018 64 10000 4.32 321 22:25 04.05.2022
3871 Clouds 4 1018 56 10000 4.32 321 21:49 04.05.2022
3872 Clouds 4 1018 56 10000 4.28 324 21:26 04.05.2022
3873 Clouds 4 1017 54 10000 4.47 328 20:22 04.05.2022
3874 Clouds 4 1017 54 10000 4.47 328 19:51 04.05.2022
3875 Clouds 5 1016 48 10000 4.79 331 18:49 04.05.2022
3876 Clouds 6 1015 40 10000 5.67 330 18:21 04.05.2022
3877 Clouds 6 1014 37 10000 6.11 318 17:29 04.05.2022
3878 Rain 7 1013 30 10000 6.55 318 15:38 04.05.2022
3879 Clouds 7 1013 29 10000 6.55 318 15:20 04.05.2022
3880 Clouds 6 1012 61 10000 5.65 325 14:20 04.05.2022
3881 Clouds 7 1012 51 10000 6.2 330 13:20 04.05.2022
3882 Rain 8 1012 52 10000 5.34 334 12:29 04.05.2022
3883 Clouds 8 1012 58 10000 5.22 339 10:40 04.05.2022
3884 Clouds 7 1011 59 10000 5.98 330 09:40 04.05.2022
3885 Clouds 7 1010 58 10000 5.48 333 08:40 04.05.2022
3886 Clouds 6 1009 66 10000 4.22 322 06:31 04.05.2022
3887 Clouds 7 1008 58 10000 3.2 329 02:53 04.05.2022
3888 Clouds 8 1007 52 10000 3.5 280 23:58 03.05.2022
3889 Clouds 10 1007 50 10000 2.76 287 22:30 03.05.2022
3890 Clouds 11 1007 47 10000 2.48 309 21:43 03.05.2022
3891 Clouds 12 1006 60 10000 3.51 313 20:53 03.05.2022
3892 Clouds 13 1006 48 10000 4.22 274 19:49 03.05.2022
3893 Clouds 15 1005 47 10000 4.41 262 18:52 03.05.2022
3894 Clouds 15 1005 45 10000 4.78 260 18:20 03.05.2022
3895 Clouds 17 1005 42 10000 5.49 254 16:38 03.05.2022
3896 Clouds 17 1005 42 10000 5.97 253 15:35 03.05.2022
3897 Clouds 17 1006 43 10000 6.68 252 12:47 03.05.2022
3898 Clouds 17 1007 45 10000 6.21 240 12:27 03.05.2022
3899 Clouds 15 1007 51 10000 6.51 234 10:57 03.05.2022
3900 Clouds 13 1009 61 10000 5.49 223 09:34 03.05.2022
3901 Clouds 10 1009 65 10000 4.75 227 07:33 03.05.2022
3902 Clouds 9 1010 69 10000 4.02 218 06:44 03.05.2022
3903 Clouds 8 1011 54 10000 4.2 234 00:54 03.05.2022
3904 Clouds 10 1013 72 10000 2.78 180 22:38 02.05.2022
3905 Clouds 10 1013 72 10000 2.78 180 21:52 02.05.2022
3906 Clouds 11 1013 74 10000 2.19 190 20:51 02.05.2022
3907 Clouds 12 1014 41 10000 3.68 221 18:44 02.05.2022
3908 Clouds 12 1014 41 10000 4.81 226 18:25 02.05.2022
3909 Clouds 12 1014 39 10000 4.81 226 17:37 02.05.2022
3910 Clouds 14 1015 36 10000 4.01 239 16:22 02.05.2022
3911 Clouds 14 1015 34 10000 3.47 246 15:31 02.05.2022
3912 Clouds 15 1016 33 10000 3.61 254 13:51 02.05.2022
3913 Clouds 14 1017 38 10000 2.83 267 12:20 02.05.2022
3914 Clouds 13 1018 41 10000 2.58 267 10:51 02.05.2022
3915 Clouds 11 1019 46 10000 1.64 287 09:29 02.05.2022
3916 Clouds 9 1019 56 10000 1.6 275 07:51 02.05.2022
3917 Clouds 6 1019 85 10000 1.84 247 04:36 02.05.2022
3918 Clouds 7 1020 76 10000 1.88 261 00:25 02.05.2022
3919 Clouds 8 1020 46 10000 1.89 261 23:52 01.05.2022
3920 Clouds 8 1020 72 10000 2.27 251 22:33 01.05.2022
3921 Clouds 9 1020 43 10000 2.52 242 21:26 01.05.2022
3922 Clouds 10 1020 41 10000 2.73 256 20:19 01.05.2022
3923 Clouds 11 1020 40 10000 3.94 255 18:59 01.05.2022
3924 Clouds 11 1020 49 10000 3.94 255 18:39 01.05.2022
3925 Clouds 11 1020 40 10000 4.59 259 17:38 01.05.2022
3926 Clouds 12 1020 30 10000 3.84 241 16:24 01.05.2022
3927 Clouds 12 1020 30 10000 3.84 241 15:38 01.05.2022
3928 Clouds 12 1021 28 10000 4.2 247 13:52 01.05.2022
3929 Clouds 11 1023 46 10000 3.01 254 11:28 01.05.2022
3930 Clouds 10 1024 40 10000 2.59 231 09:32 01.05.2022
3931 Clouds 8 1024 51 10000 2.59 231 08:42 01.05.2022
3932 Clouds -1 1025 61 10000 1.83 229 04:31 01.05.2022
3933 Clouds 0 1025 57 10000 0.58 308 00:34 01.05.2022
3934 Clouds 4 1025 52 10000 1.17 338 21:51 30.04.2022
3935 Clouds 4 1025 52 10000 1.46 336 21:19 30.04.2022
3936 Clouds 5 1024 51 10000 1.72 325 19:45 30.04.2022
3937 Clouds 6 1024 49 10000 2.75 326 18:45 30.04.2022
3938 Clouds 8 1023 48 10000 4.54 310 16:54 30.04.2022
3939 Clouds 7 1023 48 10000 4.22 316 15:50 30.04.2022
3940 Clouds 6 1023 32 10000 4.6 316 14:54 30.04.2022
3941 Clouds 6 1023 30 10000 4.22 323 13:30 30.04.2022
3942 Clouds 6 1024 54 10000 4.36 320 11:34 30.04.2022
3943 Clouds 5 1024 39 10000 4.36 320 10:55 30.04.2022
3944 Clouds 5 1024 62 10000 4.16 317 09:50 30.04.2022
3945 Clouds 2 1025 47 10000 4.42 328 07:31 30.04.2022
3946 Clouds 1 1023 74 10000 3.98 303 03:45 30.04.2022
3947 Clouds 3 1022 68 10000 3.35 294 23:54 29.04.2022
3948 Clouds 3 1022 65 10000 3.26 296 22:35 29.04.2022
3949 Clouds 4 1022 64 10000 3.26 296 21:54 29.04.2022
3950 Rain 5 1022 54 10000 3.95 278 21:19 29.04.2022
3951 Clouds 7 1022 49 10000 4.56 267 19:48 29.04.2022
3952 Clouds 8 1022 60 10000 4.44 268 18:58 29.04.2022
3953 Clouds 10 1022 51 10000 5.35 268 17:33 29.04.2022
3954 Clouds 10 1022 36 10000 5.24 239 15:58 29.04.2022
3955 Clouds 10 1023 33 10000 4.31 235 14:34 29.04.2022
3956 Clouds 9 1023 33 10000 3.8 242 13:27 29.04.2022
3957 Clouds 8 1024 33 10000 3.31 248 12:26 29.04.2022
3958 Clouds 7 1025 38 10000 2.39 247 09:52 29.04.2022
3959 Clouds 4 1026 76 10000 1.68 245 07:52 29.04.2022
3960 Clouds 3 1026 77 10000 0.91 253 07:24 29.04.2022
3961 Clouds 1 1026 77 10000 0.76 292 05:57 29.04.2022
3962 Clouds 2 1025 69 10000 1.2 307 00:51 29.04.2022
3963 Clouds 2 1026 67 10000 1.43 284 23:52 28.04.2022
3964 Rain 3 1026 61 10000 1.17 254 22:47 28.04.2022
3965 Rain 4 1026 88 5280 1.19 240 21:59 28.04.2022
3966 Rain 4 1026 88 5269 1.19 240 21:37 28.04.2022
3967 Clouds 5 1026 91 524 2.14 247 20:41 28.04.2022
3968 Clouds 6 1025 74 10000 2.34 250 19:49 28.04.2022
3969 Clouds 6 1024 66 10000 3.55 216 19:23 28.04.2022
3970 Clouds 7 1024 66 10000 3.55 216 18:45 28.04.2022
3971 Clouds 7 1023 43 10000 2.62 215 17:32 28.04.2022
3972 Clouds 7 1023 43 10000 2.62 215 16:50 28.04.2022
3973 Clouds 7 1024 33 10000 2.08 224 16:20 28.04.2022
3974 Clouds 7 1024 33 10000 2.08 224 16:20 28.04.2022
3975 Clouds 7 1024 33 10000 2.08 224 15:41 28.04.2022
3976 Clouds 8 1024 27 10000 1.54 204 14:55 28.04.2022
3977 Clouds 7 1024 27 10000 1.16 249 13:23 28.04.2022
3978 Clouds 7 1025 49 10000 0.92 284 12:28 28.04.2022
3979 Clouds 6 1025 29 10000 1.47 316 10:59 28.04.2022
3980 Clouds 6 1025 52 10000 1.75 331 10:26 28.04.2022
3981 Clouds 5 1025 54 10000 1.75 331 09:43 28.04.2022
3982 Clouds 3 1025 42 10000 2.58 348 07:40 28.04.2022
3983 Clouds 2 1025 64 10000 2.65 354 06:42 28.04.2022
3984 Clouds 1 1024 54 10000 2.69 359 05:52 28.04.2022
3985 Clouds 1 1024 59 10000 2.65 358 04:42 28.04.2022
3986 Clouds 3 1022 65 10000 3.46 10 00:52 28.04.2022
3987 Clouds 4 1021 64 10000 4.2 8 23:18 27.04.2022
3988 Clear 5 1020 70 10000 4.49 354 21:58 27.04.2022
3989 Clear 6 1020 63 10000 4.49 354 21:32 27.04.2022
3990 Clear 6 1020 64 10000 4.25 346 20:44 27.04.2022
3991 Clouds 6 1019 63 10000 4.84 349 19:54 27.04.2022
3992 Clouds 7 1019 62 10000 5.87 353 19:30 27.04.2022
3993 Clouds 8 1019 61 10000 5.87 353 18:38 27.04.2022
3994 Clouds 9 1017 60 10000 6.1 340 17:41 27.04.2022
3995 Clouds 11 1016 62 10000 5.16 334 15:56 27.04.2022
3996 Clouds 12 1014 59 10000 5.67 341 12:59 27.04.2022
3997 Clouds 11 1013 53 10000 4.36 334 11:24 27.04.2022
3998 Clouds 12 1012 59 10000 3.42 345 10:28 27.04.2022
3999 Clouds 11 1013 65 10000 2.72 327 08:22 27.04.2022
4000 Clouds 8 1012 71 10000 2.6 334 06:41 27.04.2022
4001 Clouds 9 1011 63 10000 2.62 339 02:31 27.04.2022
4002 Clouds 9 1010 78 10000 2.88 345 01:21 27.04.2022
4003 Clouds 10 1010 75 10000 2.86 347 00:27 27.04.2022
4004 Clouds 11 1009 69 10000 2.88 340 23:24 26.04.2022
4005 Clouds 12 1009 69 10000 2.88 340 22:45 26.04.2022
4006 Clouds 13 1009 60 10000 2.95 335 21:59 26.04.2022
4007 Clouds 12 1009 60 10000 2.94 332 21:19 26.04.2022
4008 Clouds 12 1008 61 10000 3.32 333 20:37 26.04.2022
4009 Clouds 13 1008 61 10000 3.26 358 19:45 26.04.2022
4010 Clouds 14 1008 60 10000 3.59 355 19:26 26.04.2022
4011 Clouds 14 1008 59 10000 3.59 355 18:39 26.04.2022
4012 Clouds 14 1007 54 10000 2.91 324 17:39 26.04.2022
4013 Clouds 15 1006 49 10000 2.67 293 15:32 26.04.2022
4014 Clouds 16 1007 63 10000 3.08 293 13:51 26.04.2022
4015 Clouds 15 1006 47 10000 3.6 278 12:57 26.04.2022
4016 Clouds 14 1007 49 10000 2.64 266 11:23 26.04.2022
4017 Clouds 14 1007 55 10000 2.3 271 10:30 26.04.2022
4018 Clouds 12 1007 63 10000 1.86 277 08:34 26.04.2022
4019 Clouds 10 1007 95 10000 1.64 261 04:59 26.04.2022
4020 Clouds 10 1006 96 10000 1.72 278 04:22 26.04.2022
4021 Rain 11 1006 77 10000 2.7 235 00:51 26.04.2022
4022 Clouds 11 1007 76 10000 2.51 220 23:50 25.04.2022
4023 Rain 12 1007 71 10000 1.84 199 21:53 25.04.2022
4024 Rain 13 1007 69 10000 1.48 211 21:26 25.04.2022
4025 Rain 13 1007 67 10000 2.45 210 19:53 25.04.2022
4026 Rain 13 1007 65 10000 2.76 232 18:34 25.04.2022
4027 Clouds 13 1008 62 10000 4.31 211 17:40 25.04.2022
4028 Rain 14 1008 59 10000 4.31 211 16:42 25.04.2022
4029 Rain 16 1008 49 10000 5.36 205 15:22 25.04.2022
4030 Clouds 16 1008 49 10000 5.02 196 14:34 25.04.2022
4031 Clouds 17 1008 62 10000 4.87 193 12:49 25.04.2022
4032 Clouds 14 1009 70 10000 4.24 206 10:44 25.04.2022
4033 Clouds 12 1010 73 10000 3.37 185 09:42 25.04.2022
4034 Clouds 10 1010 70 10000 3.26 203 07:56 25.04.2022
4035 Clouds 9 1010 87 10000 2.33 216 05:55 25.04.2022
4036 Clouds 10 1010 81 10000 2.2 173 01:30 25.04.2022
4037 Clouds 10 1011 80 10000 2.32 172 23:56 24.04.2022
4038 Clouds 10 1011 80 10000 2.3 165 23:28 24.04.2022
4039 Clouds 10 1011 79 10000 2.3 165 22:39 24.04.2022
4040 Rain 10 1011 79 10000 2.31 161 21:56 24.04.2022
4041 Clouds 10 1011 78 10000 2.4 160 21:22 24.04.2022
4042 Rain 10 1011 78 10000 2.4 160 21:22 24.04.2022
4043 Rain 10 1011 78 10000 2.4 160 20:46 24.04.2022
4044 Rain 10 1011 78 10000 3.03 158 20:21 24.04.2022
4045 Rain 10 1012 76 10000 3.21 156 18:54 24.04.2022
4046 Rain 10 1011 88 10000 3.23 156 17:54 24.04.2022
4047 Rain 11 1012 73 10000 3.29 159 17:21 24.04.2022
4048 Rain 10 1012 71 10000 3.29 159 16:56 24.04.2022
4049 Rain 11 1012 72 10000 4.04 165 16:29 24.04.2022
4050 Rain 11 1012 72 10000 4.04 165 16:29 24.04.2022
4051 Rain 11 1012 71 10000 4.04 165 15:52 24.04.2022
4052 Clouds 12 1012 65 10000 4.53 172 14:40 24.04.2022
4053 Rain 14 1012 59 10000 3.96 190 13:45 24.04.2022
4054 Rain 14 1012 57 10000 3.76 174 13:23 24.04.2022
4055 Clouds 14 1012 59 10000 3.65 173 11:53 24.04.2022
4056 Clouds 12 1012 60 10000 4.28 167 10:59 24.04.2022
4057 Clouds 12 1012 62 10000 4.61 149 09:47 24.04.2022
4058 Clouds 10 1013 67 10000 3.75 128 08:23 24.04.2022
4059 Clouds 9 1014 67 10000 2.61 129 05:46 24.04.2022
4060 Clouds 8 1014 66 10000 2.02 138 02:49 24.04.2022
4061 Clouds 8 1014 64 10000 2.13 126 00:55 24.04.2022
4062 Clouds 8 1014 83 10000 2.08 127 23:55 23.04.2022
4063 Clouds 9 1015 77 10000 2.12 128 23:25 23.04.2022
4064 Clouds 9 1015 77 10000 2.12 128 22:40 23.04.2022
4065 Clouds 10 1015 72 10000 2.16 137 21:48 23.04.2022
4066 Clouds 10 1015 67 10000 2.15 132 21:29 23.04.2022
4067 Clouds 11 1015 63 10000 2.06 128 20:27 23.04.2022
4068 Clouds 13 1015 63 10000 2 128 19:21 23.04.2022
4069 Clouds 13 1015 63 10000 2 128 18:54 23.04.2022
4070 Clouds 14 1015 57 10000 2.01 137 18:32 23.04.2022
4071 Clouds 14 1015 57 10000 2 137 17:47 23.04.2022
4072 Clouds 15 1015 50 10000 2.17 148 16:46 23.04.2022
4073 Clouds 15 1015 50 10000 2.32 157 15:52 23.04.2022
4074 Clouds 15 1015 50 10000 2.32 157 15:52 23.04.2022
4075 Clouds 13 1016 53 10000 2.45 178 13:33 23.04.2022
4076 Clouds 12 1017 67 10000 1.95 186 11:30 23.04.2022
4077 Clouds 12 1017 74 10000 1.96 191 10:37 23.04.2022
4078 Clouds 9 1018 82 10000 1.04 204 08:27 23.04.2022
4079 Clouds 7 1018 87 10000 0.37 253 04:18 23.04.2022
4080 Clouds 6 1018 87 10000 0.69 304 03:27 23.04.2022
4081 Clouds 8 1019 85 10000 0.81 266 23:38 22.04.2022
4082 Clouds 8 1019 85 10000 0.96 281 23:20 22.04.2022
4083 Clouds 9 1019 85 10000 0.96 276 21:58 22.04.2022
4084 Clouds 9 1019 85 10000 0.96 276 21:39 22.04.2022
4085 Clouds 9 1019 84 10000 1.23 300 20:34 22.04.2022
4086 Clouds 9 1020 87 10000 0.59 167 19:27 22.04.2022
4087 Clouds 10 1020 87 10000 0.59 167 18:57 22.04.2022
4088 Clouds 10 1020 86 10000 0.53 135 18:28 22.04.2022
4089 Clouds 10 1020 84 10000 0.37 50 17:24 22.04.2022
4090 Clouds 10 1021 84 10000 0.57 37 15:59 22.04.2022
4091 Clouds 10 1021 84 10000 0.57 37 15:31 22.04.2022
4092 Clouds 10 1021 83 10000 0.29 113 14:38 22.04.2022
4093 Clouds 11 1021 83 10000 0.62 124 14:38 22.04.2022
4094 Clouds 10 1021 85 10000 1.01 126 13:42 22.04.2022
4095 Clouds 10 1022 87 10000 1.24 112 12:55 22.04.2022
4096 Clouds 9 1022 91 10000 1.61 89 11:24 22.04.2022
4097 Clouds 9 1022 91 10000 1.61 89 10:58 22.04.2022
4098 Clouds 8 1022 91 10000 1.61 89 10:40 22.04.2022
4099 Clouds 8 1022 93 10000 1.66 90 10:20 22.04.2022
4100 Clouds 8 1023 94 10000 1.76 92 09:30 22.04.2022
4101 Clouds 7 1023 94 10000 1.77 92 08:49 22.04.2022
4102 Clouds 7 1023 79 10000 1.67 62 06:54 22.04.2022
4103 Clouds 6 1023 96 10000 1.05 68 01:41 22.04.2022
4104 Clouds 6 1023 96 10000 1.63 79 23:39 21.04.2022
4105 Clouds 7 1023 76 10000 1.63 79 22:48 21.04.2022
4106 Clouds 7 1023 75 10000 1.76 74 21:49 21.04.2022
4107 Clouds 7 1023 74 10000 2.01 82 20:34 21.04.2022
4108 Clouds 7 1023 74 10000 2.8 94 19:36 21.04.2022
4109 Clouds 7 1023 75 10000 2.8 94 18:32 21.04.2022
4110 Clouds 7 1022 74 10000 2.99 93 17:46 21.04.2022
4111 Clouds 7 1021 74 10000 3.83 90 16:24 21.04.2022
4112 Clouds 7 1021 74 10000 4.4 87 15:19 21.04.2022
4113 Clouds 6 1020 73 10000 5.16 89 14:31 21.04.2022
4114 Clouds 6 1020 72 10000 5.8 87 13:23 21.04.2022
4115 Rain 6 1019 71 7231 6.27 89 12:36 21.04.2022
4116 Rain 6 1018 66 8316 6.87 83 10:20 21.04.2022
4117 Rain 7 1017 62 7742 7.19 80 08:53 21.04.2022
4118 Clouds 8 1017 81 10000 7.42 71 06:55 21.04.2022
4119 Clouds 8 1017 81 10000 7.42 71 06:55 21.04.2022
4120 Clouds 7 1016 75 10000 7.18 65 04:36 21.04.2022
4121 Clouds 9 1017 48 10000 7.22 65 03:26 21.04.2022
4122 Clouds 8 1017 73 10000 7.22 65 02:46 21.04.2022
4123 Clouds 8 1017 73 10000 7.22 65 02:46 21.04.2022
4124 Clouds 10 1016 47 10000 7.32 68 00:43 21.04.2022
4125 Clouds 10 1017 47 10000 7.32 70 23:49 20.04.2022
4126 Clouds 10 1017 46 10000 7.24 67 23:21 20.04.2022
4127 Clouds 10 1017 68 10000 7.24 67 22:45 20.04.2022
4128 Clouds 11 1017 45 10000 6.8 69 22:26 20.04.2022
4129 Clouds 11 1017 59 10000 6.7 72 21:27 20.04.2022
4130 Clouds 12 1017 59 10000 6.8 72 20:23 20.04.2022
4131 Clouds 12 1017 59 10000 6.8 72 19:51 20.04.2022
4132 Clouds 12 1017 55 10000 6.92 70 19:18 20.04.2022
4133 Clouds 14 1016 51 10000 7.1 72 17:55 20.04.2022
4134 Clouds 15 1016 47 10000 7.04 69 16:40 20.04.2022
4135 Clouds 15 1016 42 10000 6.97 70 16:18 20.04.2022
4136 Clear 14 1016 35 10000 7.71 69 13:50 20.04.2022
4137 Clear 13 1017 37 10000 7.7 66 11:47 20.04.2022
4138 Clear 13 1017 38 10000 7.07 70 10:56 20.04.2022
4139 Clear 11 1017 42 10000 7.34 66 09:58 20.04.2022
4140 Clear 11 1018 48 10000 6.69 68 09:24 20.04.2022
4141 Clear 9 1018 55 10000 6.03 70 08:22 20.04.2022
4142 Clear 9 1018 55 10000 6.03 70 08:22 20.04.2022
4143 Clear 8 1018 66 10000 5.7 65 07:32 20.04.2022
4144 Clear 5 1018 85 10000 4.77 58 03:34 20.04.2022
4145 Clouds 7 1018 82 10000 4.42 65 00:23 20.04.2022
4146 Clouds 7 1018 82 10000 4.42 65 23:41 19.04.2022
4147 Clouds 9 1019 85 10000 4.2 66 22:26 19.04.2022
4148 Clouds 9 1019 85 10000 4.2 66 21:56 19.04.2022
4149 Clouds 9 1019 84 10000 4.51 69 21:23 19.04.2022
4150 Clouds 10 1019 84 10000 4.51 69 20:45 19.04.2022
4151 Clouds 10 1019 80 10000 4.56 69 19:57 19.04.2022
4152 Clouds 12 1019 79 10000 4.76 68 18:49 19.04.2022
4153 Clouds 12 1018 77 10000 5.04 62 17:50 19.04.2022
4154 Clouds 12 1018 74 10000 4.79 63 16:43 19.04.2022
4155 Clouds 12 1018 72 10000 4.7 61 16:23 19.04.2022
4156 Clouds 13 1018 72 10000 4.89 63 14:50 19.04.2022
4157 Clouds 12 1019 72 10000 5.18 65 14:27 19.04.2022
4158 Clouds 11 1019 68 10000 5.31 69 12:51 19.04.2022
4159 Clouds 10 1019 72 10000 4.85 65 12:26 19.04.2022
4160 Clouds 8 1019 71 10000 4.65 66 10:47 19.04.2022
4161 Clouds 7 1019 68 10000 4.59 68 09:23 19.04.2022
4162 Clouds 4 1019 76 10000 3.96 62 05:59 19.04.2022
4163 Clouds 4 1019 78 10000 3.8 56 03:59 19.04.2022
4164 Clouds 4 1019 74 10000 3.29 63 00:56 19.04.2022
4165 Clouds 5 1019 68 10000 3.16 67 23:36 18.04.2022
4166 Clouds 6 1019 59 10000 3.27 72 21:37 18.04.2022
4167 Clouds 7 1019 59 10000 3.27 72 21:18 18.04.2022
4168 Clouds 6 1019 56 10000 3.32 74 20:36 18.04.2022
4169 Clouds 7 1019 54 10000 3.61 75 19:57 18.04.2022
4170 Clouds 8 1019 52 10000 3.68 77 18:58 18.04.2022
4171 Clouds 8 1019 48 10000 3.9 79 18:32 18.04.2022
4172 Clouds 9 1019 48 10000 3.9 79 17:36 18.04.2022
4173 Clouds 10 1018 45 10000 4.49 81 17:18 18.04.2022
4174 Clouds 11 1018 45 10000 4.49 81 16:34 18.04.2022
4175 Clouds 11 1018 39 10000 4.76 81 15:18 18.04.2022
4176 Clouds 10 1018 40 10000 4.82 76 13:42 18.04.2022
4177 Clouds 9 1019 40 10000 4.69 76 12:34 18.04.2022
4178 Clouds 8 1019 42 10000 4.57 76 11:42 18.04.2022
4179 Clouds 7 1019 43 10000 4.4 76 10:42 18.04.2022
4180 Clouds 6 1020 53 10000 4.35 73 09:31 18.04.2022
4181 Clouds 5 1021 60 10000 4.52 77 08:28 18.04.2022
4182 Clouds 1 1021 75 10000 3.36 65 05:51 18.04.2022
4183 Clouds 1 1021 73 10000 3.19 51 01:37 18.04.2022
4184 Clouds 3 1022 69 10000 3.35 51 22:44 17.04.2022
4185 Clouds 4 1022 67 10000 3.46 49 21:51 17.04.2022
4186 Clouds 4 1022 64 10000 3.76 44 21:32 17.04.2022
4187 Clouds 4 1022 64 10000 3.76 44 20:50 17.04.2022
4188 Clouds 5 1022 59 10000 3.94 40 19:53 17.04.2022
4189 Clouds 5 1023 55 10000 4.05 43 18:32 17.04.2022
4190 Clouds 5 1022 49 10000 5.63 46 16:33 17.04.2022
4191 Clouds 5 1022 49 10000 6.07 47 15:32 17.04.2022
4192 Clouds 5 1022 50 10000 5.92 49 14:28 17.04.2022
4193 Clouds 5 1022 45 10000 6.23 48 13:20 17.04.2022
4194 Clouds 4 1022 45 10000 6.57 48 12:30 17.04.2022
4195 Clouds 3 1022 45 10000 6.9 47 10:48 17.04.2022
4196 Clouds 3 1022 46 10000 7.12 45 10:29 17.04.2022
4197 Clouds 2 1022 46 10000 7.12 45 09:50 17.04.2022
4198 Snow 1 1022 49 10000 7.07 41 08:58 17.04.2022
4199 Snow 0 1022 55 10000 6.68 35 08:27 17.04.2022
4200 Clouds 0 1022 75 10000 5.5 29 05:20 17.04.2022
4201 Clouds 1 1020 74 10000 5.83 23 01:40 17.04.2022
4202 Clouds 2 1020 73 10000 5.65 24 23:59 16.04.2022
4203 Clouds 2 1020 72 10000 5.62 27 22:56 16.04.2022
4204 Clouds 2 1020 70 10000 5.54 28 21:44 16.04.2022
4205 Clouds 2 1019 69 10000 5.48 33 20:54 16.04.2022
4206 Clouds 3 1019 73 10000 5.79 41 19:21 16.04.2022
4207 Clouds 3 1018 76 10000 6.42 43 18:35 16.04.2022
4208 Clouds 3 1018 79 8852 6.79 44 16:44 16.04.2022
4209 Clouds 2 1017 84 5395 6.89 45 15:46 16.04.2022
4210 Clouds 2 1017 87 5000 6.85 46 14:57 16.04.2022
4211 Clouds 2 1016 89 4091 6.97 48 14:30 16.04.2022
4212 Clouds 2 1015 94 816 7.33 45 13:48 16.04.2022
4213 Clouds 2 1014 95 68 6.57 45 12:35 16.04.2022
4214 Clouds 2 1014 95 42 6.2 46 11:26 16.04.2022
4215 Clouds 2 1014 95 31 5.73 46 10:25 16.04.2022
4216 Clouds 2 1014 95 31 5.73 46 09:36 16.04.2022
4217 Rain 2 1013 96 26 5.17 41 08:42 16.04.2022
4218 Clouds 2 1010 94 2361 5.26 42 07:21 16.04.2022
4219 Rain 5 1010 97 5269 3.5 37 04:54 16.04.2022
4220 Rain 5 1010 98 10000 0.8 221 00:40 16.04.2022
4221 Rain 6 1011 97 10000 1.38 197 23:45 15.04.2022
4222 Rain 6 1011 96 10000 1.59 160 22:48 15.04.2022
4223 Rain 6 1011 94 10000 2.19 120 22:28 15.04.2022
4224 Rain 6 1012 92 10000 2.21 114 21:20 15.04.2022
4225 Rain 7 1013 91 10000 1.54 124 20:38 15.04.2022
4226 Rain 8 1012 93 10000 2.75 135 19:43 15.04.2022
4227 Rain 8 1013 91 10000 2.25 134 18:58 15.04.2022
4228 Rain 8 1013 89 10000 1.55 182 18:26 15.04.2022
4229 Rain 9 1013 89 10000 1.55 183 17:57 15.04.2022
4230 Clouds 9 1013 87 10000 2.26 214 17:24 15.04.2022
4231 Clouds 10 1014 84 8533 2.21 211 16:24 15.04.2022
4232 Clouds 10 1014 84 8534 2.21 211 15:42 15.04.2022
4233 Clouds 10 1014 84 8533 2.21 211 15:42 15.04.2022
4234 Clouds 10 1014 69 10000 2.38 224 13:55 15.04.2022
4235 Clouds 10 1015 51 10000 2.14 225 12:50 15.04.2022
4236 Clouds 11 1015 48 10000 1.78 218 12:24 15.04.2022
4237 Clouds 11 1015 48 10000 1.78 218 11:50 15.04.2022
4238 Clouds 10 1015 48 10000 1.29 218 10:46 15.04.2022
4239 Clouds 9 1016 53 10000 1.17 225 09:59 15.04.2022
4240 Clouds 9 1016 56 10000 0.76 241 09:22 15.04.2022
4241 Clouds 6 1016 56 10000 0.76 241 08:39 15.04.2022
4242 Clouds 4 1017 67 10000 1.11 291 06:48 15.04.2022
4243 Clouds 2 1017 76 10000 1.61 312 04:43 15.04.2022
4244 Clouds 3 1018 74 10000 1.82 333 00:46 15.04.2022
4245 Clouds 4 1019 72 10000 1.98 348 23:26 14.04.2022
4246 Clouds 4 1019 72 10000 1.98 348 22:46 14.04.2022
4247 Clouds 5 1019 70 10000 1.91 360 22:27 14.04.2022
4248 Clouds 5 1019 71 10000 1.84 356 21:50 14.04.2022
4249 Clouds 7 1020 66 10000 2.66 352 19:41 14.04.2022
4250 Clouds 8 1019 62 10000 3.02 348 19:20 14.04.2022
4251 Clouds 10 1019 55 10000 3.3 1 17:46 14.04.2022
4252 Clouds 10 1019 49 10000 4.11 3 16:51 14.04.2022
4253 Clouds 11 1019 46 10000 4.37 4 15:52 14.04.2022
4254 Clouds 10 1019 45 10000 4.87 8 13:54 14.04.2022
4255 Clouds 10 1019 45 10000 4.78 14 13:25 14.04.2022
4256 Clouds 10 1019 45 10000 4.78 14 12:33 14.04.2022
4257 Clouds 9 1020 46 10000 4.9 22 11:47 14.04.2022
4258 Clouds 9 1020 48 10000 5.25 18 11:18 14.04.2022
4259 Clouds 8 1020 53 10000 5.27 17 10:31 14.04.2022
4260 Clouds 7 1020 53 10000 5.27 17 09:50 14.04.2022
4261 Clouds 5 1021 60 10000 5.11 18 08:35 14.04.2022
4262 Clouds 1 1021 84 10000 4.93 16 05:58 14.04.2022
4263 Clouds 3 1020 80 10000 5.12 10 01:23 14.04.2022
4264 Clouds 4 1020 75 10000 5.76 7 22:38 13.04.2022
4265 Clouds 4 1020 80 10000 5.06 3 22:38 13.04.2022
4266 Clouds 5 1020 80 10000 5.06 3 21:43 13.04.2022
4267 Clouds 5 1020 85 10000 5.11 5 20:47 13.04.2022
4268 Clouds 5 1020 86 10000 5.26 6 19:54 13.04.2022
4269 Clouds 6 1020 89 10000 5.3 7 18:43 13.04.2022
4270 Clouds 6 1019 92 10000 5.29 5 17:52 13.04.2022
4271 Clouds 6 1019 93 10000 5.4 3 17:23 13.04.2022
4272 Clouds 6 1019 94 10000 5.53 359 16:18 13.04.2022
4273 Clouds 6 1018 92 10000 5.73 357 15:31 13.04.2022
4274 Clouds 5 1018 92 10000 5.73 357 14:46 13.04.2022
4275 Clouds 5 1018 90 10000 5.46 356 13:57 13.04.2022
4276 Clouds 5 1017 89 10000 5.31 356 12:58 13.04.2022
4277 Clouds 5 1017 90 10000 5.1 355 12:19 13.04.2022
4278 Clouds 4 1017 92 10000 4.86 355 10:44 13.04.2022
4279 Clouds 3 1016 96 1179 4.51 355 08:50 13.04.2022
4280 Clouds 3 1016 97 256 4.46 353 08:28 13.04.2022
4281 Clouds 3 1015 97 186 4.35 354 06:50 13.04.2022
4282 Clouds 3 1015 98 112 4.29 352 06:25 13.04.2022
4283 Clouds 3 1014 98 101 4.02 0 02:37 13.04.2022
4284 Clouds 4 1013 98 143 3.81 353 00:20 13.04.2022
4285 Clouds 4 1013 98 164 4.34 356 22:46 12.04.2022
4286 Clouds 4 1013 98 173 4.48 355 21:57 12.04.2022
4287 Clouds 4 1013 98 203 4.27 351 20:49 12.04.2022
4288 Clouds 4 1012 98 310 4.46 354 20:27 12.04.2022
4289 Clouds 4 1012 98 539 4.17 356 19:47 12.04.2022
4290 Clouds 4 1012 98 7652 4.12 356 19:28 12.04.2022
4291 Clouds 5 1012 96 10000 4.14 350 17:50 12.04.2022
4292 Clouds 6 1011 95 10000 4.22 355 16:53 12.04.2022
4293 Clouds 6 1011 95 10000 4.03 356 15:52 12.04.2022
4294 Clouds 6 1010 92 10000 4.13 355 15:25 12.04.2022
4295 Clouds 6 1010 91 10000 3.74 353 13:54 12.04.2022
4296 Clouds 6 1010 94 10000 3.46 358 13:27 12.04.2022
4297 Clouds 5 1010 94 10000 3.46 358 12:44 12.04.2022
4298 Clouds 4 1010 95 5362 2.79 1 11:42 12.04.2022
4299 Clouds 4 1010 97 1839 2.34 3 10:30 12.04.2022
4300 Clouds 3 1010 98 576 3.02 21 08:54 12.04.2022
4301 Clouds 3 1010 98 576 3.02 21 08:54 12.04.2022
4302 Clouds 3 1010 98 2866 3.14 18 07:50 12.04.2022
4303 Clouds 2 1010 98 5874 3.29 7 05:49 12.04.2022
4304 Clouds 2 1010 97 10000 4.71 18 03:28 12.04.2022
4305 Rain 2 1012 98 389 4.22 3 23:36 11.04.2022
4306 Rain 2 1012 98 138 3.88 352 22:44 11.04.2022
4307 Clouds 2 1012 98 65 2.62 354 21:36 11.04.2022
4308 Clouds 2 1012 98 58 3.81 350 20:54 11.04.2022
4309 Clouds 2 1012 97 64 3.74 350 20:28 11.04.2022
4310 Clouds 2 1012 98 54 3.94 352 19:36 11.04.2022
4311 Clouds 2 1012 97 67 3.7 352 19:18 11.04.2022
4312 Clouds 2 1012 97 67 3.7 352 18:40 11.04.2022
4313 Clouds 3 1011 97 87 3.84 353 17:56 11.04.2022
4314 Clouds 3 1011 97 195 3.92 353 16:54 11.04.2022
4315 Rain 3 1011 94 10000 3.35 351 15:24 11.04.2022
4316 Clouds 3 1010 94 10000 3.62 12 13:53 11.04.2022
4317 Clouds 3 1010 93 10000 4.15 19 12:44 11.04.2022
4318 Rain 3 1010 92 10000 4.36 18 12:25 11.04.2022
4319 Clouds 3 1010 96 5780 5.18 18 10:58 11.04.2022
4320 Clouds 3 1011 96 10000 3.87 8 09:58 11.04.2022
4321 Clouds 4 1011 96 7729 3.84 16 08:50 11.04.2022
4322 Clouds 4 1012 93 10000 2.37 44 05:38 11.04.2022
4323 Clouds 5 1012 91 10000 1.67 65 00:57 11.04.2022
4324 Clouds 5 1013 83 10000 1.14 21 22:33 10.04.2022
4325 Clouds 6 1012 82 10000 0.95 35 21:54 10.04.2022
4326 Clouds 6 1012 79 10000 0.65 41 21:26 10.04.2022
4327 Clouds 6 1011 77 10000 0.74 42 20:25 10.04.2022
4328 Clouds 6 1011 78 10000 0.54 69 19:37 10.04.2022
4329 Clouds 6 1011 75 10000 0.48 88 19:18 10.04.2022
4330 Clouds 7 1011 75 10000 0.48 88 18:38 10.04.2022
4331 Clouds 7 1010 71 10000 0.61 51 17:51 10.04.2022
4332 Clouds 7 1010 67 10000 0.36 72 17:31 10.04.2022
4333 Clouds 7 1009 61 10000 0.74 19 15:53 10.04.2022
4334 Clouds 7 1009 56 10000 1.44 1 14:49 10.04.2022
4335 Clouds 6 1008 63 10000 2.02 349 13:49 10.04.2022
4336 Clouds 6 1008 90 10000 3.09 321 12:33 10.04.2022
4337 Clouds 6 1008 90 10000 3.09 321 11:45 10.04.2022
4338 Clouds 5 1007 92 10000 3.51 322 11:24 10.04.2022
4339 Clouds 6 1006 91 10000 4.86 313 10:41 10.04.2022
4340 Clouds 5 1006 91 10000 4.86 313 09:49 10.04.2022
4341 Clouds 6 1004 96 10000 3.39 283 08:55 10.04.2022
4342 Clouds 7 1003 98 10000 2.37 199 08:20 10.04.2022
4343 Clouds 7 1002 97 10000 2.97 183 06:59 10.04.2022
4344 Clouds 7 1001 96 10000 3.96 166 04:42 10.04.2022
4345 Clouds 7 1002 91 10000 5.61 152 02:20 10.04.2022
4346 Clouds 7 1003 92 10000 5.23 139 23:54 09.04.2022
4347 Clouds 8 1004 92 10000 4.84 158 23:29 09.04.2022
4348 Clouds 7 1004 92 10000 4.84 158 22:39 09.04.2022
4349 Clouds 7 1004 84 10000 4.9 177 21:31 09.04.2022
4350 Clouds 8 1004 83 10000 4.9 177 20:35 09.04.2022
4351 Clouds 9 1005 86 10000 4.9 166 19:59 09.04.2022
4352 Clouds 9 1005 87 10000 4.82 170 19:41 09.04.2022
4353 Clouds 9 1004 81 10000 4.51 151 18:26 09.04.2022
4354 Clouds 9 1004 81 10000 4.51 151 17:52 09.04.2022
4355 Clouds 10 1005 74 10000 3.5 153 17:18 09.04.2022
4356 Clouds 10 1005 74 10000 3.5 153 16:42 09.04.2022
4357 Clouds 10 1005 70 10000 2.29 160 15:52 09.04.2022
4358 Clouds 10 1005 65 10000 2.95 177 15:26 09.04.2022
4359 Clouds 10 1006 70 10000 2.98 188 14:26 09.04.2022
4360 Clouds 8 1005 71 10000 2.77 191 13:38 09.04.2022
4361 Clouds 8 1005 78 10000 1.62 176 12:59 09.04.2022
4362 Clouds 7 1005 80 10000 2.03 211 11:52 09.04.2022
4363 Clouds 6 1005 80 10000 2.19 224 10:55 09.04.2022
4364 Clouds 6 1004 81 10000 2.36 230 10:19 09.04.2022
4365 Clouds 6 1004 81 10000 2.36 230 09:36 09.04.2022
4366 Clouds 5 1003 83 10000 2.93 238 08:45 09.04.2022
4367 Clouds 5 1001 92 10000 2.93 209 05:35 09.04.2022
4368 Clouds 8 996 94 10000 5.25 169 00:38 09.04.2022
4369 Clouds 8 996 91 10000 5.29 160 23:25 08.04.2022
4370 Clouds 10 996 86 10000 5.18 162 21:57 08.04.2022
4371 Clouds 10 996 81 10000 5.77 155 20:47 08.04.2022
4372 Clouds 11 996 80 10000 6.1 146 19:58 08.04.2022
4373 Clouds 11 997 79 10000 6.26 148 19:18 08.04.2022
4374 Clouds 12 997 79 10000 6.38 149 18:25 08.04.2022
4375 Clouds 12 997 79 10000 6.38 149 17:45 08.04.2022
4376 Clouds 12 998 79 10000 6.53 153 17:22 08.04.2022
4377 Clouds 12 998 79 10000 6.53 153 16:38 08.04.2022
4378 Clouds 13 999 81 10000 6.7 158 15:53 08.04.2022
4379 Clouds 13 999 80 10000 6.79 159 15:23 08.04.2022
4380 Clouds 13 999 77 10000 6.16 160 14:26 08.04.2022
4381 Clouds 13 999 77 10000 6.01 160 13:44 08.04.2022
4382 Clouds 13 1000 75 10000 5.29 161 13:25 08.04.2022
4383 Clouds 12 1000 73 10000 5.11 165 11:53 08.04.2022
4384 Clouds 11 1000 78 10000 5.1 168 10:33 08.04.2022
4385 Clouds 11 1000 84 10000 4.45 169 09:37 08.04.2022
4386 Clouds 9 1000 89 10000 3.96 172 08:34 08.04.2022
4387 Clouds 8 1001 89 10000 4.1 179 06:47 08.04.2022
4388 Clouds 7 1001 91 10000 4.04 186 04:58 08.04.2022
4389 Clouds 6 1001 97 6657 3.11 173 01:26 08.04.2022
4390 Clouds 7 1001 99 1311 2.49 168 00:22 08.04.2022
4391 Clouds 7 1001 100 185 2.5 168 22:59 07.04.2022
4392 Clouds 6 1002 100 133 2.42 179 22:39 07.04.2022
4393 Rain 6 1002 100 133 2.42 179 22:20 07.04.2022
4394 Clouds 8 1002 100 133 2.42 179 21:51 07.04.2022
4395 Clouds 8 1001 100 94 3.19 186 21:19 07.04.2022
4396 Clouds 7 1001 100 94 3.19 186 20:31 07.04.2022
4397 Clouds 7 1002 100 41 3.97 179 18:34 07.04.2022
4398 Clouds 8 1002 100 35 4.07 180 17:26 07.04.2022
4399 Clouds 8 1002 100 35 4.07 180 16:44 07.04.2022
4400 Clouds 7 1002 100 30 4.26 180 16:22 07.04.2022
4401 Clouds 7 1002 100 30 4.26 180 16:22 07.04.2022
4402 Clouds 5 1002 100 38 4.51 182 14:50 07.04.2022
4403 Clouds 4 1002 100 45 4.05 171 13:43 07.04.2022
4404 Clouds 3 1003 100 50 4.23 183 12:50 07.04.2022
4405 Rain 2 1003 100 105 4.19 173 11:34 07.04.2022
4406 Snow 1 1004 99 57 4.97 168 09:42 07.04.2022
4407 Snow 1 1005 99 44 5.78 167 08:38 07.04.2022
4408 Snow 1 1006 95 609 5.09 164 06:57 07.04.2022
4409 Clouds -2 1007 88 10000 3.28 198 02:58 07.04.2022
4410 Clouds -2 1007 89 10000 3.3 211 02:27 07.04.2022
4411 Clouds -2 1007 88 10000 3.53 214 00:42 07.04.2022
4412 Clouds -3 1006 87 10000 3.24 221 22:54 06.04.2022
4413 Clouds -3 1006 87 10000 3.24 221 22:30 06.04.2022
4414 Clouds -2 1006 87 10000 3.1 224 21:45 06.04.2022
4415 Clouds -2 1005 89 10000 2.62 220 20:40 06.04.2022
4416 Clouds -1 1004 88 10000 1.98 226 19:57 06.04.2022
4417 Snow 0 1004 73 10000 4.17 276 18:52 06.04.2022
4418 Snow 1 1004 73 10000 4.17 276 18:34 06.04.2022
4419 Clouds 4 1002 91 484 7.31 235 17:35 06.04.2022
4420 Clouds 4 1001 73 10000 5.3 203 16:39 06.04.2022
4421 Clouds 4 1001 73 10000 5.3 203 15:49 06.04.2022
4422 Clouds 5 1001 73 10000 5.3 203 15:30 06.04.2022
4423 Clouds 4 1001 75 10000 4.63 208 13:30 06.04.2022
4424 Clear 3 1002 81 10000 3.86 224 12:28 06.04.2022
4425 Clouds 3 1001 80 10000 3.93 239 10:57 06.04.2022
4426 Clouds 2 1001 80 10000 3.93 239 10:32 06.04.2022
4427 Clouds 1 1001 79 10000 4.08 249 09:43 06.04.2022
4428 Clouds 0 1001 80 10000 4.41 259 08:39 06.04.2022
4429 Clouds 0 1001 84 10000 4.25 261 07:57 06.04.2022
4430 Clouds 1 998 85 10000 4.51 262 05:23 06.04.2022
4431 Clouds 1 995 98 23 6.09 197 23:58 05.04.2022
4432 Snow 1 995 98 32 6.23 185 23:33 05.04.2022
4433 Snow 1 996 97 176 6.46 179 21:48 05.04.2022
4434 Snow 1 996 97 176 6.46 179 21:48 05.04.2022
4435 Snow 1 996 97 176 6.46 179 21:48 05.04.2022
4436 Clouds 1 996 92 10000 7.04 177 20:58 05.04.2022
4437 Snow 1 997 88 10000 7.24 175 20:23 05.04.2022
4438 Clouds 3 998 77 10000 7.43 182 18:28 05.04.2022
4439 Clouds 3 999 79 10000 7.23 183 17:21 05.04.2022
4440 Clouds 4 999 79 10000 7.23 183 16:42 05.04.2022
4441 Clouds 4 1000 83 10000 6.96 183 15:51 05.04.2022
4442 Clouds 4 1000 88 10000 6.77 183 15:30 05.04.2022
4443 Clouds 4 1001 91 10000 6.4 184 13:46 05.04.2022
4444 Clouds 5 1002 95 10000 6.02 191 12:29 05.04.2022
4445 Clouds 4 1002 95 10000 6.02 191 11:43 05.04.2022
4446 Clouds 4 1002 97 10000 5.78 189 11:24 05.04.2022
4447 Clouds 2 1003 94 10000 5.21 190 09:31 05.04.2022
4448 Clouds 1 1003 91 10000 4.77 194 08:33 05.04.2022
4449 Clouds 0 1005 93 10000 2.94 197 03:50 05.04.2022
4450 Clouds 1 1006 92 10000 2.7 224 23:45 04.04.2022
4451 Clouds 1 1006 92 10000 2.72 229 22:38 04.04.2022
4452 Clouds 1 1006 92 10000 2.87 232 21:51 04.04.2022
4453 Clouds 1 1006 93 10000 2.78 229 21:20 04.04.2022
4454 Clouds 1 1006 93 10000 2.78 229 20:47 04.04.2022
4455 Clouds 2 1007 93 10000 2.44 228 19:30 04.04.2022
4456 Clouds 3 1007 93 10000 2.44 228 18:44 04.04.2022
4457 Clouds 3 1006 89 10000 2.42 238 17:21 04.04.2022
4458 Clouds 4 1006 95 10000 1.93 247 16:34 04.04.2022
4459 Clouds 4 1006 95 10000 1.93 247 15:34 04.04.2022
4460 Clouds 4 1006 96 10000 1.87 259 14:49 04.04.2022
4461 Clouds 4 1006 97 6250 2.02 264 14:31 04.04.2022
4462 Clouds 3 1006 97 1422 1.82 275 13:18 04.04.2022
4463 Clouds 2 1006 90 10000 2.54 309 11:29 04.04.2022
4464 Clouds 1 1006 88 10000 2.52 319 10:29 04.04.2022
4465 Clouds -5 1006 89 10000 2.61 324 07:36 04.04.2022
4466 Clouds -7 1004 95 10000 1.99 324 03:18 04.04.2022
4467 Clouds -5 1004 93 10000 2.29 329 23:48 03.04.2022
4468 Clouds -3 1003 93 10000 2.17 322 22:31 03.04.2022
4469 Clouds -3 1003 93 10000 2.17 322 21:37 03.04.2022
4470 Clouds -2 1003 94 10000 2.11 316 20:40 03.04.2022
4471 Clouds 0 1002 93 10000 2.12 317 19:45 03.04.2022
4472 Clouds 1 1001 85 10000 4.12 342 18:31 03.04.2022
4473 Clouds 1 1001 85 10000 4.12 342 17:44 03.04.2022
4474 Clouds 2 1000 85 10000 5.02 343 16:50 03.04.2022
4475 Clouds 2 999 86 10000 5.39 343 16:31 03.04.2022
4476 Clouds 2 998 90 10000 5.64 341 14:32 03.04.2022
4477 Clouds 2 998 90 10000 5.64 341 13:45 03.04.2022
4478 Clouds 1 997 91 9681 5.73 339 12:38 03.04.2022
4479 Clouds -1 996 93 6800 5.77 342 10:58 03.04.2022
4480 Clouds -2 995 92 8139 5.97 344 09:36 03.04.2022
4481 Snow -2 994 91 10000 6.05 348 07:37 03.04.2022
4482 Snow -2 992 95 438 6.16 358 04:37 03.04.2022
4483 Snow -1 992 97 194 5.45 18 00:41 03.04.2022
4484 Snow -1 993 98 141 5.28 28 22:57 02.04.2022
4485 Snow -1 994 97 190 5.52 40 21:58 02.04.2022
4486 Snow -1 994 97 190 5.52 40 21:36 02.04.2022
4487 Snow -1 995 98 146 5.44 40 21:18 02.04.2022
4488 Snow -1 995 98 124 5.27 49 19:32 02.04.2022
4489 Snow -1 997 97 272 6.42 53 18:21 02.04.2022
4490 Snow 0 997 97 272 6.42 53 17:53 02.04.2022
4491 Snow 0 999 97 260 5.93 57 16:25 02.04.2022
4492 Snow -1 1000 99 128 6.02 56 15:21 02.04.2022
4493 Snow 0 1000 99 128 6.02 56 14:49 02.04.2022
4494 Snow 0 1000 99 128 6.02 56 14:49 02.04.2022
4495 Snow 1 1002 99 193 5.34 63 13:35 02.04.2022
4496 Snow 0 1002 99 193 5.34 63 12:47 02.04.2022
4497 Snow 0 1003 99 1201 5.41 67 11:31 02.04.2022
4498 Snow -1 1005 96 173 5.46 61 09:30 02.04.2022
4499 Snow -1 1006 95 205 5.33 52 06:51 02.04.2022
4500 Snow -1 1006 95 205 5.33 52 06:51 02.04.2022
4501 Snow 0 1007 92 4560 5.34 51 03:53 02.04.2022
4502 Clouds 1 1008 93 2912 5.39 56 23:58 01.04.2022
4503 Clouds 1 1008 93 2913 5.39 56 23:30 01.04.2022
4504 Clouds 1 1009 91 10000 5.24 62 21:52 01.04.2022
4505 Clouds 2 1010 90 10000 5.51 63 20:52 01.04.2022
4506 Clouds 2 1010 89 10000 5.6 64 20:30 01.04.2022
4507 Clouds 2 1010 91 10000 5.95 61 19:37 01.04.2022
4508 Clouds 2 1010 89 10000 6.05 62 18:51 01.04.2022
4509 Clouds 3 1011 88 10000 5.97 62 17:54 01.04.2022
4510 Clouds 3 1011 88 10000 5.97 62 17:34 01.04.2022
4511 Clouds 3 1011 87 10000 5.73 61 15:42 01.04.2022
4512 Clouds 3 1012 89 10000 5.24 62 14:26 01.04.2022
4513 Clouds 3 1011 90 10000 5.26 61 13:35 01.04.2022
4514 Clouds 1 1012 92 10000 4.72 63 12:33 01.04.2022
4515 Clouds 1 1012 94 10000 4.26 64 11:44 01.04.2022
4516 Clouds 0 1013 94 10000 3.93 58 10:19 01.04.2022
4517 Clouds 0 1013 92 10000 3.79 54 09:29 01.04.2022
4518 Clouds 0 1013 94 5771 3.32 57 06:55 01.04.2022
4519 Clouds -1 1012 97 6017 2.81 42 04:54 01.04.2022
4520 Clouds 0 1012 97 6015 2.81 42 04:36 01.04.2022
4521 Clouds 0 1012 96 10000 1.33 30 01:59 01.04.2022
4522 Clouds 0 1011 98 10000 1.34 26 00:44 01.04.2022
4523 Clouds 0 1011 95 5269 0.16 194 21:55 31.03.2022
4524 Clouds 0 1011 95 5269 0.16 194 21:37 31.03.2022
4525 Snow 0 1011 96 10000 0.94 163 20:43 31.03.2022
4526 Clouds 0 1011 99 1841 0.83 110 20:25 31.03.2022
4527 Snow 0 1009 99 35 1.33 88 18:57 31.03.2022
4528 Snow 0 1010 99 34 1.61 109 17:55 31.03.2022
4529 Snow 0 1010 99 39 2.23 111 16:45 31.03.2022
4530 Snow 0 1010 99 70 2.65 108 15:54 31.03.2022
4531 Snow 0 1010 99 129 2.96 114 15:22 31.03.2022
4532 Snow 0 1010 99 128 2.96 114 14:44 31.03.2022
4533 Snow 1 1011 98 179 2.99 114 13:27 31.03.2022
4534 Snow 1 1011 97 201 2.9 124 11:30 31.03.2022
4535 Clouds 1 1012 89 10000 2.68 147 10:19 31.03.2022
4536 Clouds -1 1012 88 10000 2.22 161 08:52 31.03.2022
4537 Clouds -3 1012 90 10000 2.07 141 07:31 31.03.2022
4538 Clouds -4 1011 96 10000 0.76 153 01:27 31.03.2022
4539 Clouds -3 1011 93 8125 0.93 143 23:23 30.03.2022
4540 Clouds -2 1010 89 10000 1.08 129 21:54 30.03.2022
4541 Clouds -2 1010 87 10000 0.96 130 21:27 30.03.2022
4542 Clouds -2 1010 87 10000 0.96 130 20:32 30.03.2022
4543 Clouds -2 1010 88 10000 0.82 211 19:43 30.03.2022
4544 Clouds -1 1010 89 10000 1.27 175 18:41 30.03.2022
4545 Clouds 1 1009 86 10000 1.08 181 17:50 30.03.2022
4546 Clouds 0 1008 79 10000 0.91 231 16:58 30.03.2022
4547 Clouds 0 1008 79 10000 0.92 230 16:39 30.03.2022
4548 Clouds 0 1008 65 10000 2.14 259 15:47 30.03.2022
4549 Clouds 0 1008 58 10000 3.25 265 14:22 30.03.2022
4550 Clouds -1 1008 58 10000 2.97 258 13:20 30.03.2022
4551 Clouds -2 1008 59 10000 3.17 266 11:55 30.03.2022
4552 Clouds -3 1008 62 10000 3.25 273 10:48 30.03.2022
4553 Clouds -3 1008 67 10000 3.28 275 09:30 30.03.2022
4554 Clouds -5 1007 81 10000 3.45 289 07:59 30.03.2022
4555 Clouds -5 1006 81 10000 3.57 303 06:32 30.03.2022
4556 Clouds -5 1005 89 5348 3.39 302 05:38 30.03.2022
4557 Snow -4 1002 94 277 1.47 329 01:45 30.03.2022
4558 Clouds -3 1000 92 9417 2.15 355 22:38 29.03.2022
4559 Clouds -2 1000 92 9408 2.15 355 21:47 29.03.2022
4560 Clouds -2 1000 91 5596 1.93 0 20:55 29.03.2022
4561 Clouds -2 1000 92 10000 1.29 5 20:25 29.03.2022
4562 Snow -2 999 94 3633 1.75 352 19:27 29.03.2022
4563 Snow -2 999 94 3633 1.75 352 18:53 29.03.2022
4564 Snow -1 999 96 499 1.67 1 17:40 29.03.2022
4565 Snow 0 998 93 486 1.9 0 16:59 29.03.2022
4566 Clouds 0 998 81 7305 2.26 352 16:25 29.03.2022
4567 Clouds 0 998 77 10000 1.97 328 14:58 29.03.2022
4568 Clouds 1 998 76 10000 1.97 328 14:39 29.03.2022
4569 Clouds 0 998 80 10000 3.28 314 13:33 29.03.2022
4570 Clouds 0 997 82 10000 4.15 308 11:58 29.03.2022
4571 Clouds 0 996 80 10000 4.68 307 10:59 29.03.2022
4572 Snow 0 996 83 10000 4.74 307 09:50 29.03.2022
4573 Snow 1 995 92 739 4.55 314 08:32 29.03.2022
4574 Clouds 1 993 83 10000 6.17 273 05:44 29.03.2022
4575 Clouds 1 991 82 10000 6.44 276 02:19 29.03.2022
4576 Clouds 1 990 78 10000 6.6 286 23:26 28.03.2022
4577 Clouds 1 990 78 10000 6.6 286 22:56 28.03.2022
4578 Snow 1 989 88 10000 6.31 290 22:31 28.03.2022
4579 Clouds 2 989 88 10000 6.31 290 21:38 28.03.2022
4580 Clouds 3 988 92 10000 8.89 272 20:32 28.03.2022
4581 Clouds 1 988 92 5315 8.33 248 19:47 28.03.2022
4582 Snow 0 989 88 10000 7.78 234 19:29 28.03.2022
4583 Snow 0 989 88 10000 7.78 234 18:44 28.03.2022
4584 Snow -1 991 91 10000 6.24 241 17:41 28.03.2022
4585 Snow -2 992 86 10000 7.14 244 16:47 28.03.2022
4586 Snow -3 996 96 174 6.1 210 14:53 28.03.2022
4587 Snow -4 998 94 186 6.39 200 14:23 28.03.2022
4588 Snow -5 1000 93 194 6.74 202 13:18 28.03.2022
4589 Snow -5 1002 92 185 6.77 197 11:43 28.03.2022
4590 Clouds -4 1007 76 8176 5.94 205 09:55 28.03.2022
4591 Clouds -5 1008 67 10000 5.34 213 09:20 28.03.2022
4592 Clouds -6 1010 72 10000 4.53 227 08:23 28.03.2022
4593 Clouds -6 1010 72 10000 4.53 226 07:59 28.03.2022
4594 Clouds -7 1012 84 10000 3.82 256 06:30 28.03.2022
4595 Clouds -6 1014 77 10000 5.82 315 00:19 28.03.2022
4596 Clouds -5 1014 75 10000 6.32 318 22:34 27.03.2022
4597 Clouds -5 1013 72 10000 6.78 321 21:43 27.03.2022
4598 Clouds -4 1012 70 10000 7.1 323 20:58 27.03.2022
4599 Clouds -4 1012 68 10000 7.39 326 20:21 27.03.2022
4600 Clouds -4 1012 68 10000 7.39 326 19:36 27.03.2022
4601 Clouds -3 1011 56 10000 7.41 329 18:42 27.03.2022
4602 Clouds -3 1010 56 10000 7.73 330 18:23 27.03.2022
4603 Clouds -3 1009 56 10000 8.01 331 17:35 27.03.2022
4604 Clouds -3 1008 67 10000 8.39 330 15:47 27.03.2022
4605 Snow -4 1005 74 5155 8.88 329 13:57 27.03.2022
4606 Snow -4 1004 76 4812 9.2 329 12:58 27.03.2022
4607 Snow -4 1003 75 4436 9.14 329 11:33 27.03.2022
4608 Clouds -4 1001 75 4527 9.07 329 09:37 27.03.2022
4609 Snow -3 998 71 5728 8.4 326 06:58 27.03.2022
4610 Snow -2 995 70 5381 7.79 308 03:39 27.03.2022
4611 Clouds -1 992 69 9832 7.08 294 00:26 27.03.2022
4612 Clouds 0 992 70 6689 6.81 293 22:49 26.03.2022
4613 Clouds 0 992 71 9282 6.83 293 21:54 26.03.2022
4614 Clouds 0 991 71 10000 6.24 286 21:29 26.03.2022
4615 Clouds 2 992 64 10000 6.42 270 19:32 26.03.2022
4616 Clouds 2 991 64 10000 6.26 269 18:40 26.03.2022
4617 Clouds 2 991 75 10000 5.85 263 17:34 26.03.2022
4618 Clouds 3 992 57 10000 5.71 266 16:34 26.03.2022
4619 Clouds 4 992 69 10000 5.77 269 15:39 26.03.2022
4620 Clouds 3 992 66 10000 6.22 283 13:56 26.03.2022
4621 Clouds 3 992 67 10000 7.14 278 13:20 26.03.2022
4622 Clouds 4 993 67 5697 7.18 263 11:50 26.03.2022
4623 Rain 4 993 64 223 7.23 248 10:48 26.03.2022
4624 Clouds 6 995 84 10000 7.76 233 08:48 26.03.2022
4625 Clouds 5 998 90 10000 6.16 214 06:39 26.03.2022
4626 Clouds 4 1002 62 10000 5.3 223 05:30 26.03.2022
4627 Clouds 4 1007 62 7347 5.05 218 01:47 26.03.2022
4628 Clouds 5 1013 98 1490 4.32 225 22:21 25.03.2022
4629 Clouds 4 1014 99 219 3.57 225 20:58 25.03.2022
4630 Clouds 5 1015 99 174 3.11 228 20:26 25.03.2022
4631 Clouds 5 1016 99 147 2.85 238 19:18 25.03.2022
4632 Clouds 5 1016 99 147 2.85 238 18:34 25.03.2022
4633 Rain 6 1017 100 117 2.65 234 17:29 25.03.2022
4634 Clouds 6 1018 100 57 2.06 223 16:27 25.03.2022
4635 Clouds 7 1018 100 57 2.06 223 15:33 25.03.2022
4636 Clouds 8 1020 100 640 1.04 242 13:28 25.03.2022
4637 Clouds 6 1020 99 420 1.12 258 10:50 25.03.2022
4638 Clouds 4 1020 99 747 0.79 276 09:28 25.03.2022
4639 Clouds 3 1020 99 745 0.79 276 08:49 25.03.2022
4640 Clouds 2 1020 99 1117 0.79 294 07:35 25.03.2022
4641 Clouds 1 1020 93 10000 1.39 299 06:29 25.03.2022
4642 Clouds -1 1020 98 10000 1.59 270 02:37 25.03.2022
4643 Clouds 0 1020 93 10000 1.7 269 22:56 24.03.2022
4644 Clouds 1 1020 92 10000 1.87 280 21:56 24.03.2022
4645 Clouds 2 1020 95 10000 1.71 264 20:52 24.03.2022
4646 Clouds 4 1020 95 10000 1.67 245 19:49 24.03.2022
4647 Clouds 6 1020 93 10000 1.5 250 18:44 24.03.2022
4648 Clouds 9 1020 90 10000 1.23 251 17:33 24.03.2022
4649 Clouds 11 1019 88 10000 0.75 279 16:24 24.03.2022
4650 Clouds 11 1019 89 10000 0.36 288 14:51 24.03.2022
4651 Clouds 11 1019 90 10000 0.33 195 14:22 24.03.2022
4652 Clouds 11 1019 91 10000 0.69 162 13:33 24.03.2022
4653 Clouds 10 1019 92 10000 0.91 156 12:24 24.03.2022
4654 Clouds 10 1019 93 10000 0.76 151 10:48 24.03.2022
4655 Clouds 8 1019 94 10000 0.84 166 09:27 24.03.2022
4656 Clouds 6 1019 94 10000 0.84 166 08:32 24.03.2022
4657 Clouds -2 1019 95 7150 1.56 183 05:30 24.03.2022
4658 Clouds -2 1019 95 7150 1.56 183 05:30 24.03.2022
4659 Clouds -1 1021 99 327 1.18 212 23:59 23.03.2022
4660 Clouds -1 1022 99 523 1.19 215 22:19 23.03.2022
4661 Clouds 0 1022 99 627 1.14 235 21:21 23.03.2022
4662 Clouds 3 1023 99 618 1.28 251 19:56 23.03.2022
4663 Clouds 5 1023 99 620 1.42 249 19:25 23.03.2022
4664 Clouds 7 1024 98 549 1.45 247 17:48 23.03.2022
4665 Clouds 9 1024 99 502 1.4 243 17:24 23.03.2022
4666 Clouds 10 1025 98 1222 1.19 200 15:25 23.03.2022
4667 Clouds 10 1025 98 1223 1.19 200 14:47 23.03.2022
4668 Clouds 10 1025 95 7225 1.34 231 13:31 23.03.2022
4669 Clouds 9 1027 96 1475 2.06 285 11:24 23.03.2022
4670 Clouds 4 1029 98 871 2.1 287 08:29 23.03.2022
4671 Clouds -1 1029 94 10000 2.21 295 05:50 23.03.2022
4672 Clouds -1 1029 94 10000 2.21 295 05:50 23.03.2022
4673 Clouds 0 1030 97 10000 1.77 289 02:28 23.03.2022
4674 Clear 1 1031 96 10000 1.86 299 00:26 23.03.2022
4675 Clear 1 1031 94 10000 2.22 302 21:52 22.03.2022
4676 Clear 2 1031 93 10000 2.42 297 21:23 22.03.2022
4677 Clear 4 1031 93 10000 2.5 297 20:23 22.03.2022
4678 Clear 7 1032 92 10000 2.47 297 19:27 22.03.2022
4679 Clear 7 1032 92 10000 2.47 297 18:48 22.03.2022
4680 Clear 8 1032 92 10000 2.49 298 17:44 22.03.2022
4681 Clear 9 1032 90 10000 2.5 299 16:58 22.03.2022
4682 Clear 11 1032 87 10000 2.52 305 15:42 22.03.2022
4683 Clear 11 1032 79 10000 3.48 312 15:20 22.03.2022
4684 Clear 11 1032 79 10000 3.48 312 14:44 22.03.2022
4685 Clear 11 1032 75 10000 4.03 310 13:42 22.03.2022
4686 Clouds 11 1032 82 10000 3.57 298 12:34 22.03.2022
4687 Clouds 11 1032 88 10000 3.39 297 11:24 22.03.2022
4688 Clouds 8 1033 92 10000 3.28 293 09:42 22.03.2022
4689 Clear 3 1034 86 10000 3.31 274 07:35 22.03.2022
4690 Clear -2 1035 96 10000 2.38 263 03:58 22.03.2022
4691 Clouds 0 1036 97 10000 1.83 260 01:27 22.03.2022
4692 Clouds 0 1036 97 10000 1.22 272 23:19 21.03.2022
4693 Clouds 2 1036 96 10000 1.07 296 21:39 21.03.2022
4694 Clouds 3 1036 96 10000 1 317 20:44 21.03.2022
4695 Clouds 5 1036 96 10000 1.26 315 20:24 21.03.2022
4696 Clouds 6 1036 96 10000 1.26 315 19:48 21.03.2022
4697 Clear 7 1036 95 10000 1.39 321 19:22 21.03.2022
4698 Clear 8 1036 94 10000 1.86 329 17:36 21.03.2022
4699 Clear 9 1036 93 10000 1.97 330 16:59 21.03.2022
4700 Clear 9 1036 93 10000 1.97 330 16:35 21.03.2022
4701 Clear 10 1035 90 10000 2.38 340 15:45 21.03.2022
4702 Clear 11 1035 83 10000 3.5 345 14:47 21.03.2022
4703 Clouds 11 1034 81 10000 4.14 343 13:27 21.03.2022
4704 Clouds 10 1034 87 10000 3.86 340 12:22 21.03.2022
4705 Clouds 9 1034 87 10000 3.86 340 11:34 21.03.2022
4706 Clouds 7 1034 95 10000 4.01 331 09:54 21.03.2022
4707 Clouds 4 1034 65 10000 4.1 322 07:54 21.03.2022
4708 Clouds 2 1034 67 10000 3.66 313 06:31 21.03.2022
4709 Clear 1 1034 94 10000 3.55 315 02:33 21.03.2022
4710 Clear 4 1035 93 10000 3.93 325 23:32 20.03.2022
4711 Clear 4 1035 93 10000 3.93 325 22:42 20.03.2022
4712 Clear 5 1035 93 10000 4.25 325 21:49 20.03.2022
4713 Clear 5 1035 92 10000 4.1 325 21:20 20.03.2022
4714 Clear 5 1035 92 10000 4.1 325 20:42 20.03.2022
4715 Clear 4 1035 92 10000 4.11 324 19:57 20.03.2022
4716 Clear 4 1035 91 10000 3.97 319 19:26 20.03.2022
4717 Clear 6 1035 90 10000 3.79 316 17:51 20.03.2022
4718 Clear 6 1035 88 10000 3.64 315 17:29 20.03.2022
4719 Clear 7 1035 88 10000 3.64 315 16:46 20.03.2022
4720 Clear 8 1035 81 10000 4.49 303 15:27 20.03.2022
4721 Clear 8 1035 81 10000 4.75 298 13:49 20.03.2022
4722 Clouds 8 1036 85 10000 4.49 289 12:22 20.03.2022
4723 Clouds 6 1037 91 10000 4.3 293 10:42 20.03.2022
4724 Clouds 3 1038 97 10000 3.82 291 08:42 20.03.2022
4725 Clouds 0 1039 54 10000 3.54 302 06:55 20.03.2022
4726 Clear -3 1041 96 10000 3.02 301 04:23 20.03.2022
4727 Clear -2 1042 95 10000 2.24 300 01:29 20.03.2022
4728 Clear -2 1043 94 10000 2 310 00:37 20.03.2022
4729 Clear -1 1043 93 10000 2.05 308 22:56 19.03.2022
4730 Clouds 1 1043 94 10000 1.83 309 21:27 19.03.2022
4731 Clouds 2 1043 94 10000 1.83 309 20:39 19.03.2022
4732 Clouds 3 1043 95 10000 1.82 308 18:58 19.03.2022
4733 Clouds 4 1044 96 10000 1.58 293 18:23 19.03.2022
4734 Clouds 6 1044 95 10000 1.55 306 17:35 19.03.2022
4735 Clouds 8 1043 94 10000 1.54 304 15:43 19.03.2022
4736 Clouds 7 1044 90 10000 2.11 332 14:34 19.03.2022
4737 Clouds 7 1044 90 10000 1.85 338 12:59 19.03.2022
4738 Clouds 7 1044 90 10000 1.85 339 12:39 19.03.2022
4739 Clouds 7 1044 90 10000 1.91 344 11:51 19.03.2022
4740 Clouds 6 1044 92 10000 1.66 343 10:45 19.03.2022
4741 Clouds -3 1043 90 10000 1.27 348 06:29 19.03.2022
4742 Clouds -2 1042 53 10000 0.97 1 03:24 19.03.2022
4743 Clouds -4 1042 93 10000 0.78 356 02:29 19.03.2022
4744 Clouds -2 1043 92 10000 1.02 345 23:44 18.03.2022
4745 Clouds -2 1043 93 10000 1.3 357 22:27 18.03.2022
4746 Clouds -1 1043 93 10000 1.3 357 21:37 18.03.2022
4747 Clouds -1 1043 94 10000 1.47 344 19:51 18.03.2022
4748 Clouds 0 1043 90 10000 1.51 16 19:21 18.03.2022
4749 Clouds 3 1043 84 10000 1.84 27 17:50 18.03.2022
4750 Clouds 4 1043 85 10000 1.83 19 16:48 18.03.2022
4751 Clouds 5 1042 82 10000 2.34 13 15:26 18.03.2022
4752 Clouds 4 1043 82 10000 2.72 2 14:22 18.03.2022
4753 Clouds 3 1043 46 10000 3.19 343 12:27 18.03.2022
4754 Clouds 2 1043 82 10000 3.35 337 10:52 18.03.2022
4755 Clouds 0 1044 79 10000 3.35 323 09:29 18.03.2022
4756 Clouds -2 1044 82 10000 3.44 320 08:30 18.03.2022
4757 Clouds -7 1044 90 10000 2.6 300 06:35 18.03.2022
4758 Clouds -9 1045 95 10000 1.82 285 02:51 18.03.2022
4759 Clouds -8 1046 96 10000 1.48 300 00:23 18.03.2022
4760 Clouds -7 1045 95 10000 1.32 301 23:24 17.03.2022
4761 Clouds -5 1045 95 10000 1.22 306 22:24 17.03.2022
4762 Clouds -5 1045 95 10000 1.22 306 21:48 17.03.2022
4763 Clouds -4 1045 94 10000 0.91 315 21:23 17.03.2022
4764 Clouds -4 1045 94 10000 0.91 315 20:44 17.03.2022
4765 Clouds -3 1045 94 10000 0.88 339 19:48 17.03.2022
4766 Clouds -3 1044 93 10000 1.06 1 19:28 17.03.2022
4767 Clouds -2 1044 93 10000 1.05 1 18:46 17.03.2022
4768 Clouds -1 1044 90 10000 1.31 28 16:58 17.03.2022
4769 Clouds 1 1044 86 10000 1.32 27 15:44 17.03.2022
4770 Clouds 0 1043 77 10000 1.83 31 15:25 17.03.2022
4771 Clouds 0 1043 77 10000 1.83 31 14:38 17.03.2022
4772 Clouds 0 1043 47 10000 2.49 45 12:55 17.03.2022
4773 Clouds 0 1043 48 10000 2.62 56 12:25 17.03.2022
4774 Clouds -1 1044 48 10000 2.94 60 11:29 17.03.2022
4775 Clouds -2 1044 51 10000 3.18 62 10:30 17.03.2022
4776 Clouds -3 1044 55 10000 3.32 60 08:40 17.03.2022
4777 Clouds -5 1044 57 10000 2.99 56 07:36 17.03.2022
4778 Clouds -8 1043 92 10000 2.12 43 05:47 17.03.2022
4779 Clouds -7 1042 94 10000 1.92 27 01:37 17.03.2022
4780 Clouds -6 1042 93 10000 1.91 29 23:56 16.03.2022
4781 Clouds -5 1041 93 10000 2.06 37 22:50 16.03.2022
4782 Clouds -5 1041 92 10000 2.12 37 22:32 16.03.2022
4783 Clouds -4 1041 92 10000 2.12 37 21:46 16.03.2022
4784 Clouds -4 1041 90 10000 2.13 34 20:26 16.03.2022
4785 Clouds -3 1040 89 10000 2.03 40 19:21 16.03.2022
4786 Clouds -3 1041 89 10000 2.27 36 18:40 16.03.2022
4787 Clouds -2 1040 89 10000 2.15 33 17:43 16.03.2022
4788 Clouds -2 1040 87 10000 1.79 43 17:25 16.03.2022
4789 Clouds -1 1039 78 10000 3.03 60 15:56 16.03.2022
4790 Clouds -1 1039 74 10000 3.62 61 14:31 16.03.2022
4791 Clouds -1 1039 66 10000 3.36 58 13:32 16.03.2022
4792 Clouds 0 1039 57 10000 2.75 64 11:58 16.03.2022
4793 Clouds -2 1039 66 10000 2.63 73 11:21 16.03.2022
4794 Clouds -2 1039 70 10000 2.5 78 10:27 16.03.2022
4795 Clouds -2 1039 60 10000 2.5 78 09:55 16.03.2022
4796 Clouds -6 1039 68 10000 2.32 80 06:33 16.03.2022
4797 Clear -7 1037 97 10000 1.46 73 02:29 16.03.2022
4798 Clear -4 1037 94 10000 1.81 68 22:51 15.03.2022
4799 Clear -5 1037 93 10000 1.89 57 22:32 15.03.2022
4800 Clear -4 1036 91 10000 1.88 51 20:36 15.03.2022
4801 Clouds -3 1036 88 10000 2.38 60 19:27 15.03.2022
4802 Clouds 0 1036 86 10000 2.47 61 17:35 15.03.2022
4803 Clouds 0 1035 80 10000 2.03 46 16:34 15.03.2022
4804 Clouds 1 1035 70 10000 2.58 35 15:21 15.03.2022
4805 Clouds 1 1035 70 10000 2.58 35 14:46 15.03.2022
4806 Clouds 1 1035 65 10000 2.93 29 13:55 15.03.2022
4807 Clouds 1 1035 56 10000 3.22 24 12:46 15.03.2022
4808 Clear 0 1035 57 10000 3.13 25 11:32 15.03.2022
4809 Clear -1 1035 61 10000 3.2 30 09:54 15.03.2022
4810 Clear -2 1035 66 10000 3.18 35 08:49 15.03.2022
4811 Clear -3 1035 66 10000 3.18 36 07:53 15.03.2022
4812 Clear -3 1035 67 10000 3.15 35 07:35 15.03.2022
4813 Clear -4 1035 63 10000 3.05 23 05:42 15.03.2022
4814 Clouds -2 1032 88 10000 3.63 16 23:58 14.03.2022
4815 Clouds -2 1031 86 10000 4.05 16 23:25 14.03.2022
4816 Clouds -2 1030 66 10000 4.02 10 22:37 14.03.2022
4817 Clouds -1 1030 65 10000 4.02 10 21:49 14.03.2022
4818 Clouds -1 1030 80 10000 4.1 8 20:54 14.03.2022
4819 Clouds 0 1029 64 10000 4.8 13 20:23 14.03.2022
4820 Clouds 1 1028 64 10000 4.91 13 19:21 14.03.2022
4821 Clouds 2 1028 79 10000 4.68 7 17:55 14.03.2022
4822 Clouds 2 1028 83 10000 4.28 4 17:25 14.03.2022
4823 Clouds 3 1027 86 10000 3.82 359 16:26 14.03.2022
4824 Clouds 4 1027 83 10000 3.39 346 14:41 14.03.2022
4825 Clouds 3 1026 77 10000 4.35 338 12:54 14.03.2022
4826 Clouds 3 1026 84 10000 3.78 347 10:54 14.03.2022
4827 Clouds 2 1026 90 10000 3.74 4 09:56 14.03.2022
4828 Snow 1 1025 98 1470 3.34 345 09:22 14.03.2022
4829 Snow 1 1025 98 1470 3.34 345 08:57 14.03.2022
4830 Clouds 2 1025 78 673 2.65 319 07:43 14.03.2022
4831 Clouds 1 1025 90 10000 3.25 350 05:46 14.03.2022
4832 Snow 1 1025 98 49 3.51 330 02:51 14.03.2022
4833 Clouds 1 1024 76 35 3.69 320 01:29 14.03.2022
4834 Snow 1 1025 74 33 4.12 310 22:56 13.03.2022
4835 Snow 2 1025 72 39 4.23 307 21:40 13.03.2022
4836 Snow 2 1025 70 88 4.38 304 21:19 13.03.2022
4837 Clouds 1 1025 97 88 4.38 304 20:43 13.03.2022
4838 Snow 1 1025 97 597 4.64 298 20:20 13.03.2022
4839 Clouds 1 1025 97 597 4.64 298 19:40 13.03.2022
4840 Clouds 1 1025 96 659 4.91 290 19:19 13.03.2022
4841 Clouds 1 1025 95 1287 4.89 288 18:39 13.03.2022
4842 Clouds 1 1025 93 2726 5 283 17:47 13.03.2022
4843 Clouds 2 1026 67 4801 4.84 281 17:22 13.03.2022
4844 Clouds 2 1026 66 4800 4.84 281 16:43 13.03.2022
4845 Clouds 1 1026 89 10000 4.86 283 16:20 13.03.2022
4846 Clouds 2 1026 64 10000 4.78 279 15:33 13.03.2022
4847 Clouds 2 1026 64 10000 4.57 278 13:53 13.03.2022
4848 Clouds 2 1027 65 10000 4.13 282 13:26 13.03.2022
4849 Clouds 1 1027 91 10000 3.6 283 12:20 13.03.2022
4850 Clouds 0 1027 91 10000 3.43 286 11:36 13.03.2022
4851 Clouds 0 1027 91 10000 3.43 286 10:48 13.03.2022
4852 Clouds 0 1027 87 10000 3.38 280 10:25 13.03.2022
4853 Clouds -1 1027 87 10000 3.38 280 09:41 13.03.2022
4854 Clouds -2 1028 87 10000 2.82 284 08:48 13.03.2022
4855 Clouds -3 1028 89 10000 2.44 292 07:57 13.03.2022
4856 Clouds -3 1028 70 10000 1.54 296 05:55 13.03.2022
4857 Clouds -3 1028 95 10000 0.84 337 03:26 13.03.2022
4858 Clouds -3 1028 96 10000 1.3 7 00:48 13.03.2022
4859 Clouds -3 1027 96 10000 1.86 24 22:47 12.03.2022
4860 Clouds -2 1027 94 10000 2.02 19 20:59 12.03.2022
4861 Clouds -2 1026 71 10000 2.25 25 19:57 12.03.2022
4862 Clouds -2 1026 70 10000 2.25 25 19:39 12.03.2022
4863 Clouds -2 1026 93 10000 2.66 30 18:31 12.03.2022
4864 Clouds -1 1026 68 10000 2.66 30 17:43 12.03.2022
4865 Clouds -1 1025 66 10000 2.83 26 16:25 12.03.2022
4866 Clouds -2 1024 90 8298 2.94 22 15:24 12.03.2022
4867 Clouds -2 1024 90 8300 2.94 22 14:52 12.03.2022
4868 Clouds -2 1024 88 7155 3.13 20 13:53 12.03.2022
4869 Clouds -2 1023 84 10000 3.16 20 12:25 12.03.2022
4870 Clouds -2 1023 84 10000 3.16 20 11:51 12.03.2022
4871 Clouds -2 1023 83 10000 3.15 17 11:20 12.03.2022
4872 Clouds -3 1022 86 10000 2.9 10 09:58 12.03.2022
4873 Clouds -3 1022 86 10000 2.9 10 09:39 12.03.2022
4874 Clouds -4 1023 92 1530 2.27 346 07:51 12.03.2022
4875 Clouds -5 1023 97 2691 1.55 299 05:44 12.03.2022
4876 Clouds -6 1025 96 10000 1.67 273 00:24 12.03.2022
4877 Clouds -6 1026 95 10000 1.84 272 23:37 11.03.2022
4878 Clouds -5 1026 94 10000 1.92 262 21:48 11.03.2022
4879 Clouds -5 1027 93 10000 1.9 254 20:59 11.03.2022
4880 Clouds -5 1027 93 10000 1.9 254 20:40 11.03.2022
4881 Clouds -5 1027 93 10000 1.87 250 20:19 11.03.2022
4882 Clouds -4 1027 93 10000 1.88 248 19:28 11.03.2022
4883 Clouds -2 1028 93 10000 1.69 248 17:38 11.03.2022
4884 Clouds -2 1028 92 10000 1.62 258 17:19 11.03.2022
4885 Clear 0 1029 90 10000 1.55 264 15:57 11.03.2022
4886 Clear 0 1029 81 10000 2.13 274 15:29 11.03.2022
4887 Clouds 0 1030 48 10000 2.58 274 13:27 11.03.2022
4888 Clouds -1 1030 49 10000 2.58 270 12:30 11.03.2022
4889 Clouds -1 1031 50 10000 2.57 278 11:57 11.03.2022
4890 Clouds -3 1033 78 10000 1.96 282 10:24 11.03.2022
4891 Clouds -4 1033 83 10000 1.95 292 09:33 11.03.2022
4892 Clouds -7 1034 87 10000 1.57 295 08:27 11.03.2022
4893 Clouds -7 1034 58 10000 1.57 295 07:46 11.03.2022
4894 Clouds -12 1035 95 10000 1.32 319 06:25 11.03.2022
4895 Clouds -12 1036 97 7164 1.22 314 04:24 11.03.2022
4896 Clouds -10 1037 97 8431 1.75 343 00:39 11.03.2022
4897 Clouds -8 1037 96 10000 1.75 346 22:32 10.03.2022
4898 Clouds -7 1037 96 10000 1.8 351 21:53 10.03.2022
4899 Clouds -7 1037 96 10000 1.94 355 21:24 10.03.2022
4900 Clouds -7 1037 94 10000 2.22 6 20:18 10.03.2022
4901 Clouds -7 1037 93 10000 2.56 8 18:56 10.03.2022
4902 Clouds -6 1037 91 10000 2.75 7 17:37 10.03.2022
4903 Clouds -6 1037 88 10000 2.88 6 16:52 10.03.2022
4904 Clouds -5 1036 76 10000 3.91 25 15:27 10.03.2022
4905 Clouds -4 1036 53 10000 4.35 29 13:41 10.03.2022
4906 Clouds -5 1036 54 10000 4.58 28 12:35 10.03.2022
4907 Clouds -6 1037 56 10000 4.63 37 11:28 10.03.2022
4908 Clouds -8 1038 59 10000 4.78 34 09:28 10.03.2022
4909 Clear -11 1038 80 10000 4.73 30 07:47 10.03.2022
4910 Clear -14 1037 90 10000 3.98 27 05:30 10.03.2022
4911 Clouds -13 1035 92 10000 3.7 23 01:59 10.03.2022
4912 Clouds -11 1034 91 10000 3.7 30 23:32 09.03.2022
4913 Clouds -11 1033 90 10000 3.82 36 22:20 09.03.2022
4914 Clouds -10 1033 90 10000 3.82 36 21:36 09.03.2022
4915 Clear -10 1033 89 10000 4.14 35 20:31 09.03.2022
4916 Clouds -8 1032 85 10000 4.32 37 18:41 09.03.2022
4917 Clouds -8 1030 83 10000 4.39 44 17:28 09.03.2022
4918 Clouds -7 1030 79 10000 4.33 50 16:36 09.03.2022
4919 Clouds -6 1029 75 10000 4.48 51 15:32 09.03.2022
4920 Clouds -6 1028 73 10000 4.62 48 13:58 09.03.2022
4921 Clouds -6 1027 69 10000 4.7 47 12:59 09.03.2022
4922 Clouds -6 1027 68 10000 4.73 47 12:19 09.03.2022
4923 Clouds -6 1027 68 10000 4.73 47 11:36 09.03.2022
4924 Clouds -6 1027 70 10000 4.44 52 10:39 09.03.2022
4925 Clouds -8 1026 78 10000 4.27 52 09:22 09.03.2022
4926 Clouds -8 1026 78 10000 4.27 52 08:42 09.03.2022
4927 Clouds -10 1025 67 1022 3.49 46 04:47 09.03.2022
4928 Clouds -8 1023 70 1077 3.07 43 00:52 09.03.2022
4929 Clouds -7 1023 71 1398 3.33 53 23:18 08.03.2022
4930 Clouds -7 1023 71 1398 3.33 53 22:44 08.03.2022
4931 Snow -6 1022 71 398 3.61 46 21:26 08.03.2022
4932 Snow -6 1022 94 398 3.61 46 20:54 08.03.2022
4933 Clouds -6 1022 94 263 3.74 34 19:55 08.03.2022
4934 Clouds -5 1022 74 826 3.64 42 18:45 08.03.2022
4935 Clouds -6 1021 93 1059 3.77 41 17:50 08.03.2022
4936 Clouds -6 1021 91 1921 3.96 37 16:33 08.03.2022
4937 Clouds -5 1019 85 10000 4.26 38 14:22 08.03.2022
4938 Clouds -5 1018 83 10000 4.42 41 12:44 08.03.2022
4939 Clouds -5 1018 80 10000 4.54 39 11:53 08.03.2022
4940 Clouds -4 1018 72 10000 4.54 39 11:34 08.03.2022
4941 Clouds -5 1018 83 10000 4.84 40 10:22 08.03.2022
4942 Snow -5 1017 90 674 4.99 36 08:28 08.03.2022
4943 Clouds -4 1015 80 670 4.29 26 05:47 08.03.2022
4944 Snow -3 1013 79 409 4.12 17 00:43 08.03.2022
4945 Snow -2 1011 97 2513 2.09 358 22:23 07.03.2022
4946 Snow -2 1011 97 10000 1.52 343 21:35 07.03.2022
4947 Snow -2 1011 97 10000 1.52 343 20:53 07.03.2022
4948 Clouds -1 1010 96 10000 1.49 327 20:22 07.03.2022
4949 Clouds -1 1010 96 10000 1.49 327 19:38 07.03.2022
4950 Clouds -1 1010 94 10000 1.6 279 18:47 07.03.2022
4951 Clouds -1 1010 93 10000 1.53 260 17:58 07.03.2022
4952 Clouds 0 1010 94 10000 1.49 257 16:56 07.03.2022
4953 Clouds 1 1010 65 10000 1.49 257 16:30 07.03.2022
4954 Clouds 1 1010 85 10000 2.68 306 14:31 07.03.2022
4955 Clouds 1 1009 83 10000 2.92 295 12:33 07.03.2022
4956 Clouds 0 1009 82 10000 3.06 296 10:45 07.03.2022
4957 Clouds 0 1010 82 9071 3.33 295 10:24 07.03.2022
4958 Clouds -2 1010 88 10000 2.93 292 06:35 07.03.2022
4959 Clouds -1 1009 66 3573 3.39 299 00:24 07.03.2022
4960 Clouds -1 1009 65 3574 3.39 299 23:58 06.03.2022
4961 Clouds -2 1009 93 2522 3.77 285 22:58 06.03.2022
4962 Clouds -2 1010 92 5695 4.13 280 22:24 06.03.2022
4963 Clouds -2 1010 91 10000 4.51 275 20:56 06.03.2022
4964 Clouds -2 1010 59 10000 4.81 273 20:28 06.03.2022
4965 Clouds -1 1010 59 10000 5.03 271 19:29 06.03.2022
4966 Clouds -2 1011 85 10000 5.36 270 18:25 06.03.2022
4967 Clouds -2 1011 84 10000 5.46 267 17:22 06.03.2022
4968 Clouds -1 1011 57 10000 5.46 267 16:52 06.03.2022
4969 Clouds -2 1011 83 10000 5.6 263 16:20 06.03.2022
4970 Clouds 0 1012 81 10000 5.42 259 15:19 06.03.2022
4971 Clouds 0 1012 81 10000 5.42 259 14:41 06.03.2022
4972 Clouds 0 1012 79 10000 5.33 259 13:47 06.03.2022
4973 Clouds -1 1013 78 10000 5.18 257 12:36 06.03.2022
4974 Clouds -1 1014 65 10000 4.77 266 11:27 06.03.2022
4975 Clouds -2 1014 67 10000 4.77 266 10:30 06.03.2022
4976 Clouds -3 1016 70 10000 4.46 278 08:51 06.03.2022
4977 Clouds -4 1017 71 10000 4.18 279 08:27 06.03.2022
4978 Clouds -8 1018 74 10000 3.11 277 06:33 06.03.2022
4979 Clouds -6 1019 70 10000 2.93 312 01:36 06.03.2022
4980 Clouds -5 1019 91 10000 2.36 314 00:33 06.03.2022
4981 Clouds -4 1019 91 10000 2.39 327 23:46 05.03.2022
4982 Clouds -4 1019 90 10000 2.56 334 23:18 05.03.2022
4983 Clouds -3 1019 89 10000 2.54 339 22:31 05.03.2022
4984 Clouds -3 1019 68 10000 2.85 351 21:24 05.03.2022
4985 Clouds -2 1019 68 10000 3.34 354 19:56 05.03.2022
4986 Clouds -2 1019 68 10000 3.82 4 18:56 05.03.2022
4987 Clouds -2 1019 68 10000 3.82 4 18:36 05.03.2022
4988 Clouds -2 1019 67 10000 4.64 1 16:58 05.03.2022
4989 Clouds -1 1018 67 10000 4.91 356 15:49 05.03.2022
4990 Clouds -1 1018 66 10000 5.1 355 14:53 05.03.2022
4991 Clouds -1 1017 66 10000 5.09 356 14:34 05.03.2022
4992 Clouds -1 1017 66 10000 5.18 357 13:35 05.03.2022
4993 Clouds -1 1017 66 10000 5.34 0 12:33 05.03.2022
4994 Clouds -1 1017 66 10000 5.23 2 11:20 05.03.2022
4995 Clouds -1 1017 81 10000 5.23 2 10:48 05.03.2022
4996 Clouds -1 1016 81 10000 5.62 5 09:28 05.03.2022
4997 Clouds -2 1016 83 10000 5.69 5 08:24 05.03.2022
4998 Clouds -2 1016 91 5188 5.43 356 06:29 05.03.2022
4999 Clouds -1 1015 90 10000 5.22 356 04:54 05.03.2022
5000 Clouds -1 1014 94 10000 4.07 359 23:59 04.03.2022
5001 Clouds -1 1014 94 7359 3.92 4 22:45 04.03.2022
5002 Clouds -1 1014 92 10000 3.9 5 22:24 04.03.2022
5003 Clouds 0 1014 68 10000 3.9 5 21:42 04.03.2022
5004 Clouds 0 1014 68 10000 4.18 8 20:36 04.03.2022
5005 Clouds 0 1014 68 10000 4.51 13 19:36 04.03.2022
5006 Clouds 0 1013 68 10000 4.15 13 18:47 04.03.2022
5007 Clouds -1 1013 68 10000 4 15 18:27 04.03.2022
5008 Clouds -1 1013 68 10000 4.63 18 17:29 04.03.2022
5009 Clouds -1 1013 67 10000 4.6 16 15:48 04.03.2022
5010 Clouds -1 1013 78 10000 4.82 19 14:45 04.03.2022
5011 Clouds -1 1012 79 10000 4.75 13 13:34 04.03.2022
5012 Clouds -2 1012 81 10000 4.7 17 11:59 04.03.2022
5013 Clouds -2 1012 81 10000 4.69 17 11:37 04.03.2022
5014 Clouds -3 1013 85 10000 4.94 13 10:24 04.03.2022
5015 Clouds -4 1013 87 10000 4.25 14 09:27 04.03.2022
5016 Clouds -4 1013 71 10000 4.32 14 07:47 04.03.2022
5017 Clouds -5 1012 94 6769 3.56 4 05:49 04.03.2022
5018 Clouds -5 1012 88 10000 1.01 24 01:23 04.03.2022
5019 Clouds -2 1012 58 10000 1.15 346 23:31 03.03.2022
5020 Clouds -3 1012 83 10000 1.5 356 22:18 03.03.2022
5021 Clouds -1 1012 57 10000 1.5 356 21:36 03.03.2022
5022 Clouds -1 1012 56 10000 1.62 341 20:44 03.03.2022
5023 Clouds 0 1012 55 10000 0.61 344 19:22 03.03.2022
5024 Clouds 0 1012 90 10000 0.61 324 18:25 03.03.2022
5025 Clouds 2 1012 86 10000 1.16 302 17:31 03.03.2022
5026 Clouds 3 1012 86 10000 1.16 302 16:41 03.03.2022
5027 Clouds 3 1012 86 10000 1.16 302 16:41 03.03.2022
5028 Clouds 4 1012 85 10000 1.5 285 15:44 03.03.2022
5029 Clouds 5 1012 86 10000 1.6 268 14:44 03.03.2022
5030 Clouds 5 1012 86 10000 1.64 261 14:26 03.03.2022
5031 Clouds 5 1012 86 10000 1.92 245 12:35 03.03.2022
5032 Clouds 3 1013 90 10000 2.08 244 11:26 03.03.2022
5033 Clouds 1 1013 90 10000 2.08 244 10:38 03.03.2022
5034 Clouds -2 1013 93 10000 2.07 236 08:42 03.03.2022
5035 Clouds -5 1014 95 10000 1.97 235 06:57 03.03.2022
5036 Clouds -5 1015 96 10000 1.71 234 05:44 03.03.2022
5037 Clouds -3 1018 96 10000 1.56 229 00:30 03.03.2022
5038 Clouds -2 1018 96 10000 1.29 238 23:18 02.03.2022
5039 Clouds -2 1018 96 10000 1.29 238 22:42 02.03.2022
5040 Clouds -2 1019 95 10000 1.67 227 21:22 02.03.2022
5041 Clouds -1 1020 96 10000 1.48 224 20:30 02.03.2022
5042 Clouds 0 1020 96 10000 1.48 224 19:45 02.03.2022
5043 Clouds 0 1020 96 10000 1.42 234 19:26 02.03.2022
5044 Clouds 1 1020 96 10000 1.42 234 18:39 02.03.2022
5045 Clouds 1 1020 96 10000 1.36 219 18:39 02.03.2022
5046 Clouds 1 1021 96 10000 1.33 204 17:45 02.03.2022
5047 Clouds 3 1021 96 10000 1.43 188 16:54 02.03.2022
5048 Clouds 3 1021 96 10000 1.43 188 16:36 02.03.2022
5049 Clouds 6 1022 95 10000 0.99 171 14:42 02.03.2022
5050 Clouds 6 1024 92 10000 1.28 202 13:23 02.03.2022
5051 Clouds 6 1024 91 10000 1.34 206 12:40 02.03.2022
5052 Clouds 3 1024 91 10000 1.27 223 11:39 02.03.2022
5053 Clouds 3 1025 91 10000 1.25 238 11:18 02.03.2022
5054 Clouds 0 1026 91 10000 1.26 262 09:41 02.03.2022
5055 Clouds -3 1027 91 10000 1.3 271 08:51 02.03.2022
5056 Clouds -6 1028 96 10000 1.06 266 07:25 02.03.2022
5057 Clouds -9 1028 98 8111 1.22 266 05:44 02.03.2022
5058 Clouds -9 1028 98 8111 1.22 266 05:44 02.03.2022
5059 Clouds -7 1031 96 10000 1.67 250 00:58 02.03.2022
5060 Clouds -7 1031 97 10000 1.44 254 23:46 01.03.2022
5061 Clouds -5 1031 97 10000 1.38 263 22:45 01.03.2022
5062 Clouds -5 1031 97 10000 1.42 275 21:56 01.03.2022
5063 Clouds -4 1032 97 10000 1.25 287 21:23 01.03.2022
5064 Clouds -5 1032 96 10000 1.23 299 20:29 01.03.2022
5065 Clouds -2 1032 95 10000 1.35 280 19:24 01.03.2022
5066 Clouds -1 1032 95 10000 1.26 273 18:37 01.03.2022
5067 Clouds -1 1032 94 10000 1.19 255 18:18 01.03.2022
5068 Clouds 0 1032 93 10000 1.07 245 17:19 01.03.2022
5069 Clouds 3 1032 92 10000 1 247 16:31 01.03.2022
5070 Clouds 4 1032 91 10000 0.78 257 15:32 01.03.2022
5071 Clouds 4 1032 84 10000 1.11 266 14:34 01.03.2022
5072 Clouds 4 1032 84 10000 1.11 266 13:52 01.03.2022
5073 Clouds 3 1033 79 10000 1.15 280 13:24 01.03.2022
5074 Clouds 3 1033 79 10000 1.22 287 12:30 01.03.2022
5075 Clouds 1 1034 79 10000 1.21 284 10:34 01.03.2022
5076 Clouds -3 1034 67 10000 1.14 289 08:41 01.03.2022
5077 Clouds -6 1035 87 10000 0.88 280 07:44 01.03.2022
5078 Clouds -10 1035 97 10000 1.28 289 05:49 01.03.2022
5079 Clouds -9 1035 97 6987 1.3 307 02:33 01.03.2022
5080 Clouds -8 1035 97 7381 1.17 286 00:34 01.03.2022
5081 Clouds -7 1036 96 10000 1.57 322 23:29 28.02.2022
5082 Clouds -5 1036 96 10000 1.46 315 22:18 28.02.2022
5083 Clouds -4 1036 96 10000 1.6 331 21:25 28.02.2022
5084 Clear -2 1035 96 10000 1.33 313 19:55 28.02.2022
5085 Clear -2 1035 96 10000 1.33 313 19:36 28.02.2022
5086 Clear -2 1036 94 10000 1.76 347 18:43 28.02.2022
5087 Clear -1 1035 94 10000 1.82 340 17:33 28.02.2022
5088 Clear 0 1035 93 10000 1.59 342 16:34 28.02.2022
5089 Clear 0 1035 89 10000 1.43 345 15:24 28.02.2022
5090 Clouds 1 1035 81 10000 2.21 9 14:32 28.02.2022
5091 Clouds 1 1035 81 10000 2.21 9 13:48 28.02.2022
5092 Clouds 1 1035 69 10000 2.91 10 12:48 28.02.2022
5093 Clouds 0 1035 76 10000 3.63 5 11:58 28.02.2022
5094 Clouds 0 1035 78 10000 3.63 6 10:49 28.02.2022
5095 Clouds -1 1036 81 10000 3.31 11 10:21 28.02.2022
5096 Clouds -1 1036 77 10000 3.31 11 09:36 28.02.2022
5097 Clouds -4 1036 86 10000 3.12 18 08:44 28.02.2022
5098 Clouds -6 1036 91 10000 2.93 21 07:43 28.02.2022
5099 Clouds -7 1036 96 10000 2.51 8 05:25 28.02.2022
5100 Clouds -7 1036 95 10000 2.64 6 04:27 28.02.2022
5101 Clouds -5 1036 94 10000 2.78 8 23:45 27.02.2022
5102 Clouds -4 1036 95 10000 2.45 6 22:36 27.02.2022
5103 Clouds -4 1036 93 10000 2.87 11 21:55 27.02.2022
5104 Clouds -4 1036 94 10000 2.63 5 21:35 27.02.2022
5105 Clouds -3 1036 94 10000 2.63 5 20:40 27.02.2022
5106 Clouds -3 1036 93 10000 2.88 14 19:59 27.02.2022
5107 Clouds -3 1036 92 10000 3.33 11 19:28 27.02.2022
5108 Clouds -3 1036 92 10000 3.33 11 18:56 27.02.2022
5109 Clouds -2 1036 91 10000 4 8 17:57 27.02.2022
5110 Clouds -2 1036 69 10000 3.73 3 17:34 27.02.2022
5111 Clouds -2 1035 87 10000 3.3 1 16:22 27.02.2022
5112 Clouds 0 1034 66 10000 3.94 8 14:28 27.02.2022
5113 Clouds 0 1034 67 10000 3.85 8 12:35 27.02.2022
5114 Clouds 0 1034 68 10000 4.01 12 11:36 27.02.2022
5115 Clouds -2 1034 77 10000 4.01 12 10:36 27.02.2022
5116 Clouds -2 1034 80 10000 4.17 16 09:58 27.02.2022
5117 Clouds -2 1034 84 10000 4.17 16 09:23 27.02.2022
5118 Clouds -2 1034 84 10000 4.17 16 08:44 27.02.2022
5119 Clouds -1 1033 94 10000 3.99 359 05:45 27.02.2022
5120 Clouds 0 1030 94 10000 3.63 0 03:26 27.02.2022
5121 Clouds 1 1027 94 10000 2.95 355 23:52 26.02.2022
5122 Clouds 1 1027 94 10000 3.01 351 22:42 26.02.2022
5123 Clouds 1 1026 94 10000 2.65 324 21:29 26.02.2022
5124 Clouds 2 1026 94 10000 2.65 324 20:43 26.02.2022
5125 Clouds 1 1025 94 10000 2.51 309 19:56 26.02.2022
5126 Clouds 1 1025 94 10000 2.51 309 19:33 26.02.2022
5127 Clouds 2 1024 93 10000 2.11 275 18:33 26.02.2022
5128 Clouds 2 1024 93 10000 2.11 275 17:36 26.02.2022
5129 Clouds 3 1023 88 10000 2.37 282 16:39 26.02.2022
5130 Clouds 3 1023 85 10000 2.54 287 15:38 26.02.2022
5131 Clouds 3 1023 83 10000 3.07 290 15:19 26.02.2022
5132 Clouds 2 1023 83 10000 3.07 290 14:42 26.02.2022
5133 Clouds 2 1022 85 10000 3.47 290 13:53 26.02.2022
5134 Clouds 2 1022 77 10000 3.6 286 12:53 26.02.2022
5135 Clouds 1 1021 92 10000 3.43 280 11:53 26.02.2022
5136 Clouds 1 1021 92 10000 3.04 278 11:26 26.02.2022
5137 Clouds 1 1021 93 10000 3.22 276 10:19 26.02.2022
5138 Clouds 0 1020 80 10000 2.99 267 08:35 26.02.2022
5139 Clouds -1 1019 81 10000 2.33 235 06:40 26.02.2022
5140 Clouds -3 1017 79 10000 3.44 191 00:26 26.02.2022
5141 Clouds -2 1017 93 10000 3.59 189 22:44 25.02.2022
5142 Clouds -1 1018 77 10000 4.03 189 21:33 25.02.2022
5143 Clouds -1 1018 91 10000 4.35 189 20:57 25.02.2022
5144 Clouds -1 1018 90 10000 4.51 188 20:28 25.02.2022
5145 Clouds 0 1018 91 10000 4.58 181 18:35 25.02.2022
5146 Clouds 1 1018 90 10000 4.77 172 17:21 25.02.2022
5147 Clouds 1 1018 88 10000 4.99 172 16:20 25.02.2022
5148 Clouds 3 1018 88 10000 4.99 172 15:42 25.02.2022
5149 Clouds 3 1018 87 10000 5.14 176 15:20 25.02.2022
5150 Clouds 4 1018 87 10000 5.14 176 14:41 25.02.2022
5151 Clouds 3 1019 89 10000 5.21 176 13:36 25.02.2022
5152 Clouds 4 1019 89 10000 5.24 175 12:55 25.02.2022
5153 Clouds 3 1020 76 10000 5.09 182 11:28 25.02.2022
5154 Clouds 2 1021 79 10000 5.16 187 10:29 25.02.2022
5155 Clouds 1 1021 79 10000 5.16 187 09:57 25.02.2022
5156 Clouds 1 1021 81 10000 4.97 186 09:18 25.02.2022
5157 Clouds -2 1021 82 10000 4.94 192 07:41 25.02.2022
5158 Clouds -4 1021 85 10000 3.96 197 05:48 25.02.2022
5159 Clouds -3 1022 76 10000 5.16 215 04:32 25.02.2022
5160 Clouds -2 1023 78 10000 4.09 212 23:47 24.02.2022
5161 Clouds -2 1024 77 10000 4.69 220 21:56 24.02.2022
5162 Clouds -2 1024 77 10000 4.69 220 21:38 24.02.2022
5163 Clouds -2 1024 77 10000 4.16 217 21:19 24.02.2022
5164 Clouds -2 1024 77 10000 2.73 201 19:42 24.02.2022
5165 Clouds -1 1024 76 10000 2.51 197 18:44 24.02.2022
5166 Clouds -2 1024 90 10000 2.36 199 18:19 24.02.2022
5167 Clouds -1 1024 89 10000 2.08 212 17:34 24.02.2022
5168 Clouds -1 1024 89 10000 2.08 212 16:50 24.02.2022
5169 Clouds -1 1024 86 10000 2.05 229 16:24 24.02.2022
5170 Clouds 1 1024 83 10000 2.04 235 14:56 24.02.2022
5171 Clouds 1 1024 83 10000 2.04 235 14:36 24.02.2022
5172 Clouds 0 1024 82 10000 2.12 254 13:40 24.02.2022
5173 Clouds 0 1024 79 10000 2.46 249 12:54 24.02.2022
5174 Clouds 0 1024 81 10000 1.96 246 10:41 24.02.2022
5175 Clouds -1 1024 88 10000 1.88 290 09:24 24.02.2022
5176 Clouds -1 1024 88 10000 1.88 290 08:41 24.02.2022
5177 Clouds -1 1023 96 10000 1.53 285 05:59 24.02.2022
5178 Clouds -1 1020 96 10000 1.49 281 02:59 24.02.2022
5179 Clouds -1 1019 96 10000 1.4 279 23:45 23.02.2022
5180 Clouds -1 1017 95 10000 1.65 307 21:53 23.02.2022
5181 Clouds -1 1016 95 10000 1.81 305 20:32 23.02.2022
5182 Clouds -1 1015 93 10000 2.5 311 19:55 23.02.2022
5183 Clouds 0 1015 91 10000 3.17 295 18:57 23.02.2022
5184 Clouds 0 1014 93 7833 3.5 276 17:46 23.02.2022
5185 Clouds 0 1011 89 9406 4.36 280 15:28 23.02.2022
5186 Clouds 1 1008 85 10000 4.6 278 13:34 23.02.2022
5187 Clouds 1 1007 79 10000 5.02 282 12:28 23.02.2022
5188 Clouds 1 1007 89 10000 4.73 278 10:55 23.02.2022
5189 Clouds 1 1005 90 10000 4.89 266 09:31 23.02.2022
5190 Clouds 1 1004 91 10000 4.82 257 08:28 23.02.2022
5191 Snow 0 1004 92 10000 4.68 249 07:19 23.02.2022
5192 Snow 1 1004 85 10000 4.74 248 07:19 23.02.2022
5193 Clouds 1 1001 83 10000 6.11 248 02:22 23.02.2022
5194 Clouds 2 1000 81 10000 5.95 239 23:46 22.02.2022
5195 Clouds 2 999 82 10000 6.52 233 23:28 22.02.2022
5196 Clouds 2 999 82 10000 6.77 238 22:28 22.02.2022
5197 Clouds 2 999 82 10000 6.77 238 21:40 22.02.2022
5198 Clouds 2 998 83 10000 6.47 242 21:19 22.02.2022
5199 Clouds 2 997 83 6461 7.34 232 20:31 22.02.2022
5200 Clouds 2 997 82 6356 7.33 231 19:54 22.02.2022
5201 Clouds 2 997 82 6461 7.34 232 19:33 22.02.2022
5202 Rain 2 997 81 10000 6.67 219 18:35 22.02.2022
5203 Rain 4 997 77 10000 7.02 210 17:27 22.02.2022
5204 Clouds 4 997 77 10000 7.02 210 16:55 22.02.2022
5205 Clouds 4 997 77 10000 6.54 212 16:20 22.02.2022
5206 Clouds 4 997 88 10000 6.18 212 15:21 22.02.2022
5207 Clouds 5 997 90 10000 6.04 210 14:19 22.02.2022
5208 Clouds 3 997 97 10000 5.07 213 11:38 22.02.2022
5209 Clouds 3 997 88 489 5.89 236 09:44 22.02.2022
5210 Snow 2 995 99 33 5.16 235 07:30 22.02.2022
5211 Rain 2 995 89 33 5.16 235 06:54 22.02.2022
5212 Clouds 2 994 88 24 5.36 209 02:50 22.02.2022
5213 Snow 1 996 86 23 5.44 189 23:18 21.02.2022
5214 Snow 1 996 85 23 5.45 185 22:36 21.02.2022
5215 Snow 1 997 85 43 5.5 177 20:52 21.02.2022
5216 Snow 1 999 81 165 4.97 163 18:56 21.02.2022
5217 Snow 1 999 81 165 4.97 163 18:37 21.02.2022
5218 Clouds 2 1001 89 10000 2.77 167 16:23 21.02.2022
5219 Clouds 2 1001 86 10000 4 221 14:23 21.02.2022
5220 Clouds 2 1001 86 10000 4 221 13:31 21.02.2022
5221 Clouds 2 1001 87 10000 3.94 222 13:31 21.02.2022
5222 Clouds 2 1001 87 10000 4.02 224 12:46 21.02.2022
5223 Clouds 2 1001 89 10000 3.66 226 12:21 21.02.2022
5224 Clouds 1 1001 88 10000 4.09 232 10:29 21.02.2022
5225 Clouds 0 1001 90 10000 4.89 235 07:48 21.02.2022
5226 Clouds 1 1002 80 9009 3.64 228 00:35 21.02.2022
5227 Clouds 0 1003 78 4053 4.56 219 22:32 20.02.2022
5228 Clouds 0 1003 92 4053 4.56 219 21:44 20.02.2022
5229 Clouds 0 1003 89 10000 4.06 215 21:24 20.02.2022
5230 Clouds 0 1003 89 10000 4.06 215 20:43 20.02.2022
5231 Snow 0 1003 80 10000 3.86 219 19:51 20.02.2022
5232 Clouds 0 1003 80 10000 4.17 239 18:56 20.02.2022
5233 Clouds 0 1004 79 10000 5.29 253 18:36 20.02.2022
5234 Clouds 0 1004 88 10000 5.29 253 17:55 20.02.2022
5235 Clouds 1 1004 78 10000 4.59 248 16:59 20.02.2022
5236 Clouds 1 1003 85 10000 4.54 262 15:27 20.02.2022
5237 Clouds 2 1002 78 10000 5.21 274 13:59 20.02.2022
5238 Clouds 1 1002 83 10000 5.83 281 12:45 20.02.2022
5239 Clouds 1 1001 83 10000 6.17 283 11:50 20.02.2022
5240 Clouds 2 998 85 10000 6.84 291 10:21 20.02.2022
5241 Clouds 2 997 87 10000 7.18 298 09:24 20.02.2022
5242 Snow 1 993 89 10000 5.2 252 06:28 20.02.2022
5243 Snow 2 991 88 54 7.17 224 00:32 20.02.2022
5244 Rain 2 991 88 47 7.3 211 23:33 19.02.2022
5245 Clouds 2 991 88 239 6.72 204 22:24 19.02.2022
5246 Clouds 2 991 88 239 6.72 204 21:45 19.02.2022
5247 Clouds 2 993 89 10000 7.46 212 20:28 19.02.2022
5248 Clouds 2 993 89 10000 6.87 213 19:34 19.02.2022
5249 Snow 2 992 88 10000 6.79 210 18:40 19.02.2022
5250 Snow 2 992 88 10000 6.79 210 18:40 19.02.2022
5251 Clouds 1 992 88 10000 7.3 216 17:57 19.02.2022
5252 Snow 1 992 87 10000 7.9 223 17:21 19.02.2022
5253 Snow 1 992 87 100 7.94 215 15:59 19.02.2022
5254 Snow 1 993 85 101 8.36 202 14:54 19.02.2022
5255 Snow 1 993 84 115 8.57 192 13:57 19.02.2022
5256 Rain 2 995 79 1014 8.03 175 11:47 19.02.2022
5257 Clouds 2 997 88 10000 7.45 185 10:54 19.02.2022
5258 Clouds 2 1000 83 10000 6.08 190 08:57 19.02.2022
5259 Clouds 1 1001 85 10000 5.34 198 06:48 19.02.2022
5260 Clouds 0 1002 84 10000 4.54 230 00:38 19.02.2022
5261 Clouds 0 1001 82 10000 4.43 234 22:28 18.02.2022
5262 Clouds 0 1001 82 10000 4.14 229 21:22 18.02.2022
5263 Clouds 0 1000 81 10000 4 221 20:18 18.02.2022
5264 Clouds 0 1000 81 10000 4.23 219 19:25 18.02.2022
5265 Clouds 1 999 80 10000 4.5 226 18:29 18.02.2022
5266 Clouds 1 999 79 10000 4.5 226 17:56 18.02.2022
5267 Clouds 2 997 78 10000 3.89 234 16:19 18.02.2022
5268 Clouds 2 995 87 10000 3.7 245 14:19 18.02.2022
5269 Clouds 2 995 87 10000 3.7 245 13:45 18.02.2022
5270 Clouds 2 994 89 10000 3.94 256 12:48 18.02.2022
5271 Clouds 2 993 84 10000 4.04 257 11:56 18.02.2022
5272 Rain 2 992 85 10000 3.75 250 10:42 18.02.2022
5273 Rain 2 989 88 28 4.41 206 07:21 18.02.2022
5274 Rain 2 988 88 31 4.56 206 05:52 18.02.2022
5275 Clouds 2 987 88 53 5.82 204 05:34 18.02.2022
5276 Rain 2 986 84 77 8.49 175 21:59 17.02.2022
5277 Rain 2 986 83 77 8.49 175 21:38 17.02.2022
5278 Rain 2 987 83 36 8.45 173 20:43 17.02.2022
5279 Rain 2 988 98 46 8.53 172 19:55 17.02.2022
5280 Clouds 2 989 83 42 8.78 172 19:22 17.02.2022
5281 Rain 2 989 98 55 8.97 173 18:29 17.02.2022
5282 Clouds 2 989 82 55 8.97 173 17:30 17.02.2022
5283 Clouds 3 991 80 219 8.55 173 15:57 17.02.2022
5284 Clouds 3 993 78 81 7.77 171 14:30 17.02.2022
5285 Clouds 3 995 76 10000 7.74 176 13:31 17.02.2022
5286 Clouds 3 996 97 10000 7.32 171 11:48 17.02.2022
5287 Clouds 2 999 79 10000 7.18 173 10:20 17.02.2022
5288 Clouds 0 1002 92 10000 6.08 171 07:45 17.02.2022
5289 Clouds -1 1011 87 10000 5.33 203 23:23 16.02.2022
5290 Clouds -1 1012 78 10000 5.28 198 22:28 16.02.2022
5291 Clouds -2 1013 91 9953 5.19 207 20:22 16.02.2022
5292 Clouds -1 1014 95 9408 4.22 194 18:56 16.02.2022
5293 Clouds -1 1015 94 10000 4.06 184 18:27 16.02.2022
5294 Clouds 0 1015 93 10000 3.86 183 17:22 16.02.2022
5295 Clouds 0 1016 90 10000 4.35 187 15:22 16.02.2022
5296 Clouds 1 1016 88 10000 4.4 191 13:40 16.02.2022
5297 Clouds 1 1017 88 10000 4.45 201 12:26 16.02.2022
5298 Clouds 1 1017 73 10000 4.45 201 11:46 16.02.2022
5299 Clouds -1 1019 74 10000 4.62 207 10:34 16.02.2022
5300 Clouds -2 1019 74 10000 4.62 207 09:38 16.02.2022
5301 Clouds -5 1020 88 10000 4.3 208 06:43 16.02.2022
5302 Clear -3 1022 72 10000 4.71 216 00:37 16.02.2022
5303 Clear -3 1022 72 10000 4.5 223 22:34 15.02.2022
5304 Clear -3 1022 72 10000 4.21 222 21:50 15.02.2022
5305 Clear -3 1022 88 10000 3.7 217 21:30 15.02.2022
5306 Clear -3 1022 88 10000 3.7 217 20:58 15.02.2022
5307 Clear -2 1022 88 10000 3.48 219 20:26 15.02.2022
5308 Clear -3 1022 88 10000 3.48 219 19:45 15.02.2022
5309 Clouds -2 1022 86 10000 3.98 226 18:26 15.02.2022
5310 Clouds -1 1022 86 10000 3.98 226 17:53 15.02.2022
5311 Clouds -1 1022 72 10000 4.18 225 17:32 15.02.2022
5312 Clouds 2 1022 87 10000 3.9 220 15:43 15.02.2022
5313 Clouds 2 1021 86 10000 3.99 222 14:31 15.02.2022
5314 Clouds 2 1021 85 10000 4.17 231 13:25 15.02.2022
5315 Clouds 1 1021 73 10000 4.26 235 11:41 15.02.2022
5316 Clouds 0 1020 77 10000 4.46 240 10:27 15.02.2022
5317 Clouds -2 1020 80 10000 4.44 238 08:48 15.02.2022
5318 Clouds -3 1020 82 10000 4.47 234 06:46 15.02.2022
5319 Clouds -2 1018 76 10000 5.21 244 23:35 14.02.2022
5320 Clouds -2 1018 75 10000 5.08 243 21:58 14.02.2022
5321 Clouds -2 1017 75 10000 4.83 240 20:54 14.02.2022
5322 Clouds -1 1017 75 10000 4.78 238 19:49 14.02.2022
5323 Clouds -1 1017 75 10000 4.6 236 19:29 14.02.2022
5324 Clouds -1 1017 89 10000 4.59 233 18:24 14.02.2022
5325 Clouds -1 1017 89 10000 4.59 233 18:24 14.02.2022
5326 Clouds 0 1017 73 10000 4.59 233 17:31 14.02.2022
5327 Clouds 0 1017 72 10000 4.34 233 16:49 14.02.2022
5328 Clouds 0 1017 87 10000 4.44 236 15:42 14.02.2022
5329 Clouds 1 1017 87 10000 4.72 239 13:36 14.02.2022
5330 Clouds 0 1016 87 10000 4.91 242 12:59 14.02.2022
5331 Clouds 0 1016 87 10000 5.01 243 12:32 14.02.2022
5332 Clouds 0 1016 71 10000 5.01 243 11:39 14.02.2022
5333 Clouds -1 1017 71 10000 5 243 10:22 14.02.2022
5334 Clouds -3 1017 87 10000 5.18 236 08:26 14.02.2022
5335 Clouds -3 1017 87 10000 5.07 236 07:26 14.02.2022
5336 Snow -2 1020 85 10000 4.57 234 23:19 13.02.2022
5337 Snow -2 1020 85 10000 4.57 234 22:41 13.02.2022
5338 Clouds -2 1020 85 10000 4.52 231 22:22 13.02.2022
5339 Snow -2 1020 86 10000 4.38 235 21:24 13.02.2022
5340 Snow -2 1021 88 10000 4.55 236 20:28 13.02.2022
5341 Clouds -2 1021 75 10000 4.55 237 19:23 13.02.2022
5342 Clouds -2 1022 89 10000 4.33 238 18:41 13.02.2022
5343 Snow -2 1022 91 10000 4.1 236 17:41 13.02.2022
5344 Clouds 0 1022 89 10000 4.01 252 15:53 13.02.2022
5345 Clouds 0 1022 89 10000 4.45 254 14:52 13.02.2022
5346 Clouds 0 1022 89 10000 4.68 257 13:39 13.02.2022
5347 Clouds 1 1022 89 10000 4.84 261 12:44 13.02.2022
5348 Clouds 1 1021 85 10000 5.63 276 10:50 13.02.2022
5349 Clouds 1 1021 86 10000 6.15 279 10:27 13.02.2022
5350 Clouds 1 1021 74 10000 5.98 274 08:59 13.02.2022
5351 Clouds 0 1019 77 10000 6.9 274 05:27 13.02.2022
5352 Clouds -3 1019 91 10000 5.19 256 00:34 13.02.2022
5353 Snow -3 1019 91 8532 5.13 259 22:58 12.02.2022
5354 Clouds -3 1019 91 10000 5.38 255 22:33 12.02.2022
5355 Clouds -3 1019 91 10000 4.85 257 21:19 12.02.2022
5356 Clouds -4 1019 91 10000 4.36 255 20:25 12.02.2022
5357 Clouds -5 1020 91 10000 4.5 264 19:18 12.02.2022
5358 Clouds -5 1020 92 10000 4.36 259 18:41 12.02.2022
5359 Clouds -6 1020 92 10000 4.19 261 18:23 12.02.2022
5360 Clouds -4 1019 90 10000 4.1 270 16:55 12.02.2022
5361 Clouds -2 1019 88 10000 4.74 280 16:25 12.02.2022
5362 Clouds -2 1019 87 10000 4.94 284 15:32 12.02.2022
5363 Snow -1 1019 87 10000 4.94 284 14:30 12.02.2022
5364 Clouds 0 1017 86 10000 4.86 292 12:55 12.02.2022
5365 Clouds -1 1016 92 2011 4.71 296 10:35 12.02.2022
5366 Clouds 0 1016 77 2009 4.71 296 09:38 12.02.2022
5367 Clouds -1 1015 94 1070 3.95 274 08:48 12.02.2022
5368 Clouds -1 1014 94 10000 3.56 261 07:50 12.02.2022
5369 Clouds -1 1013 93 10000 2.76 249 05:33 12.02.2022
5370 Clouds -1 1013 96 6559 3.51 269 02:20 12.02.2022
5371 Snow 0 1013 96 6560 3.51 269 01:44 12.02.2022
5372 Snow 0 1012 95 10000 3.18 252 22:28 11.02.2022
5373 Snow 0 1012 95 10000 3.18 252 21:45 11.02.2022
5374 Clouds 0 1011 94 10000 3.46 263 20:39 11.02.2022
5375 Clouds 0 1011 94 10000 3.81 264 19:35 11.02.2022
5376 Snow 0 1010 93 10000 3.7 264 18:59 11.02.2022
5377 Clouds 0 1010 95 10000 3.61 259 17:41 11.02.2022
5378 Snow 0 1010 95 10000 3.09 254 17:22 11.02.2022
5379 Snow 1 1010 94 10000 2.84 255 15:55 11.02.2022
5380 Snow 1 1008 90 10000 3.77 263 14:38 11.02.2022
5381 Clouds 1 1008 90 10000 3.77 263 14:20 11.02.2022
5382 Clouds 1 1008 90 10000 3.77 263 13:52 11.02.2022
5383 Snow 2 1008 90 10000 3.86 260 13:34 11.02.2022
5384 Clouds 1 1008 91 10000 3.55 255 11:32 11.02.2022
5385 Snow 0 1008 92 10000 3.21 252 09:45 11.02.2022
5386 Snow 0 1008 93 10000 3.16 249 08:42 11.02.2022
5387 Snow 0 1008 93 10000 3.16 249 08:42 11.02.2022
5388 Snow 0 1008 93 8701 3.12 253 08:22 11.02.2022
5389 Snow 0 1008 91 10000 3.91 260 06:33 11.02.2022
5390 Snow 0 1009 83 10000 4.55 240 02:26 11.02.2022
5391 Snow 0 1009 93 5019 4.38 241 00:51 11.02.2022
5392 Snow 1 1009 83 10000 4.37 256 22:49 10.02.2022
5393 Clouds 1 1009 83 5012 4.58 263 21:45 10.02.2022
5394 Clouds 1 1009 83 10000 4.32 263 20:57 10.02.2022
5395 Clouds 1 1008 84 10000 3.85 264 20:30 10.02.2022
5396 Clouds 1 1008 93 10000 3.4 258 19:25 10.02.2022
5397 Clouds 0 1008 91 10000 3.57 263 18:45 10.02.2022
5398 Clouds 0 1008 84 10000 3.96 269 17:26 10.02.2022
5399 Snow 1 1008 85 10000 3.96 269 16:50 10.02.2022
5400 Clouds 1 1007 84 10000 4.52 274 15:49 10.02.2022
5401 Clouds 2 1007 83 10000 4.81 279 15:29 10.02.2022
5402 Clouds 2 1007 93 10000 4.81 279 14:48 10.02.2022
5403 Clouds 2 1006 92 10000 5.11 283 14:24 10.02.2022
5404 Clouds 2 1006 95 10000 4.59 280 13:29 10.02.2022
5405 Clouds 1 1006 93 10000 4.44 280 12:45 10.02.2022
5406 Snow 0 1005 99 10000 4.15 263 11:33 10.02.2022
5407 Snow 0 1005 100 306 3.92 238 10:44 10.02.2022
5408 Snow 0 1005 83 266 4.09 222 09:59 10.02.2022
5409 Snow 0 1006 96 369 4.1 210 09:24 10.02.2022
5410 Clouds -1 1006 95 10000 3.43 194 07:28 10.02.2022
5411 Clouds -1 1007 94 3194 3.59 220 04:55 10.02.2022
5412 Clouds -1 1009 97 10000 2.81 227 01:48 10.02.2022
5413 Clouds -1 1009 96 10000 3.08 237 00:47 10.02.2022
5414 Clouds -1 1009 85 10000 3.11 240 00:28 10.02.2022
5415 Clouds 0 1009 85 10000 2.4 241 23:23 09.02.2022
5416 Clouds 0 1009 84 10000 2.35 249 22:35 09.02.2022
5417 Clouds -1 1009 96 10000 2.35 249 21:51 09.02.2022
5418 Clouds -1 1009 97 5627 2.3 250 21:29 09.02.2022
5419 Clouds -1 1009 97 5628 2.3 250 20:47 09.02.2022
5420 Clouds -1 1009 97 4117 2.52 251 20:27 09.02.2022
5421 Clouds -1 1009 97 4121 2.52 251 19:46 09.02.2022
5422 Clouds -1 1009 97 1382 2.67 244 19:27 09.02.2022
5423 Snow -1 1010 98 767 1.98 198 17:37 09.02.2022
5424 Snow -1 1010 98 767 1.98 198 16:48 09.02.2022
5425 Snow 0 1010 98 385 1.74 196 15:50 09.02.2022
5426 Snow 0 1009 93 10000 2.07 204 14:35 09.02.2022
5427 Clouds 0 1008 90 10000 2.47 217 12:28 09.02.2022
5428 Clouds 0 1009 91 10000 2.51 229 10:51 09.02.2022
5429 Clouds -1 1009 92 10000 2.82 238 10:26 09.02.2022
5430 Clouds -2 1009 92 10000 2.82 238 09:40 09.02.2022
5431 Clouds -2 1008 92 10000 2.94 235 09:19 09.02.2022
5432 Clouds -2 1008 92 10000 2.92 233 07:53 09.02.2022
5433 Clouds -2 1008 98 8890 1.98 230 05:30 09.02.2022
5434 Clouds -2 1008 98 9065 2.03 224 03:50 09.02.2022
5435 Clouds -2 1008 98 9065 2.03 224 03:50 09.02.2022
5436 Clouds -2 1008 96 10000 1.87 220 00:44 09.02.2022
5437 Clouds -1 1008 96 10000 1.93 232 23:32 08.02.2022
5438 Clouds -1 1008 96 10000 1.93 232 23:32 08.02.2022
5439 Clouds -1 1008 97 10000 2.23 238 23:32 08.02.2022
5440 Clouds -1 1008 96 10000 1.93 232 23:32 08.02.2022
5441 Clouds -1 1008 97 10000 2.22 238 22:46 08.02.2022
5442 Clouds -1 1007 97 10000 2.36 236 22:21 08.02.2022
5443 Clouds -1 1007 97 10000 2.36 236 21:39 08.02.2022
5444 Clouds -1 1007 95 10000 2.93 237 21:20 08.02.2022
5445 Clouds -1 1007 95 10000 2.93 237 20:43 08.02.2022
5446 Snow 0 1007 86 10000 3.32 238 19:46 08.02.2022
5447 Snow 0 1007 87 10000 3.68 242 18:38 08.02.2022
5448 Snow 0 1007 86 10000 3.64 242 17:42 08.02.2022
5449 Snow 1 1007 85 10000 3.54 246 16:30 08.02.2022
5450 Snow 1 1007 93 10000 2.93 216 15:30 08.02.2022
5451 Snow 1 1007 93 10000 2.93 216 15:30 08.02.2022
5452 Clouds 1 1007 93 10000 2.93 216 14:36 08.02.2022
5453 Clouds 1 1007 92 10000 3.36 228 13:20 08.02.2022
5454 Clouds 1 1007 94 10000 3.6 222 11:33 08.02.2022
5455 Clouds 1 1007 92 10000 3.5 199 10:23 08.02.2022
5456 Clouds 1 1007 92 10000 3.5 199 09:44 08.02.2022
5457 Clouds 1 1006 90 10000 2.89 208 07:51 08.02.2022
5458 Clouds 1 1005 90 5769 3.05 220 05:41 08.02.2022
5459 Clouds 1 1005 90 5479 3.2 220 04:39 08.02.2022
5460 Clouds 1 1004 90 790 3.37 211 04:21 08.02.2022
5461 Clouds 0 1004 98 789 3.37 211 03:36 08.02.2022
5462 Clouds 0 1004 98 3394 3.09 199 03:18 08.02.2022
5463 Clouds 0 1004 98 3394 3.09 199 02:58 08.02.2022
5464 Clouds 0 1003 97 4512 3.08 189 02:36 08.02.2022
5465 Clouds 0 1003 97 4513 3.08 189 02:18 08.02.2022
5466 Clouds 0 1003 97 4512 3.08 189 01:44 08.02.2022
5467 Clouds 0 1003 97 9189 2.99 182 01:24 08.02.2022
5468 Clouds 0 1003 96 8280 3.03 184 00:54 08.02.2022
5469 Clouds 0 1002 89 4430 3.43 184 23:55 07.02.2022
5470 Clouds 0 1002 89 4430 3.43 184 23:37 07.02.2022
5471 Snow 0 1002 89 397 3.66 179 23:18 07.02.2022
5472 Snow 0 1002 89 217 3.92 177 22:19 07.02.2022
5473 Snow 0 1002 89 217 3.92 177 21:55 07.02.2022
5474 Snow -1 1002 97 282 4.15 171 21:29 07.02.2022
5475 Snow -1 1002 97 282 4.15 171 20:59 07.02.2022
5476 Snow -1 1002 97 282 4.15 171 20:40 07.02.2022
5477 Snow 0 1002 86 195 4.48 175 19:51 07.02.2022
5478 Snow 0 1002 86 195 4.48 175 19:32 07.02.2022
5479 Snow 0 1001 86 184 4.99 164 18:18 07.02.2022
5480 Snow 0 1001 85 264 5.14 160 16:53 07.02.2022
5481 Snow 0 1001 97 284 4.89 160 15:49 07.02.2022
5482 Snow 0 1001 97 199 4.85 159 14:56 07.02.2022
5483 Snow 0 1002 94 1250 4.8 165 13:28 07.02.2022
5484 Snow 0 1002 94 1251 4.8 165 12:52 07.02.2022
5485 Snow 0 1002 96 851 4.74 168 11:58 07.02.2022
5486 Snow 0 1002 96 851 4.74 168 11:35 07.02.2022
5487 Snow -1 1002 96 354 4.6 173 10:50 07.02.2022
5488 Snow 0 1002 87 354 4.6 173 10:30 07.02.2022
5489 Snow -1 1002 95 369 4.82 179 09:53 07.02.2022
5490 Snow -1 1002 88 3594 4.62 173 09:18 07.02.2022
5491 Snow -1 1003 88 1583 4.3 173 08:38 07.02.2022
5492 Clouds -2 1003 88 607 4.38 173 06:58 07.02.2022
5493 Snow -2 1003 88 755 4.06 176 06:34 07.02.2022
5494 Clouds -4 1004 94 10000 3.52 173 02:59 07.02.2022
5495 Clouds -4 1004 86 10000 2.32 179 00:45 07.02.2022
5496 Clouds -4 1004 86 10000 2.32 179 00:45 07.02.2022
5497 Snow -4 1005 86 10000 2.22 193 23:48 06.02.2022
5498 Snow -6 1005 86 8035 2.41 212 22:48 06.02.2022
5499 Snow -6 1004 86 1239 2.64 216 21:55 06.02.2022
5500 Snow -6 1004 86 1239 2.64 216 21:35 06.02.2022
5501 Clouds -6 1004 86 10000 2.35 211 20:55 06.02.2022
5502 Clouds -6 1004 86 10000 2.35 211 20:31 06.02.2022
5503 Clouds -6 1004 85 2147 1.6 184 19:38 06.02.2022
5504 Snow -6 1004 85 2147 1.6 184 18:40 06.02.2022
5505 Snow -7 1005 98 2864 1.52 191 17:56 06.02.2022
5506 Snow -7 1005 85 1557 1.37 184 17:21 06.02.2022
5507 Snow -7 1005 84 1557 1.37 184 16:47 06.02.2022
5508 Snow -7 1005 84 1863 1.36 184 15:49 06.02.2022
5509 Snow -6 1004 83 1736 1.23 173 15:27 06.02.2022
5510 Snow -6 1004 82 1736 1.23 173 14:45 06.02.2022
5511 Snow -6 1004 84 418 1.76 187 13:27 06.02.2022
5512 Snow -6 1004 84 498 1.86 192 12:58 06.02.2022
5513 Snow -7 1004 92 782 2.05 191 11:35 06.02.2022
5514 Snow -8 1004 91 933 2.3 187 10:31 06.02.2022
5515 Snow -9 1004 93 963 2.77 168 09:25 06.02.2022
5516 Snow -10 1004 95 388 2.67 152 08:30 06.02.2022
5517 Snow -10 1005 96 252 2.74 141 05:33 06.02.2022
5518 Snow -11 1006 96 221 2.67 137 03:18 06.02.2022
5519 Snow -12 1007 97 2986 2.54 139 02:24 06.02.2022
5520 Clouds -13 1008 100 6398 2.26 145 00:29 06.02.2022
5521 Clouds -12 1009 100 5778 2.19 150 22:36 05.02.2022
5522 Clouds -11 1010 100 4240 2.14 152 21:32 05.02.2022
5523 Clouds -10 1010 100 3330 1.76 155 20:25 05.02.2022
5524 Clouds -10 1010 100 3330 1.76 155 19:48 05.02.2022
5525 Clouds -10 1011 100 3230 1.78 165 18:59 05.02.2022
5526 Clouds -9 1011 100 3574 1.73 160 17:45 05.02.2022
5527 Clouds -9 1012 100 5114 1.61 166 17:27 05.02.2022
5528 Clouds -7 1012 98 6663 1.21 175 15:42 05.02.2022
5529 Clouds -7 1012 98 6663 1.21 175 15:21 05.02.2022
5530 Clouds -7 1013 92 10000 1.03 206 12:54 05.02.2022
5531 Clouds -7 1013 92 10000 1.28 198 12:31 05.02.2022
5532 Snow -8 1014 93 10000 0.65 211 10:52 05.02.2022
5533 Clouds -9 1015 95 8404 0.15 186 10:25 05.02.2022
5534 Clouds -9 1015 95 8405 0.15 186 09:46 05.02.2022
5535 Clouds -9 1016 100 2240 0.36 335 08:20 05.02.2022
5536 Clouds -9 1017 100 4897 0.73 342 06:57 05.02.2022
5537 Clouds -10 1017 100 5509 1.21 312 04:55 05.02.2022
5538 Clouds -11 1017 100 6126 1.36 330 01:19 05.02.2022
5539 Clouds -11 1017 100 6081 1.36 328 00:53 05.02.2022
5540 Clouds -9 1017 100 6428 1.19 350 23:58 04.02.2022
5541 Clouds -10 1017 100 6428 1.19 350 23:30 04.02.2022
5542 Clouds -8 1017 100 6544 1.46 356 22:18 04.02.2022
5543 Clouds -7 1017 100 6546 1.6 11 21:36 04.02.2022
5544 Clouds -7 1017 100 6546 1.6 11 21:18 04.02.2022
5545 Clouds -6 1017 100 6548 1.52 11 20:20 04.02.2022
5546 Clouds -4 1016 99 6550 1.46 16 17:45 04.02.2022
5547 Clouds -4 1016 97 6587 1.66 360 15:55 04.02.2022
5548 Clouds -4 1016 97 6587 1.66 360 15:55 04.02.2022
5549 Clouds -4 1015 96 10000 1.41 14 14:56 04.02.2022
5550 Clouds -4 1015 95 10000 1.22 14 13:55 04.02.2022
5551 Clouds -3 1014 82 10000 1.97 18 12:43 04.02.2022
5552 Clouds -4 1014 89 10000 1.83 24 11:43 04.02.2022
5553 Snow -4 1014 92 10000 1.62 44 10:37 04.02.2022
5554 Snow -5 1014 94 10000 1.5 51 08:49 04.02.2022
5555 Snow -7 1014 97 2336 1.28 61 06:57 04.02.2022
5556 Snow -7 1013 98 4429 1.24 60 02:48 04.02.2022
5557 Snow -7 1013 97 2438 1.4 73 01:56 04.02.2022
5558 Snow -6 1013 98 3716 1.34 97 23:31 03.02.2022
5559 Snow -6 1013 98 3716 1.34 97 22:46 03.02.2022
5560 Snow -5 1013 97 5621 1.26 101 21:49 03.02.2022
5561 Snow -5 1013 98 4605 1.32 103 20:41 03.02.2022
5562 Snow -5 1013 98 5795 1.36 112 20:20 03.02.2022
5563 Snow -5 1013 98 5656 1.54 122 19:32 03.02.2022
5564 Snow -5 1013 98 7489 1.46 121 18:40 03.02.2022
5565 Snow -5 1013 97 8027 1.46 116 17:35 03.02.2022
5566 Snow -5 1013 97 9637 1.61 118 16:35 03.02.2022
5567 Snow -4 1013 96 10000 1.53 111 14:52 03.02.2022
5568 Snow -3 1012 82 10000 1.96 146 12:59 03.02.2022
5569 Clouds -4 1012 83 10000 2.03 154 11:23 03.02.2022
5570 Snow -8 1012 94 10000 1.65 162 08:37 03.02.2022
5571 Snow -6 1012 97 7473 1.38 154 05:26 03.02.2022
5572 Snow -5 1011 98 7347 1.58 158 00:32 03.02.2022
5573 Snow -5 1011 98 6552 1.51 163 23:44 02.02.2022
5574 Snow -5 1010 98 6568 1.78 176 22:32 02.02.2022
5575 Snow -5 1010 97 8659 1.95 172 21:34 02.02.2022
5576 Snow -4 1010 97 8663 1.95 172 20:51 02.02.2022
5577 Clouds -4 1009 95 10000 2.17 175 19:59 02.02.2022
5578 Clouds -4 1009 89 10000 2.23 203 19:27 02.02.2022
5579 Clouds -4 1009 85 10000 2.23 203 18:46 02.02.2022
5580 Clouds -4 1008 84 10000 3.66 221 17:57 02.02.2022
5581 Clouds -3 1008 83 10000 3.69 222 17:19 02.02.2022
5582 Clouds -3 1008 87 10000 3.69 222 16:42 02.02.2022
5583 Clouds -3 1006 91 10000 3.69 213 13:35 02.02.2022
5584 Clouds -3 1006 92 10000 3.88 214 12:25 02.02.2022
5585 Clouds -4 1006 92 10000 3.88 214 11:34 02.02.2022
5586 Snow -4 1005 92 8692 4.08 215 10:31 02.02.2022
5587 Snow -5 1004 94 4962 3.42 211 07:37 02.02.2022
5588 Clouds -3 1001 96 9209 3.36 211 22:52 01.02.2022
5589 Clouds -3 1001 96 9521 3.03 209 21:51 01.02.2022
5590 Clouds -3 1000 92 10000 4.06 227 20:36 01.02.2022
5591 Clouds -2 998 93 3765 4.54 219 17:50 01.02.2022
5592 Snow -1 998 95 890 3.87 216 16:40 01.02.2022
5593 Clouds -1 997 94 877 4.04 222 14:47 01.02.2022
5594 Clouds -1 996 89 10000 4.08 232 12:47 01.02.2022
5595 Snow -1 996 94 4269 3.16 225 11:34 01.02.2022
5596 Clouds -3 994 96 10000 3.4 252 05:43 01.02.2022
5597 Snow -1 991 98 126 1.09 24 23:51 31.01.2022
5598 Snow -1 991 98 129 1.73 49 23:28 31.01.2022
5599 Snow -1 991 98 126 2.26 61 21:59 31.01.2022
5600 Snow -2 992 98 122 2.55 68 21:32 31.01.2022
5601 Snow -1 992 89 130 2.83 72 20:33 31.01.2022
5602 Snow -1 992 89 130 2.83 72 19:46 31.01.2022
5603 Snow -1 992 89 262 2.95 98 18:26 31.01.2022
5604 Snow -1 992 89 262 2.95 98 17:43 31.01.2022
5605 Snow -1 992 89 332 3.31 115 16:48 31.01.2022
5606 Snow -1 993 97 212 3.7 123 15:43 31.01.2022
5607 Snow -1 993 96 852 3.68 130 14:24 31.01.2022
5608 Snow -2 993 88 240 3.58 131 12:51 31.01.2022
5609 Clouds -2 993 88 840 3.55 137 11:59 31.01.2022
5610 Snow -2 993 95 522 3.52 137 10:52 31.01.2022
5611 Snow -2 993 87 195 3.43 134 10:34 31.01.2022
5612 Snow -3 994 96 317 3.44 130 09:27 31.01.2022
5613 Snow -3 994 96 317 3.44 130 08:52 31.01.2022
5614 Snow -3 994 96 317 3.44 130 08:52 31.01.2022
5615 Snow -3 994 96 316 3.22 128 08:20 31.01.2022
5616 Snow -3 994 97 897 2.9 127 06:36 31.01.2022
5617 Snow -3 994 96 2263 3.49 140 05:20 31.01.2022
5618 Snow -4 994 96 151 4.58 139 23:20 30.01.2022
5619 Snow -4 994 96 173 4.75 138 22:30 30.01.2022
5620 Snow -4 994 96 173 4.75 138 22:30 30.01.2022
5621 Snow -3 994 87 173 4.75 138 21:43 30.01.2022
5622 Snow -4 994 95 151 5.05 139 21:20 30.01.2022
5623 Snow -4 994 95 151 5.05 139 20:50 30.01.2022
5624 Snow -4 995 95 149 5.26 140 20:29 30.01.2022
5625 Snow -4 995 95 149 5.26 140 19:54 30.01.2022
5626 Snow -3 995 85 166 5.28 141 18:45 30.01.2022
5627 Snow -3 994 85 282 5.23 143 18:21 30.01.2022
5628 Snow -3 994 84 211 5.19 146 17:29 30.01.2022
5629 Snow -3 994 84 211 5.19 146 16:41 30.01.2022
5630 Snow -3 995 82 264 5.32 148 16:22 30.01.2022
5631 Snow -3 995 95 264 5.32 148 15:52 30.01.2022
5632 Snow -3 995 82 726 5.42 149 15:32 30.01.2022
5633 Snow -3 995 82 727 5.42 149 14:47 30.01.2022
5634 Snow -3 995 91 3048 5.49 152 13:36 30.01.2022
5635 Snow -3 995 91 10000 5.26 154 12:40 30.01.2022
5636 Clouds -3 996 84 10000 5.13 158 10:38 30.01.2022
5637 Snow -4 996 93 8182 4.78 157 09:57 30.01.2022
5638 Clouds -4 997 94 10000 4.05 153 09:21 30.01.2022
5639 Clouds -5 998 95 9269 3.58 156 07:57 30.01.2022
5640 Clouds -5 1001 99 4999 1.89 194 02:43 30.01.2022
5641 Clouds -5 1002 99 2019 1.66 207 01:52 30.01.2022
5642 Clouds -4 1004 99 1597 1.38 248 23:45 29.01.2022
5643 Clouds -5 1004 99 2149 1.53 255 22:48 29.01.2022
5644 Clouds -4 1005 98 1346 1.55 276 21:28 29.01.2022
5645 Clouds -5 1005 98 1346 1.55 276 20:50 29.01.2022
5646 Clouds -5 1005 99 1202 1.64 283 19:47 29.01.2022
5647 Clouds -5 1006 100 3567 1.12 269 19:29 29.01.2022
5648 Clouds -5 1006 100 3564 1.12 269 18:43 29.01.2022
5649 Snow -4 1006 98 916 0.9 244 17:46 29.01.2022
5650 Snow -4 1006 99 4576 0.99 268 16:43 29.01.2022
5651 Snow -4 1006 97 2667 0.58 320 15:25 29.01.2022
5652 Snow -4 1006 97 3219 0.71 348 13:48 29.01.2022
5653 Snow -4 1005 94 3991 1.01 346 13:26 29.01.2022
5654 Snow -4 1005 94 3988 1.01 346 12:52 29.01.2022
5655 Clouds -4 1005 93 3749 1 339 11:39 29.01.2022
5656 Clouds -5 1005 94 4224 0.33 358 10:31 29.01.2022
5657 Clouds -6 1005 87 1700 0.79 119 07:57 29.01.2022
5658 Snow -6 1004 96 154 2.37 127 01:38 29.01.2022
5659 Snow -6 1004 96 300 3.08 134 00:31 29.01.2022
5660 Snow -6 1004 96 259 2.76 129 00:31 29.01.2022
5661 Snow -6 1004 96 173 3.26 135 23:29 28.01.2022
5662 Snow -6 1004 96 173 3.27 135 22:46 28.01.2022
5663 Snow -6 1004 87 175 3.44 136 22:18 28.01.2022
5664 Snow -6 1004 87 199 3.55 138 20:41 28.01.2022
5665 Snow -6 1004 87 240 3.73 142 19:53 28.01.2022
5666 Snow -6 1004 86 360 4.06 146 18:51 28.01.2022
5667 Snow -6 1004 86 297 4.36 148 17:52 28.01.2022
5668 Snow -6 1004 95 151 4.79 152 15:50 28.01.2022
5669 Snow -6 1004 95 166 4.97 153 14:46 28.01.2022
5670 Snow -6 1004 95 221 5.27 153 12:40 28.01.2022
5671 Snow -6 1004 95 202 5.34 154 11:38 28.01.2022
5672 Snow -6 1005 94 290 5.36 155 10:26 28.01.2022
5673 Snow -6 1005 94 290 5.36 155 09:45 28.01.2022
5674 Snow -7 1006 85 215 5.2 155 07:40 28.01.2022
5675 Clouds -7 1007 95 1427 4.34 158 05:31 28.01.2022
5676 Clouds -7 1007 94 2749 4.32 162 03:50 28.01.2022
5677 Clouds -8 1008 94 2325 4.33 171 02:24 28.01.2022
5678 Snow -8 1009 93 3183 4.23 173 01:35 28.01.2022
5679 Snow -8 1009 94 3508 4.24 171 00:33 28.01.2022
5680 Clouds -8 1010 94 2412 4.03 176 22:18 27.01.2022
5681 Clouds -9 1011 94 5641 4.06 175 21:34 27.01.2022
5682 Clouds -9 1011 94 5641 4.06 175 21:34 27.01.2022
5683 Clouds -9 1011 94 5641 4.06 175 20:58 27.01.2022
5684 Clouds -8 1012 95 9954 3.73 175 19:35 27.01.2022
5685 Clouds -8 1013 96 7797 3.72 177 17:58 27.01.2022
5686 Clouds -7 1013 94 8077 3.52 177 15:43 27.01.2022
5687 Snow -6 1014 92 10000 3.75 183 13:48 27.01.2022
5688 Snow -6 1014 92 10000 3.54 181 12:47 27.01.2022
5689 Snow -6 1015 92 10000 3.56 205 10:59 27.01.2022
5690 Snow -7 1016 95 10000 2.69 203 09:28 27.01.2022
5691 Snow -7 1016 95 10000 2.69 203 08:39 27.01.2022
5692 Snow -8 1016 97 6471 1.95 202 07:23 27.01.2022
5693 Snow -8 1017 88 3719 1.93 244 02:59 27.01.2022
5694 Snow -8 1017 89 8919 1.23 292 23:52 26.01.2022
5695 Snow -7 1017 90 8155 1.55 338 22:27 26.01.2022
5696 Snow -7 1017 90 8155 1.55 338 21:42 26.01.2022
5697 Snow -6 1017 91 5607 1.6 341 20:42 26.01.2022
5698 Snow -6 1017 93 4521 1.57 336 20:24 26.01.2022
5699 Snow -6 1017 92 3084 2.09 341 19:28 26.01.2022
5700 Snow -6 1017 92 3084 2.09 341 18:46 26.01.2022
5701 Snow -5 1017 88 4142 2.92 347 17:52 26.01.2022
5702 Snow -5 1017 89 3153 3.21 351 17:24 26.01.2022
5703 Snow -5 1017 89 3152 3.21 351 16:46 26.01.2022
5704 Snow -5 1017 89 2530 3.37 344 15:50 26.01.2022
5705 Snow -4 1016 92 2668 2.98 333 14:30 26.01.2022
5706 Snow -4 1015 91 4084 3.37 348 11:59 26.01.2022
5707 Snow -4 1015 87 2617 3.8 345 10:49 26.01.2022
5708 Snow -5 1015 88 929 3.75 346 09:50 26.01.2022
5709 Snow -6 1015 88 400 3.33 340 08:32 26.01.2022
5710 Snow -7 1014 88 1092 2.52 331 06:20 26.01.2022
5711 Snow -7 1014 88 1092 2.52 331 06:20 26.01.2022
5712 Snow -9 1014 96 134 1.37 240 00:21 26.01.2022
5713 Snow -9 1014 96 134 1.37 240 23:34 25.01.2022
5714 Snow -9 1014 96 130 1.42 222 22:48 25.01.2022
5715 Snow -9 1014 96 137 1.64 225 22:18 25.01.2022
5716 Snow -9 1015 96 145 2.1 223 21:22 25.01.2022
5717 Snow -9 1015 96 145 2.1 223 20:44 25.01.2022
5718 Snow -8 1015 96 171 2.46 215 19:53 25.01.2022
5719 Snow -8 1017 96 130 2.69 207 18:50 25.01.2022
5720 Clouds -8 1017 95 483 2.81 202 17:47 25.01.2022
5721 Snow -8 1018 96 10000 2.67 196 17:18 25.01.2022
5722 Clouds -8 1018 96 10000 2.56 189 16:34 25.01.2022
5723 Clouds -8 1018 96 10000 2.56 189 15:39 25.01.2022
5724 Clouds -8 1019 96 10000 2 207 15:18 25.01.2022
5725 Clouds -7 1019 87 10000 2 207 14:43 25.01.2022
5726 Clouds -8 1021 91 10000 3.05 206 11:52 25.01.2022
5727 Clouds -9 1024 95 10000 2.37 215 09:21 25.01.2022
5728 Clouds -9 1025 99 6545 1.99 210 07:52 25.01.2022
5729 Clouds -10 1026 100 5903 1.91 195 06:54 25.01.2022
5730 Clouds -11 1028 100 5666 1.47 217 05:23 25.01.2022
5731 Clouds -10 1031 100 5092 1.35 230 00:31 25.01.2022
5732 Clouds -10 1032 100 5873 1.41 224 23:36 24.01.2022
5733 Clouds -10 1032 100 5873 1.41 224 23:18 24.01.2022
5734 Clouds -10 1032 100 5874 1.41 224 22:42 24.01.2022
5735 Clouds -10 1032 100 5938 1.6 199 22:19 24.01.2022
5736 Clouds -9 1032 100 5938 1.6 199 21:40 24.01.2022
5737 Clouds -9 1033 100 5612 1.38 198 21:19 24.01.2022
5738 Clouds -9 1033 100 5831 1.18 219 20:26 24.01.2022
5739 Clouds -9 1033 100 5830 1.18 219 20:26 24.01.2022
5740 Clouds -9 1033 100 5831 1.18 219 19:38 24.01.2022
5741 Clouds -9 1034 100 6477 1.27 217 18:50 24.01.2022
5742 Clouds -9 1035 100 6544 1.09 202 17:25 24.01.2022
5743 Clouds -9 1035 100 6544 1.09 202 16:59 24.01.2022
5744 Clouds -8 1035 99 6545 0.74 239 16:30 24.01.2022
5745 Clouds -8 1035 99 6546 0.88 229 14:56 24.01.2022
5746 Clouds -8 1035 97 6841 1.21 181 13:58 24.01.2022
5747 Clouds -8 1036 94 10000 0.59 199 12:34 24.01.2022
5748 Clouds -8 1036 94 10000 0.59 199 11:41 24.01.2022
5749 Clouds -7 1037 96 6949 0.4 268 10:19 24.01.2022
5750 Clouds -6 1037 96 6948 0.4 268 09:44 24.01.2022
5751 Clouds -7 1037 100 3766 0.69 308 07:45 24.01.2022
5752 Clouds -11 1037 100 2659 1.31 320 01:38 24.01.2022
5753 Clouds -10 1037 100 2932 0.65 310 00:55 24.01.2022
5754 Clouds -18 1036 100 4601 0.73 354 00:30 24.01.2022
5755 Clouds -18 1036 100 4600 0.73 354 23:39 23.01.2022
5756 Clouds -17 1036 100 4077 1.29 5 21:53 23.01.2022
5757 Clouds -17 1035 100 3461 0.52 53 21:29 23.01.2022
5758 Clouds -17 1035 100 3461 0.52 53 20:57 23.01.2022
5759 Clouds -16 1035 100 4288 0.9 27 20:21 23.01.2022
5760 Clouds -15 1034 100 4815 1.01 21 18:53 23.01.2022
5761 Clouds -15 1034 100 4448 1.01 19 18:24 23.01.2022
5762 Clouds -5 1033 100 5764 1.2 16 16:56 23.01.2022
5763 Clouds -4 1032 99 6519 1.1 44 15:56 23.01.2022
5764 Clouds -4 1031 98 6546 1.15 54 14:50 23.01.2022
5765 Clouds -4 1030 97 8368 1.2 44 14:18 23.01.2022
5766 Snow -5 1029 96 10000 1.31 34 12:46 23.01.2022
5767 Snow -5 1028 94 10000 1.33 30 12:20 23.01.2022
5768 Snow -4 1027 94 10000 1.19 39 11:26 23.01.2022
5769 Snow -4 1027 94 10000 1.19 39 10:57 23.01.2022
5770 Snow -4 1027 95 8378 1.01 57 10:25 23.01.2022
5771 Clouds -5 1027 95 8320 1 57 09:32 23.01.2022
5772 Snow -5 1026 97 6405 1.3 82 08:49 23.01.2022
5773 Clouds -5 1022 98 1498 1.52 71 03:59 23.01.2022
5774 Clouds -4 1020 100 2684 1.64 78 01:38 23.01.2022
5775 Clouds -4 1019 99 3242 1.65 100 00:47 23.01.2022
5776 Clouds -4 1018 98 2342 1.98 96 00:18 23.01.2022
5777 Snow -4 1017 97 1395 2.47 95 22:55 22.01.2022
5778 Snow -4 1016 97 847 2.53 95 22:33 22.01.2022
5779 Snow -4 1015 97 879 2.65 95 20:47 22.01.2022
5780 Snow -4 1014 96 2240 2.79 102 19:46 22.01.2022
5781 Snow -4 1013 96 1190 2.99 109 18:43 22.01.2022
5782 Snow -4 1013 96 2124 2.75 107 17:49 22.01.2022
5783 Snow -4 1013 96 2122 2.75 107 17:31 22.01.2022
5784 Snow -4 1012 96 433 3.04 107 16:55 22.01.2022
5785 Snow -4 1011 96 665 3.11 105 15:49 22.01.2022
5786 Snow -4 1010 96 558 3.16 105 14:57 22.01.2022
5787 Snow -4 1009 96 326 3.5 106 13:36 22.01.2022
5788 Snow -4 1007 95 295 3.7 111 12:40 22.01.2022
5789 Snow -4 1007 95 213 3.89 116 12:22 22.01.2022
5790 Snow -4 1006 95 177 3.92 118 10:55 22.01.2022
5791 Clouds -5 1005 95 369 3.94 121 10:28 22.01.2022
5792 Clouds -5 1005 95 369 3.94 121 09:46 22.01.2022
5793 Snow -5 1005 95 537 4.08 123 08:51 22.01.2022
5794 Snow -6 1003 95 242 4.24 116 07:28 22.01.2022
5795 Snow -6 1001 95 191 4.07 121 04:52 22.01.2022
5796 Snow -6 1000 96 129 3.72 111 01:32 22.01.2022
5797 Clouds -7 1000 97 10000 2.19 141 23:30 21.01.2022
5798 Snow -7 999 96 10000 2.4 153 22:19 21.01.2022
5799 Snow -6 998 97 462 2.17 132 19:56 21.01.2022
5800 Snow -6 998 97 4904 2.63 139 18:36 21.01.2022
5801 Snow -6 998 95 1538 3.23 150 17:25 21.01.2022
5802 Snow -6 997 96 193 3.89 140 15:28 21.01.2022
5803 Snow -6 998 96 136 4.18 142 13:28 21.01.2022
5804 Snow -5 998 96 140 3.83 150 12:37 21.01.2022
5805 Snow -5 998 96 139 4.61 147 11:27 21.01.2022
5806 Snow -5 999 96 137 4.73 144 10:18 21.01.2022
5807 Snow -4 999 95 279 4.51 147 08:23 21.01.2022
5808 Snow -4 1000 94 2004 4.39 165 04:49 21.01.2022
5809 Snow -4 1000 94 2004 4.39 165 04:49 21.01.2022
5810 Snow -3 1001 95 220 5.28 175 23:31 20.01.2022
5811 Snow -3 1001 95 169 5.41 178 22:24 20.01.2022
5812 Snow -3 1001 95 169 5.41 178 21:43 20.01.2022
5813 Snow -3 1001 94 232 5.55 181 20:43 20.01.2022
5814 Snow -3 1001 91 3312 6 187 19:20 20.01.2022
5815 Snow -3 1001 92 1591 6.01 182 18:44 20.01.2022
5816 Clouds -3 1001 88 2183 6.12 183 16:58 20.01.2022
5817 Snow -3 1002 88 3503 6.14 180 15:43 20.01.2022
5818 Clouds -3 1002 88 3690 6.04 181 15:19 20.01.2022
5819 Clouds -3 1003 92 6432 5.88 190 13:41 20.01.2022
5820 Clouds -3 1003 93 6483 5.8 191 12:35 20.01.2022
5821 Clouds -3 1003 88 6481 5.8 191 11:50 20.01.2022
5822 Clouds -3 1004 88 6328 5.68 192 10:40 20.01.2022
5823 Clouds -3 1005 88 5968 5.3 193 09:37 20.01.2022
5824 Clouds -4 1005 93 5060 5.01 196 08:32 20.01.2022
5825 Clouds -4 1006 94 5423 4.95 204 05:32 20.01.2022
5826 Snow -5 1009 87 7799 4.72 203 23:35 19.01.2022
5827 Snow -6 1010 94 4927 4.6 202 22:32 19.01.2022
5828 Clouds -6 1011 94 8436 4.19 211 21:24 19.01.2022
5829 Clouds -6 1011 94 8437 4.19 211 20:50 19.01.2022
5830 Clouds -6 1012 94 8773 4.25 215 19:54 19.01.2022
5831 Snow -6 1013 94 10000 4 209 18:43 19.01.2022
5832 Clouds -6 1013 93 10000 4.01 213 17:49 19.01.2022
5833 Snow -6 1014 92 9300 3.76 210 16:57 19.01.2022
5834 Snow -6 1015 92 10000 3.19 201 14:42 19.01.2022
5835 Snow -6 1016 91 10000 2.72 200 12:53 19.01.2022
5836 Snow -7 1016 90 10000 2.43 216 11:42 19.01.2022
5837 Clouds -8 1016 88 10000 2.34 240 10:37 19.01.2022
5838 Clouds -10 1017 90 10000 2.18 252 09:34 19.01.2022
5839 Clouds -10 1018 98 10000 1.83 269 07:18 19.01.2022
5840 Clouds -9 1018 97 10000 2.05 278 05:18 19.01.2022
5841 Clouds -8 1017 96 10000 2.67 310 23:41 18.01.2022
5842 Clouds -8 1017 95 10000 3.16 320 23:18 18.01.2022
5843 Clouds -7 1016 93 10000 4.17 326 21:20 18.01.2022
5844 Clouds -6 1015 92 10000 4.36 331 19:55 18.01.2022
5845 Clouds -6 1015 92 10000 4.36 331 19:37 18.01.2022
5846 Clouds -6 1014 91 10000 4.67 337 18:57 18.01.2022
5847 Clouds -7 1013 91 10000 4.88 340 17:59 18.01.2022
5848 Clouds -6 1012 91 10000 4.74 343 17:27 18.01.2022
5849 Snow -6 1011 90 10000 5.12 347 15:50 18.01.2022
5850 Snow -6 1009 90 10000 5.51 348 15:23 18.01.2022
5851 Snow -6 1007 89 10000 5.7 351 13:26 18.01.2022
5852 Snow -5 1003 89 10000 6.43 353 10:49 18.01.2022
5853 Snow -5 1002 89 10000 6.78 353 09:39 18.01.2022
5854 Snow -4 999 89 10000 6.84 354 07:58 18.01.2022
5855 Snow -4 998 92 575 6.89 359 07:21 18.01.2022
5856 Snow -2 988 98 147 1.54 182 00:21 18.01.2022
5857 Snow -2 987 88 137 2.13 188 22:30 17.01.2022
5858 Snow -2 987 88 174 2.66 196 21:36 17.01.2022
5859 Snow -2 986 87 277 3.33 201 20:33 17.01.2022
5860 Snow -3 985 96 387 4 198 18:42 17.01.2022
5861 Snow -3 985 87 720 4.28 201 17:55 17.01.2022
5862 Snow -3 985 86 377 4.48 203 16:53 17.01.2022
5863 Snow -3 986 96 233 4.61 204 15:31 17.01.2022
5864 Snow -3 986 96 265 4.74 206 14:58 17.01.2022
5865 Snow -3 986 85 198 5.23 206 13:42 17.01.2022
5866 Snow -3 986 85 429 5.45 207 12:57 17.01.2022
5867 Snow -4 987 94 548 5.74 209 11:51 17.01.2022
5868 Snow -4 987 92 1020 5.98 212 10:43 17.01.2022
5869 Snow -4 989 93 455 6.36 214 09:35 17.01.2022
5870 Snow -5 990 93 676 6.58 214 08:18 17.01.2022
5871 Snow -4 991 84 194 6.48 215 07:19 17.01.2022
5872 Clouds -5 1000 85 10000 5.6 221 00:57 17.01.2022
5873 Clouds -6 1003 84 10000 5.32 231 22:53 16.01.2022
5874 Clouds -6 1005 92 10000 4.85 231 20:40 16.01.2022
5875 Clouds -6 1006 93 10000 4.58 232 19:44 16.01.2022
5876 Clouds -6 1007 94 10000 4 238 18:42 16.01.2022
5877 Clouds -6 1008 94 10000 3.93 244 17:45 16.01.2022
5878 Clouds -6 1009 95 10000 3.69 250 16:50 16.01.2022
5879 Clouds -5 1009 93 10000 3.72 264 15:34 16.01.2022
5880 Clouds -3 1009 92 10000 4.26 270 14:29 16.01.2022
5881 Clouds -3 1009 90 10000 4.13 280 12:51 16.01.2022
5882 Clouds -3 1009 91 6199 3.62 287 11:48 16.01.2022
5883 Clouds -3 1009 90 5236 3.63 306 10:58 16.01.2022
5884 Clouds -3 1009 83 9670 4.19 316 10:26 16.01.2022
5885 Clouds -3 1009 83 9670 4.19 316 09:56 16.01.2022
5886 Clouds -4 1009 87 10000 4.52 319 09:22 16.01.2022
5887 Clouds -4 1009 87 10000 4.52 319 08:47 16.01.2022
5888 Clouds -3 1006 83 7614 5.49 324 03:58 16.01.2022
5889 Snow -3 1004 82 10000 5.99 321 23:50 15.01.2022
5890 Snow -3 1003 82 5725 6.1 318 22:35 15.01.2022
5891 Snow -3 1002 81 4881 6.08 322 21:20 15.01.2022
5892 Snow -3 1002 80 4881 6.08 322 20:40 15.01.2022
5893 Snow -3 1001 81 10000 6.39 324 19:52 15.01.2022
5894 Snow -2 1002 82 3102 6.07 326 19:19 15.01.2022
5895 Snow -2 999 82 4022 6.66 331 17:35 15.01.2022
5896 Snow -2 998 83 6325 6.91 333 16:37 15.01.2022
5897 Snow -2 996 84 10000 7.24 331 13:57 15.01.2022
5898 Snow -2 993 88 4009 7.38 334 12:20 15.01.2022
5899 Snow -1 991 84 2526 7.28 323 10:43 15.01.2022
5900 Snow -2 990 86 10000 6.69 319 08:36 15.01.2022
5901 Clouds -2 984 83 6283 6.08 329 00:49 15.01.2022
5902 Clouds -1 981 85 2728 7.81 330 21:56 14.01.2022
5903 Snow -1 980 85 5928 8.53 328 20:42 14.01.2022
5904 Snow -1 978 85 10000 8.64 321 20:23 14.01.2022
5905 Clouds -1 978 86 10000 8.64 321 19:40 14.01.2022
5906 Clouds 0 976 88 10000 7.9 317 18:27 14.01.2022
5907 Snow 0 976 88 7065 7.14 323 16:50 14.01.2022
5908 Clouds 0 975 89 10000 6.66 325 15:48 14.01.2022
5909 Clouds 1 974 90 10000 5.89 324 14:46 14.01.2022
5910 Snow 1 975 89 1244 4.33 302 13:37 14.01.2022
5911 Snow 2 975 88 64 5.12 283 12:29 14.01.2022
5912 Snow 1 977 98 35 5.89 273 10:57 14.01.2022
5913 Snow 1 978 98 65 6.56 256 09:50 14.01.2022
5914 Snow 1 980 98 54 6.39 260 08:51 14.01.2022
5915 Snow 2 982 98 565 7.04 267 06:57 14.01.2022
5916 Snow -1 990 89 29 5.64 257 01:33 14.01.2022
5917 Snow -2 992 98 239 6.22 256 23:19 13.01.2022
5918 Snow -4 994 98 277 5.79 265 21:40 13.01.2022
5919 Snow -4 994 98 277 5.79 265 21:22 13.01.2022
5920 Snow -7 995 97 297 6.27 248 19:40 13.01.2022
5921 Snow -7 997 95 406 6.36 241 19:22 13.01.2022
5922 Snow -7 997 95 406 6.36 241 19:22 13.01.2022
5923 Clouds -8 998 87 657 5.85 237 17:53 13.01.2022
5924 Clouds -10 1001 86 520 6.57 236 16:21 13.01.2022
5925 Snow -10 1002 85 531 6.55 229 15:37 13.01.2022
5926 Snow -10 1002 88 531 6.55 229 14:47 13.01.2022
5927 Snow -14 1006 95 144 5.9 208 12:45 13.01.2022
5928 Clouds -17 1013 89 10000 4.08 217 10:25 13.01.2022
5929 Clouds -18 1015 90 10000 3.45 220 09:20 13.01.2022
5930 Clouds -18 1015 90 10000 3.45 220 09:20 13.01.2022
5931 Clouds -19 1016 88 10000 2.64 224 08:27 13.01.2022
5932 Clouds -20 1018 99 10000 2.43 240 07:24 13.01.2022
5933 Clouds -20 1019 100 10000 2.07 257 05:59 13.01.2022
5934 Clouds -20 1019 100 10000 2.07 257 05:59 13.01.2022
5935 Clouds -20 1019 100 10000 2.07 257 05:59 13.01.2022
5936 Clouds -17 1020 88 10000 1.72 273 05:19 13.01.2022
5937 Snow -17 1021 87 1065 1.51 309 02:33 13.01.2022
5938 Snow -17 1023 88 438 2.31 325 00:55 13.01.2022
5939 Clouds -17 1024 99 10000 1.88 329 23:49 12.01.2022
5940 Clouds -17 1024 99 10000 1.88 329 23:49 12.01.2022
5941 Clouds -17 1024 100 10000 2.01 328 23:20 12.01.2022
5942 Clouds -17 1025 99 6658 2 335 21:57 12.01.2022
5943 Clouds -17 1026 99 8132 2.22 338 21:23 12.01.2022
5944 Clouds -17 1026 99 8132 2.22 338 20:57 12.01.2022
5945 Snow -16 1026 99 10000 2.07 345 19:55 12.01.2022
5946 Snow -15 1026 88 10000 2.45 5 18:43 12.01.2022
5947 Clouds -15 1027 97 3167 2.99 355 17:38 12.01.2022
5948 Clouds -15 1028 97 4700 2.81 359 16:38 12.01.2022
5949 Clouds -14 1028 96 8991 2.82 357 14:49 12.01.2022
5950 Clouds -13 1028 95 7637 3.14 1 13:32 12.01.2022
5951 Clouds -13 1028 94 8060 3.36 8 12:34 12.01.2022
5952 Snow -13 1030 94 3604 3.66 18 08:45 12.01.2022
5953 Snow -14 1030 95 1486 3.64 14 07:52 12.01.2022
5954 Snow -13 1030 95 1486 3.64 14 07:32 12.01.2022
5955 Clouds -12 1031 95 1829 3.98 5 23:53 11.01.2022
5956 Snow -11 1031 96 2107 3.79 3 22:57 11.01.2022
5957 Clouds -11 1031 95 4312 3.74 3 22:23 11.01.2022
5958 Clouds -11 1031 95 9500 3.87 5 21:25 11.01.2022
5959 Snow -11 1030 94 10000 4.11 4 20:33 11.01.2022
5960 Clouds -11 1030 93 10000 4.55 4 18:48 11.01.2022
5961 Snow -11 1030 93 10000 4.5 2 17:42 11.01.2022
5962 Clouds -12 1030 92 10000 4.77 1 16:38 11.01.2022
5963 Clouds -12 1030 87 10000 4.77 1 15:59 11.01.2022
5964 Clouds -13 1029 87 10000 4.63 360 14:43 11.01.2022
5965 Clouds -12 1029 86 10000 4.56 2 13:58 11.01.2022
5966 Clouds -12 1029 86 10000 4.78 3 13:39 11.01.2022
5967 Clouds -12 1028 86 10000 4.84 2 13:21 11.01.2022
5968 Clouds -12 1028 86 10000 4.97 3 12:22 11.01.2022
5969 Snow -11 1027 87 10000 4.89 4 10:25 11.01.2022
5970 Clouds -10 1026 92 10000 4.92 4 07:35 11.01.2022
5971 Snow -7 1024 93 7000 4.81 356 02:57 11.01.2022
5972 Snow -5 1022 93 4792 5.03 357 00:24 11.01.2022
5973 Snow -6 1022 87 1449 4.72 358 23:38 10.01.2022
5974 Clouds -6 1021 87 875 4.52 0 22:19 10.01.2022
5975 Snow -6 1021 87 875 4.52 0 21:55 10.01.2022
5976 Snow -6 1021 87 7395 4.27 3 21:32 10.01.2022
5977 Snow -6 1021 88 7380 4.27 3 20:58 10.01.2022
5978 Snow -7 1020 88 8906 4.57 5 20:29 10.01.2022
5979 Snow -7 1020 87 8897 4.57 5 19:48 10.01.2022
5980 Snow -7 1020 87 8548 4.75 10 19:23 10.01.2022
5981 Snow -7 1019 87 6781 4.6 5 18:55 10.01.2022
5982 Snow -6 1019 87 6784 4.6 5 18:37 10.01.2022
5983 Snow -6 1018 86 587 4.67 14 16:48 10.01.2022
5984 Snow -6 1018 86 261 4.64 15 16:18 10.01.2022
5985 Snow -6 1017 86 153 4.28 17 14:41 10.01.2022
5986 Snow -5 1016 85 142 3.83 36 12:43 10.01.2022
5987 Snow -5 1015 96 158 3.86 43 11:55 10.01.2022
5988 Snow -6 1015 96 147 3.77 41 10:46 10.01.2022
5989 Snow -6 1015 87 149 3.27 45 08:59 10.01.2022
5990 Snow -7 1015 86 143 2.44 47 05:51 10.01.2022
5991 Snow -7 1015 85 152 1.87 88 01:35 10.01.2022
5992 Snow -7 1015 85 175 1.8 82 00:44 10.01.2022
5993 Snow -7 1015 85 134 2.02 91 00:19 10.01.2022
5994 Snow -7 1015 85 135 2.15 105 22:44 09.01.2022
5995 Snow -7 1015 84 132 2.51 117 21:57 09.01.2022
5996 Snow -7 1015 84 137 2.96 122 21:37 09.01.2022
5997 Snow -7 1015 84 137 2.96 122 21:18 09.01.2022
5998 Snow -7 1015 84 137 2.96 122 20:45 09.01.2022
5999 Snow -7 1016 84 133 3.18 125 20:26 09.01.2022
6000 Snow -7 1016 83 133 3.23 124 19:38 09.01.2022
6001 Snow -7 1016 83 133 3.23 124 19:20 09.01.2022
6002 Snow -7 1016 96 141 3.19 126 18:37 09.01.2022
6003 Snow -7 1017 96 137 3.15 134 18:18 09.01.2022
6004 Snow -7 1017 96 137 3.15 134 17:30 09.01.2022
6005 Snow -6 1017 85 157 3.42 138 16:49 09.01.2022
6006 Snow -5 1017 82 448 3.44 144 15:46 09.01.2022
6007 Snow -5 1018 81 2763 3.35 152 15:25 09.01.2022
6008 Snow -5 1018 80 2763 3.35 152 14:39 09.01.2022
6009 Snow -4 1018 80 10000 3.51 159 13:49 09.01.2022
6010 Snow -5 1019 87 10000 3.72 179 12:19 09.01.2022
6011 Snow -5 1019 87 10000 3.72 179 11:38 09.01.2022
6012 Snow -5 1020 84 10000 4.18 183 09:55 09.01.2022
6013 Snow -5 1020 83 10000 4.42 187 09:29 09.01.2022
6014 Snow -5 1019 84 10000 4.69 188 08:18 09.01.2022
6015 Clouds -5 1021 91 10000 3.35 187 01:31 09.01.2022
6016 Clouds -5 1021 91 10000 3.26 186 00:53 09.01.2022
6017 Clouds -5 1022 93 10000 3.1 199 23:37 08.01.2022
6018 Clouds -5 1022 93 10000 3.1 199 22:58 08.01.2022
6019 Clouds -4 1022 95 10000 2.93 199 21:32 08.01.2022
6020 Clouds -4 1022 95 10000 2.93 199 20:44 08.01.2022
6021 Clouds -4 1022 95 10000 2.93 202 20:23 08.01.2022
6022 Clouds -4 1022 95 10000 2.93 202 19:55 08.01.2022
6023 Clouds -4 1022 96 10000 2.58 198 17:49 08.01.2022
6024 Clouds -5 1022 95 10000 2.63 208 16:57 08.01.2022
6025 Clouds -5 1022 96 10000 2.64 208 15:37 08.01.2022
6026 Clouds -5 1022 98 6823 1.93 191 14:38 08.01.2022
6027 Clouds -5 1021 93 10000 3.01 248 12:36 08.01.2022
6028 Clouds -6 1021 92 10000 3.51 251 10:49 08.01.2022
6029 Clouds -6 1021 93 10000 3.83 253 10:24 08.01.2022
6030 Snow -6 1020 93 10000 4.15 252 09:34 08.01.2022
6031 Snow -6 1019 92 5747 4.09 259 07:18 08.01.2022
6032 Snow -6 1015 85 10000 4.47 281 02:33 08.01.2022
6033 Snow -6 1013 85 10000 5.51 288 00:40 08.01.2022
6034 Clouds -6 1011 80 10000 6.34 289 22:40 07.01.2022
6035 Snow -6 1008 84 140 3.26 311 20:56 07.01.2022
6036 Snow -6 1007 86 145 3.57 294 19:56 07.01.2022
6037 Snow -6 1007 86 145 3.57 294 19:56 07.01.2022
6038 Snow -5 1006 85 252 5.38 273 18:54 07.01.2022
6039 Snow -6 1006 93 252 5.38 273 18:34 07.01.2022
6040 Clouds -5 1005 83 9113 6.58 247 17:25 07.01.2022
6041 Snow -6 1005 88 10000 6.35 246 16:23 07.01.2022
6042 Clear -6 1005 88 10000 5.33 250 13:53 07.01.2022
6043 Clouds -6 1004 88 10000 4.81 251 13:21 07.01.2022
6044 Clouds -6 1004 88 10000 4.91 249 12:48 07.01.2022
6045 Snow -5 1004 90 10000 3.67 273 09:37 07.01.2022
6046 Clouds -1 1000 94 10000 3.38 266 02:55 07.01.2022
6047 Clouds -2 999 93 10000 3.69 268 01:54 07.01.2022
6048 Clouds -1 999 89 10000 4.09 270 01:27 07.01.2022
6049 Clouds -1 998 89 10000 4.07 264 00:57 07.01.2022
6050 Clouds 0 997 91 4349 5.17 241 22:53 06.01.2022
6051 Clouds 0 997 89 10000 4.68 229 21:28 06.01.2022
6052 Clouds 0 997 87 10000 4.91 231 20:21 06.01.2022
6053 Clouds 0 997 87 10000 4.91 231 19:44 06.01.2022
6054 Clouds -1 997 91 10000 3.85 237 18:29 06.01.2022
6055 Clouds -1 997 94 10000 3.86 233 17:34 06.01.2022
6056 Clouds -1 997 94 10000 3.86 233 16:44 06.01.2022
6057 Clouds -1 997 96 10000 3.3 225 15:47 06.01.2022
6058 Clouds 0 996 97 10000 2.53 228 15:26 06.01.2022
6059 Clouds 0 996 97 10000 2.53 228 14:45 06.01.2022
6060 Clouds 0 996 96 10000 2.35 236 14:18 06.01.2022
6061 Snow 0 994 98 4853 1.46 259 12:50 06.01.2022
6062 Snow 0 994 99 993 0.89 272 11:43 06.01.2022
6063 Snow 0 994 99 772 0.49 286 11:22 06.01.2022
6064 Snow 0 995 89 796 0.75 236 08:52 06.01.2022
6065 Clouds -1 995 89 10000 4.11 250 01:37 06.01.2022
6066 Clouds -2 995 88 736 3.62 237 23:38 05.01.2022
6067 Snow -3 994 88 10000 2.68 246 22:59 05.01.2022
6068 Clouds -3 994 88 2195 3.35 260 22:33 05.01.2022
6069 Clouds -3 994 88 2195 3.35 260 21:49 05.01.2022
6070 Clouds -3 994 88 2443 1.97 237 21:21 05.01.2022
6071 Clouds -5 993 98 1235 1.08 179 20:19 05.01.2022
6072 Clouds -6 994 96 773 2.17 130 18:50 05.01.2022
6073 Snow -6 993 96 738 3.39 117 17:44 05.01.2022
6074 Snow -6 994 95 303 3.65 124 16:51 05.01.2022
6075 Snow -6 994 94 349 4.5 130 15:43 05.01.2022
6076 Snow -6 995 95 138 5.78 126 14:24 05.01.2022
6077 Snow -6 995 96 117 5.76 120 13:32 05.01.2022
6078 Snow -6 996 86 137 5.56 119 11:45 05.01.2022
6079 Snow -6 1000 86 3345 4.43 137 08:20 05.01.2022
6080 Clouds -6 1001 86 3893 4.15 141 06:25 05.01.2022
6081 Clouds -7 1004 97 1512 2.98 151 00:59 05.01.2022
6082 Clouds -6 1005 96 861 2.85 159 23:38 04.01.2022
6083 Clouds -6 1005 96 3072 2.95 162 23:18 04.01.2022
6084 Clouds -7 1005 96 2556 2.93 165 21:31 04.01.2022
6085 Clouds -7 1005 96 872 2.81 174 19:55 04.01.2022
6086 Clouds -7 1006 97 3092 2.29 164 18:19 04.01.2022
6087 Clouds -7 1006 98 5420 2.2 161 17:18 04.01.2022
6088 Clouds -7 1006 98 3522 2.08 148 16:31 04.01.2022
6089 Clouds -7 1006 97 1433 2.11 141 14:58 04.01.2022
6090 Clouds -7 1006 97 1432 2.11 141 14:36 04.01.2022
6091 Snow -7 1005 96 509 1.94 142 13:48 04.01.2022
6092 Clouds -8 1005 93 9807 1.86 153 11:44 04.01.2022
6093 Clouds -9 1005 93 10000 1.67 151 10:18 04.01.2022
6094 Snow -9 1005 94 10000 1.62 139 08:36 04.01.2022
6095 Clouds -9 1003 97 10000 1.31 99 06:28 04.01.2022
6096 Clouds -9 1002 100 9433 1.4 79 00:42 04.01.2022
6097 Clouds -9 1002 100 8398 1.35 65 23:49 03.01.2022
6098 Clouds -9 1002 99 8152 1.79 73 22:21 03.01.2022
6099 Snow -9 1002 99 8152 1.79 73 21:38 03.01.2022
6100 Clouds -8 1001 99 8045 1.98 71 20:40 03.01.2022
6101 Clouds -8 1000 97 10000 2.22 76 18:55 03.01.2022
6102 Clouds -8 1000 97 10000 2.39 83 18:30 03.01.2022
6103 Clouds -8 1000 97 10000 2.39 83 18:30 03.01.2022
6104 Clouds -8 1000 96 10000 2.72 91 17:20 03.01.2022
6105 Clouds -9 1000 96 10000 2.87 95 16:31 03.01.2022
6106 Clouds -8 1001 94 10000 3 93 14:31 03.01.2022
6107 Clouds -8 1001 93 10000 3.44 105 12:52 03.01.2022
6108 Snow -8 1001 93 10000 3.05 105 11:50 03.01.2022
6109 Snow -8 1002 92 10000 2.85 121 10:38 03.01.2022
6110 Snow -9 1004 95 10000 2.19 126 09:28 03.01.2022
6111 Clouds -9 1004 95 10000 2.19 126 09:28 03.01.2022
6112 Snow -8 1005 97 10000 2 139 07:53 03.01.2022
6113 Clouds -8 1009 98 9215 1.06 199 03:22 03.01.2022
6114 Clouds -8 1013 99 6547 1.85 248 23:24 02.01.2022
6115 Clouds -8 1013 99 6547 1.85 248 22:56 02.01.2022
6116 Clouds -8 1013 98 6618 1.81 270 22:20 02.01.2022
6117 Clouds -8 1013 97 7344 2.38 268 20:52 02.01.2022
6118 Clouds -8 1013 97 7471 2.57 266 20:30 02.01.2022
6119 Clouds -8 1013 96 10000 2.32 277 19:32 02.01.2022
6120 Snow -8 1013 95 10000 2.58 279 18:56 02.01.2022
6121 Clouds -8 1013 94 10000 3.36 284 18:23 02.01.2022
6122 Clouds -8 1013 94 10000 3.36 284 17:42 02.01.2022
6123 Clouds -8 1013 93 10000 3.58 286 17:21 02.01.2022
6124 Clouds -8 1013 93 10000 4 292 16:28 02.01.2022
6125 Clouds -7 1013 93 10000 4 292 15:39 02.01.2022
6126 Snow -7 1014 92 10000 4.26 296 13:57 02.01.2022
6127 Clouds -7 1013 91 10000 4.58 301 12:32 02.01.2022
6128 Snow -7 1013 91 10000 4.58 301 11:55 02.01.2022
6129 Snow -7 1013 91 10000 4.84 306 10:55 02.01.2022
6130 Snow -8 1013 92 4890 5.26 302 10:18 02.01.2022
6131 Snow -7 1013 92 5438 4.82 306 07:44 02.01.2022
6132 Snow -5 1010 91 6187 5.26 318 02:57 02.01.2022
6133 Clouds -4 1008 91 6018 4.81 328 23:54 01.01.2022
6134 Clouds -4 1008 91 6018 4.81 328 23:35 01.01.2022
6135 Snow -4 1007 91 5780 5.17 330 22:39 01.01.2022
6136 Snow -4 1006 91 3861 5.19 337 22:18 01.01.2022
6137 Clouds -4 1006 91 3861 5.19 337 22:18 01.01.2022
6138 Clouds -3 1006 91 3861 5.19 337 21:42 01.01.2022
6139 Clouds -3 1005 91 5877 4.86 340 20:36 01.01.2022
6140 Snow -3 1004 93 835 4.71 342 19:47 01.01.2022
6141 Clouds -3 1004 90 10000 4.56 339 18:53 01.01.2022
6142 Snow -2 1003 94 6799 3.5 328 17:45 01.01.2022
6143 Clouds -1 1002 86 10000 2.61 311 16:35 01.01.2022
6144 Clouds -2 1002 95 10000 2.61 311 15:45 01.01.2022
6145 Clouds -1 1002 94 10000 2.66 316 14:40 01.01.2022
6146 Clouds -1 1001 92 10000 2.96 317 13:42 01.01.2022
6147 Clouds -1 1001 92 10000 2.96 317 13:42 01.01.2022
6148 Clouds -1 1001 92 10000 2.79 329 12:26 01.01.2022
6149 Clouds -1 1001 92 10000 2.79 329 11:46 01.01.2022
6150 Clouds -1 1001 93 10000 3.03 330 11:18 01.01.2022
6151 Clouds -1 1001 94 10000 2.63 314 09:48 01.01.2022
6152 Clouds -1 1001 96 10000 2.14 291 08:49 01.01.2022
6153 Clouds -1 1001 97 10000 1.96 276 08:21 01.01.2022
6154 Clouds -1 1001 97 10000 1.95 276 07:40 01.01.2022
6155 Clouds -1 1000 98 10000 1.9 279 06:44 01.01.2022
6156 Clouds -2 1000 98 10000 1.71 257 05:25 01.01.2022
6157 Clouds -2 1000 98 10000 1.71 257 04:37 01.01.2022
6158 Snow -3 1001 97 2420 3.07 238 00:37 01.01.2022
6159 Snow -3 1002 89 138 3.66 225 22:40 31.12.2021
6160 Snow -3 1002 89 135 4.04 218 21:51 31.12.2021
6161 Snow -4 1004 96 212 4.23 199 20:28 31.12.2021
6162 Snow -4 1004 96 276 4.17 195 19:28 31.12.2021
6163 Snow -4 1004 96 194 4.27 194 18:30 31.12.2021
6164 Snow -4 1005 96 831 4.03 191 17:37 31.12.2021
6165 Clouds -5 1006 96 10000 3.63 189 17:18 31.12.2021
6166 Clouds -5 1007 96 10000 3.52 186 16:19 31.12.2021
6167 Clouds -5 1007 96 10000 3.52 186 15:53 31.12.2021
6168 Clouds -5 1008 96 7001 3.33 181 15:28 31.12.2021
6169 Clouds -5 1008 96 6996 3.33 181 14:41 31.12.2021
6170 Clouds -5 1009 96 1259 3.05 177 14:18 31.12.2021
6171 Clouds -5 1009 96 1259 3.05 177 13:35 31.12.2021
6172 Clouds -5 1010 96 2175 2.96 182 12:44 31.12.2021
6173 Snow -5 1010 95 3384 3.06 191 11:43 31.12.2021
6174 Clouds -5 1011 96 7265 3.19 190 11:20 31.12.2021
6175 Clouds -5 1011 95 4541 3.14 191 10:32 31.12.2021
6176 Clouds -6 1012 96 1729 2.68 193 09:35 31.12.2021
6177 Clouds -6 1012 96 1729 2.68 193 08:56 31.12.2021
6178 Clouds -6 1012 96 7985 2.52 191 08:25 31.12.2021
6179 Clouds -6 1012 96 7988 2.52 191 07:30 31.12.2021
6180 Clouds -7 1016 97 1919 2.04 182 23:23 30.12.2021
6181 Snow -7 1017 97 1330 1.68 174 22:33 30.12.2021
6182 Clouds -8 1017 97 1330 1.68 174 21:54 30.12.2021
6183 Snow -8 1017 97 1330 1.68 174 21:36 30.12.2021
6184 Clouds -8 1018 97 748 1.67 182 20:45 30.12.2021
6185 Clouds -7 1018 98 752 1.48 191 20:24 30.12.2021
6186 Clouds -7 1018 98 752 1.48 191 19:45 30.12.2021
6187 Clouds -8 1019 98 5545 1.83 172 18:29 30.12.2021
6188 Snow -8 1019 98 5546 1.83 172 17:52 30.12.2021
6189 Snow -8 1019 98 835 1.39 177 16:19 30.12.2021
6190 Snow -8 1019 98 835 1.39 177 15:51 30.12.2021
6191 Snow -9 1020 98 815 1.31 169 14:39 30.12.2021
6192 Clouds -9 1020 98 925 1.26 166 13:55 30.12.2021
6193 Snow -9 1019 96 2104 1.37 170 12:40 30.12.2021
6194 Clouds -10 1020 93 950 1.87 179 10:58 30.12.2021
6195 Clouds -11 1021 94 2018 1.96 178 09:59 30.12.2021
6196 Clouds -11 1021 94 2018 1.96 178 09:59 30.12.2021
6197 Clouds -11 1021 96 2862 1.96 164 09:21 30.12.2021
6198 Clouds -12 1021 98 3569 1.46 129 06:54 30.12.2021
6199 Clouds -13 1022 99 1548 1.21 112 04:20 30.12.2021
6200 Clouds -13 1022 99 1548 1.21 112 03:38 30.12.2021
6201 Clouds -14 1023 99 1344 1.46 106 23:57 29.12.2021
6202 Clouds -15 1022 99 2741 1.87 110 23:23 29.12.2021
6203 Clouds -15 1023 98 3246 1.99 108 22:22 29.12.2021
6204 Clouds -15 1023 98 3245 1.99 108 21:45 29.12.2021
6205 Clouds -16 1023 99 3352 1.98 107 20:39 29.12.2021
6206 Clouds -16 1023 98 4141 2.21 102 19:51 29.12.2021
6207 Clouds -15 1024 98 4421 2.07 85 18:57 29.12.2021
6208 Clouds -15 1024 97 10000 2.17 91 18:19 29.12.2021
6209 Clouds -15 1024 97 10000 2.58 99 17:28 29.12.2021
6210 Clouds -15 1024 97 10000 2.58 99 16:49 29.12.2021
6211 Clouds -15 1025 98 10000 2.55 89 16:19 29.12.2021
6212 Clouds -15 1025 98 10000 2.43 81 14:46 29.12.2021
6213 Clouds -11 1025 86 10000 2.94 111 12:49 29.12.2021
6214 Clouds -11 1025 86 10000 2.95 115 12:27 29.12.2021
6215 Clouds -13 1027 96 10000 2.73 120 10:36 29.12.2021
6216 Snow -13 1028 98 6056 2.04 116 08:37 29.12.2021
6217 Clouds -12 1028 100 5000 1.65 120 06:48 29.12.2021
6218 Clouds -12 1028 100 5158 1.52 120 06:27 29.12.2021
6219 Clouds -13 1028 100 5158 1.52 120 05:44 29.12.2021
6220 Clouds -13 1028 100 3837 1.55 130 03:20 29.12.2021
6221 Clouds -11 1028 100 2782 1.24 130 00:25 29.12.2021
6222 Clouds -10 1028 100 2783 1.24 130 23:56 28.12.2021
6223 Clouds -11 1028 100 3160 1.04 148 22:50 28.12.2021
6224 Clouds -12 1028 100 3293 1.2 177 22:24 28.12.2021
6225 Clouds -10 1028 100 3293 1.2 177 21:54 28.12.2021
6226 Clouds -11 1028 100 4440 1.1 178 20:54 28.12.2021
6227 Clouds -10 1027 100 5482 0.98 191 19:50 28.12.2021
6228 Clouds -10 1028 100 6000 1.29 191 18:53 28.12.2021
6229 Clouds -9 1028 100 6452 1.28 194 18:24 28.12.2021
6230 Snow -8 1027 100 6519 1.2 198 17:25 28.12.2021
6231 Snow -9 1027 100 6544 1.1 205 15:53 28.12.2021
6232 Snow -8 1027 100 6539 1.34 200 15:29 28.12.2021
6233 Clouds -8 1027 100 6539 1.34 200 14:54 28.12.2021
6234 Snow -8 1027 98 6627 1.22 205 14:22 28.12.2021
6235 Clouds -8 1027 98 6627 1.22 205 13:58 28.12.2021
6236 Clouds -8 1026 97 6746 1.07 217 13:34 28.12.2021
6237 Clouds -8 1026 97 6745 1.07 217 12:55 28.12.2021
6238 Clouds -8 1025 96 9288 1.08 236 12:19 28.12.2021
6239 Clouds -8 1025 97 6597 1.6 255 10:19 28.12.2021
6240 Clouds -10 1025 100 4773 1.73 250 07:33 28.12.2021
6241 Snow -9 1024 100 6346 1.97 256 03:35 28.12.2021
6242 Snow -9 1022 98 6451 2.29 256 23:39 27.12.2021
6243 Clouds -8 1021 97 7095 2.48 254 22:21 27.12.2021
6244 Clouds -8 1021 97 7095 2.48 254 21:30 27.12.2021
6245 Clouds -8 1021 97 10000 2.59 256 20:39 27.12.2021
6246 Clouds -9 1020 95 9400 3.06 261 19:48 27.12.2021
6247 Clouds -9 1019 94 6724 3.25 261 19:27 27.12.2021
6248 Snow -9 1018 94 5468 3.53 260 17:54 27.12.2021
6249 Snow -9 1018 94 5468 3.53 260 17:54 27.12.2021
6250 Clouds -9 1018 94 2476 3.44 255 17:28 27.12.2021
6251 Clouds -9 1017 88 4358 3.57 250 16:23 27.12.2021
6252 Clouds -9 1017 88 4358 3.57 250 15:44 27.12.2021
6253 Clouds -10 1017 86 1769 3.77 245 14:24 27.12.2021
6254 Clouds -10 1016 86 2801 3.57 243 12:56 27.12.2021
6255 Clouds -10 1015 86 10000 4.22 251 11:20 27.12.2021
6256 Clouds -12 1015 86 10000 4.28 253 10:27 27.12.2021
6257 Clouds -13 1015 92 10000 4.32 256 09:27 27.12.2021
6258 Clouds -12 1014 92 10000 4.46 256 07:34 27.12.2021
6259 Clouds -12 1013 92 10000 4.38 255 06:29 27.12.2021
6260 Clouds -12 1011 86 10000 4.89 265 01:58 27.12.2021
6261 Clouds -13 1009 89 10000 5.13 267 23:50 26.12.2021
6262 Clouds -12 1008 85 10000 5.32 268 23:20 26.12.2021
6263 Clouds -12 1007 87 10000 5.31 271 21:48 26.12.2021
6264 Clouds -10 1005 86 10000 6.69 283 20:25 26.12.2021
6265 Clouds -9 1004 86 10000 7.48 285 18:53 26.12.2021
6266 Clouds -9 1002 84 9494 7.89 287 18:22 26.12.2021
6267 Snow -6 997 87 530 8.25 273 15:55 26.12.2021
6268 Snow -7 997 85 7537 7.52 221 13:52 26.12.2021
6269 Snow -7 997 85 1490 7.33 219 13:32 26.12.2021
6270 Snow -7 998 85 2907 7.21 219 12:37 26.12.2021
6271 Clouds -7 998 85 5165 7 217 11:57 26.12.2021
6272 Clouds -8 999 88 10000 6.71 218 09:44 26.12.2021
6273 Clouds -8 1000 89 5747 6.74 220 09:18 26.12.2021
6274 Snow -8 1000 87 5746 6.74 220 08:39 26.12.2021
6275 Snow -8 1000 87 10000 6.49 217 06:47 26.12.2021
6276 Clouds -12 1002 88 9416 4.46 210 00:58 26.12.2021
6277 Clouds -12 1002 87 10000 4.14 224 23:50 25.12.2021
6278 Clouds -12 1002 87 10000 4.45 239 23:26 25.12.2021
6279 Clouds -12 1002 90 10000 4.74 243 22:23 25.12.2021
6280 Clouds -11 1001 89 10000 4.92 248 20:48 25.12.2021
6281 Clouds -10 999 86 10000 5.72 261 19:22 25.12.2021
6282 Clouds -10 999 86 10000 5.75 259 18:54 25.12.2021
6283 Clouds -10 998 86 6534 5.47 258 17:29 25.12.2021
6284 Clouds -9 998 87 6541 5.47 258 16:35 25.12.2021
6285 Snow -9 996 84 10000 6.25 267 14:46 25.12.2021
6286 Clouds -8 992 85 10000 7.24 274 12:49 25.12.2021
6287 Snow -8 989 85 826 5.85 264 11:46 25.12.2021
6288 Snow -9 988 95 148 3.72 207 09:51 25.12.2021
6289 Snow -10 989 95 134 3.88 181 08:38 25.12.2021
6290 Snow -12 994 90 148 6.51 161 02:59 25.12.2021
6291 Snow -13 997 89 154 6.66 163 00:33 25.12.2021
6292 Snow -12 998 88 186 6.74 163 23:40 24.12.2021
6293 Clouds -12 1003 87 5322 6.47 176 19:45 24.12.2021
6294 Clouds -11 1004 87 10000 6.48 177 19:23 24.12.2021
6295 Snow -9 1005 87 10000 6.12 176 16:53 24.12.2021
6296 Clouds -9 1006 88 10000 5.87 182 16:21 24.12.2021
6297 Clouds -10 1006 87 10000 5.86 182 15:48 24.12.2021
6298 Snow -9 1006 88 10000 5.73 183 14:47 24.12.2021
6299 Clouds -9 1007 88 10000 5.71 189 14:26 24.12.2021
6300 Snow -9 1007 87 10000 5.71 189 13:41 24.12.2021
6301 Clouds -9 1007 87 10000 5.83 194 12:48 24.12.2021
6302 Clouds -9 1007 87 10000 5.85 201 12:20 24.12.2021
6303 Clouds -9 1007 87 10000 6.01 206 11:29 24.12.2021
6304 Clouds -9 1007 87 10000 6.01 206 10:59 24.12.2021
6305 Clouds -9 1008 88 10000 6.1 212 10:31 24.12.2021
6306 Snow -10 1008 86 10000 6.13 216 08:28 24.12.2021
6307 Clouds -10 1008 86 10000 6.13 216 07:57 24.12.2021
6308 Snow -12 1009 88 4701 5.96 213 06:18 24.12.2021
6309 Clouds -12 1011 90 10000 5.35 220 00:19 24.12.2021
6310 Clouds -12 1012 90 10000 5.29 222 23:33 23.12.2021
6311 Clouds -12 1012 90 10000 5.29 222 22:44 23.12.2021
6312 Clouds -12 1012 90 10000 5.11 225 22:21 23.12.2021
6313 Clouds -12 1012 89 10000 5.04 226 21:34 23.12.2021
6314 Clouds -12 1013 89 10000 4.93 230 20:21 23.12.2021
6315 Clouds -12 1013 89 10000 4.97 230 19:27 23.12.2021
6316 Clouds -12 1014 88 10000 4.75 233 17:58 23.12.2021
6317 Clouds -12 1014 87 10000 4.72 239 17:18 23.12.2021
6318 Clouds -12 1014 87 10000 4.73 242 16:26 23.12.2021
6319 Clouds -11 1014 87 10000 4.53 248 15:32 23.12.2021
6320 Clouds -11 1014 85 10000 4.53 248 14:56 23.12.2021
6321 Clouds -11 1014 85 10000 4.53 248 14:38 23.12.2021
6322 Clouds -11 1015 91 10000 4.19 258 13:23 23.12.2021
6323 Clouds -12 1015 92 10000 4.37 269 11:19 23.12.2021
6324 Clouds -12 1015 93 10000 4.19 271 09:53 23.12.2021
6325 Clouds -12 1016 93 10000 4.23 274 09:33 23.12.2021
6326 Clouds -12 1016 93 10000 4.45 277 08:25 23.12.2021
6327 Clouds -15 1016 89 6863 4.15 280 05:23 23.12.2021
6328 Clouds -20 1017 84 6708 2.86 275 00:34 23.12.2021
6329 Clouds -21 1017 84 8190 3.08 286 22:50 22.12.2021
6330 Clouds -21 1017 84 4490 3.14 293 21:59 22.12.2021
6331 Clouds -21 1017 84 4071 3.15 298 21:30 22.12.2021
6332 Clouds -21 1017 84 4071 3.15 298 20:59 22.12.2021
6333 Clouds -21 1017 84 4071 3.15 298 20:40 22.12.2021
6334 Clouds -21 1016 84 2865 3.24 302 19:50 22.12.2021
6335 Clouds -22 1017 95 3079 2.94 298 18:55 22.12.2021
6336 Clouds -22 1017 96 1577 2.98 305 17:38 22.12.2021
6337 Clouds -22 1017 96 3127 2.76 307 15:56 22.12.2021
6338 Clouds -21 1016 95 2298 2.87 314 14:23 22.12.2021
6339 Clouds -21 1016 94 3794 3 315 12:53 22.12.2021
6340 Snow -20 1016 93 6390 2.98 312 11:39 22.12.2021
6341 Clouds -21 1016 95 8125 2.97 316 09:52 22.12.2021
6342 Clouds -22 1016 99 5247 2.16 288 07:57 22.12.2021
6343 Clouds -22 1016 100 2838 1.73 276 05:54 22.12.2021
6344 Clouds -22 1016 100 2838 1.73 276 05:34 22.12.2021
6345 Clouds -22 1015 99 4983 1.77 284 04:57 22.12.2021
6346 Clouds -22 1015 99 4983 1.77 284 04:37 22.12.2021
6347 Clouds -22 1015 98 10000 2.14 299 03:49 22.12.2021
6348 Clouds -22 1015 98 10000 2.06 297 03:31 22.12.2021
6349 Clouds -21 1014 96 2962 2.75 329 23:48 21.12.2021
6350 Clouds -20 1013 95 2321 2.93 332 22:41 21.12.2021
6351 Clouds -19 1013 87 1219 2.87 334 21:56 21.12.2021
6352 Clouds -19 1013 87 652 2.79 337 21:32 21.12.2021
6353 Clouds -19 1013 87 652 2.79 337 20:39 21.12.2021
6354 Snow -19 1013 87 465 2.71 338 20:18 21.12.2021
6355 Clouds -18 1012 87 541 2.65 335 19:33 21.12.2021
6356 Clouds -18 1013 95 863 2.59 334 18:23 21.12.2021
6357 Clouds -17 1013 86 863 2.59 334 17:58 21.12.2021
6358 Clouds -17 1012 86 1052 2.71 332 17:29 21.12.2021
6359 Snow -17 1012 94 1818 2.66 326 15:34 21.12.2021
6360 Snow -17 1011 94 1831 2.76 327 14:21 21.12.2021
6361 Snow -16 1011 94 1831 2.76 327 13:42 21.12.2021
6362 Snow -16 1010 91 815 3.24 333 12:26 21.12.2021
6363 Clouds -16 1010 92 515 3.21 334 10:38 21.12.2021
6364 Snow -16 1010 91 806 3.29 334 09:56 21.12.2021
6365 Clouds -17 1009 93 2414 3.31 327 08:57 21.12.2021
6366 Clouds -16 1009 87 1870 3.29 324 07:44 21.12.2021
6367 Snow -16 1009 95 1133 3.36 323 07:22 21.12.2021
6368 Snow -16 1007 88 846 3.59 329 03:26 21.12.2021
6369 Snow -15 1006 89 1231 3.71 329 01:25 21.12.2021
6370 Snow -15 1006 89 909 3.8 326 23:54 20.12.2021
6371 Clouds -14 1005 94 829 3.97 327 22:35 20.12.2021
6372 Clouds -14 1005 94 905 4.1 330 21:59 20.12.2021
6373 Clouds -13 1004 93 1091 4.27 331 21:27 20.12.2021
6374 Clouds -13 1004 93 1092 4.27 331 20:54 20.12.2021
6375 Clouds -13 1004 93 1104 4.47 333 20:23 20.12.2021
6376 Clouds -13 1004 93 1104 4.47 333 19:38 20.12.2021
6377 Clouds -13 1003 93 658 4.68 334 19:19 20.12.2021
6378 Snow -12 1003 93 684 4.75 332 18:33 20.12.2021
6379 Snow -12 1003 93 684 4.75 332 17:51 20.12.2021
6380 Snow -12 1002 93 591 4.7 333 16:47 20.12.2021
6381 Snow -11 1001 91 1530 4.89 336 16:18 20.12.2021
6382 Clouds -11 1001 91 1530 4.89 336 15:40 20.12.2021
6383 Snow -10 1000 90 2763 5.39 340 13:49 20.12.2021
6384 Snow -9 999 91 1551 5.48 340 12:40 20.12.2021
6385 Clouds -9 997 91 1895 5.62 343 10:50 20.12.2021
6386 Snow -8 996 88 1341 5.76 344 09:40 20.12.2021
6387 Snow -9 995 92 528 5.83 345 08:50 20.12.2021
6388 Snow -8 994 88 472 5.89 346 08:32 20.12.2021
6389 Clouds -8 994 88 472 5.89 346 07:38 20.12.2021
6390 Snow -8 993 89 563 5.89 346 06:39 20.12.2021
6391 Snow -5 987 88 143 5.81 336 01:33 20.12.2021
6392 Snow -4 986 92 1004 5.2 306 23:28 19.12.2021
6393 Snow -4 986 92 1003 5.2 306 22:44 19.12.2021
6394 Snow -3 985 88 1667 4.98 307 21:32 19.12.2021
6395 Clouds -3 985 88 1667 4.98 307 20:44 19.12.2021
6396 Snow -3 984 88 7345 4.54 306 20:24 19.12.2021
6397 Clouds -2 984 89 7354 4.54 306 19:42 19.12.2021
6398 Clouds -2 983 96 737 3.76 287 18:50 19.12.2021
6399 Snow -1 983 89 4481 4.04 276 17:54 19.12.2021
6400 Snow -1 983 89 4484 4.04 276 17:35 19.12.2021
6401 Snow 0 983 89 480 4.11 279 16:45 19.12.2021
6402 Snow -1 983 95 840 4.08 277 15:56 19.12.2021
6403 Clouds 0 983 93 8923 4 280 15:25 19.12.2021
6404 Clouds 0 983 93 8923 4 280 15:25 19.12.2021
6405 Clouds 0 983 93 8912 4 280 14:45 19.12.2021
6406 Clouds 0 983 89 10000 3.78 288 13:35 19.12.2021
6407 Clouds 0 983 93 10000 3.66 292 12:59 19.12.2021
6408 Snow 0 983 97 2983 3.88 293 12:32 19.12.2021
6409 Snow 0 983 90 2977 3.88 293 11:38 19.12.2021
6410 Snow -1 983 99 34 3.44 285 10:50 19.12.2021
6411 Snow -1 984 99 150 2.94 264 10:22 19.12.2021
6412 Snow -1 985 91 550 3.06 238 08:51 19.12.2021
6413 Snow -2 986 91 176 3.91 221 06:51 19.12.2021
6414 Snow -3 995 96 141 5.52 197 02:30 19.12.2021
6415 Snow -3 998 96 141 5.09 196 00:55 19.12.2021
6416 Snow -3 1002 96 1243 3.99 201 23:21 18.12.2021
6417 Snow -3 1004 96 7338 3.24 206 22:28 18.12.2021
6418 Clouds -3 1004 96 7341 3.24 206 21:44 18.12.2021
6419 Clouds -3 1006 97 7940 2.62 202 21:26 18.12.2021
6420 Clouds -3 1006 97 7940 2.62 202 20:43 18.12.2021
6421 Clouds -3 1008 98 6783 1.87 218 19:40 18.12.2021
6422 Clouds -3 1010 98 7791 2.07 235 18:26 18.12.2021
6423 Snow -3 1010 98 7791 2.07 235 17:49 18.12.2021
6424 Clouds -3 1012 98 4061 1.98 252 16:50 18.12.2021
6425 Clouds -3 1013 98 6230 1.93 268 16:21 18.12.2021
6426 Clouds -2 1014 97 8421 2.23 270 15:24 18.12.2021
6427 Clouds -2 1014 96 10000 2.46 283 13:58 18.12.2021
6428 Clouds -1 1015 85 3748 2.75 301 11:59 18.12.2021
6429 Clouds -1 1016 85 6453 2.6 307 10:42 18.12.2021
6430 Clouds -1 1016 94 4851 2.67 316 09:32 18.12.2021
6431 Clouds -1 1017 86 10000 2.47 317 08:36 18.12.2021
6432 Clouds -1 1017 86 10000 2.47 317 07:41 18.12.2021
6433 Clouds 0 1016 90 9102 3.16 324 01:47 18.12.2021
6434 Clouds 0 1016 90 10000 2.49 321 23:56 17.12.2021
6435 Snow 0 1016 93 10000 2.47 331 23:35 17.12.2021
6436 Snow 0 1016 94 4455 2.74 335 21:50 17.12.2021
6437 Clouds 0 1015 96 4240 2.73 329 20:49 17.12.2021
6438 Clouds 0 1015 96 4156 3.02 327 19:58 17.12.2021
6439 Clouds 0 1015 97 2258 2.68 322 18:40 17.12.2021
6440 Clouds 0 1014 97 2633 2.65 316 18:19 17.12.2021
6441 Clouds 0 1013 97 1718 2.44 311 17:20 17.12.2021
6442 Clouds 0 1013 95 4971 2.3 316 16:28 17.12.2021
6443 Clouds 0 1013 95 4971 2.3 316 15:51 17.12.2021
6444 Clouds 0 1012 92 10000 2.18 319 14:43 17.12.2021
6445 Clouds 1 1012 94 10000 2.1 322 13:56 17.12.2021
6446 Clouds 1 1011 98 7202 2.5 310 12:38 17.12.2021
6447 Clouds 1 1010 100 3509 2.14 297 10:49 17.12.2021
6448 Clouds 1 1010 99 1925 2.2 291 09:51 17.12.2021
6449 Clouds 0 1010 99 853 2.05 288 08:58 17.12.2021
6450 Clouds 0 1010 99 397 1.75 292 08:19 17.12.2021
6451 Clouds 0 1008 99 170 2.19 323 04:58 17.12.2021
6452 Rain 1 1007 99 24 3.66 294 00:58 17.12.2021
6453 Rain 1 1006 98 131 4.67 290 22:50 16.12.2021
6454 Rain 1 1005 99 25 4.49 273 22:22 16.12.2021
6455 Rain 1 1005 99 25 4.49 273 21:44 16.12.2021
6456 Rain 1 1005 100 40 4.07 270 20:48 16.12.2021
6457 Rain 1 1005 99 89 4.15 270 20:21 16.12.2021
6458 Snow 0 1005 99 89 4.15 270 19:31 16.12.2021
6459 Snow 1 1005 99 29 4.66 255 18:33 16.12.2021
6460 Snow 1 1005 99 23 4.23 241 17:47 16.12.2021
6461 Snow 1 1006 99 23 3.49 225 16:37 16.12.2021
6462 Snow 1 1006 99 22 3.35 223 16:18 16.12.2021
6463 Snow 0 1008 99 34 3.47 228 13:47 16.12.2021
6464 Snow 1 1008 98 124 3.84 244 12:30 16.12.2021
6465 Clouds 0 1009 98 1546 4.38 246 11:19 16.12.2021
6466 Snow 0 1009 98 1546 4.38 246 10:44 16.12.2021
6467 Clouds 0 1010 97 10000 4.5 246 09:50 16.12.2021
6468 Snow -1 1011 92 530 5.71 238 07:18 16.12.2021
6469 Snow -1 1012 92 205 5.88 232 06:18 16.12.2021
6470 Clouds -1 1018 92 10000 4.23 219 23:59 15.12.2021
6471 Clouds -1 1018 92 10000 3.82 227 23:20 15.12.2021
6472 Clouds -2 1020 92 10000 3.81 240 22:21 15.12.2021
6473 Clouds -2 1020 92 10000 3.81 240 22:21 15.12.2021
6474 Clouds -2 1020 92 10000 3.81 240 21:45 15.12.2021
6475 Clouds -1 1020 97 10000 2.92 240 21:24 15.12.2021
6476 Clouds -2 1021 98 10000 2.58 249 19:54 15.12.2021
6477 Clouds -2 1021 91 10000 2.95 240 19:19 15.12.2021
6478 Clouds -2 1021 91 10000 2.76 235 18:24 15.12.2021
6479 Clouds -2 1021 91 10000 2.76 235 17:46 15.12.2021
6480 Clouds -2 1021 91 10000 2.49 236 17:21 15.12.2021
6481 Clouds -2 1021 91 10000 2.65 241 15:59 15.12.2021
6482 Clouds -2 1022 96 5021 2.8 248 15:41 15.12.2021
6483 Clouds -2 1022 96 5020 2.8 248 15:23 15.12.2021
6484 Clouds -2 1021 90 2473 2.91 249 13:48 15.12.2021
6485 Snow -2 1021 90 438 3.22 220 11:52 15.12.2021
6486 Clouds -2 1022 91 10000 3.03 231 10:23 15.12.2021
6487 Clouds -3 1022 91 7878 2.7 232 08:34 15.12.2021
6488 Clouds -3 1023 99 2626 1.72 229 05:59 15.12.2021
6489 Clouds -4 1024 99 6531 1.1 199 00:45 15.12.2021
6490 Clouds -4 1024 98 7355 1.23 187 23:41 14.12.2021
6491 Clouds -4 1024 97 10000 0.99 192 22:47 14.12.2021
6492 Clouds -4 1025 97 992 0.82 192 21:48 14.12.2021
6493 Clouds -4 1025 99 1741 1.08 162 20:24 14.12.2021
6494 Clouds -4 1025 99 1747 1.09 162 19:40 14.12.2021
6495 Clouds -4 1026 98 3190 1.13 149 18:42 14.12.2021
6496 Clouds -3 1026 98 3192 1.13 149 17:58 14.12.2021
6497 Clouds -3 1026 98 4017 1.35 135 16:58 14.12.2021
6498 Clouds -3 1026 98 4018 1.35 135 16:35 14.12.2021
6499 Clouds -3 1026 98 2016 1.34 106 14:39 14.12.2021
6500 Clouds -3 1026 98 4034 0.73 83 13:24 14.12.2021
6501 Clouds -3 1026 96 6626 0.86 93 11:57 14.12.2021
6502 Clouds -3 1026 96 4920 0.89 84 11:23 14.12.2021
6503 Clouds -3 1026 97 2181 1.01 98 09:56 14.12.2021
6504 Clouds -3 1027 97 4780 0.8 86 09:34 14.12.2021
6505 Clouds -3 1027 98 1077 0.69 72 08:23 14.12.2021
6506 Clouds -3 1027 98 1077 0.69 72 07:43 14.12.2021
6507 Snow -3 1026 92 166 0.37 109 02:25 14.12.2021
6508 Snow -2 1026 92 161 1.08 132 22:50 13.12.2021
6509 Snow -2 1026 92 119 0.63 142 21:52 13.12.2021
6510 Snow -2 1026 92 130 0.32 170 20:59 13.12.2021
6511 Snow -2 1026 92 130 0.32 170 20:34 13.12.2021
6512 Snow -2 1026 92 133 0.88 181 19:52 13.12.2021
6513 Snow -2 1026 98 139 1.81 175 17:56 13.12.2021
6514 Snow -2 1026 92 143 2.01 177 17:24 13.12.2021
6515 Snow -2 1026 92 162 2.35 175 15:51 13.12.2021
6516 Snow -2 1026 98 142 2.53 178 15:19 13.12.2021
6517 Snow -2 1026 91 165 2.4 177 13:39 13.12.2021
6518 Snow -3 1026 97 242 2.71 179 12:46 13.12.2021
6519 Snow -3 1026 97 253 2.77 178 12:46 13.12.2021
6520 Snow -3 1026 98 152 2.92 177 11:54 13.12.2021
6521 Snow -3 1026 98 132 2.99 175 11:35 13.12.2021
6522 Snow -3 1026 98 132 2.99 175 10:44 13.12.2021
6523 Snow -3 1027 93 1975 3.73 170 09:29 13.12.2021
6524 Clouds -3 1027 93 10000 3.55 166 07:48 13.12.2021
6525 Clouds -4 1027 93 10000 3.41 158 05:35 13.12.2021
6526 Snow -4 1028 91 10000 3.56 151 03:26 13.12.2021
6527 Clouds -4 1031 95 10000 2.94 145 22:23 12.12.2021
6528 Clouds -3 1031 95 10000 2.94 145 21:40 12.12.2021
6529 Clouds -3 1031 97 10000 2.77 144 19:57 12.12.2021
6530 Clouds -4 1032 96 10000 2.76 141 18:36 12.12.2021
6531 Clouds -4 1032 96 10000 2.76 141 18:36 12.12.2021
6532 Clouds -5 1032 96 10000 2.92 145 17:38 12.12.2021
6533 Clouds -5 1033 97 10000 2.95 143 16:28 12.12.2021
6534 Clouds -6 1033 97 10000 2.95 143 15:46 12.12.2021
6535 Clouds -6 1033 96 10000 3.23 148 15:25 12.12.2021
6536 Clouds -6 1033 96 10000 3.23 148 14:34 12.12.2021
6537 Clouds -7 1032 95 10000 3.4 138 13:26 12.12.2021
6538 Clouds -7 1032 90 10000 3.5 143 12:30 12.12.2021
6539 Clouds -8 1032 95 10000 3.5 143 11:44 12.12.2021
6540 Clouds -8 1032 95 10000 3.6 145 11:22 12.12.2021
6541 Clouds -8 1033 90 10000 3.48 148 10:28 12.12.2021
6542 Clouds -9 1033 90 10000 3.48 148 09:38 12.12.2021
6543 Clouds -10 1033 90 10000 3.69 138 08:33 12.12.2021
6544 Clouds -10 1033 93 10000 3.48 133 06:19 12.12.2021
6545 Clouds -10 1033 93 10000 3.64 125 04:56 12.12.2021
6546 Clouds -11 1034 90 10000 3.63 120 03:57 12.12.2021
6547 Clouds -12 1035 89 10000 3.58 112 23:47 11.12.2021
6548 Clouds -13 1035 92 10000 3.34 122 22:23 11.12.2021
6549 Clouds -13 1035 92 10000 3.34 122 21:52 11.12.2021
6550 Clouds -13 1035 92 10000 3.72 115 21:18 11.12.2021
6551 Clouds -14 1035 93 10000 3.45 115 19:31 11.12.2021
6552 Clouds -15 1035 93 10000 3.13 112 18:53 11.12.2021
6553 Clouds -15 1035 93 10000 3.31 111 18:26 11.12.2021
6554 Clouds -15 1035 91 10000 3.26 108 17:24 11.12.2021
6555 Clouds -15 1035 94 10000 2.88 101 15:55 11.12.2021
6556 Clouds -15 1035 94 10000 2.88 101 15:35 11.12.2021
6557 Clouds -13 1034 89 10000 3.18 108 13:21 11.12.2021
6558 Clouds -14 1034 90 10000 3.2 113 11:46 11.12.2021
6559 Clouds -15 1035 90 10000 3.44 113 09:57 11.12.2021
6560 Clouds -16 1035 89 10000 3.44 113 09:34 11.12.2021
6561 Clouds -17 1035 91 10000 3.42 104 02:41 11.12.2021
6562 Clouds -15 1035 92 10000 3.35 104 00:42 11.12.2021
6563 Clouds -15 1035 92 10000 3.6 105 23:24 10.12.2021
6564 Clear -15 1035 92 10000 3.63 103 22:26 10.12.2021
6565 Clear -15 1035 91 10000 3.63 103 21:37 10.12.2021
6566 Clear -14 1034 87 10000 3.52 106 19:23 10.12.2021
6567 Clear -13 1034 87 10000 3.49 107 18:57 10.12.2021
6568 Clear -14 1034 87 10000 3.19 99 17:23 10.12.2021
6569 Clear -13 1034 87 10000 3.19 99 16:32 10.12.2021
6570 Clear -13 1034 96 10000 2.14 93 15:42 10.12.2021
6571 Clear -13 1034 96 10000 2.14 93 15:23 10.12.2021
6572 Clear -12 1034 94 10000 2.22 88 13:53 10.12.2021
6573 Clear -12 1033 86 10000 2.84 96 13:31 10.12.2021
6574 Clear -11 1033 87 10000 2.8 96 12:51 10.12.2021
6575 Clear -12 1033 90 10000 2.97 99 11:34 10.12.2021
6576 Clear -12 1033 90 10000 3.13 100 10:55 10.12.2021
6577 Clear -13 1034 88 10000 2.95 97 09:33 10.12.2021
6578 Clear -15 1033 96 10000 2.02 80 07:24 10.12.2021
6579 Clouds -16 1032 96 10000 1.99 93 04:32 10.12.2021
6580 Clouds -15 1032 97 10000 1.58 78 02:29 10.12.2021
6581 Clear -15 1032 97 10000 1.46 63 23:39 09.12.2021
6582 Clear -14 1031 96 10000 1.84 50 22:41 09.12.2021
6583 Clear -14 1031 96 10000 1.85 43 22:21 09.12.2021
6584 Clear -14 1031 97 10000 1.7 21 21:38 09.12.2021
6585 Clear -13 1031 97 10000 1.7 21 20:34 09.12.2021
6586 Clear -13 1030 96 10000 2.04 28 19:38 09.12.2021
6587 Clear -12 1030 96 10000 2.04 28 19:19 09.12.2021
6588 Clear -13 1030 96 10000 2.23 23 18:18 09.12.2021
6589 Clear -13 1030 96 10000 2.23 23 17:47 09.12.2021
6590 Clear -12 1029 96 10000 1.97 21 17:24 09.12.2021
6591 Clear -11 1029 95 10000 2.1 16 16:25 09.12.2021
6592 Clear -10 1028 95 10000 1.83 13 14:59 09.12.2021
6593 Clear -9 1027 92 10000 2.56 12 13:52 09.12.2021
6594 Clear -8 1026 89 10000 3.12 15 12:48 09.12.2021
6595 Clear -8 1026 86 10000 3.28 16 11:33 09.12.2021
6596 Clear -9 1026 89 10000 3.35 18 10:20 09.12.2021
6597 Clouds -10 1025 92 10000 2.75 17 06:59 09.12.2021
6598 Clouds -9 1023 90 10000 3.95 18 03:56 09.12.2021
6599 Clouds -9 1023 90 10000 3.59 21 00:25 09.12.2021
6600 Snow -9 1023 90 10000 3.59 21 23:37 08.12.2021
6601 Clouds -9 1023 90 10000 3.81 13 22:57 08.12.2021
6602 Snow -9 1023 91 10000 3.9 14 22:25 08.12.2021
6603 Snow -9 1023 91 10000 3.9 14 21:33 08.12.2021
6604 Snow -8 1023 91 10000 3.93 11 20:48 08.12.2021
6605 Clouds -9 1023 92 10000 3.67 12 19:56 08.12.2021
6606 Clouds -9 1023 92 10000 3.43 16 19:20 08.12.2021
6607 Snow -10 1023 93 10000 3.31 10 18:22 08.12.2021
6608 Clouds -9 1023 93 10000 3.43 9 16:53 08.12.2021
6609 Clouds -9 1023 93 10000 3.48 6 15:42 08.12.2021
6610 Snow -7 1022 93 10000 3.51 4 15:22 08.12.2021
6611 Clouds -7 1022 92 10000 3.22 357 13:26 08.12.2021
6612 Clouds -7 1021 92 10000 3.41 358 10:45 08.12.2021
6613 Clouds -7 1021 92 10000 3.41 358 10:45 08.12.2021
6614 Clouds -7 1021 93 10000 3.49 356 09:58 08.12.2021
6615 Clouds -5 1021 94 10000 3.18 352 08:54 08.12.2021
6616 Clouds -5 1020 95 10000 3.06 342 06:36 08.12.2021
6617 Snow -2 1016 92 10000 3.07 328 01:20 08.12.2021
6618 Clouds -1 1015 92 10000 2.88 325 23:23 07.12.2021
6619 Snow 0 1014 92 2241 2.43 317 21:26 07.12.2021
6620 Clouds -1 1013 99 55 1.63 289 20:26 07.12.2021
6621 Clouds -1 1013 99 55 1.63 289 20:26 07.12.2021
6622 Snow 1 1012 92 23 1.48 206 19:23 07.12.2021
6623 Snow 1 1012 92 23 1.48 206 18:32 07.12.2021
6624 Snow 0 1012 92 22 1.99 175 17:27 07.12.2021
6625 Snow 0 1012 91 22 1.99 175 16:56 07.12.2021
6626 Snow 0 1012 91 23 2.31 171 16:26 07.12.2021
6627 Snow 0 1012 91 23 2.92 168 14:38 07.12.2021
6628 Snow -1 1012 91 36 3.48 158 13:45 07.12.2021
6629 Snow -1 1011 90 147 4.17 148 12:27 07.12.2021
6630 Snow -2 1012 90 137 4.59 148 11:23 07.12.2021
6631 Snow -2 1012 97 145 5.08 149 09:40 07.12.2021
6632 Snow -2 1013 91 139 5.99 140 07:52 07.12.2021
6633 Snow -3 1015 90 137 6.17 129 05:54 07.12.2021
6634 Snow -3 1015 90 134 5.95 127 05:26 07.12.2021
6635 Snow -3 1015 90 134 5.95 127 05:26 07.12.2021
6636 Snow -4 1020 88 10000 4.72 128 23:38 06.12.2021
6637 Clouds -4 1020 87 10000 4.19 126 22:41 06.12.2021
6638 Clouds -4 1021 87 10000 4 128 22:18 06.12.2021
6639 Clouds -4 1021 87 10000 4 128 21:36 06.12.2021
6640 Snow -4 1021 87 10000 4.28 129 20:33 06.12.2021
6641 Clouds -4 1021 88 10000 4.3 128 20:33 06.12.2021
6642 Clouds -3 1022 89 10000 3.94 125 19:25 06.12.2021
6643 Clouds -3 1022 89 10000 3.85 122 18:55 06.12.2021
6644 Clouds -4 1022 89 10000 3.67 124 17:55 06.12.2021
6645 Clouds -4 1022 90 10000 3.41 124 17:34 06.12.2021
6646 Clouds -4 1022 90 10000 3.41 124 17:34 06.12.2021
6647 Snow -4 1022 92 10000 3.26 118 15:52 06.12.2021
6648 Clouds -4 1022 89 10000 3.33 116 14:51 06.12.2021
6649 Snow -4 1022 89 10000 3.01 110 13:36 06.12.2021
6650 Clouds -4 1022 89 10000 2.87 108 12:39 06.12.2021
6651 Clouds -4 1022